# Wetter Temperatur Luftdruck Luftfeuchtigkeit Sichtweite Windgeschwindigkeit Windrichtung Zeit
1 Clouds 21 1015 88 10000 2.06 200 08:27 02.10.2022
2 Clouds 21 1016 86 10000 2.06 180 05:19 02.10.2022
3 Rain 22 1016 75 10000 3.6 180 00:57 02.10.2022
4 Clouds 22 1016 75 10000 3.6 180 00:37 02.10.2022
5 Clouds 23 1016 73 10000 3.6 160 23:28 01.10.2022
6 Clouds 23 1015 71 10000 5.14 170 21:39 01.10.2022
7 Clouds 22 1016 73 10000 5.14 160 18:54 01.10.2022
8 Clouds 23 1017 67 10000 3.09 110 17:28 01.10.2022
9 Clouds 21 1018 75 10000 2.57 70 14:50 01.10.2022
10 Clouds 20 1018 80 10000 2.57 70 13:52 01.10.2022
11 Clouds 20 1017 85 10000 2.57 50 12:34 01.10.2022
12 Rain 20 1017 81 10000 1.54 180 11:22 01.10.2022
13 Rain 20 1016 85 10000 2.57 140 10:51 01.10.2022
14 Clouds 20 1016 85 10000 2.57 140 10:29 01.10.2022
15 Clouds 20 1017 79 10000 5.14 200 09:21 01.10.2022
16 Clouds 20 1017 79 10000 5.66 190 08:26 01.10.2022
17 Clouds 20 1021 79 10000 3.6 90 03:47 01.10.2022
18 Clouds 20 1021 79 10000 3.6 90 03:18 01.10.2022
19 Clouds 21 1020 78 10000 4.12 100 23:21 30.09.2022
20 Clouds 21 1020 78 10000 5.66 100 22:18 30.09.2022
21 Clouds 21 1020 78 10000 5.14 110 20:57 30.09.2022
22 Clouds 21 1020 77 10000 5.14 110 20:20 30.09.2022
23 Clouds 21 1021 78 8000 6.17 120 18:32 30.09.2022
24 Clouds 20 1022 82 6000 7.72 110 16:55 30.09.2022
25 Clouds 20 1022 84 8000 4.12 90 14:49 30.09.2022
26 Clouds 19 1021 90 7000 3.09 70 12:51 30.09.2022
27 Mist 19 1021 90 9000 2.06 60 11:56 30.09.2022
28 Clouds 18 1020 94 6000 2.06 110 09:25 30.09.2022
29 Clouds 18 1020 94 6000 2.06 150 08:19 30.09.2022
30 Mist 18 1021 98 5000 5.66 170 04:21 30.09.2022
31 Mist 18 1021 98 4000 6.17 170 02:21 30.09.2022
32 Mist 18 1020 98 2000 9.26 180 22:23 29.09.2022
33 Mist 19 1019 92 2500 7.2 190 21:25 29.09.2022
34 Mist 19 1019 92 2500 5.66 180 19:58 29.09.2022
35 Clouds 19 1019 92 6000 4.63 190 18:30 29.09.2022
36 Clouds 19 1019 92 6000 4.63 190 18:30 29.09.2022
37 Mist 19 1020 94 4000 6.69 160 16:29 29.09.2022
38 Mist 20 1020 88 4000 6.17 170 15:37 29.09.2022
39 Mist 19 1020 92 4000 7.72 180 14:59 29.09.2022
40 Mist 19 1020 97 4000 7.72 170 12:54 29.09.2022
41 Clouds 21 1017 88 8000 7.2 160 08:51 29.09.2022
42 Rain 21 1019 88 7000 7.72 160 05:35 29.09.2022
43 Mist 21 1018 94 5000 6.69 160 02:41 29.09.2022
44 Rain 21 1016 92 5000 2.57 290 23:29 28.09.2022
45 Rain 21 1016 94 6000 2.57 280 22:24 28.09.2022
46 Clouds 21 1015 92 6000 3.09 270 21:28 28.09.2022
47 Clouds 21 1015 92 6000 3.09 270 19:58 28.09.2022
48 Mist 22 1017 88 6000 2.57 310 17:19 28.09.2022
49 Clouds 21 1018 92 8000 2.57 280 14:45 28.09.2022
50 Clouds 21 1018 92 8000 2.57 280 14:45 28.09.2022
51 Clouds 21 1017 94 7000 2.06 340 12:40 28.09.2022
52 Clouds 21 1015 92 7000 2.57 270 10:24 28.09.2022
53 Clouds 22 1014 86 10000 3.6 290 08:25 28.09.2022
54 Rain 23 1015 83 10000 4.12 270 06:42 28.09.2022
55 Clouds 23 1015 78 10000 3.09 260 01:51 28.09.2022
56 Rain 23 1015 78 10000 3.09 260 01:27 28.09.2022
57 Rain 24 1013 74 10000 5.66 130 22:50 27.09.2022
58 Rain 24 1013 69 10000 6.17 160 21:24 27.09.2022
59 Clouds 25 1013 71 10000 7.2 160 20:37 27.09.2022
60 Clouds 26 1013 64 10000 6.17 160 19:47 27.09.2022
61 Clouds 26 1014 73 10000 5.66 160 18:25 27.09.2022
62 Clouds 25 1015 69 10000 5.14 90 17:42 27.09.2022
63 Clouds 24 1016 74 10000 7.72 180 15:27 27.09.2022
64 Clouds 24 1015 78 10000 8.23 180 14:41 27.09.2022
65 Clouds 22 1013 89 10000 4.63 330 12:40 27.09.2022
66 Clouds 22 1013 89 10000 4.63 330 12:40 27.09.2022
67 Mist 21 1012 94 5000 4.12 320 10:53 27.09.2022
68 Mist 20 1015 98 4000 4.63 360 08:46 27.09.2022
69 Mist 21 1017 94 4000 4.12 340 06:27 27.09.2022
70 Mist 22 1018 88 9000 4.63 320 01:56 27.09.2022
71 Mist 22 1018 88 9000 4.63 320 01:27 27.09.2022
72 Clouds 22 1017 85 9000 2.57 140 23:25 26.09.2022
73 Clouds 22 1016 87 9000 4.12 120 22:24 26.09.2022
74 Mist 23 1016 78 9000 6.69 170 20:40 26.09.2022
75 Clouds 23 1016 80 10000 7.72 180 19:30 26.09.2022
76 Clouds 26 1017 62 10000 6.69 170 18:31 26.09.2022
77 Clouds 23 1018 71 10000 5.14 150 15:55 26.09.2022
78 Clouds 23 1018 72 10000 4.63 240 14:24 26.09.2022
79 Clouds 20 1016 85 10000 2.57 30 11:29 26.09.2022
80 Clouds 20 1015 85 10000 3.6 40 10:38 26.09.2022
81 Clouds 20 1015 85 10000 3.6 40 10:19 26.09.2022
82 Clouds 20 1015 83 10000 3.09 40 09:53 26.09.2022
83 Clouds 20 1015 85 10000 3.09 40 09:23 26.09.2022
84 Clouds 20 1017 83 10000 3.09 150 07:30 26.09.2022
85 Clouds 22 1018 70 10000 6.17 80 02:48 26.09.2022
86 Clouds 22 1017 75 10000 4.63 140 23:46 25.09.2022
87 Clouds 22 1017 71 10000 6.69 150 21:54 25.09.2022
88 Clouds 22 1017 70 10000 6.69 150 21:34 25.09.2022
89 Clouds 23 1017 67 10000 6.69 140 20:47 25.09.2022
90 Clouds 23 1018 64 10000 7.2 150 19:43 25.09.2022
91 Clouds 23 1018 67 10000 6.69 140 18:40 25.09.2022
92 Clouds 25 1019 61 10000 6.69 140 18:20 25.09.2022
93 Clouds 24 1021 61 10000 5.14 160 16:35 25.09.2022
94 Clouds 22 1021 66 10000 4.63 60 15:44 25.09.2022
95 Clouds 21 1021 71 10000 4.63 70 14:22 25.09.2022
96 Clouds 20 1020 75 10000 1.54 60 12:51 25.09.2022
97 Clouds 19 1019 77 10000 2.57 50 10:29 25.09.2022
98 Clouds 20 1019 73 10000 3.09 50 08:24 25.09.2022
99 Clouds 20 1020 71 10000 1.54 170 05:38 25.09.2022
100 Clear 20 1020 67 10000 4.63 200 01:32 25.09.2022
101 Clear 21 1019 59 10000 7.72 190 22:35 24.09.2022
102 Clouds 22 1018 56 10000 6.17 180 20:55 24.09.2022
103 Clouds 22 1019 57 10000 8.23 180 19:22 24.09.2022
104 Clouds 22 1020 56 10000 3.6 0 17:19 24.09.2022
105 Clouds 22 1021 54 10000 3.6 100 16:24 24.09.2022
106 Clouds 21 1021 60 10000 2.57 30 15:20 24.09.2022
107 Clouds 20 1020 64 10000 3.09 330 13:25 24.09.2022
108 Clouds 19 1020 75 10000 3.09 310 12:49 24.09.2022
109 Clouds 18 1018 75 10000 2.57 310 10:54 24.09.2022
110 Clouds 19 1018 68 10000 2.06 10 09:40 24.09.2022
111 Clouds 19 1018 68 10000 2.57 330 08:43 24.09.2022
112 Clouds 19 1018 68 10000 2.57 250 07:24 24.09.2022
113 Clouds 20 1019 66 10000 4.12 330 04:40 24.09.2022
114 Clouds 20 1018 65 10000 4.12 250 02:19 24.09.2022
115 Clouds 19 1015 70 10000 7.2 230 22:29 23.09.2022
116 Clouds 20 1014 68 10000 7.2 220 21:28 23.09.2022
117 Clouds 20 1013 66 10000 8.75 230 20:56 23.09.2022
118 Clouds 20 1013 66 10000 8.75 230 20:20 23.09.2022
119 Clouds 22 1014 64 10000 7.2 220 18:27 23.09.2022
120 Clouds 23 1012 79 10000 5.14 320 13:45 23.09.2022
121 Clouds 22 1008 88 10000 2.57 330 10:45 23.09.2022
122 Clouds 22 1008 88 10000 3.09 320 09:29 23.09.2022
123 Clouds 22 1008 88 10000 2.06 30 05:20 23.09.2022
124 Clouds 22 1009 86 7000 2.57 100 00:31 23.09.2022
125 Rain 22 1009 87 6000 3.6 260 23:21 22.09.2022
126 Clouds 22 1008 87 9000 5.66 190 22:26 22.09.2022
127 Clouds 23 1007 80 8000 9.26 180 20:46 22.09.2022
128 Clouds 23 1007 81 7000 9.26 180 19:37 22.09.2022
129 Rain 25 1009 74 7000 5.14 160 16:57 22.09.2022
130 Mist 21 1008 92 7000 1.54 250 12:20 22.09.2022
131 Clouds 21 1008 94 6000 4.12 350 10:32 22.09.2022
132 Clouds 21 1009 94 10000 2.06 70 08:52 22.09.2022
133 Clouds 21 1010 86 10000 3.6 270 06:45 22.09.2022
134 Clouds 21 1011 86 10000 4.12 100 02:52 22.09.2022
135 Clouds 22 1011 82 10000 5.14 170 23:31 21.09.2022
136 Clouds 22 1010 81 10000 6.17 150 21:50 21.09.2022
137 Clouds 22 1009 79 10000 5.66 150 20:18 21.09.2022
138 Rain 24 1013 70 10000 5.14 120 17:49 21.09.2022
139 Clouds 24 1013 69 10000 4.12 130 16:51 21.09.2022
140 Clouds 24 1013 71 10000 2.57 300 14:37 21.09.2022
141 Rain 22 1013 82 10000 3.09 320 12:54 21.09.2022
142 Clear 22 1012 81 10000 2.57 330 11:29 21.09.2022
143 Clouds 22 1012 80 10000 3.09 300 10:29 21.09.2022
144 Clouds 21 1012 83 10000 3.6 250 09:21 21.09.2022
145 Clouds 22 1012 83 10000 3.09 280 07:57 21.09.2022
146 Clear 22 1011 81 10000 5.66 270 02:49 21.09.2022
147 Clear 22 1011 81 10000 5.66 270 02:28 21.09.2022
148 Clear 23 1009 74 10000 5.66 170 00:44 21.09.2022
149 Clear 24 1009 74 10000 4.63 180 23:18 20.09.2022
150 Clear 25 1008 67 10000 4.12 150 21:21 20.09.2022
151 Clear 24 1008 65 10000 2.57 10 19:43 20.09.2022
152 Clouds 23 1012 66 10000 3.09 100 16:41 20.09.2022
153 Clear 22 1014 70 10000 4.63 230 14:51 20.09.2022
154 Clear 21 1014 76 10000 2.57 220 13:52 20.09.2022
155 Clouds 18 1011 81 10000 2.06 50 10:41 20.09.2022
156 Clear 19 1011 81 10000 3.09 110 08:29 20.09.2022
157 Clear 19 1013 82 10000 3.09 360 06:22 20.09.2022
158 Clear 20 1013 77 10000 5.14 100 04:29 20.09.2022
159 Clear 22 1013 72 10000 5.14 150 23:49 19.09.2022
160 Clear 22 1013 70 10000 6.17 160 22:28 19.09.2022
161 Clear 23 1013 65 10000 6.17 150 20:59 19.09.2022
162 Clear 23 1013 66 10000 6.17 150 20:39 19.09.2022
163 Clear 23 1015 62 10000 6.69 160 18:41 19.09.2022
164 Clouds 22 1017 65 10000 3.09 80 15:56 19.09.2022
165 Clouds 19 1019 80 10000 2.06 330 13:44 19.09.2022
166 Clouds 17 1018 88 10000 2.06 320 11:33 19.09.2022
167 Clear 17 1017 84 10000 1.54 80 09:33 19.09.2022
168 Clear 18 1018 82 10000 2.57 330 08:20 19.09.2022
169 Clouds 20 1019 75 10000 4.12 130 02:46 19.09.2022
170 Clear 20 1018 67 10000 5.14 160 23:26 18.09.2022
171 Clear 21 1017 61 10000 6.17 160 21:53 18.09.2022
172 Clouds 22 1018 57 10000 6.69 140 20:41 18.09.2022
173 Clouds 23 1019 51 10000 4.63 160 19:26 18.09.2022
174 Clouds 21 1020 63 10000 3.09 350 17:49 18.09.2022
175 Clouds 20 1021 72 10000 3.6 350 16:43 18.09.2022
176 Mist 18 1022 85 7000 2.57 320 14:39 18.09.2022
177 Mist 16 1022 92 5000 2.06 320 12:58 18.09.2022
178 Mist 17 1020 88 4500 1.54 300 11:53 18.09.2022
179 Clouds 18 1021 82 10000 2.57 320 06:57 18.09.2022
180 Clouds 19 1021 74 10000 3.09 200 01:41 18.09.2022
181 Clouds 19 1021 74 10000 3.09 200 01:19 18.09.2022
182 Clouds 21 1020 63 10000 5.14 160 22:55 17.09.2022
183 Clouds 22 1020 53 10000 5.66 200 20:51 17.09.2022
184 Clouds 22 1021 60 10000 4.63 190 19:36 17.09.2022
185 Clouds 21 1022 71 10000 4.12 240 17:36 17.09.2022
186 Clouds 19 1023 84 10000 4.63 330 14:22 17.09.2022
187 Clouds 17 1021 92 10000 2.57 330 12:46 17.09.2022
188 Mist 17 1021 94 5000 2.57 290 10:48 17.09.2022
189 Clouds 17 1021 94 6000 2.57 330 06:35 17.09.2022
190 Mist 17 1021 94 8000 3.09 320 05:49 17.09.2022
191 Mist 18 1021 91 9000 3.09 160 23:39 16.09.2022
192 Mist 18 1020 94 4500 4.63 130 21:57 16.09.2022
193 Mist 18 1019 94 4000 6.69 150 20:44 16.09.2022
194 Mist 18 1021 92 5000 5.66 160 18:43 16.09.2022
195 Mist 17 1021 96 5000 5.14 190 16:22 16.09.2022
196 Mist 18 1021 97 4000 4.12 150 14:51 16.09.2022
197 Clouds 19 1019 91 7000 4.63 130 12:52 16.09.2022
198 Mist 19 1017 94 4000 3.09 140 09:55 16.09.2022
199 Clouds 19 1018 94 10000 2.57 210 07:23 16.09.2022
200 Clouds 19 1018 94 10000 2.57 200 06:48 16.09.2022
201 Mist 19 1019 92 8000 3.09 200 05:55 16.09.2022
202 Clouds 20 1019 94 6000 3.6 200 01:45 16.09.2022
203 Mist 20 1017 94 4000 4.12 140 21:44 15.09.2022
204 Mist 20 1017 92 5000 4.63 160 20:37 15.09.2022
205 Mist 20 1017 93 5000 5.66 160 19:24 15.09.2022
206 Haze 22 1018 86 6000 3.09 160 17:40 15.09.2022
207 Haze 22 1018 86 6000 3.09 160 17:22 15.09.2022
208 Clouds 21 1018 91 6000 1.54 350 15:38 15.09.2022
209 Clouds 21 1018 94 6000 2.57 290 12:50 15.09.2022
210 Clouds 21 1017 90 6000 2.06 300 11:48 15.09.2022
211 Clouds 21 1017 90 10000 3.09 180 09:44 15.09.2022
212 Clouds 22 1017 80 10000 2.57 250 06:45 15.09.2022
213 Clouds 21 1018 85 10000 5.66 190 03:46 15.09.2022
214 Clouds 22 1015 89 10000 2.06 150 22:57 14.09.2022
215 Clouds 23 1014 85 10000 3.6 10 20:31 14.09.2022
216 Clouds 23 1015 83 10000 3.09 40 19:32 14.09.2022
217 Clouds 23 1017 82 10000 6.17 240 17:37 14.09.2022
218 Clouds 23 1017 79 10000 6.69 200 16:36 14.09.2022
219 Clouds 23 1015 84 10000 5.14 250 14:51 14.09.2022
220 Clear 23 1013 83 10000 4.12 250 12:40 14.09.2022
221 Clear 22 1011 85 10000 3.6 110 09:52 14.09.2022
222 Clear 22 1011 87 10000 2.06 250 08:28 14.09.2022
223 Clouds 23 1011 85 10000 4.12 120 06:50 14.09.2022
224 Clouds 23 1011 85 10000 4.12 120 06:29 14.09.2022
225 Clouds 24 1011 80 10000 3.09 250 02:43 14.09.2022
226 Clouds 24 1010 82 10000 3.09 170 01:36 14.09.2022
227 Clouds 24 1009 80 10000 4.12 160 00:53 14.09.2022
228 Clouds 24 1009 78 10000 3.09 120 23:55 13.09.2022
229 Clouds 24 1009 78 10000 3.09 120 23:36 13.09.2022
230 Clouds 24 1009 78 10000 3.09 120 23:18 13.09.2022
231 Clouds 26 1008 70 10000 2.57 300 22:28 13.09.2022
232 Clouds 26 1008 66 10000 4.12 300 21:38 13.09.2022
233 Clear 23 1012 74 10000 4.63 110 18:56 13.09.2022
234 Clouds 26 1015 64 10000 7.72 190 16:42 13.09.2022
235 Clouds 22 1014 78 10000 3.6 240 15:31 13.09.2022
236 Clouds 21 1013 87 10000 1.54 30 13:40 13.09.2022
237 Clouds 19 1013 94 10000 1.54 300 10:30 13.09.2022
238 Clouds 19 1013 94 9000 1.54 150 08:18 13.09.2022
239 Rain 20 1018 83 6000 3.6 80 02:27 13.09.2022
240 Clouds 21 1016 80 10000 5.14 150 23:22 12.09.2022
241 Clouds 21 1014 80 10000 5.14 140 22:44 12.09.2022
242 Clouds 22 1015 78 10000 5.14 130 21:35 12.09.2022
243 Clouds 22 1015 76 10000 5.14 150 20:22 12.09.2022
244 Clouds 21 1017 77 10000 4.63 130 18:40 12.09.2022
245 Clouds 21 1019 74 10000 4.12 130 15:53 12.09.2022
246 Clouds 20 1018 78 10000 2.06 60 12:35 12.09.2022
247 Clouds 19 1018 84 10000 1.54 10 10:34 12.09.2022
248 Clouds 19 1019 84 10000 1.54 350 08:58 12.09.2022
249 Clouds 20 1020 81 10000 2.57 10 04:39 12.09.2022
250 Clouds 20 1021 74 10000 1.54 190 02:25 12.09.2022
251 Mist 19 1019 76 9000 4.63 180 22:51 11.09.2022
252 Mist 19 1018 84 8000 5.14 170 21:40 11.09.2022
253 Clouds 20 1018 76 7000 4.63 190 20:44 11.09.2022
254 Clouds 21 1019 74 10000 5.66 200 19:45 11.09.2022
255 Clouds 21 1019 74 10000 5.66 200 19:21 11.09.2022
256 Clouds 21 1020 73 10000 4.12 180 17:57 11.09.2022
257 Clouds 22 1021 64 10000 5.14 190 16:23 11.09.2022
258 Clouds 21 1021 66 10000 5.14 260 14:18 11.09.2022
259 Clouds 19 1020 80 8000 4.12 220 12:32 11.09.2022
260 Clouds 19 1018 92 6000 5.14 200 08:27 11.09.2022
261 Clouds 20 1018 89 6000 7.2 190 06:44 11.09.2022
262 Clouds 23 1015 78 9000 10.8 230 00:49 11.09.2022
263 Mist 25 1013 74 10000 10.29 220 22:54 10.09.2022
264 Clear 31 1011 48 10000 9.26 210 20:55 10.09.2022
265 Clear 33 1011 33 10000 11.83 230 19:46 10.09.2022
266 Clear 33 1011 34 10000 11.83 230 19:28 10.09.2022
267 Clear 34 1012 33 10000 7.2 290 18:22 10.09.2022
268 Clear 29 1013 52 10000 4.63 10 15:49 10.09.2022
269 Clear 26 1012 61 10000 4.63 10 14:40 10.09.2022
270 Clear 23 1012 74 10000 3.6 360 12:52 10.09.2022
271 Clear 23 1010 88 10000 4.63 30 10:46 10.09.2022
272 Clear 23 1012 75 10000 3.6 330 09:28 10.09.2022
273 Clear 23 1011 83 10000 3.09 340 08:28 10.09.2022
274 Clear 27 1011 50 10000 2.06 290 06:41 10.09.2022
275 Clear 28 1011 54 10000 1.54 200 00:19 10.09.2022
276 Clear 26 1011 64 10000 1.54 160 23:32 09.09.2022
277 Clear 30 1010 48 10000 3.6 80 21:50 09.09.2022
278 Clear 30 1011 51 10000 4.12 130 20:41 09.09.2022
279 Clear 33 1011 34 10000 4.12 120 19:24 09.09.2022
280 Clear 32 1012 36 10000 4.12 50 18:46 09.09.2022
281 Clear 31 1015 43 10000 3.6 360 16:23 09.09.2022
282 Clear 23 1015 83 10000 3.6 340 13:49 09.09.2022
283 Clear 22 1014 86 10000 3.6 330 12:30 09.09.2022
284 Clear 21 1012 85 10000 3.6 340 09:53 09.09.2022
285 Clear 24 1013 80 10000 3.6 320 04:57 09.09.2022
286 Clear 24 1013 75 10000 1.03 230 03:20 09.09.2022
287 Clear 28 1011 52 10000 3.6 170 21:52 08.09.2022
288 Clear 29 1011 48 10000 2.57 60 20:51 08.09.2022
289 Clear 29 1011 49 10000 2.57 60 20:31 08.09.2022
290 Clear 29 1012 44 10000 3.09 30 19:56 08.09.2022
291 Clear 30 1014 42 10000 2.57 20 18:22 08.09.2022
292 Clear 27 1016 46 10000 3.6 360 16:19 08.09.2022
293 Clear 23 1015 63 10000 3.6 360 14:40 08.09.2022
294 Clear 21 1015 70 10000 3.6 350 13:27 08.09.2022
295 Clear 19 1014 76 10000 2.57 340 11:57 08.09.2022
296 Clear 19 1014 74 10000 2.57 320 10:52 08.09.2022
297 Clear 19 1014 74 10000 3.6 340 08:21 08.09.2022
298 Clear 20 1016 75 10000 1.54 130 06:42 08.09.2022
299 Clear 21 1018 73 10000 3.09 60 02:37 08.09.2022
300 Clear 21 1018 73 10000 3.09 60 02:18 08.09.2022
301 Clear 22 1018 63 10000 5.66 100 00:56 08.09.2022
302 Clear 23 1017 63 10000 5.66 110 22:54 07.09.2022
303 Clouds 23 1018 61 10000 5.14 170 21:42 07.09.2022
304 Clouds 24 1018 54 10000 5.14 160 20:49 07.09.2022
305 Clouds 24 1019 50 10000 4.12 150 19:42 07.09.2022
306 Clouds 24 1020 48 10000 5.14 150 18:27 07.09.2022
307 Clear 19 1023 69 10000 3.09 360 14:45 07.09.2022
308 Clouds 17 1022 77 10000 2.06 10 10:49 07.09.2022
309 Clear 18 1022 75 10000 3.6 110 09:39 07.09.2022
310 Clear 18 1022 79 10000 4.12 130 07:23 07.09.2022
311 Rain 20 1024 73 10000 6.69 70 03:33 07.09.2022
312 Clouds 22 1023 65 10000 6.69 100 23:48 06.09.2022
313 Clouds 22 1023 63 10000 8.75 120 21:43 06.09.2022
314 Clouds 22 1023 63 10000 8.75 120 21:21 06.09.2022
315 Clouds 24 1025 49 10000 5.14 110 18:49 06.09.2022
316 Clouds 24 1025 49 10000 5.14 110 18:22 06.09.2022
317 Clouds 23 1027 64 10000 3.97 112 17:22 06.09.2022
318 Clouds 22 1027 58 10000 4.12 70 16:37 06.09.2022
319 Clouds 21 1027 63 10000 5.66 70 15:22 06.09.2022
320 Clouds 20 1027 65 10000 4.63 130 13:45 06.09.2022
321 Clouds 20 1027 65 10000 4.63 130 13:24 06.09.2022
322 Clouds 20 1026 65 10000 5.14 100 11:59 06.09.2022
323 Clouds 20 1025 68 10000 5.14 100 10:45 06.09.2022
324 Clouds 20 1025 68 10000 2.57 80 08:50 06.09.2022
325 Clouds 20 1025 68 10000 5.14 100 07:49 06.09.2022
326 Clouds 20 1027 71 10000 5.14 120 03:31 06.09.2022
327 Clouds 21 1024 70 10000 6.69 130 23:28 05.09.2022
328 Clouds 21 1023 70 10000 5.66 120 22:29 05.09.2022
329 Clouds 21 1023 64 10000 5.66 150 20:43 05.09.2022
330 Clouds 22 1023 62 10000 4.63 130 19:50 05.09.2022
331 Clouds 21 1024 73 10000 6.17 60 18:46 05.09.2022
332 Clouds 21 1024 73 10000 6.17 60 18:22 05.09.2022
333 Clouds 20 1026 78 8000 2.57 350 16:53 05.09.2022
334 Clouds 19 1026 85 9000 3.09 340 15:50 05.09.2022
335 Clouds 19 1026 82 10000 2.57 210 13:26 05.09.2022
336 Clouds 18 1025 86 10000 3.6 190 12:28 05.09.2022
337 Clouds 18 1024 84 10000 0.51 10 10:24 05.09.2022
338 Clouds 18 1025 90 9000 2.57 300 06:46 05.09.2022
339 Clouds 18 1025 86 6000 2.57 30 02:49 05.09.2022
340 Clouds 18 1024 85 10000 3.09 330 23:28 04.09.2022
341 Clouds 18 1024 88 10000 4.12 20 22:28 04.09.2022
342 Mist 18 1023 81 8000 3.09 70 21:34 04.09.2022
343 Clouds 18 1023 88 6000 2.06 350 19:39 04.09.2022
344 Mist 17 1024 86 5000 4.63 190 18:20 04.09.2022
345 Clouds 19 1024 76 7000 2.57 310 17:19 04.09.2022
346 Clouds 18 1024 81 6000 3.09 280 14:56 04.09.2022
347 Clouds 18 1024 82 6000 3.09 280 14:18 04.09.2022
348 Clouds 17 1023 84 7000 5.66 230 12:21 04.09.2022
349 Mist 18 1021 92 4000 6.17 210 10:51 04.09.2022
350 Mist 19 1020 92 4000 7.2 190 08:21 04.09.2022
351 Clouds 20 1020 92 6000 5.66 190 06:21 04.09.2022
352 Clouds 22 1018 81 10000 4.12 200 01:31 04.09.2022
353 Clouds 24 1016 62 10000 7.2 220 22:26 03.09.2022
354 Clouds 24 1016 64 10000 8.23 220 21:24 03.09.2022
355 Clouds 25 1016 57 10000 8.75 220 20:42 03.09.2022
356 Clouds 28 1017 51 10000 7.2 190 17:36 03.09.2022
357 Clear 27 1017 52 10000 5.14 260 16:34 03.09.2022
358 Clear 23 1016 71 10000 2.57 260 14:47 03.09.2022
359 Clear 23 1016 70 10000 2.57 260 14:26 03.09.2022
360 Clear 21 1016 80 10000 2.57 360 13:39 03.09.2022
361 Clear 19 1015 85 10000 2.57 330 11:24 03.09.2022
362 Clear 19 1015 79 10000 3.09 340 08:55 03.09.2022
363 Clear 19 1016 81 10000 2.57 340 06:59 03.09.2022
364 Clear 21 1016 79 10000 3.09 330 04:43 03.09.2022
365 Clear 24 1014 57 10000 5.14 200 00:48 03.09.2022
366 Clear 24 1014 54 10000 5.66 190 23:28 02.09.2022
367 Clear 27 1014 41 10000 4.12 80 21:46 02.09.2022
368 Clear 28 1014 38 10000 3.6 100 20:40 02.09.2022
369 Clear 29 1015 36 10000 3.09 60 19:47 02.09.2022
370 Clear 28 1016 36 10000 5.14 40 18:43 02.09.2022
371 Clear 29 1016 36 10000 5.14 40 18:24 02.09.2022
372 Clear 26 1018 43 10000 5.14 50 16:56 02.09.2022
373 Clear 26 1019 44 10000 5.14 50 16:22 02.09.2022
374 Clear 18 1018 80 10000 3.6 10 12:58 02.09.2022
375 Clear 17 1017 79 10000 1.03 320 10:37 02.09.2022
376 Clear 17 1016 82 10000 2.57 50 09:42 02.09.2022
377 Clear 18 1016 77 10000 3.09 40 08:43 02.09.2022
378 Clear 19 1017 77 10000 3.09 90 06:44 02.09.2022
379 Clear 19 1018 74 10000 3.6 100 05:32 02.09.2022
380 Clear 22 1017 70 10000 4.12 120 23:19 01.09.2022
381 Clear 23 1017 60 10000 6.69 150 21:47 01.09.2022
382 Clear 24 1018 56 10000 6.69 150 21:27 01.09.2022
383 Clear 23 1018 52 10000 5.66 150 20:52 01.09.2022
384 Clear 25 1019 44 10000 5.66 160 19:25 01.09.2022
385 Clear 23 1020 52 10000 3.09 130 18:18 01.09.2022
386 Clear 22 1022 50 10000 3.6 60 16:51 01.09.2022
387 Clear 19 1023 71 10000 3.09 360 14:52 01.09.2022
388 Clear 17 1023 74 10000 2.57 350 13:23 01.09.2022
389 Clear 17 1022 77 10000 2.06 10 12:50 01.09.2022
390 Clear 15 1022 80 10000 2.57 330 11:51 01.09.2022
391 Clear 16 1022 77 10000 2.57 330 11:19 01.09.2022
392 Clear 16 1021 77 10000 2.57 360 09:31 01.09.2022
393 Clear 17 1023 73 10000 2.57 40 06:34 01.09.2022
394 Clouds 18 1023 71 10000 5.66 120 02:34 01.09.2022
395 Clouds 19 1023 65 10000 6.69 100 01:30 01.09.2022
396 Clouds 19 1023 65 10000 6.69 100 01:30 01.09.2022
397 Clouds 19 1023 65 10000 6.69 100 01:30 01.09.2022
398 Clouds 19 1023 65 10000 6.69 100 01:30 01.09.2022
399 Clouds 20 1022 69 10000 7.2 140 22:43 31.08.2022
400 Clouds 21 1023 60 10000 8.23 150 20:43 31.08.2022
401 Clouds 21 1024 59 10000 6.17 160 18:45 31.08.2022
402 Clouds 20 1026 62 10000 5.14 40 16:36 31.08.2022
403 Clouds 19 1027 62 10000 4.63 60 15:21 31.08.2022
404 Clouds 16 1026 75 10000 2.57 80 12:58 31.08.2022
405 Clouds 16 1026 77 10000 2.06 50 11:54 31.08.2022
406 Clouds 17 1025 75 10000 2.06 50 09:35 31.08.2022
407 Clouds 17 1026 73 10000 4.63 60 07:39 31.08.2022
408 Clouds 18 1027 74 10000 3.09 100 02:47 31.08.2022
409 Clouds 19 1025 67 10000 5.66 140 22:21 30.08.2022
410 Clouds 19 1025 60 10000 6.17 140 21:28 30.08.2022
411 Clouds 20 1025 57 10000 5.66 160 20:26 30.08.2022
412 Clouds 18 1028 80 10000 4.12 130 16:48 30.08.2022
413 Mist 18 1027 82 10000 3.09 230 13:51 30.08.2022
414 Clouds 16 1026 92 9000 3.6 310 11:58 30.08.2022
415 Clouds 16 1026 92 9000 3.6 310 11:20 30.08.2022
416 Clouds 16 1022 84 7000 2.57 200 09:33 30.08.2022
417 Clouds 17 1027 77 10000 2.57 290 06:48 30.08.2022
418 Clouds 16 1026 92 6000 5.66 200 00:33 30.08.2022
419 Haze 18 1025 72 8000 5.14 210 22:38 29.08.2022
420 Haze 19 1025 65 9000 6.69 200 21:53 29.08.2022
421 Clouds 19 1025 67 8000 6.69 210 20:47 29.08.2022
422 Clouds 19 1025 66 8000 8.75 190 18:59 29.08.2022
423 Clouds 20 1025 69 8000 7.72 260 17:33 29.08.2022
424 Mist 18 1025 90 4000 6.17 220 16:59 29.08.2022
425 Mist 18 1025 90 4000 8.75 190 15:20 29.08.2022
426 Mist 19 1023 87 4000 8.75 200 13:55 29.08.2022
427 Drizzle 20 1022 87 6000 6.69 260 12:24 29.08.2022
428 Drizzle 20 1021 88 6000 6.69 190 10:48 29.08.2022
429 Drizzle 21 1020 83 10000 4.63 220 09:19 29.08.2022
430 Clouds 22 1021 73 10000 7.72 200 07:20 29.08.2022
431 Clouds 24 1020 69 10000 6.69 230 02:33 29.08.2022
432 Clouds 25 1016 63 10000 10.8 200 23:36 28.08.2022
433 Clouds 28 1014 52 10000 5.66 160 21:48 28.08.2022
434 Clouds 29 1015 48 10000 5.66 160 21:29 28.08.2022
435 Clouds 30 1014 47 10000 4.63 160 20:23 28.08.2022
436 Clear 30 1014 53 10000 3.09 30 18:36 28.08.2022
437 Clear 31 1015 47 10000 3.09 30 18:18 28.08.2022
438 Clear 29 1016 54 10000 2.57 10 16:49 28.08.2022
439 Clear 26 1016 63 10000 4.12 10 15:34 28.08.2022
440 Clear 23 1015 82 10000 2.57 330 13:34 28.08.2022
441 Clear 21 1015 88 10000 2.57 360 12:19 28.08.2022
442 Clear 21 1014 88 10000 3.09 360 10:22 28.08.2022
443 Clear 22 1014 88 10000 3.6 330 09:24 28.08.2022
444 Clear 22 1014 88 10000 3.09 330 08:28 28.08.2022
445 Clear 23 1015 83 10000 2.57 320 07:27 28.08.2022
446 Clouds 25 1014 69 10000 3.09 110 00:45 28.08.2022
447 Clouds 26 1014 63 10000 5.14 190 23:48 27.08.2022
448 Clouds 26 1014 61 10000 5.14 190 22:27 27.08.2022
449 Clouds 26 1014 61 10000 5.14 190 22:27 27.08.2022
450 Clouds 26 1014 65 10000 6.69 160 20:36 27.08.2022
451 Clouds 28 1015 56 10000 5.66 160 19:29 27.08.2022
452 Clear 27 1017 53 10000 3.09 50 16:34 27.08.2022
453 Clear 24 1018 73 10000 2.57 70 15:31 27.08.2022
454 Clear 23 1018 82 10000 2.06 70 13:57 27.08.2022
455 Clear 21 1017 88 10000 1.54 40 12:22 27.08.2022
456 Clear 21 1016 100 10000 1.54 20 10:30 27.08.2022
457 Clear 21 1016 94 10000 1.03 170 09:39 27.08.2022
458 Clear 22 1017 88 10000 1.03 80 06:55 27.08.2022
459 Clear 24 1017 73 10000 3.09 320 02:24 27.08.2022
460 Clouds 24 1017 73 10000 2.57 130 23:49 26.08.2022
461 Clouds 25 1017 64 10000 5.14 180 21:53 26.08.2022
462 Clouds 26 1018 60 10000 5.66 130 20:23 26.08.2022
463 Clouds 26 1019 62 10000 5.14 150 18:32 26.08.2022
464 Clear 25 1020 66 10000 3.09 350 16:40 26.08.2022
465 Clear 23 1021 79 10000 2.06 340 15:26 26.08.2022
466 Clear 21 1020 86 10000 2.57 340 13:26 26.08.2022
467 Clear 21 1020 88 10000 3.09 330 12:35 26.08.2022
468 Clouds 21 1019 88 10000 2.57 340 11:22 26.08.2022
469 Clouds 21 1019 88 10000 3.6 10 09:59 26.08.2022
470 Clear 22 1021 85 10000 1.54 90 05:26 26.08.2022
471 Clear 23 1021 76 10000 4.12 90 01:18 26.08.2022
472 Clouds 24 1019 70 10000 5.66 190 22:57 25.08.2022
473 Clouds 25 1019 67 10000 5.66 170 20:59 25.08.2022
474 Clouds 24 1020 71 10000 5.66 160 19:54 25.08.2022
475 Clouds 25 1022 66 10000 5.66 160 18:47 25.08.2022
476 Clouds 25 1022 64 10000 5.66 160 17:32 25.08.2022
477 Clouds 24 1023 69 10000 6.17 160 16:49 25.08.2022
478 Clouds 22 1023 78 10000 2.57 50 15:37 25.08.2022
479 Clouds 21 1022 82 10000 2.57 60 14:30 25.08.2022
480 Clouds 19 1021 88 10000 1.54 120 11:49 25.08.2022
481 Clear 19 1020 88 10000 1.54 350 10:46 25.08.2022
482 Clouds 20 1020 83 10000 2.06 110 08:52 25.08.2022
483 Clouds 20 1022 88 10000 4.12 80 04:59 25.08.2022
484 Clouds 21 1022 85 10000 7.2 110 00:26 25.08.2022
485 Clouds 22 1021 80 10000 5.66 100 23:25 24.08.2022
486 Clouds 22 1021 78 10000 6.17 120 22:21 24.08.2022
487 Clouds 23 1021 67 10000 6.17 100 21:33 24.08.2022
488 Clouds 22 1021 76 10000 7.2 110 20:24 24.08.2022
489 Clouds 23 1023 77 10000 4.12 120 18:39 24.08.2022
490 Mist 21 1024 85 10000 3.09 20 16:28 24.08.2022
491 Mist 20 1025 90 10000 3.6 80 15:51 24.08.2022
492 Drizzle 20 1023 94 7000 1.54 120 12:55 24.08.2022
493 Clouds 19 1022 94 7000 1.03 110 11:22 24.08.2022
494 Mist 19 1022 94 10000 1.03 350 09:20 24.08.2022
495 Clouds 20 1022 88 10000 2.06 40 07:47 24.08.2022
496 Clouds 21 1023 78 10000 2.57 110 02:25 24.08.2022
497 Clouds 21 1022 79 10000 6.17 120 22:59 23.08.2022
498 Clouds 21 1022 79 10000 6.17 120 22:29 23.08.2022
499 Clouds 22 1022 74 10000 5.66 130 21:28 23.08.2022
500 Clouds 23 1022 70 10000 5.66 140 19:57 23.08.2022
501 Clouds 23 1023 67 10000 5.14 140 18:33 23.08.2022
502 Clouds 22 1024 65 10000 6.17 150 17:47 23.08.2022
503 Clouds 21 1025 66 10000 4.12 60 16:50 23.08.2022
504 Clouds 21 1026 73 10000 4.12 150 15:23 23.08.2022
505 Clouds 20 1025 77 10000 3.09 30 13:26 23.08.2022
506 Clear 18 1023 84 10000 3.09 80 11:24 23.08.2022
507 Clear 18 1023 86 10000 3.09 110 10:36 23.08.2022
508 Clear 19 1022 79 10000 2.57 60 09:52 23.08.2022
509 Clear 19 1023 77 10000 2.57 10 08:51 23.08.2022
510 Clear 19 1023 79 10000 2.57 10 08:20 23.08.2022
511 Clouds 19 1023 79 10000 2.06 140 07:34 23.08.2022
512 Clouds 19 1024 79 10000 2.57 100 06:27 23.08.2022
513 Clouds 20 1024 73 10000 5.66 100 03:24 23.08.2022
514 Clouds 20 1024 74 10000 4.12 120 00:28 23.08.2022
515 Clouds 20 1023 74 10000 5.14 130 23:33 22.08.2022
516 Clouds 21 1023 70 10000 6.17 120 22:44 22.08.2022
517 Clouds 21 1023 69 10000 6.17 130 21:25 22.08.2022
518 Clouds 21 1023 65 10000 6.17 140 19:48 22.08.2022
519 Clouds 21 1023 65 10000 6.17 140 19:48 22.08.2022
520 Clouds 22 1024 61 10000 5.14 170 18:49 22.08.2022
521 Clouds 22 1025 68 10000 2.79 118 17:18 22.08.2022
522 Clouds 20 1026 66 10000 3.09 30 15:39 22.08.2022
523 Clouds 19 1025 72 10000 2.06 340 13:57 22.08.2022
524 Clouds 18 1024 78 10000 2.06 10 10:43 22.08.2022
525 Clouds 19 1025 68 10000 2.57 70 07:59 22.08.2022
526 Clouds 19 1026 68 10000 3.09 100 04:22 22.08.2022
527 Clouds 19 1026 65 10000 4.12 130 00:41 22.08.2022
528 Clouds 19 1026 65 10000 4.12 130 00:22 22.08.2022
529 Clouds 19 1025 64 10000 5.66 150 22:22 21.08.2022
530 Clouds 20 1025 58 10000 5.66 150 21:25 21.08.2022
531 Clouds 20 1025 61 10000 5.14 140 20:47 21.08.2022
532 Clouds 20 1026 65 10000 6.17 140 19:25 21.08.2022
533 Clouds 20 1027 60 10000 3.09 330 17:24 21.08.2022
534 Clouds 18 1028 77 10000 3.6 20 15:53 21.08.2022
535 Clouds 18 1028 77 10000 3.6 20 15:21 21.08.2022
536 Clouds 17 1027 82 10000 3.09 70 13:52 21.08.2022
537 Clouds 17 1027 82 10000 3.09 70 13:28 21.08.2022
538 Clouds 17 1026 86 10000 2.57 340 11:39 21.08.2022
539 Clouds 17 1026 88 10000 2.57 330 09:31 21.08.2022
540 Clouds 17 1026 84 10000 2.06 330 08:56 21.08.2022
541 Clouds 17 1026 84 10000 2.06 330 08:38 21.08.2022
542 Clear 17 1027 84 10000 3.09 20 07:26 21.08.2022
543 Clouds 17 1029 82 9000 2.06 280 03:41 21.08.2022
544 Clouds 16 1028 92 6000 3.6 320 00:24 21.08.2022
545 Clouds 19 1028 73 9000 3.6 340 22:40 20.08.2022
546 Clouds 19 1027 73 9000 2.57 240 21:37 20.08.2022
547 Clouds 18 1027 80 9000 2.06 110 20:41 20.08.2022
548 Clouds 18 1028 76 10000 5.66 200 19:40 20.08.2022
549 Clouds 18 1028 77 10000 4.12 210 18:30 20.08.2022
550 Clouds 18 1029 80 10000 4.12 170 17:51 20.08.2022
551 Mist 17 1029 85 9000 4.12 160 16:52 20.08.2022
552 Clouds 18 1024 82 10000 3.6 360 15:33 20.08.2022
553 Clouds 17 1029 84 10000 3.09 230 13:26 20.08.2022
554 Clouds 16 1028 90 8000 3.09 240 11:51 20.08.2022
555 Clouds 16 1027 88 8000 2.06 240 09:43 20.08.2022
556 Clouds 16 1028 92 8000 2.57 280 08:34 20.08.2022
557 Clouds 17 1029 86 7000 2.57 250 05:55 20.08.2022
558 Mist 17 1028 88 5000 4.12 250 00:59 20.08.2022
559 Clouds 17 1028 84 7000 4.12 220 00:35 20.08.2022
560 Mist 17 1027 82 7000 3.6 250 23:19 19.08.2022
561 Mist 17 1027 86 4500 4.63 220 22:33 19.08.2022
562 Mist 17 1026 84 4000 6.69 230 20:20 19.08.2022
563 Mist 18 1026 84 4000 7.2 230 18:28 19.08.2022
564 Mist 19 1024 86 4000 9.26 220 15:19 19.08.2022
565 Mist 21 1021 85 7000 7.2 330 13:21 19.08.2022
566 Clouds 23 1018 76 10000 5.66 190 10:55 19.08.2022
567 Clouds 23 1018 76 10000 5.66 190 10:24 19.08.2022
568 Clear 24 1015 73 10000 4.63 240 06:37 19.08.2022
569 Clear 28 1010 46 10000 2.57 20 00:58 19.08.2022
570 Clear 28 1010 46 10000 2.57 20 00:30 19.08.2022
571 Clear 29 1010 42 10000 3.6 20 23:44 18.08.2022
572 Clear 31 1008 38 10000 4.63 90 22:50 18.08.2022
573 Clear 31 1008 38 10000 4.12 40 21:57 18.08.2022
574 Clear 31 1008 38 10000 4.12 40 21:35 18.08.2022
575 Clear 32 1009 37 10000 5.66 360 20:25 18.08.2022
576 Clear 32 1009 35 10000 7.2 360 19:30 18.08.2022
577 Clear 31 1011 37 10000 6.69 10 17:50 18.08.2022
578 Clear 29 1012 40 10000 7.72 360 16:59 18.08.2022
579 Clear 26 1012 61 10000 5.14 70 14:57 18.08.2022
580 Clear 26 1012 61 10000 5.14 70 14:19 18.08.2022
581 Clear 23 1011 66 10000 4.12 10 13:29 18.08.2022
582 Clouds 22 1010 78 10000 2.06 320 11:51 18.08.2022
583 Clear 21 1011 92 7000 0.51 110 09:43 18.08.2022
584 Clear 20 1011 94 8000 1.54 50 08:42 18.08.2022
585 Clouds 21 1012 92 9000 1.54 40 07:19 18.08.2022
586 Clear 22 1014 92 10000 2.57 60 04:38 18.08.2022
587 Clear 23 1012 80 10000 5.14 170 23:37 17.08.2022
588 Clear 25 1013 66 10000 6.17 180 21:53 17.08.2022
589 Clear 26 1013 64 10000 6.17 170 20:20 17.08.2022
590 Clear 26 1013 66 10000 7.72 170 19:31 17.08.2022
591 Clear 27 1014 58 10000 3.09 150 17:39 17.08.2022
592 Clear 27 1015 59 10000 3.6 160 16:47 17.08.2022
593 Clear 24 1015 68 10000 2.57 130 15:30 17.08.2022
594 Clear 22 1015 79 10000 2.57 260 13:52 17.08.2022
595 Clear 22 1013 83 10000 3.6 270 11:42 17.08.2022
596 Clear 23 1013 78 10000 3.09 270 10:22 17.08.2022
597 Clear 24 1012 69 10000 3.09 270 08:24 17.08.2022
598 Clear 25 1011 58 10000 2.57 310 03:52 17.08.2022
599 Clear 28 1010 42 10000 1.54 330 00:38 17.08.2022
600 Clear 30 1010 38 10000 2.57 350 22:50 16.08.2022
601 Clear 30 1011 41 10000 5.14 20 20:59 16.08.2022
602 Clear 31 1011 38 10000 4.63 30 19:54 16.08.2022
603 Clear 31 1012 39 10000 2.57 340 19:19 16.08.2022
604 Clear 30 1013 40 10000 4.63 10 17:54 16.08.2022
605 Clear 30 1013 40 10000 4.63 10 17:54 16.08.2022
606 Clear 28 1015 44 10000 5.66 20 16:18 16.08.2022
607 Clear 27 1016 49 10000 6.17 30 15:39 16.08.2022
608 Clear 25 1015 48 10000 5.66 340 14:43 16.08.2022
609 Clear 25 1015 48 10000 5.66 340 14:25 16.08.2022
610 Clear 24 1013 46 10000 4.63 290 11:39 16.08.2022
611 Clear 24 1012 53 10000 4.63 300 09:58 16.08.2022
612 Clear 21 1013 78 10000 4.12 360 08:49 16.08.2022
613 Clear 21 1013 78 10000 4.12 360 08:19 16.08.2022
614 Clear 21 1013 68 10000 2.06 310 05:28 16.08.2022
615 Clear 24 1012 62 10000 3.09 120 23:18 15.08.2022
616 Clear 26 1012 46 10000 4.12 50 22:20 15.08.2022
617 Clear 27 1012 37 10000 3.6 60 21:43 15.08.2022
618 Clear 29 1014 31 10000 4.63 80 20:31 15.08.2022
619 Clear 28 1015 35 10000 4.63 100 18:57 15.08.2022
620 Clear 27 1017 36 10000 5.14 110 17:59 15.08.2022
621 Clear 25 1019 47 10000 5.14 20 16:24 15.08.2022
622 Clear 23 1019 56 10000 3.6 360 15:26 15.08.2022
623 Clear 19 1018 75 10000 4.12 10 13:27 15.08.2022
624 Clear 19 1017 77 10000 1.54 30 10:37 15.08.2022
625 Clear 19 1017 77 10000 1.54 100 08:55 15.08.2022
626 Clear 20 1018 73 10000 2.06 130 06:51 15.08.2022
627 Clear 20 1019 76 10000 1.03 350 04:32 15.08.2022
628 Clear 24 1018 64 10000 3.6 120 23:49 14.08.2022
629 Clear 25 1018 62 10000 4.63 200 22:28 14.08.2022
630 Clear 26 1019 57 10000 4.63 140 21:35 14.08.2022
631 Clear 25 1020 52 10000 5.14 150 19:46 14.08.2022
632 Clear 25 1021 56 10000 3.09 180 18:42 14.08.2022
633 Clear 25 1022 57 10000 2.57 170 17:48 14.08.2022
634 Clear 23 1023 60 10000 2.06 330 16:32 14.08.2022
635 Clear 22 1023 66 10000 2.57 330 15:48 14.08.2022
636 Clear 19 1022 80 10000 3.09 340 14:19 14.08.2022
637 Clear 19 1022 79 10000 2.57 360 13:49 14.08.2022
638 Clear 19 1022 78 10000 2.57 360 13:18 14.08.2022
639 Clear 17 1021 84 10000 1.54 280 11:50 14.08.2022
640 Clear 17 1020 84 10000 2.06 310 10:27 14.08.2022
641 Clear 18 1020 82 10000 2.06 340 08:45 14.08.2022
642 Clear 19 1021 79 10000 2.57 350 06:21 14.08.2022
643 Clear 21 1022 67 10000 3.6 80 02:46 14.08.2022
644 Clear 22 1021 69 10000 4.63 100 23:49 13.08.2022
645 Clear 23 1021 64 10000 5.14 130 22:52 13.08.2022
646 Clouds 24 1021 58 10000 5.14 160 20:58 13.08.2022
647 Clouds 25 1022 54 10000 5.14 160 20:28 13.08.2022
648 Clouds 25 1023 50 10000 3.6 150 19:29 13.08.2022
649 Clouds 24 1025 50 10000 3.09 130 17:40 13.08.2022
650 Clouds 20 1026 68 10000 3.09 350 15:23 13.08.2022
651 Clouds 19 1026 80 10000 2.57 350 14:26 13.08.2022
652 Clouds 19 1025 83 10000 2.06 330 13:38 13.08.2022
653 Clouds 18 1024 82 10000 1.54 60 11:52 13.08.2022
654 Clouds 18 1024 82 10000 1.54 40 10:21 13.08.2022
655 Clouds 18 1024 82 10000 1.03 0 08:23 13.08.2022
656 Clouds 18 1024 82 10000 1.03 0 08:23 13.08.2022
657 Clear 19 1024 82 10000 4.12 70 05:22 13.08.2022
658 Clouds 20 1023 71 10000 6.17 130 23:52 12.08.2022
659 Clouds 21 1023 66 10000 6.69 150 21:46 12.08.2022
660 Clouds 23 1024 62 10000 6.17 150 20:53 12.08.2022
661 Clouds 23 1024 61 10000 5.66 110 19:40 12.08.2022
662 Clouds 23 1025 62 10000 4.63 150 18:46 12.08.2022
663 Clouds 22 1025 63 10000 3.6 30 17:21 12.08.2022
664 Clouds 20 1025 75 10000 2.57 30 15:52 12.08.2022
665 Clouds 19 1025 85 10000 1.54 30 14:41 12.08.2022
666 Clouds 18 1024 93 10000 2.57 300 12:55 12.08.2022
667 Clouds 18 1022 92 10000 2.57 300 10:45 12.08.2022
668 Clouds 20 1022 78 10000 4.63 170 07:50 12.08.2022
669 Clouds 19 1022 84 10000 3.09 310 06:56 12.08.2022
670 Clouds 18 1022 92 6000 4.12 210 03:20 12.08.2022
671 Clouds 19 1020 88 8000 2.57 220 00:27 12.08.2022
672 Clouds 18 1019 92 7000 6.17 260 23:35 11.08.2022
673 Clouds 20 1018 79 6000 9.26 240 22:28 11.08.2022
674 Clouds 20 1018 73 10000 10.29 250 21:43 11.08.2022
675 Clouds 20 1018 73 10000 10.29 250 21:19 11.08.2022
676 Clouds 21 1018 69 8000 8.75 250 20:27 11.08.2022
677 Clouds 21 1018 74 8000 9.26 260 19:33 11.08.2022
678 Clouds 20 1018 76 6000 9.26 260 18:36 11.08.2022
679 Mist 19 1018 88 8000 5.66 250 16:38 11.08.2022
680 Haze 20 1018 77 4500 7.72 250 15:25 11.08.2022
681 Mist 19 1016 84 4500 9.77 240 13:51 11.08.2022
682 Clouds 19 1013 73 8000 8.75 260 11:26 11.08.2022
683 Clouds 21 1012 37 10000 7.2 300 07:49 11.08.2022
684 Clear 21 1011 94 10000 9.26 310 04:44 11.08.2022
685 Clouds 22 1011 64 10000 4.12 260 01:54 11.08.2022
686 Clouds 22 1008 59 10000 7.2 240 22:38 10.08.2022
687 Clouds 23 1007 73 10000 8.75 210 21:44 10.08.2022
688 Clouds 23 1006 81 10000 8.23 250 20:56 10.08.2022
689 Clouds 24 1006 78 10000 2.57 150 19:44 10.08.2022
690 Clouds 22 1007 87 10000 3.09 170 18:45 10.08.2022
691 Clouds 22 1009 88 8000 2.57 300 17:19 10.08.2022
692 Clouds 21 1012 90 6000 2.57 350 13:36 10.08.2022
693 Rain 21 1012 94 6000 2.06 40 12:48 10.08.2022
694 Rain 21 1011 94 6000 2.06 230 10:21 10.08.2022
695 Rain 21 1013 89 8000 1.54 80 08:36 10.08.2022
696 Clouds 21 1014 88 8000 2.06 170 07:21 10.08.2022
697 Rain 22 1016 85 9000 1.54 40 04:49 10.08.2022
698 Rain 22 1017 81 10000 3.09 140 00:49 10.08.2022
699 Rain 22 1017 83 10000 3.6 130 23:25 09.08.2022
700 Clouds 23 1017 81 10000 4.63 160 21:37 09.08.2022
701 Rain 23 1017 82 10000 5.66 160 20:56 09.08.2022
702 Clouds 23 1018 78 10000 4.12 160 18:56 09.08.2022
703 Rain 23 1019 79 10000 3.6 160 17:31 09.08.2022
704 Rain 24 1019 77 10000 2.57 110 16:43 09.08.2022
705 Clouds 24 1020 80 10000 2.57 350 15:59 09.08.2022
706 Clouds 22 1019 88 10000 2.06 270 14:43 09.08.2022
707 Drizzle 20 1018 96 8000 2.06 170 10:53 09.08.2022
708 Clouds 21 1017 90 10000 4.12 160 08:52 09.08.2022
709 Clouds 22 1017 85 10000 2.06 170 07:57 09.08.2022
710 Clouds 23 1019 75 10000 1.54 300 04:49 09.08.2022
711 Clouds 23 1017 81 10000 2.57 20 23:58 08.08.2022
712 Clouds 23 1017 81 10000 2.57 20 23:24 08.08.2022
713 Clouds 23 1016 78 10000 2.57 310 22:40 08.08.2022
714 Clouds 24 1015 73 9000 1.54 150 21:44 08.08.2022
715 Clouds 24 1015 72 9000 2.06 320 20:34 08.08.2022
716 Rain 24 1015 76 7000 3.09 320 19:34 08.08.2022
717 Clouds 23 1015 79 7000 4.12 330 18:18 08.08.2022
718 Mist 22 1018 86 7000 3.6 320 15:48 08.08.2022
719 Mist 22 1018 86 7000 3.6 320 15:28 08.08.2022
720 Clouds 22 1016 86 7000 2.57 280 12:30 08.08.2022
721 Rain 22 1014 88 6000 2.57 210 10:33 08.08.2022
722 Rain 22 1014 88 7000 2.06 160 07:59 08.08.2022
723 Clear 22 1015 86 10000 2.06 140 03:45 08.08.2022
724 Clouds 23 1015 83 10000 5.14 340 00:33 08.08.2022
725 Clouds 24 1014 68 10000 6.17 220 21:42 07.08.2022
726 Clouds 24 1015 73 10000 6.17 220 21:19 07.08.2022
727 Rain 24 1015 73 10000 7.72 220 20:23 07.08.2022
728 Clouds 24 1015 73 10000 7.2 200 19:52 07.08.2022
729 Clouds 24 1014 71 10000 7.2 200 19:22 07.08.2022
730 Clouds 23 1014 78 10000 5.14 140 17:45 07.08.2022
731 Clouds 23 1014 75 10000 4.12 150 16:52 07.08.2022
732 Clouds 23 1020 73 10000 3.09 150 15:39 07.08.2022
733 Clouds 23 1020 76 10000 3.6 110 14:27 07.08.2022
734 Clouds 20 1020 90 10000 6.17 170 12:41 07.08.2022
735 Clouds 20 1014 88 10000 3.09 40 10:53 07.08.2022
736 Rain 20 1014 88 10000 3.09 40 10:21 07.08.2022
737 Clouds 21 1020 85 10000 4.12 90 04:38 07.08.2022
738 Clouds 21 1021 84 10000 5.14 90 02:35 07.08.2022
739 Clouds 21 1023 82 10000 3.6 130 22:40 06.08.2022
740 Clouds 21 1022 81 10000 3.6 130 22:18 06.08.2022
741 Clouds 22 1023 76 10000 4.12 130 19:48 06.08.2022
742 Clouds 22 1024 79 10000 3.6 140 18:50 06.08.2022
743 Clouds 22 1025 79 10000 4.12 130 17:48 06.08.2022
744 Clouds 21 1025 83 8000 1.54 100 16:30 06.08.2022
745 Clouds 21 1019 82 10000 3.6 320 13:52 06.08.2022
746 Clouds 22 1019 80 10000 3.6 240 12:46 06.08.2022
747 Clouds 21 1018 78 10000 3.6 330 11:21 06.08.2022
748 Clouds 21 1017 78 10000 3.09 330 09:49 06.08.2022
749 Clouds 21 1017 78 10000 3.09 200 07:35 06.08.2022
750 Clouds 22 1017 83 7000 6.17 220 02:22 06.08.2022
751 Clouds 25 1013 61 10000 8.23 220 22:40 05.08.2022
752 Clouds 26 1011 56 10000 9.77 200 21:36 05.08.2022
753 Clear 31 1014 39 10000 5.66 290 19:22 05.08.2022
754 Clear 33 1014 32 10000 7.2 280 18:44 05.08.2022
755 Clear 33 1014 32 10000 7.2 280 18:44 05.08.2022
756 Clear 30 1014 48 10000 5.14 320 17:26 05.08.2022
757 Clear 29 1015 51 10000 6.69 310 16:43 05.08.2022
758 Clear 28 1016 52 10000 4.63 350 15:21 05.08.2022
759 Clear 23 1010 78 10000 5.14 30 13:43 05.08.2022
760 Clear 23 1010 78 10000 5.14 30 13:22 05.08.2022
761 Clear 22 1010 83 10000 4.12 30 12:24 05.08.2022
762 Clear 23 1009 78 10000 2.57 320 10:35 05.08.2022
763 Clear 23 1010 78 10000 2.57 320 07:58 05.08.2022
764 Clear 24 1014 79 10000 2.57 310 05:32 05.08.2022
765 Clear 26 1016 68 10000 1.03 330 00:30 05.08.2022
766 Clear 28 1011 55 10000 2.06 330 22:26 04.08.2022
767 Clear 28 1011 56 10000 3.09 70 21:26 04.08.2022
768 Clear 27 1011 62 10000 4.12 70 20:42 04.08.2022
769 Clear 27 1012 63 10000 4.12 10 19:37 04.08.2022
770 Clear 27 1013 62 10000 4.12 20 18:36 04.08.2022
771 Clear 26 1014 62 10000 4.12 20 17:37 04.08.2022
772 Clear 22 1015 78 10000 2.57 340 14:18 04.08.2022
773 Clear 20 1014 87 10000 1.54 130 12:44 04.08.2022
774 Clouds 20 1014 83 10000 2.06 40 10:51 04.08.2022
775 Clouds 21 1016 83 8000 2.06 80 07:53 04.08.2022
776 Clouds 22 1017 78 10000 3.6 100 05:46 04.08.2022
777 Clouds 22 1023 80 10000 2.57 130 02:29 04.08.2022
778 Clouds 22 1023 81 10000 6.69 160 23:45 03.08.2022
779 Clouds 22 1022 81 10000 6.69 130 22:30 03.08.2022
780 Clouds 23 1022 80 10000 8.23 130 20:50 03.08.2022
781 Clouds 23 1022 77 10000 6.69 240 19:44 03.08.2022
782 Clouds 24 1023 76 10000 5.14 160 18:36 03.08.2022
783 Clouds 24 1024 75 7000 2.57 350 16:25 03.08.2022
784 Clouds 22 1019 79 6000 3.09 350 15:32 03.08.2022
785 Clouds 20 1019 85 7000 1.54 320 12:41 03.08.2022
786 Clear 21 1018 83 10000 0.51 0 08:54 03.08.2022
787 Clear 21 1018 83 10000 1.03 180 04:51 03.08.2022
788 Clouds 22 1019 78 10000 2.57 210 03:52 03.08.2022
789 Clouds 22 1022 85 9000 4.63 190 01:45 03.08.2022
790 Clouds 22 1023 84 9000 7.2 170 23:27 02.08.2022
791 Clouds 24 1022 84 10000 6.17 170 21:59 02.08.2022
792 Clouds 24 1021 83 10000 6.17 170 21:40 02.08.2022
793 Clouds 25 1021 79 6000 5.14 160 19:38 02.08.2022
794 Clouds 24 1023 75 8000 2.57 170 16:42 02.08.2022
795 Clouds 21 1017 86 7000 2.06 20 13:21 02.08.2022
796 Clear 21 1016 88 10000 2.57 330 10:34 02.08.2022
797 Clear 22 1016 88 10000 3.09 310 08:27 02.08.2022
798 Clear 22 1016 88 10000 3.09 290 07:50 02.08.2022
799 Clear 22 1016 83 10000 5.14 270 04:56 02.08.2022
800 Clear 23 1015 88 10000 5.66 190 01:58 02.08.2022
801 Clear 23 1020 83 10000 6.17 190 23:23 01.08.2022
802 Clear 25 1014 64 10000 4.12 170 21:37 01.08.2022
803 Clear 25 1015 59 10000 3.09 30 19:45 01.08.2022
804 Clear 24 1016 60 10000 4.63 20 18:53 01.08.2022
805 Clouds 21 1018 70 10000 3.09 330 16:55 01.08.2022
806 Clouds 21 1018 70 10000 3.09 330 16:55 01.08.2022
807 Clouds 21 1018 70 10000 3.09 330 16:33 01.08.2022
808 Clouds 21 1019 73 10000 3.09 360 15:34 01.08.2022
809 Clouds 19 1019 83 10000 3.6 330 14:45 01.08.2022
810 Clouds 19 1019 88 10000 2.57 350 13:29 01.08.2022
811 Clouds 16 1018 94 10000 1.03 330 10:48 01.08.2022
812 Clouds 16 1018 88 10000 1.03 90 08:53 01.08.2022
813 Clouds 17 1019 82 10000 1.54 80 07:23 01.08.2022
814 Clouds 21 1019 68 10000 4.12 70 04:32 01.08.2022
815 Clouds 21 1022 73 10000 5.14 110 01:23 01.08.2022
816 Clear 21 1024 67 10000 4.63 160 22:47 31.07.2022
817 Clear 21 1023 67 10000 4.63 160 22:29 31.07.2022
818 Clouds 23 1023 57 10000 3.6 160 20:39 31.07.2022
819 Clouds 23 1025 60 10000 3.09 140 18:40 31.07.2022
820 Clouds 21 1021 67 10000 3.09 350 16:55 31.07.2022
821 Clouds 21 1027 74 10000 2.06 10 14:43 31.07.2022
822 Clouds 19 1020 81 10000 2.06 300 12:59 31.07.2022
823 Clouds 19 1020 77 10000 2.57 330 11:39 31.07.2022
824 Clear 17 1020 88 10000 2.06 300 08:47 31.07.2022
825 Clear 18 1020 82 10000 2.06 330 05:38 31.07.2022
826 Clear 20 1019 64 10000 3.09 220 02:29 31.07.2022
827 Clouds 21 1018 60 10000 4.63 200 22:49 30.07.2022
828 Clouds 21 1017 60 10000 5.66 210 21:52 30.07.2022
829 Clouds 21 1017 60 10000 5.66 210 21:33 30.07.2022
830 Clouds 22 1018 54 10000 7.2 210 20:38 30.07.2022
831 Clouds 22 1018 54 10000 7.2 210 20:38 30.07.2022
832 Clouds 22 1018 54 10000 7.2 210 19:57 30.07.2022
833 Clouds 21 1018 58 10000 5.66 220 18:20 30.07.2022
834 Clouds 21 1018 58 10000 5.66 240 16:40 30.07.2022
835 Clouds 22 1018 59 10000 2.06 220 15:33 30.07.2022
836 Clouds 21 1018 60 10000 2.57 330 14:26 30.07.2022
837 Clouds 20 1016 73 10000 1.54 270 12:33 30.07.2022
838 Clouds 20 1015 68 10000 1.54 240 11:55 30.07.2022
839 Clouds 18 1015 88 10000 1.54 300 10:20 30.07.2022
840 Clouds 19 1015 82 10000 2.57 310 09:42 30.07.2022
841 Clouds 19 1015 82 10000 2.06 300 07:44 30.07.2022
842 Clouds 20 1014 88 7000 1.03 220 02:34 30.07.2022
843 Clouds 20 1013 88 10000 2.57 320 01:21 30.07.2022
844 Rain 22 1018 82 5000 9.26 200 21:39 29.07.2022
845 Clouds 24 1016 63 10000 10.29 190 20:58 29.07.2022
846 Clouds 25 1015 61 10000 9.26 190 19:48 29.07.2022
847 Clouds 29 1010 42 10000 10.8 250 17:40 29.07.2022
848 Clear 26 1009 54 10000 2.06 20 14:53 29.07.2022
849 Clear 23 1009 66 10000 2.57 320 12:59 29.07.2022
850 Clouds 18 1010 88 8000 1.03 310 09:49 29.07.2022
851 Clear 19 1010 82 10000 1.54 360 08:48 29.07.2022
852 Clear 19 1010 82 10000 1.03 40 07:39 29.07.2022
853 Clear 27 1013 54 10000 2.57 320 01:46 29.07.2022
854 Clear 27 1009 52 10000 3.09 70 22:41 28.07.2022
855 Clear 29 1015 45 10000 3.09 60 20:59 28.07.2022
856 Clear 29 1015 45 10000 3.09 60 20:27 28.07.2022
857 Clear 27 1013 61 10000 3.6 20 19:42 28.07.2022
858 Clear 28 1017 50 10000 3.6 20 18:48 28.07.2022
859 Clear 27 1018 55 10000 3.6 350 17:43 28.07.2022
860 Clear 26 1019 60 10000 4.63 10 16:42 28.07.2022
861 Clear 25 1020 68 10000 5.66 30 15:24 28.07.2022
862 Mist 19 1014 88 10000 4.12 360 12:58 28.07.2022
863 Clear 17 1015 88 10000 0.51 20 10:36 28.07.2022
864 Clear 22 1036 94 10000 3.6 130 06:25 28.07.2022
865 Clear 22 1036 97 10000 2.06 110 05:27 28.07.2022
866 Clear 23 1019 78 10000 3.09 120 00:45 28.07.2022
867 Clear 24 1022 79 10000 4.63 160 22:40 27.07.2022
868 Clouds 25 1022 75 10000 5.66 170 21:27 27.07.2022
869 Clouds 25 1023 67 10000 5.14 160 19:37 27.07.2022
870 Clouds 25 1024 64 9000 4.12 160 17:49 27.07.2022
871 Clouds 23 1026 80 9000 3.6 10 15:52 27.07.2022
872 Mist 23 1026 83 9000 2.57 340 14:57 27.07.2022
873 Mist 22 1026 85 9000 2.57 340 14:34 27.07.2022
874 Mist 21 1026 94 10000 2.06 50 12:49 27.07.2022
875 Clouds 21 1021 88 9000 2.06 60 07:54 27.07.2022
876 Clouds 21 1021 88 9000 2.57 70 06:21 27.07.2022
877 Clouds 23 1023 84 10000 3.6 90 01:59 27.07.2022
878 Clouds 23 1025 85 10000 5.66 190 22:29 26.07.2022
879 Clouds 24 1024 83 10000 6.17 180 21:20 26.07.2022
880 Clouds 24 1025 79 10000 5.66 170 20:31 26.07.2022
881 Clouds 24 1025 76 10000 5.66 150 18:44 26.07.2022
882 Haze 24 1026 78 10000 5.14 160 17:59 26.07.2022
883 Mist 24 1027 77 5000 2.57 350 16:32 26.07.2022
884 Mist 23 1027 81 5000 2.06 50 15:36 26.07.2022
885 Mist 21 1026 92 5000 3.09 40 13:46 26.07.2022
886 Mist 20 1019 94 5000 2.06 60 11:39 26.07.2022
887 Clouds 17 1019 94 6000 1.03 330 09:32 26.07.2022
888 Clouds 18 1020 94 8000 1.03 90 06:26 26.07.2022
889 Clear 23 1021 89 10000 5.14 190 00:57 26.07.2022
890 Clear 24 1023 81 10000 5.14 190 23:33 25.07.2022
891 Clear 24 1023 73 10000 4.63 170 22:27 25.07.2022
892 Clear 25 1023 70 10000 5.14 180 21:43 25.07.2022
893 Clouds 25 1023 68 10000 6.17 170 20:42 25.07.2022
894 Clear 25 1023 70 10000 6.17 160 19:50 25.07.2022
895 Clear 25 1024 72 10000 2.57 140 18:21 25.07.2022
896 Clouds 24 1025 75 9000 2.06 330 17:31 25.07.2022
897 Mist 23 1026 83 8000 3.6 360 15:30 25.07.2022
898 Mist 20 1020 88 10000 2.57 20 12:29 25.07.2022
899 Clouds 20 1019 88 7000 1.03 20 10:38 25.07.2022
900 Clear 18 1020 88 10000 0.51 100 06:51 25.07.2022
901 Clear 24 1023 75 10000 4.63 200 23:56 24.07.2022
902 Clear 24 1023 76 10000 4.63 200 23:19 24.07.2022
903 Clear 25 1023 73 10000 4.63 170 22:35 24.07.2022
904 Clouds 26 1023 60 10000 5.14 180 21:30 24.07.2022
905 Clouds 26 1023 60 10000 5.66 160 20:56 24.07.2022
906 Clouds 26 1022 62 10000 5.66 160 20:29 24.07.2022
907 Clouds 26 1023 58 10000 2.57 20 18:57 24.07.2022
908 Clear 24 1025 68 10000 3.09 340 16:51 24.07.2022
909 Clear 23 1025 75 10000 3.09 320 15:53 24.07.2022
910 Clear 22 1020 82 10000 2.06 330 14:40 24.07.2022
911 Clear 21 1019 86 10000 2.57 330 13:25 24.07.2022
912 Clear 19 1018 88 10000 2.57 330 12:19 24.07.2022
913 Clear 20 1018 88 10000 2.57 20 11:28 24.07.2022
914 Mist 19 1017 88 4000 1.54 330 09:33 24.07.2022
915 Mist 18 1018 94 4500 1.03 50 07:53 24.07.2022
916 Clouds 19 1018 88 6000 1.03 20 06:38 24.07.2022
917 Clear 24 1020 75 10000 1.54 40 02:33 24.07.2022
918 Clear 25 1021 72 10000 5.66 190 22:37 23.07.2022
919 Clear 26 1020 65 10000 5.14 160 20:47 23.07.2022
920 Haze 27 1022 61 10000 2.57 190 18:55 23.07.2022
921 Haze 26 1022 61 10000 3.09 180 17:48 23.07.2022
922 Haze 26 1022 63 10000 3.09 180 17:24 23.07.2022
923 Haze 24 1023 75 10000 3.09 340 16:21 23.07.2022
924 Mist 23 1024 81 10000 3.09 320 15:21 23.07.2022
925 Mist 21 1018 90 8000 2.57 340 14:50 23.07.2022
926 Mist 20 1017 92 7000 2.57 360 13:58 23.07.2022
927 Mist 20 1016 94 8000 2.06 360 11:48 23.07.2022
928 Mist 17 1017 94 5000 1.03 0 10:36 23.07.2022
929 Clear 17 1016 94 6000 1.03 20 09:34 23.07.2022
930 Clouds 19 1017 94 7000 1.03 30 06:46 23.07.2022
931 Clear 23 1020 82 10000 1.54 300 03:37 23.07.2022
932 Clear 23 1019 84 10000 4.63 190 00:34 23.07.2022
933 Clear 24 1021 81 10000 6.69 160 21:33 22.07.2022
934 Clear 25 1021 73 10000 7.2 160 20:31 22.07.2022
935 Clear 26 1035 75 10000 3.54 141 18:42 22.07.2022
936 Mist 23 1023 79 5000 2.57 10 17:40 22.07.2022
937 Mist 22 1025 86 3500 3.09 360 15:48 22.07.2022
938 Mist 20 1018 94 4000 1.54 20 12:47 22.07.2022
939 Clouds 18 1017 94 7000 1.03 40 10:22 22.07.2022
940 Clouds 18 1017 94 8000 1.03 50 09:21 22.07.2022
941 Clear 19 1018 88 10000 1.03 60 07:58 22.07.2022
942 Clear 22 1021 86 10000 3.09 80 04:23 22.07.2022
943 Clouds 23 1023 85 10000 5.14 140 23:43 21.07.2022
944 Clouds 23 1022 83 10000 8.75 140 21:51 21.07.2022
945 Clouds 24 1022 79 10000 7.2 120 20:28 21.07.2022
946 Clouds 26 1022 64 10000 5.14 50 18:43 21.07.2022
947 Clouds 24 1024 73 10000 4.12 80 17:22 21.07.2022
948 Clouds 23 1025 77 10000 4.12 50 16:31 21.07.2022
949 Clouds 21 1021 88 8000 2.57 10 14:49 21.07.2022
950 Clouds 20 1021 94 10000 2.06 350 13:58 21.07.2022
951 Clouds 20 1021 94 10000 2.06 350 13:58 21.07.2022
952 Mist 20 1020 94 10000 3.6 30 12:18 21.07.2022
953 Clouds 20 1020 88 6000 2.57 10 10:21 21.07.2022
954 Clouds 19 1020 88 10000 1.54 40 08:53 21.07.2022
955 Clouds 19 1020 88 10000 1.54 40 08:35 21.07.2022
956 Clouds 18 1021 94 10000 0 0 07:22 21.07.2022
957 Clouds 21 1020 94 10000 2.06 140 03:25 21.07.2022
958 Clouds 22 1020 86 10000 5.14 160 22:51 20.07.2022
959 Clouds 22 1020 86 10000 5.14 160 22:20 20.07.2022
960 Clouds 24 1020 76 10000 5.14 120 20:49 20.07.2022
961 Clouds 23 1020 80 9000 5.66 100 19:47 20.07.2022
962 Clouds 23 1020 80 9000 5.66 100 19:19 20.07.2022
963 Clouds 24 1021 80 9000 4.63 140 18:33 20.07.2022
964 Clouds 23 1021 80 9000 3.6 160 17:42 20.07.2022
965 Clouds 23 1022 87 8000 2.57 140 15:43 20.07.2022
966 Clouds 23 1022 86 8000 2.06 120 14:54 20.07.2022
967 Clouds 23 1027 89 8000 2.06 210 13:44 20.07.2022
968 Clouds 22 1020 88 10000 1.03 0 11:31 20.07.2022
969 Clouds 22 1021 83 10000 1.03 330 07:39 20.07.2022
970 Clouds 22 1024 90 7000 5.14 180 02:44 20.07.2022
971 Clouds 22 1023 95 6000 7.2 170 00:44 20.07.2022
972 Clouds 23 1024 87 10000 6.69 180 22:41 19.07.2022
973 Clouds 23 1024 86 10000 6.69 180 22:21 19.07.2022
974 Clear 27 1023 66 10000 5.14 160 20:54 19.07.2022
975 Clear 28 1023 49 10000 5.14 170 20:18 19.07.2022
976 Clear 27 1024 59 10000 4.12 80 18:43 19.07.2022
977 Clouds 26 1026 65 9000 2.06 20 17:56 19.07.2022
978 Clouds 24 1027 77 9000 3.09 30 16:25 19.07.2022
979 Clouds 22 1024 74 10000 1.18 344 14:20 19.07.2022
980 Mist 22 1022 88 5000 2.57 330 11:35 19.07.2022
981 Clouds 21 1022 88 6000 1.54 330 10:31 19.07.2022
982 Rain 22 1022 83 7000 2.06 310 08:48 19.07.2022
983 Clouds 22 1022 83 7000 2.06 310 08:22 19.07.2022
984 Clouds 22 1022 83 8000 2.06 290 07:18 19.07.2022
985 Clouds 22 1023 78 10000 1.54 130 05:26 19.07.2022
986 Clouds 21 1022 94 10000 3.6 180 04:46 19.07.2022
987 Clouds 22 1025 90 10000 4.12 130 00:34 19.07.2022
988 Clouds 22 1027 90 10000 4.12 160 23:22 18.07.2022
989 Clouds 23 1027 89 10000 4.63 160 22:56 18.07.2022
990 Clouds 23 1027 85 10000 3.6 150 21:58 18.07.2022
991 Haze 23 1027 84 10000 4.63 150 20:50 18.07.2022
992 Clouds 24 1027 82 10000 6.17 240 19:25 18.07.2022
993 Haze 24 1028 83 9000 4.63 240 17:22 18.07.2022
994 Mist 24 1029 87 7000 4.63 160 15:46 18.07.2022
995 Mist 23 1029 93 5000 3.6 160 14:30 18.07.2022
996 Drizzle 22 1028 90 5000 3.6 170 12:45 18.07.2022
997 Clouds 22 1021 88 8000 4.12 180 11:29 18.07.2022
998 Clouds 22 1022 83 10000 2.57 260 08:54 18.07.2022
999 Clouds 22 1022 83 10000 3.09 270 07:28 18.07.2022
1000 Clear 26 1018 57 10000 6.17 270 00:42 18.07.2022
1001 Clear 27 1015 59 10000 7.72 190 22:42 17.07.2022
1002 Clear 28 1015 53 10000 3.6 200 21:57 17.07.2022
1003 Clear 28 1015 53 10000 3.6 200 21:21 17.07.2022
1004 Clear 31 1014 41 10000 2.57 50 20:44 17.07.2022
1005 Clear 29 1014 55 10000 3.09 80 19:32 17.07.2022
1006 Clear 29 1015 57 10000 3.6 40 18:54 17.07.2022
1007 Clear 28 1016 58 10000 3.6 20 17:38 17.07.2022
1008 Clear 26 1016 62 10000 4.12 40 16:51 17.07.2022
1009 Clear 26 1016 62 10000 4.12 40 16:27 17.07.2022
1010 Clear 23 1016 83 10000 4.12 350 14:58 17.07.2022
1011 Clear 22 926 78 10000 3.6 340 13:32 17.07.2022
1012 Clear 22 963 81 10000 3.09 320 11:50 17.07.2022
1013 Clear 22 702 46 10000 1.03 40 09:30 17.07.2022
1014 Clear 22 702 46 10000 1.03 30 05:54 17.07.2022
1015 Clear 23 962 81 10000 1.54 120 02:33 17.07.2022
1016 Clear 26 1011 64 10000 2.57 100 23:21 16.07.2022
1017 Clear 28 1011 51 10000 3.09 120 21:47 16.07.2022
1018 Clear 29 1011 50 10000 3.09 70 20:25 16.07.2022
1019 Clear 28 1012 54 10000 4.12 20 18:41 16.07.2022
1020 Clear 27 1013 59 10000 3.6 50 17:20 16.07.2022
1021 Clear 24 1014 67 10000 5.14 20 15:23 16.07.2022
1022 Clear 21 957 80 10000 3.09 320 11:54 16.07.2022
1023 Clear 22 702 46 10000 2.06 20 09:37 16.07.2022
1024 Clear 22 702 46 10000 1.03 120 08:58 16.07.2022
1025 Clear 22 702 46 10000 1.03 120 08:33 16.07.2022
1026 Clear 22 702 46 10000 1.03 120 05:59 16.07.2022
1027 Clear 24 958 68 10000 3.09 320 03:31 16.07.2022
1028 Clear 25 924 59 10000 2.57 200 23:51 15.07.2022
1029 Clear 26 1013 62 10000 3.09 190 22:43 15.07.2022
1030 Clear 26 1012 66 10000 4.63 100 21:31 15.07.2022
1031 Clear 26 1012 66 10000 4.63 100 21:31 15.07.2022
1032 Clear 26 1012 61 10000 4.63 160 20:32 15.07.2022
1033 Clear 26 1013 63 10000 3.6 140 18:46 15.07.2022
1034 Clear 26 1015 57 10000 4.12 120 17:49 15.07.2022
1035 Clear 23 1017 78 10000 2.57 330 15:41 15.07.2022
1036 Clear 21 927 75 10000 3.09 330 13:22 15.07.2022
1037 Clear 21 927 76 10000 2.57 330 12:22 15.07.2022
1038 Clouds 18 1016 88 10000 1.03 120 10:51 15.07.2022
1039 Clouds 22 702 46 10000 1.03 0 07:47 15.07.2022
1040 Clear 23 967 73 10000 2.57 70 02:39 15.07.2022
1041 Clear 23 966 77 10000 3.09 100 00:39 15.07.2022
1042 Clouds 24 927 71 10000 4.12 160 22:54 14.07.2022
1043 Clouds 24 927 70 10000 5.14 180 21:57 14.07.2022
1044 Clouds 24 1017 80 10000 5.14 180 21:33 14.07.2022
1045 Clouds 24 1017 79 10000 5.66 180 20:57 14.07.2022
1046 Clouds 24 1017 79 10000 5.66 180 20:37 14.07.2022
1047 Clouds 24 1017 79 10000 5.66 180 20:18 14.07.2022
1048 Clouds 24 1020 78 8000 3.6 140 17:25 14.07.2022
1049 Clouds 23 930 71 8000 3.09 330 16:18 14.07.2022
1050 Mist 22 930 79 7000 2.06 160 14:44 14.07.2022
1051 Mist 22 1027 96 5000 2.06 200 13:39 14.07.2022
1052 Mist 21 1026 96 6000 0.51 0 12:34 14.07.2022
1053 Clouds 20 1023 100 7000 1.03 320 11:26 14.07.2022
1054 Mist 20 1021 94 5000 1.54 10 10:51 14.07.2022
1055 Rain 21 1022 88 7000 1.54 330 08:45 14.07.2022
1056 Mist 21 1022 100 5000 2.06 50 04:44 14.07.2022
1057 Clouds 22 1025 90 8000 5.66 140 01:18 14.07.2022
1058 Clouds 22 1024 90 8000 5.66 140 00:50 14.07.2022
1059 Mist 22 1026 86 8000 5.66 150 22:30 13.07.2022
1060 Clouds 22 1026 86 8000 6.17 140 21:42 13.07.2022
1061 Clouds 23 1026 85 7000 6.69 160 20:38 13.07.2022
1062 Drizzle 23 1026 83 10000 4.63 160 18:36 13.07.2022
1063 Clouds 23 1027 80 10000 5.66 240 17:31 13.07.2022
1064 Clouds 23 1027 80 10000 5.66 240 17:31 13.07.2022
1065 Clouds 23 1027 80 10000 5.66 240 17:31 13.07.2022
1066 Clouds 23 1027 86 10000 4.63 160 16:19 13.07.2022
1067 Clouds 22 1022 81 8000 5.14 180 14:46 13.07.2022
1068 Clouds 22 1022 81 8000 5.14 180 14:46 13.07.2022
1069 Drizzle 22 1019 83 8000 4.63 200 11:54 13.07.2022
1070 Clouds 21 1019 83 10000 4.63 250 10:45 13.07.2022
1071 Clear 22 1018 78 10000 4.63 240 09:54 13.07.2022
1072 Clear 22 1018 78 10000 4.63 240 09:20 13.07.2022
1073 Clear 21 1016 83 10000 6.17 260 05:29 13.07.2022
1074 Clear 27 1014 44 10000 2.57 330 01:22 13.07.2022
1075 Clear 26 1013 54 10000 3.09 330 23:35 12.07.2022
1076 Clear 28 1018 47 10000 3.6 60 21:53 12.07.2022
1077 Clear 28 1018 47 10000 3.6 60 21:18 12.07.2022
1078 Clear 30 1018 36 10000 4.63 340 20:41 12.07.2022
1079 Clear 30 1019 33 10000 6.17 300 18:56 12.07.2022
1080 Clear 30 1020 34 10000 6.69 310 17:38 12.07.2022
1081 Clear 29 1021 35 10000 7.2 310 15:42 12.07.2022
1082 Clear 24 1014 64 10000 6.17 10 14:23 12.07.2022
1083 Clear 21 1013 76 10000 4.63 360 12:19 12.07.2022
1084 Clear 17 1012 94 10000 1.03 20 10:51 12.07.2022
1085 Clear 18 1012 88 10000 1.54 310 09:28 12.07.2022
1086 Clear 18 1012 88 10000 1.54 220 08:18 12.07.2022
1087 Clear 18 1013 88 10000 2.06 140 06:24 12.07.2022
1088 Clear 19 1013 88 10000 2.06 160 05:39 12.07.2022
1089 Clear 24 1016 64 10000 3.09 120 01:57 12.07.2022
1090 Clear 26 1017 53 10000 5.66 330 23:18 11.07.2022
1091 Clear 26 1017 58 10000 6.17 10 22:30 11.07.2022
1092 Clear 28 1016 46 10000 7.72 10 20:33 11.07.2022
1093 Clear 27 1017 48 10000 4.63 30 19:36 11.07.2022
1094 Clear 28 1018 38 10000 4.12 70 18:32 11.07.2022
1095 Clear 27 1020 47 10000 4.12 80 17:46 11.07.2022
1096 Clear 26 1019 53 10000 1.54 40 16:19 11.07.2022
1097 Clear 23 1017 73 10000 3.09 20 14:38 11.07.2022
1098 Clear 20 1016 88 10000 3.09 320 11:58 11.07.2022
1099 Clear 17 1017 94 10000 1.03 360 10:35 11.07.2022
1100 Clear 17 1017 94 10000 1.03 100 09:43 11.07.2022
1101 Clear 18 1017 88 10000 0 0 08:34 11.07.2022
1102 Clear 19 1018 82 10000 2.06 90 06:44 11.07.2022
1103 Clear 24 1020 70 10000 5.14 120 00:22 11.07.2022
1104 Clear 24 1022 74 10000 5.14 110 23:32 10.07.2022
1105 Clear 25 1022 72 10000 4.12 190 22:21 10.07.2022
1106 Clouds 26 1021 62 10000 4.63 160 20:54 10.07.2022
1107 Clouds 27 1022 59 10000 3.09 150 19:50 10.07.2022
1108 Clouds 26 1023 63 10000 2.57 90 18:53 10.07.2022
1109 Clear 26 1024 63 10000 3.6 30 17:41 10.07.2022
1110 Clear 24 1025 71 10000 2.57 330 16:58 10.07.2022
1111 Clear 24 1025 72 10000 2.57 330 16:20 10.07.2022
1112 Mist 23 1022 82 9000 2.06 360 14:35 10.07.2022
1113 Mist 20 1021 94 4500 2.06 20 12:38 10.07.2022
1114 Mist 20 1020 88 10000 2.57 20 11:34 10.07.2022
1115 Mist 18 1021 94 5000 0.51 0 09:30 10.07.2022
1116 Mist 19 1021 94 5000 1.03 0 08:42 10.07.2022
1117 Mist 19 1022 88 4000 0.51 0 06:32 10.07.2022
1118 Clouds 22 1026 88 10000 6.17 160 23:35 09.07.2022
1119 Clouds 22 1026 86 10000 6.17 170 22:26 09.07.2022
1120 Clouds 22 1026 83 10000 6.17 170 21:40 09.07.2022
1121 Clouds 24 1026 73 9000 4.63 170 19:37 09.07.2022
1122 Clouds 24 1027 71 8000 4.12 150 18:26 09.07.2022
1123 Clouds 24 1028 74 7000 2.57 180 17:21 09.07.2022
1124 Clouds 23 1029 78 6000 2.06 190 16:25 09.07.2022
1125 Clouds 22 1030 78 6000 2.06 10 15:38 09.07.2022
1126 Clouds 20 1025 85 7000 2.57 30 14:22 09.07.2022
1127 Mist 19 1024 90 7000 4.12 20 13:47 09.07.2022
1128 Clouds 20 1023 94 9000 4.12 50 11:45 09.07.2022
1129 Clouds 17 1022 94 6000 2.06 310 10:26 09.07.2022
1130 Clouds 17 1022 94 6000 1.54 270 09:38 09.07.2022
1131 Clouds 18 1023 88 7000 2.06 290 07:44 09.07.2022
1132 Clear 23 1023 60 10000 2.57 320 04:41 09.07.2022
1133 Clear 24 1026 65 10000 5.14 180 23:43 08.07.2022
1134 Clear 24 1026 67 10000 5.14 170 22:33 08.07.2022
1135 Clear 26 1025 61 10000 6.69 150 21:27 08.07.2022
1136 Clear 28 1025 49 10000 3.6 50 20:38 08.07.2022
1137 Clear 28 1025 52 10000 3.09 40 19:38 08.07.2022
1138 Clear 27 1026 55 10000 3.09 60 17:50 08.07.2022
1139 Clear 26 1027 58 10000 3.09 10 16:29 08.07.2022
1140 Clear 22 1022 77 10000 3.09 360 14:50 08.07.2022
1141 Clear 19 1021 88 10000 3.6 340 12:42 08.07.2022
1142 Clear 16 1020 88 10000 0 0 10:52 08.07.2022
1143 Clear 16 1020 88 10000 2.06 70 09:58 08.07.2022
1144 Clear 18 1020 88 10000 2.06 80 07:53 08.07.2022
1145 Clear 24 1039 82 10000 3.09 60 06:23 08.07.2022
1146 Clear 25 1019 57 10000 5.14 200 00:41 08.07.2022
1147 Clear 26 1023 49 10000 4.63 190 22:53 07.07.2022
1148 Clear 27 1022 45 10000 3.6 180 21:52 07.07.2022
1149 Clear 28 1023 43 10000 3.6 30 19:35 07.07.2022
1150 Clear 27 1024 42 10000 5.14 60 17:50 07.07.2022
1151 Clear 25 1025 55 10000 4.63 60 16:23 07.07.2022
1152 Clear 22 1020 76 10000 3.6 360 14:21 07.07.2022
1153 Clear 20 1018 76 10000 1.54 210 12:45 07.07.2022
1154 Clear 20 1018 76 10000 1.54 210 12:23 07.07.2022
1155 Clear 20 1017 77 10000 1.03 120 11:34 07.07.2022
1156 Clear 16 1016 88 8000 2.06 10 10:46 07.07.2022
1157 Clear 16 1016 88 8000 2.06 10 10:27 07.07.2022
1158 Clear 16 1016 94 10000 1.03 350 09:32 07.07.2022
1159 Clear 18 1017 88 10000 1.54 60 06:31 07.07.2022
1160 Clear 25 1035 63 10000 2.38 94 00:28 07.07.2022
1161 Clear 25 1035 66 10000 2.38 94 23:36 06.07.2022
1162 Clear 25 1035 66 10000 2.56 105 23:18 06.07.2022
1163 Clear 24 1021 60 10000 4.63 180 22:52 06.07.2022
1164 Clear 24 1021 61 10000 4.63 180 22:33 06.07.2022
1165 Clear 26 1021 51 10000 5.14 150 20:23 06.07.2022
1166 Clear 29 1021 35 10000 3.6 100 19:22 06.07.2022
1167 Clear 26 1023 56 10000 2.57 340 17:21 06.07.2022
1168 Clear 23 1025 70 10000 3.09 340 15:57 06.07.2022
1169 Clear 19 1018 90 10000 3.09 330 12:44 06.07.2022
1170 Clear 20 1018 88 10000 3.09 340 11:52 06.07.2022
1171 Clear 20 1017 88 9000 3.09 330 10:55 06.07.2022
1172 Clear 16 1017 88 10000 1.03 340 09:27 06.07.2022
1173 Clear 16 1017 88 10000 1.03 340 09:27 06.07.2022
1174 Clear 17 1018 88 10000 1.54 20 07:44 06.07.2022
1175 Clear 17 1018 88 10000 1.54 20 07:44 06.07.2022
1176 Clear 17 1019 88 10000 2.06 30 06:44 06.07.2022
1177 Clear 24 1020 58 10000 4.12 190 00:38 06.07.2022
1178 Clear 25 1022 58 10000 6.17 180 22:43 05.07.2022
1179 Clear 28 1021 40 10000 3.09 70 20:49 05.07.2022
1180 Clear 28 1021 40 10000 3.09 70 20:31 05.07.2022
1181 Clear 28 1021 40 10000 3.09 80 19:38 05.07.2022
1182 Clear 26 1023 54 10000 4.12 20 17:51 05.07.2022
1183 Clear 26 1024 55 10000 4.12 20 17:19 05.07.2022
1184 Clear 25 1024 63 10000 4.63 50 16:32 05.07.2022
1185 Clear 21 1019 83 10000 3.09 340 14:54 05.07.2022
1186 Clear 21 1019 88 10000 3.09 350 13:36 05.07.2022
1187 Clear 19 1019 91 10000 2.57 330 12:26 05.07.2022
1188 Clear 16 1018 94 7000 1.03 30 10:46 05.07.2022
1189 Clear 16 1018 94 8000 1.03 360 09:58 05.07.2022
1190 Clear 17 1018 88 10000 1.03 10 08:23 05.07.2022
1191 Clear 17 1019 88 10000 1.54 70 06:59 05.07.2022
1192 Clear 22 1019 78 10000 2.57 300 04:39 05.07.2022
1193 Clear 24 1019 69 10000 1.54 140 01:33 05.07.2022
1194 Clear 24 1024 66 10000 4.12 190 23:38 04.07.2022
1195 Clear 24 1024 67 10000 5.14 180 22:57 04.07.2022
1196 Clear 24 1024 67 10000 5.14 180 22:19 04.07.2022
1197 Clear 25 1023 68 10000 5.14 160 20:57 04.07.2022
1198 Clear 25 1023 69 10000 5.14 160 20:37 04.07.2022
1199 Clear 25 1024 70 10000 5.14 150 19:57 04.07.2022
1200 Clear 25 1024 70 10000 5.14 150 19:37 04.07.2022
1201 Clear 27 1025 55 10000 2.57 170 18:54 04.07.2022
1202 Clear 25 1026 61 10000 2.57 170 17:23 04.07.2022
1203 Clear 22 1027 75 10000 3.09 350 15:41 04.07.2022
1204 Clear 21 1022 85 10000 3.6 340 14:21 04.07.2022
1205 Fog 19 1021 90 10000 3.09 330 12:56 04.07.2022
1206 Clear 20 1020 88 10000 3.6 340 11:32 04.07.2022
1207 Clear 16 1020 94 6000 2.06 20 10:33 04.07.2022
1208 Clear 16 1020 94 6000 0 0 09:23 04.07.2022
1209 Clear 18 1021 88 10000 1.03 100 06:42 04.07.2022
1210 Clear 23 1021 78 10000 1.54 160 02:59 04.07.2022
1211 Clear 25 1020 66 10000 4.12 200 23:53 03.07.2022
1212 Clear 25 1025 61 10000 4.12 190 22:48 03.07.2022
1213 Clear 28 1025 52 10000 3.09 70 20:46 03.07.2022
1214 Clear 27 1025 57 10000 3.09 360 19:59 03.07.2022
1215 Clear 27 1025 58 10000 3.09 360 19:25 03.07.2022
1216 Clear 27 1026 60 10000 2.57 10 18:30 03.07.2022
1217 Clear 26 1027 62 9000 3.09 10 17:41 03.07.2022
1218 Clear 24 1028 68 7000 4.12 360 15:28 03.07.2022
1219 Clear 21 1022 79 7000 4.63 20 14:54 03.07.2022
1220 Mist 20 1021 88 7000 5.14 360 13:50 03.07.2022
1221 Mist 20 1026 93 8000 3.6 350 12:49 03.07.2022
1222 Mist 19 1020 94 8000 3.6 350 12:19 03.07.2022
1223 Mist 20 1020 94 8000 4.63 350 10:54 03.07.2022
1224 Mist 16 1020 94 5000 1.54 20 10:36 03.07.2022
1225 Clear 17 1020 88 10000 1.03 60 08:21 03.07.2022
1226 Clear 17 1020 88 10000 1.03 70 07:34 03.07.2022
1227 Clear 24 1022 66 10000 1.54 210 00:41 03.07.2022
1228 Clear 24 1024 70 10000 2.57 200 23:38 02.07.2022
1229 Clear 24 1024 67 10000 2.57 120 22:31 02.07.2022
1230 Clear 26 1024 59 10000 3.09 60 20:37 02.07.2022
1231 Clear 25 1024 62 10000 3.09 150 19:50 02.07.2022
1232 Clear 25 1024 59 10000 3.09 150 19:19 02.07.2022
1233 Clear 24 1025 65 9000 3.09 20 17:40 02.07.2022
1234 Clear 23 1026 74 9000 2.57 30 16:35 02.07.2022
1235 Clouds 19 1021 90 10000 2.06 320 13:51 02.07.2022
1236 Clouds 19 1019 88 10000 1.03 340 11:51 02.07.2022
1237 Clouds 17 1020 94 8000 1.03 80 10:52 02.07.2022
1238 Clouds 17 1020 94 8000 1.03 80 10:32 02.07.2022
1239 Clouds 19 1020 88 9000 2.57 120 08:39 02.07.2022
1240 Clouds 19 1020 88 9000 2.57 120 08:19 02.07.2022
1241 Clouds 20 1021 83 10000 3.09 90 05:59 02.07.2022
1242 Clouds 22 1023 86 10000 4.63 120 00:47 02.07.2022
1243 Clouds 21 1025 90 10000 4.63 130 23:31 01.07.2022
1244 Clouds 22 1024 86 10000 5.14 150 22:40 01.07.2022
1245 Clouds 22 1024 82 10000 4.63 150 21:40 01.07.2022
1246 Clouds 22 1024 79 10000 4.12 160 20:59 01.07.2022
1247 Clouds 22 1024 77 10000 4.12 160 20:37 01.07.2022
1248 Clouds 22 1019 68 9000 3.6 60 19:41 01.07.2022
1249 Clouds 22 1020 70 9000 3.09 10 17:52 01.07.2022
1250 Clouds 21 1021 78 10000 2.06 20 15:26 01.07.2022
1251 Clouds 19 1020 88 10000 1.54 310 13:54 01.07.2022
1252 Clouds 19 1018 88 9000 1.54 60 11:50 01.07.2022
1253 Clouds 17 1018 94 8000 0 0 10:20 01.07.2022
1254 Clouds 17 1019 94 10000 1.03 50 08:50 01.07.2022
1255 Clouds 20 1019 83 10000 2.57 40 03:42 01.07.2022
1256 Clouds 20 1019 77 10000 4.12 170 00:26 01.07.2022
1257 Clouds 21 1018 76 10000 5.14 160 22:58 30.06.2022
1258 Clouds 21 1018 76 10000 5.14 160 22:33 30.06.2022
1259 Clouds 21 1017 71 10000 5.14 150 21:59 30.06.2022
1260 Clouds 21 1017 71 10000 5.14 150 21:41 30.06.2022
1261 Clouds 22 1017 71 10000 5.14 160 20:29 30.06.2022
1262 Clouds 22 1017 71 10000 5.14 110 19:54 30.06.2022
1263 Clouds 22 1017 71 10000 5.14 110 19:24 30.06.2022
1264 Clouds 22 1018 71 10000 4.63 110 18:42 30.06.2022
1265 Clouds 22 1019 67 10000 4.63 180 17:43 30.06.2022
1266 Clouds 22 1019 70 10000 3.09 160 16:48 30.06.2022
1267 Clouds 22 1019 65 10000 2.57 160 15:39 30.06.2022
1268 Clouds 21 1018 76 10000 3.6 190 13:34 30.06.2022
1269 Clouds 21 1018 75 10000 3.6 200 12:35 30.06.2022
1270 Clouds 21 1017 78 10000 4.63 210 11:37 30.06.2022
1271 Clouds 21 1016 78 10000 5.66 310 09:55 30.06.2022
1272 Clouds 21 1016 78 10000 5.66 310 09:35 30.06.2022
1273 Clouds 21 1016 78 10000 5.14 290 08:18 30.06.2022
1274 Clouds 21 1016 78 10000 6.17 250 07:23 30.06.2022
1275 Clear 24 1015 75 10000 2.06 310 01:47 30.06.2022
1276 Clouds 26 1017 62 10000 2.06 220 23:34 29.06.2022
1277 Clear 26 1011 57 10000 2.06 90 22:40 29.06.2022
1278 Clear 27 1011 53 10000 2.06 350 21:39 29.06.2022
1279 Clear 27 1011 59 10000 2.57 350 20:34 29.06.2022
1280 Clear 27 1011 58 10000 3.09 30 19:48 29.06.2022
1281 Clear 25 1014 63 10000 4.12 10 17:54 29.06.2022
1282 Clear 23 1014 69 10000 4.12 10 16:48 29.06.2022
1283 Clear 22 1015 74 10000 4.63 360 15:32 29.06.2022
1284 Mist 20 1015 88 10000 5.14 340 13:20 29.06.2022
1285 Clear 19 1014 82 10000 3.6 10 11:57 29.06.2022
1286 Clear 15 1015 94 8000 1.03 320 09:43 29.06.2022
1287 Clear 15 1015 94 8000 1.03 320 09:21 29.06.2022
1288 Clear 16 1016 88 10000 1.03 140 06:27 29.06.2022
1289 Clear 21 1017 73 10000 3.09 10 02:21 29.06.2022
1290 Clear 21 1017 78 10000 1.03 100 00:52 29.06.2022
1291 Clear 21 1017 78 10000 1.03 100 00:33 29.06.2022
1292 Clear 22 1016 66 10000 2.06 150 22:49 28.06.2022
1293 Clear 23 1016 57 10000 2.57 110 21:57 28.06.2022
1294 Clear 23 1016 57 10000 2.57 110 21:38 28.06.2022
1295 Clear 23 1016 53 10000 3.09 100 20:57 28.06.2022
1296 Clear 23 1017 49 10000 2.57 50 19:50 28.06.2022
1297 Clear 23 1017 49 10000 2.57 50 19:24 28.06.2022
1298 Clear 22 1017 60 10000 2.57 340 18:37 28.06.2022
1299 Clear 20 1019 71 10000 2.57 20 16:47 28.06.2022
1300 Clear 19 1020 78 10000 3.6 30 15:54 28.06.2022
1301 Clear 18 1020 79 10000 2.06 360 14:48 28.06.2022
1302 Clear 18 1020 79 10000 2.06 360 14:18 28.06.2022
1303 Clouds 17 1019 88 10000 3.09 320 13:45 28.06.2022
1304 Clear 17 1019 77 10000 2.06 10 11:58 28.06.2022
1305 Clear 13 1018 94 10000 1.03 0 09:53 28.06.2022
1306 Clear 15 1019 88 10000 2.06 330 08:55 28.06.2022
1307 Clear 15 1019 88 10000 2.06 330 08:26 28.06.2022
1308 Clear 14 1019 88 10000 1.54 70 07:20 28.06.2022
1309 Clouds 19 1021 72 10000 4.12 70 03:38 28.06.2022
1310 Clouds 20 1021 72 10000 4.63 120 23:51 27.06.2022
1311 Clouds 20 1021 72 10000 4.63 120 23:25 27.06.2022
1312 Clouds 21 1020 66 10000 5.14 160 21:53 27.06.2022
1313 Clouds 21 1020 66 10000 5.14 160 21:22 27.06.2022
1314 Clouds 21 1020 62 10000 4.63 160 20:21 27.06.2022
1315 Clouds 21 1021 62 10000 3.6 90 18:50 27.06.2022
1316 Clouds 20 1022 70 10000 3.09 330 17:33 27.06.2022
1317 Clouds 20 1024 77 10000 2.06 340 15:44 27.06.2022
1318 Clouds 19 1023 81 10000 1.54 350 14:18 27.06.2022
1319 Mist 18 1022 84 10000 1.54 300 12:58 27.06.2022
1320 Clouds 18 1021 82 10000 1.54 10 11:40 27.06.2022
1321 Clouds 17 1022 88 8000 0 0 09:49 27.06.2022
1322 Clouds 17 1022 88 7000 1.54 320 08:43 27.06.2022
1323 Clouds 17 1022 94 8000 1.54 350 07:49 27.06.2022
1324 Clouds 18 1023 82 8000 1.03 50 06:28 27.06.2022
1325 Clouds 20 1022 77 10000 4.12 130 01:25 27.06.2022
1326 Clouds 20 1021 68 10000 2.06 130 23:22 26.06.2022
1327 Clouds 20 1020 71 10000 4.12 160 21:39 26.06.2022
1328 Clouds 21 1020 74 10000 4.12 170 20:33 26.06.2022
1329 Clouds 21 1021 77 8000 2.57 120 18:38 26.06.2022
1330 Clouds 21 1021 77 8000 2.57 120 18:20 26.06.2022
1331 Clouds 21 1022 79 8000 4.63 150 15:37 26.06.2022
1332 Clouds 21 1022 79 6000 4.12 180 14:33 26.06.2022
1333 Mist 20 1021 83 6000 5.66 170 13:27 26.06.2022
1334 Clouds 20 1020 80 6000 6.17 150 12:37 26.06.2022
1335 Clouds 21 1020 73 6000 6.17 170 10:53 26.06.2022
1336 Clouds 20 1020 77 8000 2.06 140 10:22 26.06.2022
1337 Clouds 20 1019 83 8000 0 0 08:45 26.06.2022
1338 Clouds 20 1019 94 8000 1.03 220 07:18 26.06.2022
1339 Clouds 23 1020 68 10000 4.63 240 00:45 26.06.2022
1340 Clouds 23 1020 68 10000 4.63 240 00:20 26.06.2022
1341 Clouds 22 1020 70 10000 4.12 230 23:33 25.06.2022
1342 Clouds 22 1019 68 10000 6.17 210 22:51 25.06.2022
1343 Clouds 22 1019 68 10000 6.17 210 22:25 25.06.2022
1344 Clouds 22 1018 72 10000 6.69 210 21:22 25.06.2022
1345 Clouds 23 1018 67 10000 8.75 210 20:54 25.06.2022
1346 Clouds 23 1018 67 10000 8.75 210 20:25 25.06.2022
1347 Haze 24 1018 72 10000 6.17 170 18:42 25.06.2022
1348 Haze 23 1018 76 7000 4.63 220 17:27 25.06.2022
1349 Haze 22 1019 79 6000 5.14 240 16:31 25.06.2022
1350 Mist 19 1018 92 2500 3.09 330 14:47 25.06.2022
1351 Mist 19 1018 94 2500 1.54 10 12:51 25.06.2022
1352 Mist 19 1018 94 2500 1.54 10 12:32 25.06.2022
1353 Clouds 19 1017 88 6000 2.57 320 09:40 25.06.2022
1354 Clouds 19 1017 94 6000 2.06 290 08:56 25.06.2022
1355 Clouds 19 1017 94 6000 2.06 290 08:28 25.06.2022
1356 Clouds 19 1018 94 6000 2.06 290 06:46 25.06.2022
1357 Clear 21 1018 88 10000 2.57 170 03:26 25.06.2022
1358 Clear 22 1017 88 10000 4.63 170 00:21 25.06.2022
1359 Clear 25 1015 65 10000 6.17 190 22:31 24.06.2022
1360 Clear 26 1015 56 10000 6.17 180 21:29 24.06.2022
1361 Clear 27 1015 54 10000 4.12 310 20:25 24.06.2022
1362 Clear 27 1015 58 10000 2.06 300 19:52 24.06.2022
1363 Clear 27 1015 58 10000 2.06 300 19:19 24.06.2022
1364 Clear 26 1016 57 10000 2.57 350 18:47 24.06.2022
1365 Clear 26 1016 57 10000 2.57 350 18:29 24.06.2022
1366 Clear 24 1018 70 10000 3.09 350 16:52 24.06.2022
1367 Clear 22 1018 74 10000 3.09 360 15:27 24.06.2022
1368 Clear 20 1018 86 10000 3.6 20 14:25 24.06.2022
1369 Mist 19 1017 92 10000 4.12 350 13:53 24.06.2022
1370 Clear 20 1016 88 10000 3.6 330 11:42 24.06.2022
1371 Mist 16 1016 94 5000 1.03 290 10:43 24.06.2022
1372 Mist 17 1016 94 5000 1.03 300 09:42 24.06.2022
1373 Clear 17 1016 94 6000 1.03 360 08:58 24.06.2022
1374 Clear 17 1016 94 6000 1.03 360 08:40 24.06.2022
1375 Clear 17 1017 94 7000 1.03 60 06:47 24.06.2022
1376 Clear 17 1017 94 7000 1.03 60 06:27 24.06.2022
1377 Clear 17 1017 94 7000 1.03 50 05:51 24.06.2022
1378 Clear 23 1015 73 10000 2.06 170 00:47 24.06.2022
1379 Clear 24 1015 73 10000 2.06 90 22:44 23.06.2022
1380 Clear 27 1015 60 10000 3.09 50 21:43 23.06.2022
1381 Clear 28 1015 53 10000 2.57 70 20:53 23.06.2022
1382 Clear 28 1015 53 10000 2.57 70 20:31 23.06.2022
1383 Clear 26 1016 59 10000 2.57 360 18:43 23.06.2022
1384 Clear 25 1017 62 10000 4.12 10 17:37 23.06.2022
1385 Clear 24 1018 71 10000 4.12 10 16:34 23.06.2022
1386 Clear 22 1018 76 8000 3.6 340 15:27 23.06.2022
1387 Clear 21 1018 86 8000 4.12 340 14:51 23.06.2022
1388 Clear 20 1016 94 10000 3.6 350 11:54 23.06.2022
1389 Clear 20 1016 94 10000 3.6 350 11:19 23.06.2022
1390 Clear 16 1015 88 9000 0 0 09:20 23.06.2022
1391 Clear 23 1034 87 10000 1.54 20 05:51 23.06.2022
1392 Clear 23 1018 68 10000 3.6 190 01:22 23.06.2022
1393 Clear 23 1018 73 10000 3.6 160 00:25 23.06.2022
1394 Clear 24 1021 69 10000 3.6 160 23:22 22.06.2022
1395 Clear 25 1019 68 10000 4.12 150 21:44 22.06.2022
1396 Clear 26 1019 62 10000 4.63 150 20:52 22.06.2022
1397 Clear 27 1019 58 10000 4.63 150 20:20 22.06.2022
1398 Clear 28 1019 50 10000 4.12 300 19:44 22.06.2022
1399 Clear 27 1020 57 10000 3.6 40 17:50 22.06.2022
1400 Clear 27 1020 57 10000 3.6 40 17:20 22.06.2022
1401 Clear 24 1016 69 10000 4.63 20 15:46 22.06.2022
1402 Clear 24 1016 69 10000 4.63 20 15:22 22.06.2022
1403 Clear 21 1015 87 10000 3.6 10 13:50 22.06.2022
1404 Clear 21 1015 87 10000 3.6 10 13:25 22.06.2022
1405 Clear 20 1015 84 10000 3.09 10 12:44 22.06.2022
1406 Clear 20 1014 88 10000 2.57 310 11:47 22.06.2022
1407 Clear 20 1014 94 10000 2.57 320 10:53 22.06.2022
1408 Clear 18 1015 94 10000 1.03 220 09:44 22.06.2022
1409 Clear 19 1015 94 10000 1.03 90 07:56 22.06.2022
1410 Clear 22 1016 88 10000 2.57 310 03:25 22.06.2022
1411 Clear 23 1019 85 10000 2.06 120 01:21 22.06.2022
1412 Clear 23 1021 86 10000 2.57 130 23:39 21.06.2022
1413 Clear 25 1021 77 10000 2.57 150 21:31 21.06.2022
1414 Clear 24 1022 79 10000 3.09 140 19:43 21.06.2022
1415 Mist 23 1023 88 5000 2.57 340 17:57 21.06.2022
1416 Mist 21 1024 97 5000 3.09 360 16:52 21.06.2022
1417 Mist 19 1019 98 10000 3.09 360 12:40 21.06.2022
1418 Clouds 18 1019 94 7000 1.03 310 10:55 21.06.2022
1419 Clouds 18 1019 88 8000 1.54 320 09:48 21.06.2022
1420 Clear 17 1019 94 10000 1.03 40 08:22 21.06.2022
1421 Clear 17 1019 94 10000 1.03 40 08:22 21.06.2022
1422 Clear 19 1020 94 10000 1.54 90 05:37 21.06.2022
1423 Clouds 22 1018 83 10000 2.06 160 00:43 21.06.2022
1424 Clouds 23 1018 78 10000 3.6 180 22:25 20.06.2022
1425 Clouds 23 1018 73 10000 3.6 180 21:50 20.06.2022
1426 Clear 24 1017 69 10000 4.12 180 20:32 20.06.2022
1427 Clear 23 1018 76 10000 2.57 150 19:38 20.06.2022
1428 Clear 22 1018 73 10000 2.06 20 18:44 20.06.2022
1429 Clear 21 1020 78 10000 2.06 330 17:52 20.06.2022
1430 Clear 21 1020 78 10000 2.06 330 17:29 20.06.2022
1431 Mist 19 1021 88 8000 3.09 360 15:55 20.06.2022
1432 Drizzle 18 1021 96 10000 2.57 50 12:44 20.06.2022
1433 Clouds 16 1020 100 8000 0.51 320 10:41 20.06.2022
1434 Clouds 16 1020 94 10000 1.03 310 09:41 20.06.2022
1435 Clouds 16 1020 94 10000 1.03 310 09:41 20.06.2022
1436 Clouds 16 1020 94 10000 1.03 160 08:44 20.06.2022
1437 Clouds 20 1041 100 10000 1.03 100 05:55 20.06.2022
1438 Clouds 20 1025 81 10000 1.54 120 02:29 20.06.2022
1439 Clouds 20 1025 81 10000 1.54 100 00:26 20.06.2022
1440 Mist 20 1021 81 10000 2.06 70 22:59 19.06.2022
1441 Mist 20 1027 86 10000 3.09 130 21:58 19.06.2022
1442 Mist 20 1027 86 10000 3.09 130 21:40 19.06.2022
1443 Clouds 20 1027 92 10000 4.12 130 20:39 19.06.2022
1444 Mist 19 1027 91 10000 2.57 190 19:48 19.06.2022
1445 Mist 19 1027 92 10000 2.57 190 19:19 19.06.2022
1446 Clouds 19 1028 93 6000 4.12 140 18:30 19.06.2022
1447 Mist 18 1029 96 7000 4.63 140 17:22 19.06.2022
1448 Mist 19 1029 96 4500 5.66 160 16:36 19.06.2022
1449 Mist 19 1029 94 4000 4.63 160 15:43 19.06.2022
1450 Mist 19 1029 94 4000 4.63 160 15:24 19.06.2022
1451 Clouds 20 1029 96 6000 2.57 230 14:20 19.06.2022
1452 Clouds 19 1028 96 6000 2.06 60 13:37 19.06.2022
1453 Clouds 19 1021 94 6000 3.09 100 11:40 19.06.2022
1454 Mist 18 1021 94 3000 1.54 340 10:49 19.06.2022
1455 Clouds 18 1020 94 6000 3.6 310 08:54 19.06.2022
1456 Clouds 18 1020 94 6000 3.6 310 08:30 19.06.2022
1457 Clouds 19 1021 88 7000 2.06 280 05:59 19.06.2022
1458 Mist 21 1020 88 7000 3.09 210 03:19 19.06.2022
1459 Clouds 21 1019 88 7000 5.14 230 00:26 19.06.2022
1460 Mist 21 1018 88 5000 6.17 200 23:37 18.06.2022
1461 Mist 21 1018 88 5000 6.17 200 23:19 18.06.2022
1462 Mist 23 1016 78 10000 5.66 210 21:54 18.06.2022
1463 Clouds 24 1015 72 10000 5.66 220 20:50 18.06.2022
1464 Clouds 26 1015 63 10000 7.2 280 19:50 18.06.2022
1465 Clouds 27 1014 58 10000 8.23 270 18:54 18.06.2022
1466 Clouds 27 1014 59 10000 8.23 270 18:30 18.06.2022
1467 Clouds 25 1014 66 10000 3.6 180 17:29 18.06.2022
1468 Clouds 21 1013 74 10000 3.6 340 15:46 18.06.2022
1469 Clear 21 1013 79 10000 3.6 360 14:50 18.06.2022
1470 Clear 20 1013 84 10000 5.14 10 13:58 18.06.2022
1471 Clear 19 1012 92 10000 3.09 330 12:28 18.06.2022
1472 Clear 16 1011 88 7000 2.06 270 10:59 18.06.2022
1473 Clear 16 1010 88 7000 1.03 220 09:39 18.06.2022
1474 Clear 16 1010 94 6000 1.03 0 08:40 18.06.2022
1475 Clear 17 1010 88 6000 1.03 360 07:34 18.06.2022
1476 Clear 16 1010 94 10000 1.03 0 05:20 18.06.2022
1477 Clear 24 1008 64 10000 2.57 310 01:50 18.06.2022
1478 Clear 24 1008 64 10000 2.57 310 01:21 18.06.2022
1479 Clear 22 1008 68 10000 1.54 130 00:23 18.06.2022
1480 Clear 22 1008 68 10000 1.54 130 00:23 18.06.2022
1481 Clear 22 1014 77 10000 1.54 140 23:37 17.06.2022
1482 Clear 24 1014 67 10000 2.06 140 22:29 17.06.2022
1483 Clear 25 1015 52 10000 2.57 140 20:29 17.06.2022
1484 Clear 25 1016 58 10000 4.12 60 19:24 17.06.2022
1485 Clear 22 1017 65 10000 3.6 310 17:58 17.06.2022
1486 Haze 21 1018 79 9000 3.09 330 16:50 17.06.2022
1487 Haze 21 1018 83 9000 3.09 330 16:25 17.06.2022
1488 Mist 19 1019 92 6000 2.57 340 15:40 17.06.2022
1489 Mist 17 1014 98 7000 3.09 340 14:23 17.06.2022
1490 Mist 17 1014 98 6000 3.6 340 13:59 17.06.2022
1491 Mist 17 1014 98 6000 3.6 340 13:38 17.06.2022
1492 Fog 18 1014 94 10000 2.06 320 12:29 17.06.2022
1493 Mist 17 1014 94 10000 2.06 350 11:55 17.06.2022
1494 Mist 17 1014 94 10000 2.06 350 11:34 17.06.2022
1495 Clear 15 1014 94 8000 1.03 20 09:46 17.06.2022
1496 Clear 16 1015 94 9000 1.03 30 08:26 17.06.2022
1497 Clear 17 1016 88 10000 1.03 80 06:51 17.06.2022
1498 Clear 19 1016 88 10000 2.57 10 04:19 17.06.2022
1499 Clear 20 1016 83 10000 2.57 180 01:56 17.06.2022
1500 Clear 20 1016 83 10000 3.09 180 00:24 17.06.2022
1501 Clear 21 1016 74 10000 5.66 170 22:42 16.06.2022
1502 Clear 22 1016 63 10000 5.14 170 21:23 16.06.2022
1503 Clear 23 1016 63 10000 4.63 150 20:56 16.06.2022
1504 Clear 23 1016 63 10000 4.63 150 20:36 16.06.2022
1505 Clear 23 1016 63 10000 4.63 150 20:36 16.06.2022
1506 Clear 23 1016 51 10000 2.57 90 19:45 16.06.2022
1507 Clear 23 1017 49 10000 3.6 40 18:26 16.06.2022
1508 Clear 22 1018 65 10000 3.09 10 17:43 16.06.2022
1509 Clear 21 1019 69 10000 3.09 20 16:39 16.06.2022
1510 Clear 19 1020 77 10000 2.57 30 15:22 16.06.2022
1511 Clouds 18 1020 84 7000 3.09 340 14:37 16.06.2022
1512 Clouds 18 1020 88 7000 3.09 330 13:32 16.06.2022
1513 Clear 16 1019 94 10000 2.57 320 12:36 16.06.2022
1514 Clear 17 1019 88 10000 2.06 320 11:52 16.06.2022
1515 Clear 17 1019 88 10000 2.06 320 10:56 16.06.2022
1516 Clouds 13 1019 94 10000 1.03 80 10:27 16.06.2022
1517 Clear 16 1020 88 10000 1.54 250 09:21 16.06.2022
1518 Clear 14 1020 94 10000 1.03 40 08:30 16.06.2022
1519 Clear 15 1020 94 10000 1.03 330 07:26 16.06.2022
1520 Clear 14 1021 94 10000 1.54 120 05:29 16.06.2022
1521 Clear 19 1020 77 10000 1.03 110 02:50 16.06.2022
1522 Clear 19 1020 77 10000 2.57 90 01:50 16.06.2022
1523 Clear 19 1020 77 10000 2.57 90 01:21 16.06.2022
1524 Clouds 20 1020 71 10000 4.12 100 23:47 15.06.2022
1525 Clouds 21 1024 65 10000 3.6 130 22:42 15.06.2022
1526 Clouds 22 1024 60 10000 4.12 120 21:23 15.06.2022
1527 Clouds 22 1024 61 10000 3.6 140 20:45 15.06.2022
1528 Clouds 22 1024 60 10000 3.6 140 20:27 15.06.2022
1529 Clouds 22 1025 55 10000 3.09 140 19:30 15.06.2022
1530 Clouds 21 1026 68 10000 2.57 310 17:58 15.06.2022
1531 Clouds 21 1027 69 10000 2.57 310 17:33 15.06.2022
1532 Mist 19 1023 85 9000 3.09 350 15:46 15.06.2022
1533 Mist 19 1023 90 7000 2.57 340 14:26 15.06.2022
1534 Mist 17 1022 93 10000 2.06 20 12:54 15.06.2022
1535 Mist 17 1022 93 10000 2.06 20 12:28 15.06.2022
1536 Mist 16 1022 94 2500 1.54 250 10:27 15.06.2022
1537 Mist 15 1022 94 2000 1.54 260 09:53 15.06.2022
1538 Mist 14 1022 94 3000 0 0 08:50 15.06.2022
1539 Clouds 16 1023 94 10000 0.51 60 06:42 15.06.2022
1540 Clouds 18 1022 91 10000 1.54 150 04:51 15.06.2022
1541 Clouds 18 1022 91 10000 1.03 100 02:28 15.06.2022
1542 Clouds 20 1022 83 10000 1.54 280 00:54 15.06.2022
1543 Clouds 19 1022 84 10000 2.57 280 23:55 14.06.2022
1544 Clouds 19 1022 84 10000 2.57 280 23:37 14.06.2022
1545 Clouds 19 1021 85 10000 2.06 170 22:33 14.06.2022
1546 Clouds 20 1021 81 10000 1.54 190 21:42 14.06.2022
1547 Mist 20 1021 84 10000 2.06 270 20:57 14.06.2022
1548 Mist 20 1021 84 10000 2.06 270 20:34 14.06.2022
1549 Mist 20 1022 85 10000 2.06 80 19:25 14.06.2022
1550 Mist 19 1022 88 10000 2.06 320 18:25 14.06.2022
1551 Mist 19 1023 93 7000 3.09 310 16:50 14.06.2022
1552 Mist 18 1023 92 4500 2.57 310 15:52 14.06.2022
1553 Mist 19 1023 92 4500 3.09 330 15:34 14.06.2022
1554 Mist 19 1023 92 4500 3.09 330 15:34 14.06.2022
1555 Clouds 18 1023 95 6000 3.09 300 14:53 14.06.2022
1556 Mist 18 1023 93 7000 3.09 330 13:53 14.06.2022
1557 Clouds 17 1022 94 6000 3.6 310 12:56 14.06.2022
1558 Mist 17 1021 95 4000 3.6 310 11:54 14.06.2022
1559 Clouds 17 1021 88 6000 3.09 350 10:51 14.06.2022
1560 Clouds 17 1021 88 6000 3.09 350 10:25 14.06.2022
1561 Clouds 17 1021 88 6000 3.09 350 10:25 14.06.2022
1562 Clouds 17 1022 88 7000 2.57 320 08:52 14.06.2022
1563 Clouds 17 1022 88 7000 2.57 320 08:23 14.06.2022
1564 Clouds 20 1023 85 10000 3.61 271 06:19 14.06.2022
1565 Clouds 20 1022 72 10000 3.09 260 03:39 14.06.2022
1566 Clouds 21 1021 66 10000 3.6 270 01:37 14.06.2022
1567 Clouds 21 1021 64 10000 4.12 240 00:21 14.06.2022
1568 Clouds 21 1021 61 10000 3.6 230 22:39 13.06.2022
1569 Clouds 21 1021 61 10000 3.6 230 22:19 13.06.2022
1570 Clouds 21 1020 56 10000 4.12 190 21:26 13.06.2022
1571 Clouds 23 1020 48 10000 4.63 330 19:59 13.06.2022
1572 Clouds 22 1020 51 10000 4.63 290 18:54 13.06.2022
1573 Clouds 22 1021 51 10000 5.14 310 17:55 13.06.2022
1574 Clouds 22 1021 51 10000 5.14 310 17:23 13.06.2022
1575 Clouds 21 1022 54 10000 4.63 280 16:30 13.06.2022
1576 Clouds 19 1022 64 10000 4.12 320 14:49 13.06.2022
1577 Clouds 19 1022 64 10000 4.12 320 14:31 13.06.2022
1578 Clouds 18 1021 68 10000 3.6 310 13:31 13.06.2022
1579 Clouds 16 1020 76 10000 4.12 320 12:22 13.06.2022
1580 Clear 15 1019 77 10000 3.6 300 10:37 13.06.2022
1581 Clear 16 1019 72 10000 3.09 260 09:54 13.06.2022
1582 Clouds 16 1019 72 10000 3.09 280 08:40 13.06.2022
1583 Clouds 18 1020 63 10000 3.09 280 06:37 13.06.2022
1584 Clouds 19 1020 59 10000 3.09 260 05:35 13.06.2022
1585 Clouds 19 1018 70 10000 5.66 220 01:55 13.06.2022
1586 Clouds 19 1018 70 10000 5.66 220 01:34 13.06.2022
1587 Clouds 19 1017 70 10000 7.72 220 23:48 12.06.2022
1588 Clouds 20 1016 71 10000 6.69 210 22:39 12.06.2022
1589 Clouds 20 1016 73 10000 6.69 200 21:53 12.06.2022
1590 Clouds 21 1015 71 10000 6.17 200 20:53 12.06.2022
1591 Clouds 21 1015 71 8000 6.17 200 19:59 12.06.2022
1592 Clouds 21 1015 71 8000 6.17 200 19:30 12.06.2022
1593 Clouds 21 1017 79 8000 3.09 170 17:40 12.06.2022
1594 Clouds 21 1018 86 8000 3.09 340 15:54 12.06.2022
1595 Clouds 19 1018 89 7000 3.6 300 14:51 12.06.2022
1596 Clouds 19 1018 89 7000 3.6 300 14:20 12.06.2022
1597 Clouds 19 1017 89 7000 3.09 290 13:49 12.06.2022
1598 Clouds 18 1017 94 7000 2.06 290 12:32 12.06.2022
1599 Clouds 19 1015 91 8000 1.54 290 11:22 12.06.2022
1600 Clouds 18 1015 94 8000 1.54 250 10:21 12.06.2022
1601 Clouds 18 1016 94 8000 2.06 290 08:54 12.06.2022
1602 Clouds 18 1016 94 8000 2.06 290 08:35 12.06.2022
1603 Clouds 18 1016 88 8000 2.06 310 07:31 12.06.2022
1604 Mist 19 1017 88 10000 3.09 200 04:35 12.06.2022
1605 Mist 18 1017 89 10000 4.63 200 02:33 12.06.2022
1606 Clouds 18 1017 91 10000 3.6 190 01:36 12.06.2022
1607 Clouds 19 1016 88 10000 4.12 190 00:58 12.06.2022
1608 Clouds 19 1016 88 10000 4.12 190 00:20 12.06.2022
1609 Mist 19 1016 90 10000 3.09 180 23:29 11.06.2022
1610 Mist 19 1016 90 7000 3.09 200 22:38 11.06.2022
1611 Mist 19 1016 90 6000 2.57 160 21:37 11.06.2022
1612 Mist 19 1016 92 4500 4.12 180 20:33 11.06.2022
1613 Mist 19 1016 91 4000 5.14 220 19:39 11.06.2022
1614 Clouds 20 1017 90 7000 3.09 290 18:56 11.06.2022
1615 Clouds 20 1017 90 7000 3.09 290 18:33 11.06.2022
1616 Mist 19 1018 90 4000 5.14 190 17:50 11.06.2022
1617 Mist 19 1018 90 4000 5.14 190 17:26 11.06.2022
1618 Mist 20 1018 90 4000 3.6 320 16:52 11.06.2022
1619 Mist 20 1018 90 4000 3.6 320 16:26 11.06.2022
1620 Clouds 20 1018 93 7000 3.09 320 15:28 11.06.2022
1621 Mist 19 1017 94 7000 2.57 330 13:53 11.06.2022
1622 Mist 19 1016 92 5000 3.09 270 12:36 11.06.2022
1623 Clouds 18 1015 94 7000 2.06 240 10:46 11.06.2022
1624 Clouds 18 1016 94 8000 2.06 290 09:48 11.06.2022
1625 Clouds 19 1016 88 8000 1.54 270 08:51 11.06.2022
1626 Clouds 20 1017 94 8000 2.57 290 06:47 11.06.2022
1627 Clouds 20 1017 94 8000 2.57 290 06:24 11.06.2022
1628 Clouds 20 1016 94 7000 2.57 300 04:23 11.06.2022
1629 Clouds 20 1015 88 10000 5.14 250 01:52 11.06.2022
1630 Clouds 20 1015 88 10000 5.14 250 01:27 11.06.2022
1631 Clouds 22 1014 83 9000 6.69 220 23:34 10.06.2022
1632 Clouds 23 1013 82 10000 8.75 220 22:31 10.06.2022
1633 Clouds 24 1012 76 10000 8.23 220 21:50 10.06.2022
1634 Clouds 26 1011 69 10000 8.23 250 20:40 10.06.2022
1635 Clouds 26 1011 67 10000 8.23 250 20:21 10.06.2022
1636 Clouds 26 1011 67 10000 8.23 250 20:21 10.06.2022
1637 Clouds 26 1010 66 10000 4.63 320 19:19 10.06.2022
1638 Mist 24 1010 79 6000 3.6 310 18:55 10.06.2022
1639 Clouds 23 1011 85 10000 5.14 40 17:55 10.06.2022
1640 Clouds 24 1016 86 10000 5.14 40 17:33 10.06.2022
1641 Clouds 24 1017 88 10000 4.63 330 16:50 10.06.2022
1642 Clouds 23 1018 93 10000 4.12 350 15:44 10.06.2022
1643 Clouds 22 1014 93 10000 3.6 20 14:51 10.06.2022
1644 Rain 21 1014 93 10000 3.09 10 13:26 10.06.2022
1645 Clouds 21 1013 94 10000 2.06 20 11:59 10.06.2022
1646 Clouds 21 1013 94 10000 2.06 20 11:30 10.06.2022
1647 Clouds 20 1013 94 10000 0.51 130 10:36 10.06.2022
1648 Clouds 21 1014 88 10000 1.03 120 09:26 10.06.2022
1649 Clouds 21 1016 83 10000 2.06 100 07:58 10.06.2022
1650 Rain 21 1016 83 10000 1.54 110 06:50 10.06.2022
1651 Rain 21 1016 83 10000 1.54 110 06:31 10.06.2022
1652 Clouds 21 1016 83 10000 1.03 70 05:34 10.06.2022
1653 Clouds 22 1016 84 10000 2.57 140 02:50 10.06.2022
1654 Clouds 22 1016 81 10000 2.57 170 01:37 10.06.2022
1655 Clouds 22 1016 87 10000 4.12 160 23:58 09.06.2022
1656 Clouds 22 1016 86 10000 4.12 170 22:47 09.06.2022
1657 Clouds 23 1016 82 10000 5.14 160 21:46 09.06.2022
1658 Clouds 23 1016 82 10000 5.14 160 21:28 09.06.2022
1659 Clouds 23 1016 79 10000 4.63 160 20:40 09.06.2022
1660 Clouds 23 1016 82 10000 4.63 150 19:51 09.06.2022
1661 Clouds 23 1016 80 10000 4.12 160 18:41 09.06.2022
1662 Clouds 23 1017 83 10000 3.6 160 17:56 09.06.2022
1663 Clouds 24 1017 80 10000 2.06 240 16:38 09.06.2022
1664 Clouds 22 1018 89 9000 1.54 30 15:42 09.06.2022
1665 Clouds 22 1017 93 7000 2.06 10 14:34 09.06.2022
1666 Clouds 22 1017 95 6000 2.57 20 13:46 09.06.2022
1667 Clouds 22 1017 95 6000 2.57 20 13:25 09.06.2022
1668 Clouds 22 1015 88 10000 1.03 0 11:53 09.06.2022
1669 Clouds 21 1014 88 7000 2.57 320 10:36 09.06.2022
1670 Clouds 21 1014 88 7000 2.57 300 09:40 09.06.2022
1671 Clouds 21 1014 88 7000 2.57 300 09:21 09.06.2022
1672 Clouds 21 1015 88 10000 2.06 270 07:29 09.06.2022
1673 Clouds 23 1015 83 10000 2.06 40 04:47 09.06.2022
1674 Clouds 23 1014 80 10000 4.12 260 01:43 09.06.2022
1675 Clouds 23 1014 82 10000 4.12 230 23:24 08.06.2022
1676 Clouds 23 1014 81 10000 6.17 220 22:50 08.06.2022
1677 Clouds 23 1014 81 10000 6.17 220 22:25 08.06.2022
1678 Rain 24 1013 76 10000 7.2 220 21:48 08.06.2022
1679 Clouds 24 1013 74 8000 6.69 210 20:33 08.06.2022
1680 Clouds 25 1012 74 8000 6.17 190 19:49 08.06.2022
1681 Clouds 25 1013 70 8000 6.17 180 18:56 08.06.2022
1682 Clouds 25 1013 71 8000 6.17 180 18:22 08.06.2022
1683 Clouds 24 1013 76 6000 2.57 250 16:34 08.06.2022
1684 Mist 22 1013 87 5000 3.09 290 14:54 08.06.2022
1685 Mist 21 1013 94 5000 4.12 30 13:36 08.06.2022
1686 Mist 20 1012 94 5000 3.09 50 11:50 08.06.2022
1687 Mist 20 1012 94 5000 3.09 50 11:24 08.06.2022
1688 Rain 18 1012 88 10000 1.03 320 09:47 08.06.2022
1689 Rain 18 1012 88 10000 1.03 320 09:20 08.06.2022
1690 Clouds 19 1013 88 10000 2.06 40 07:32 08.06.2022
1691 Clouds 20 1013 88 10000 1.03 80 05:22 08.06.2022
1692 Clear 22 1013 83 10000 2.06 260 02:38 08.06.2022
1693 Clouds 23 1013 81 10000 5.14 190 00:21 08.06.2022
1694 Clouds 23 1012 81 10000 7.2 190 23:25 07.06.2022
1695 Clouds 23 1011 82 10000 7.72 180 22:42 07.06.2022
1696 Clear 24 1011 73 10000 6.69 170 21:59 07.06.2022
1697 Clear 24 1011 73 10000 6.69 170 21:27 07.06.2022
1698 Clear 25 1010 67 10000 4.63 150 20:46 07.06.2022
1699 Clear 25 1010 67 10000 4.63 150 20:24 07.06.2022
1700 Clear 26 1010 58 10000 2.57 80 19:19 07.06.2022
1701 Clear 26 1012 55 10000 2.57 330 17:55 07.06.2022
1702 Clear 26 1012 55 10000 2.57 330 17:19 07.06.2022
1703 Clear 24 1012 60 10000 3.09 20 16:39 07.06.2022
1704 Clear 23 1013 66 10000 2.57 10 15:42 07.06.2022
1705 Clear 23 1013 66 10000 2.57 10 15:23 07.06.2022
1706 Clear 21 1013 71 10000 3.6 340 14:46 07.06.2022
1707 Clear 20 1012 79 10000 4.12 350 13:58 07.06.2022
1708 Clear 20 1012 79 10000 4.12 350 13:29 07.06.2022
1709 Clear 19 1012 83 10000 3.6 330 12:44 07.06.2022
1710 Clear 19 1011 88 10000 4.63 350 11:22 07.06.2022
1711 Clear 16 1011 94 10000 1.03 20 10:19 07.06.2022
1712 Clear 17 1012 88 10000 1.03 360 08:49 07.06.2022
1713 Clear 18 1013 88 10000 1.03 320 07:23 07.06.2022
1714 Clear 19 1014 88 10000 1.54 350 05:56 07.06.2022
1715 Clear 20 1014 88 10000 1.54 300 03:18 07.06.2022
1716 Clear 22 1014 74 10000 2.57 200 00:42 07.06.2022
1717 Clear 22 1014 77 10000 3.09 190 23:35 06.06.2022
1718 Clear 25 1013 56 10000 2.57 120 22:45 06.06.2022
1719 Clear 25 1013 51 10000 3.6 120 21:43 06.06.2022
1720 Clear 25 1013 55 10000 3.6 60 20:21 06.06.2022
1721 Clear 25 1013 52 10000 4.12 80 19:23 06.06.2022
1722 Clear 24 1014 54 10000 3.09 110 18:46 06.06.2022
1723 Clear 23 1015 57 10000 2.57 320 17:52 06.06.2022
1724 Clear 22 1021 67 10000 3.6 330 16:48 06.06.2022
1725 Clear 21 1022 71 10000 3.6 360 15:40 06.06.2022
1726 Clear 19 1018 77 10000 2.57 330 14:57 06.06.2022
1727 Clear 17 1018 87 10000 2.57 350 13:37 06.06.2022
1728 Clear 16 1017 91 10000 2.57 360 12:59 06.06.2022
1729 Clear 16 1017 91 10000 2.57 360 12:26 06.06.2022
1730 Clear 16 1017 87 10000 3.6 40 11:45 06.06.2022
1731 Clear 15 1018 88 8000 1.54 350 09:46 06.06.2022
1732 Clear 15 1018 88 10000 1.54 10 08:36 06.06.2022
1733 Clear 15 1019 88 10000 1.54 20 07:43 06.06.2022
1734 Clear 15 1019 88 10000 2.06 120 06:44 06.06.2022
1735 Clear 19 1019 72 10000 2.57 40 04:36 06.06.2022
1736 Clear 20 1026 70 10000 5.14 90 01:30 06.06.2022
1737 Clear 21 1026 69 10000 5.14 100 00:55 06.06.2022
1738 Clear 21 1019 68 10000 5.14 100 00:33 06.06.2022
1739 Clouds 22 1024 69 10000 5.66 110 22:58 05.06.2022
1740 Clouds 22 1025 68 10000 5.66 110 22:19 05.06.2022
1741 Clouds 23 1024 63 10000 4.63 130 20:23 05.06.2022
1742 Clouds 23 1025 64 10000 3.6 100 18:57 05.06.2022
1743 Clouds 23 1025 62 10000 3.6 100 18:18 05.06.2022
1744 Clouds 22 1026 66 10000 2.57 30 17:38 05.06.2022
1745 Clouds 22 1026 67 10000 2.57 30 17:20 05.06.2022
1746 Clouds 22 1027 70 10000 3.09 340 16:47 05.06.2022
1747 Clouds 21 1028 74 10000 3.09 50 15:25 05.06.2022
1748 Clouds 20 1023 81 10000 3.6 110 14:18 05.06.2022
1749 Clouds 19 1028 89 10000 3.09 40 11:58 05.06.2022
1750 Clouds 20 1032 94 10000 2.06 60 10:45 05.06.2022
1751 Clouds 20 1032 94 10000 2.06 60 10:24 05.06.2022
1752 Clouds 19 1032 94 10000 1.03 90 09:33 05.06.2022
1753 Clouds 19 1033 94 10000 1.54 90 08:23 05.06.2022
1754 Clouds 19 1033 93 10000 1.03 120 06:23 05.06.2022
1755 Clouds 19 1033 94 10000 1.03 190 05:19 05.06.2022
1756 Clouds 20 1029 87 10000 2.57 40 02:43 05.06.2022
1757 Clouds 20 1029 79 10000 2.57 100 01:23 05.06.2022
1758 Clouds 20 1029 79 10000 2.57 100 01:23 05.06.2022
1759 Clouds 20 1026 84 10000 4.63 120 22:51 04.06.2022
1760 Clouds 21 1026 79 10000 4.63 130 21:30 04.06.2022
1761 Clouds 21 1026 81 10000 4.63 120 19:27 04.06.2022
1762 Mist 20 1029 92 8000 4.12 140 17:21 04.06.2022
1763 Mist 19 1028 95 5000 4.12 170 16:20 04.06.2022
1764 Mist 19 1028 93 4500 4.12 150 15:45 04.06.2022
1765 Mist 19 1023 93 9000 2.06 10 14:18 04.06.2022
1766 Clouds 19 1027 96 6000 2.06 20 11:43 04.06.2022
1767 Clouds 19 1021 94 6000 1.03 0 10:55 04.06.2022
1768 Mist 19 1021 88 4500 2.06 360 09:59 04.06.2022
1769 Mist 19 1021 88 4500 2.06 360 09:38 04.06.2022
1770 Mist 20 1031 97 3000 2.06 130 08:39 04.06.2022
1771 Mist 20 1031 97 2500 1.03 250 07:18 04.06.2022
1772 Clouds 20 1027 96 10000 2.57 210 04:29 04.06.2022
1773 Mist 21 1025 92 5000 4.63 180 00:24 04.06.2022
1774 Mist 21 1023 94 3000 5.14 250 23:28 03.06.2022
1775 Clouds 22 1018 79 10000 4.12 240 22:20 03.06.2022
1776 Clouds 23 1018 78 10000 3.6 280 20:42 03.06.2022
1777 Clouds 23 1018 78 10000 3.6 280 20:42 03.06.2022
1778 Clouds 23 1018 77 10000 3.6 270 19:58 03.06.2022
1779 Clouds 22 1023 85 10000 2.57 240 17:00 03.06.2022
1780 Clouds 22 1023 84 10000 3.6 230 16:30 03.06.2022
1781 Mist 21 1019 92 4000 3.09 190 14:52 03.06.2022
1782 Clouds 21 1017 89 10000 2.57 200 12:28 03.06.2022
1783 Clouds 20 1016 88 10000 1.54 310 10:18 03.06.2022
1784 Clouds 20 1015 88 10000 2.06 280 09:30 03.06.2022
1785 Clouds 19 1015 94 10000 1.54 300 07:54 03.06.2022
1786 Clouds 19 1015 94 10000 1.54 300 07:20 03.06.2022
1787 Clouds 20 1015 88 10000 1.03 0 06:30 03.06.2022
1788 Clouds 22 1016 88 10000 4.12 330 04:40 03.06.2022
1789 Clouds 23 1016 75 10000 6.69 240 00:22 03.06.2022
1790 Mist 23 1015 82 9000 8.75 220 22:35 02.06.2022
1791 Clouds 24 1019 80 9000 8.75 230 21:34 02.06.2022
1792 Mist 24 1018 80 8000 9.77 230 20:22 02.06.2022
1793 Mist 25 1018 80 10000 11.83 230 19:42 02.06.2022
1794 Mist 25 1018 80 10000 11.83 230 19:19 02.06.2022
1795 Haze 25 1013 81 6000 4.63 140 16:47 02.06.2022
1796 Haze 25 1017 84 6000 4.63 140 16:27 02.06.2022
1797 Mist 23 1012 94 3000 1.54 10 13:56 02.06.2022
1798 Mist 23 1012 94 3000 1.54 10 13:29 02.06.2022
1799 Mist 22 1011 97 4000 1.54 40 11:22 02.06.2022
1800 Mist 21 1012 94 3000 1.54 10 10:20 02.06.2022
1801 Mist 21 1012 94 3000 1.54 10 10:20 02.06.2022
1802 Mist 21 1012 94 3000 1.03 340 09:27 02.06.2022
1803 Mist 22 1012 88 3000 1.03 290 08:26 02.06.2022
1804 Mist 22 1013 88 3500 2.06 350 07:21 02.06.2022
1805 Clouds 23 1013 94 9000 2.06 300 04:49 02.06.2022
1806 Clouds 23 1013 91 10000 2.57 160 02:37 02.06.2022
1807 Clouds 24 1017 92 10000 5.14 190 23:43 01.06.2022
1808 Clouds 24 1017 90 10000 5.66 170 22:31 01.06.2022
1809 Clouds 24 1017 85 10000 5.14 120 21:35 01.06.2022
1810 Clouds 25 1017 84 9000 5.66 160 20:58 01.06.2022
1811 Clouds 25 1017 84 9000 5.66 160 20:37 01.06.2022
1812 Clouds 25 1013 76 8000 5.14 160 19:25 01.06.2022
1813 Clouds 25 1019 81 8000 5.14 130 17:44 01.06.2022
1814 Clouds 26 1021 80 8000 4.12 120 16:34 01.06.2022
1815 Clouds 23 1017 85 9000 2.06 140 14:54 01.06.2022
1816 Rain 24 1021 89 8000 1.54 100 13:51 01.06.2022
1817 Rain 22 1016 94 9000 1.54 360 12:26 01.06.2022
1818 Rain 20 1014 94 10000 2.06 340 09:41 01.06.2022
1819 Rain 21 1014 88 10000 1.03 350 08:40 01.06.2022
1820 Rain 23 1025 92 10000 1.54 150 07:24 01.06.2022
1821 Clouds 23 1025 94 10000 1.03 120 05:52 01.06.2022
1822 Rain 23 1020 85 10000 3.6 170 00:40 01.06.2022
1823 Clouds 24 1019 82 10000 3.09 160 23:30 31.05.2022
1824 Rain 24 1019 81 10000 4.12 190 22:37 31.05.2022
1825 Clouds 24 1019 83 10000 4.63 180 21:46 31.05.2022
1826 Clouds 24 1018 86 10000 6.17 180 20:45 31.05.2022
1827 Clouds 24 1018 87 10000 6.17 180 20:20 31.05.2022
1828 Clouds 25 1019 83 9000 5.14 160 18:53 31.05.2022
1829 Clouds 25 1019 83 7000 4.12 160 17:50 31.05.2022
1830 Clouds 24 1020 85 7000 5.14 160 16:57 31.05.2022
1831 Clouds 25 1020 84 7000 4.12 150 15:41 31.05.2022
1832 Clouds 24 1015 84 8000 2.57 140 14:18 31.05.2022
1833 Rain 22 1014 92 6000 2.06 30 12:20 31.05.2022
1834 Rain 23 1012 83 10000 2.06 330 10:55 31.05.2022
1835 Clouds 23 1013 83 10000 1.54 260 09:31 31.05.2022
1836 Clouds 22 1013 88 10000 2.06 330 07:25 31.05.2022
1837 Clouds 23 1014 83 10000 3.09 270 05:20 31.05.2022
1838 Clouds 24 1016 85 10000 6.17 180 01:35 31.05.2022
1839 Clouds 24 1014 79 10000 4.63 170 23:27 30.05.2022
1840 Rain 25 1014 77 10000 2.57 150 22:56 30.05.2022
1841 Clouds 27 1014 68 10000 3.09 150 21:59 30.05.2022
1842 Clouds 26 1009 67 10000 3.09 150 21:33 30.05.2022
1843 Clouds 27 1013 65 10000 2.57 160 20:20 30.05.2022
1844 Rain 27 1014 62 10000 2.06 350 18:41 30.05.2022
1845 Clear 27 1015 63 10000 3.09 20 17:38 30.05.2022
1846 Clear 27 1016 62 10000 3.6 40 16:44 30.05.2022
1847 Clear 26 1013 68 10000 5.66 250 14:51 30.05.2022
1848 Clear 22 1011 88 10000 4.63 340 12:29 30.05.2022
1849 Clouds 18 1010 94 8000 1.03 330 10:47 30.05.2022
1850 Clouds 18 1009 94 8000 1.54 360 09:39 30.05.2022
1851 Clear 19 1010 88 10000 1.54 90 07:23 30.05.2022
1852 Clear 20 1010 83 10000 1.54 180 05:50 30.05.2022
1853 Clear 25 1010 65 10000 2.57 100 02:33 30.05.2022
1854 Clear 26 1009 54 10000 2.57 80 23:24 29.05.2022
1855 Clear 26 1009 56 10000 3.09 20 22:39 29.05.2022
1856 Clear 29 1015 45 10000 3.09 60 21:19 29.05.2022
1857 Clear 29 1015 43 10000 4.63 30 19:48 29.05.2022
1858 Clear 29 1015 43 10000 4.63 30 19:27 29.05.2022
1859 Clear 28 1012 42 10000 4.63 50 17:41 29.05.2022
1860 Clear 24 1018 61 10000 3.09 360 15:49 29.05.2022
1861 Clear 24 1019 62 10000 3.09 360 15:28 29.05.2022
1862 Clear 23 1014 73 10000 2.57 10 14:23 29.05.2022
1863 Clear 19 1013 88 10000 2.06 340 11:55 29.05.2022
1864 Clear 16 1013 94 10000 1.03 130 10:44 29.05.2022
1865 Clear 16 1014 88 10000 0.51 0 09:52 29.05.2022
1866 Clear 18 1015 88 10000 1.54 130 06:57 29.05.2022
1867 Clear 22 1015 77 10000 2.57 310 04:50 29.05.2022
1868 Clear 22 1015 77 10000 2.57 310 04:31 29.05.2022
1869 Clear 23 1015 74 10000 2.57 280 00:35 29.05.2022
1870 Clear 23 1014 75 10000 2.57 180 23:42 28.05.2022
1871 Clear 25 1018 65 10000 2.57 170 22:56 28.05.2022
1872 Clear 26 1018 57 10000 2.57 160 21:45 28.05.2022
1873 Clear 28 1018 50 10000 2.57 10 20:40 28.05.2022
1874 Clear 29 1020 42 10000 1.54 280 19:19 28.05.2022
1875 Clear 28 1021 49 10000 2.57 330 18:19 28.05.2022
1876 Clear 27 1020 57 9000 4.12 10 17:30 28.05.2022
1877 Clear 25 1023 68 8000 4.12 360 15:45 28.05.2022
1878 Clear 25 1023 66 8000 4.12 360 15:19 28.05.2022
1879 Clear 20 1017 87 10000 3.09 10 13:27 28.05.2022
1880 Clear 20 1017 87 10000 3.09 10 13:27 28.05.2022
1881 Clear 19 1016 85 10000 3.09 320 12:42 28.05.2022
1882 Clear 20 1016 88 10000 3.09 310 11:28 28.05.2022
1883 Clear 17 1016 94 10000 0.51 0 10:34 28.05.2022
1884 Clear 17 1016 94 10000 0.51 0 09:46 28.05.2022
1885 Clear 20 1026 95 10000 0.51 0 08:21 28.05.2022
1886 Clear 19 1018 88 10000 1.03 0 06:33 28.05.2022
1887 Clear 21 1018 88 10000 2.57 310 04:43 28.05.2022
1888 Clear 23 1023 81 10000 3.6 60 01:46 28.05.2022
1889 Clear 23 1017 81 10000 3.6 180 23:55 27.05.2022
1890 Clear 24 1021 71 10000 4.12 180 22:38 27.05.2022
1891 Clear 24 1021 70 10000 4.12 180 22:38 27.05.2022
1892 Clear 26 1021 65 10000 4.12 180 21:22 27.05.2022
1893 Clear 26 1021 61 10000 4.63 160 20:43 27.05.2022
1894 Clear 26 1021 59 10000 4.63 160 20:18 27.05.2022
1895 Clouds 26 1022 59 10000 4.12 160 19:37 27.05.2022
1896 Clouds 26 1022 58 10000 4.12 160 19:19 27.05.2022
1897 Clear 25 1025 68 10000 2.57 10 16:53 27.05.2022
1898 Clear 24 1026 73 10000 2.57 350 15:55 27.05.2022
1899 Clear 21 1021 84 10000 2.57 350 14:53 27.05.2022
1900 Clear 20 1021 89 10000 2.57 360 13:40 27.05.2022
1901 Clouds 19 1020 88 10000 1.54 340 11:55 27.05.2022
1902 Clouds 19 1020 88 10000 1.54 340 11:30 27.05.2022
1903 Clear 16 1020 94 8000 1.03 350 10:38 27.05.2022
1904 Clear 17 1020 88 10000 1.03 10 09:59 27.05.2022
1905 Clear 17 1020 88 10000 1.03 10 09:29 27.05.2022
1906 Clear 19 1021 88 10000 0 0 07:30 27.05.2022
1907 Clear 22 1021 80 10000 1.03 0 03:59 27.05.2022
1908 Clear 23 1026 80 10000 4.12 100 01:27 27.05.2022
1909 Clear 24 1025 78 10000 3.6 130 23:23 26.05.2022
1910 Clear 26 1024 64 10000 4.12 130 21:57 26.05.2022
1911 Clear 26 1024 63 10000 4.12 130 21:27 26.05.2022
1912 Clear 26 1025 57 10000 4.63 160 19:34 26.05.2022
1913 Clear 26 1025 55 10000 3.09 170 18:51 26.05.2022
1914 Clear 25 1027 58 10000 3.09 170 17:36 26.05.2022
1915 Clear 24 1027 64 10000 2.06 340 16:18 26.05.2022
1916 Clear 24 1028 66 10000 4.12 320 15:28 26.05.2022
1917 Clear 21 1024 77 10000 2.57 340 14:19 26.05.2022
1918 Clear 18 1022 90 10000 2.57 340 12:18 26.05.2022
1919 Clear 19 1022 91 10000 2.57 350 11:20 26.05.2022
1920 Clear 18 1022 88 10000 1.03 100 09:39 26.05.2022
1921 Clear 17 1022 94 10000 1.54 120 08:48 26.05.2022
1922 Clear 18 1023 94 10000 0.51 90 06:47 26.05.2022
1923 Clear 22 1023 75 10000 2.57 70 02:51 26.05.2022
1924 Clouds 23 1021 74 10000 2.57 130 23:57 25.05.2022
1925 Clouds 24 1021 67 10000 3.09 230 22:53 25.05.2022
1926 Clouds 26 1026 57 10000 3.6 180 21:42 25.05.2022
1927 Clouds 26 1026 57 10000 2.57 170 20:49 25.05.2022
1928 Clouds 26 1026 55 10000 3.6 170 19:45 25.05.2022
1929 Clouds 26 1027 59 10000 2.06 330 18:48 25.05.2022
1930 Clouds 26 1028 57 10000 2.06 360 17:26 25.05.2022
1931 Clear 25 1029 60 10000 2.57 320 16:34 25.05.2022
1932 Clear 24 1029 65 10000 3.09 330 15:36 25.05.2022
1933 Clear 22 1025 74 10000 2.57 350 14:50 25.05.2022
1934 Clear 22 1025 74 10000 2.57 350 14:32 25.05.2022
1935 Clear 20 1024 85 10000 2.57 10 13:27 25.05.2022
1936 Clear 19 1025 78 10000 1.46 6 11:51 25.05.2022
1937 Clear 17 1023 94 7000 2.06 330 10:42 25.05.2022
1938 Clear 17 1023 94 8000 2.06 360 09:46 25.05.2022
1939 Clear 19 1023 79 10000 1.98 13 08:22 25.05.2022
1940 Clear 21 1024 81 10000 1.94 20 06:37 25.05.2022
1941 Clear 22 1029 82 10000 4.63 110 02:55 25.05.2022
1942 Clouds 23 1021 73 10000 4.12 80 23:52 24.05.2022
1943 Clouds 24 1021 73 10000 4.12 80 23:23 24.05.2022
1944 Clouds 25 1025 65 10000 3.6 180 22:18 24.05.2022
1945 Clouds 25 1025 63 10000 4.12 170 21:38 24.05.2022
1946 Clouds 25 1025 63 10000 4.12 170 21:19 24.05.2022
1947 Clouds 26 1025 57 10000 4.63 150 19:37 24.05.2022
1948 Clouds 25 1026 57 10000 5.14 140 18:49 24.05.2022
1949 Clear 24 1027 59 10000 2.57 340 16:40 24.05.2022
1950 Clear 24 1027 60 10000 2.57 340 16:18 24.05.2022
1951 Clear 21 1022 74 10000 2.57 330 14:50 24.05.2022
1952 Clear 20 1022 81 10000 2.57 320 13:48 24.05.2022
1953 Clear 17 1021 92 10000 3.09 310 12:46 24.05.2022
1954 Clear 16 1020 88 8000 1.03 0 10:29 24.05.2022
1955 Clear 15 1020 94 10000 1.54 50 09:43 24.05.2022
1956 Clear 16 1020 94 10000 1.03 0 08:49 24.05.2022
1957 Clear 17 1021 88 10000 2.06 80 06:56 24.05.2022
1958 Clear 21 1027 84 10000 1.54 110 03:48 24.05.2022
1959 Clear 22 1026 78 10000 4.63 90 01:50 24.05.2022
1960 Clear 22 1027 79 10000 4.63 90 01:19 24.05.2022
1961 Clouds 24 1019 63 10000 4.12 130 22:51 23.05.2022
1962 Clouds 25 1023 61 10000 4.63 160 21:55 23.05.2022
1963 Clouds 25 1023 63 10000 4.63 160 21:26 23.05.2022
1964 Clouds 25 1023 59 10000 4.63 170 20:29 23.05.2022
1965 Clouds 25 1024 59 10000 4.63 160 19:31 23.05.2022
1966 Clouds 25 1025 58 10000 4.63 130 18:57 23.05.2022
1967 Clouds 25 1025 57 10000 4.63 130 18:29 23.05.2022
1968 Clouds 24 1026 61 10000 3.09 360 17:20 23.05.2022
1969 Clear 20 1022 78 10000 2.06 350 14:52 23.05.2022
1970 Clear 17 1021 91 10000 2.06 20 12:56 23.05.2022
1971 Clouds 18 1020 91 10000 3.09 50 11:31 23.05.2022
1972 Clear 16 1020 94 8000 1.03 10 09:51 23.05.2022
1973 Clear 16 1020 94 8000 1.03 10 09:30 23.05.2022
1974 Clear 16 1020 94 10000 1.54 40 08:31 23.05.2022
1975 Clear 17 1021 88 10000 1.03 100 06:46 23.05.2022
1976 Clear 17 1021 94 10000 1.03 80 05:31 23.05.2022
1977 Clear 21 1021 78 10000 5.14 60 02:32 23.05.2022
1978 Clear 22 1021 72 10000 5.66 90 01:39 23.05.2022
1979 Clear 22 1026 74 10000 3.6 130 00:23 23.05.2022
1980 Clear 23 1020 67 10000 5.66 140 22:40 22.05.2022
1981 Clouds 24 1020 58 10000 4.63 130 21:55 22.05.2022
1982 Clouds 24 1020 58 10000 4.63 130 21:32 22.05.2022
1983 Clouds 24 1024 59 10000 5.66 160 20:32 22.05.2022
1984 Clouds 24 1024 51 10000 4.12 160 19:57 22.05.2022
1985 Clouds 24 1025 60 10000 3.6 160 18:56 22.05.2022
1986 Clouds 24 1025 55 10000 3.6 160 18:25 22.05.2022
1987 Clouds 23 1026 55 10000 2.06 20 17:39 22.05.2022
1988 Clear 22 1027 65 10000 2.57 10 16:50 22.05.2022
1989 Mist 19 1024 82 5000 3.6 10 14:53 22.05.2022
1990 Clouds 18 1024 91 7000 3.6 330 13:56 22.05.2022
1991 Fog 17 1023 93 9000 3.09 320 12:52 22.05.2022
1992 Clouds 17 1022 91 9000 2.57 360 11:52 22.05.2022
1993 Clear 15 1022 88 7000 1.54 40 10:27 22.05.2022
1994 Clear 15 1021 88 10000 1.03 20 09:19 22.05.2022
1995 Clear 16 1022 88 10000 1.03 140 07:22 22.05.2022
1996 Clear 16 1023 88 10000 1.03 110 06:40 22.05.2022
1997 Clouds 19 1023 85 10000 1.54 30 03:20 22.05.2022
1998 Clouds 21 1028 80 10000 5.14 130 00:48 22.05.2022
1999 Clouds 21 1022 76 10000 5.66 140 23:56 21.05.2022
2000 Clouds 21 1027 78 10000 5.66 140 23:22 21.05.2022
2001 Clouds 22 1026 68 10000 5.14 160 21:59 21.05.2022
2002 Clouds 22 1026 68 10000 5.14 160 21:34 21.05.2022
2003 Clouds 23 1025 61 10000 5.14 240 20:34 21.05.2022
2004 Clouds 24 1027 57 10000 4.63 240 19:44 21.05.2022
2005 Clouds 24 1026 54 10000 3.09 170 18:54 21.05.2022
2006 Clouds 22 1028 66 10000 2.57 360 16:57 21.05.2022
2007 Clouds 19 1024 79 10000 3.6 360 14:49 21.05.2022
2008 Clouds 18 1023 90 10000 3.6 30 13:55 21.05.2022
2009 Clouds 18 1023 90 10000 3.6 30 13:25 21.05.2022
2010 Clear 17 1028 89 10000 2.57 320 12:39 21.05.2022
2011 Clouds 16 1022 91 10000 2.57 310 11:38 21.05.2022
2012 Clouds 15 1020 94 8000 2.57 340 10:21 21.05.2022
2013 Clear 15 1021 94 8000 1.54 350 08:59 21.05.2022
2014 Clear 15 1021 94 8000 1.54 350 08:38 21.05.2022
2015 Clouds 19 1022 77 10000 1.61 287 06:20 21.05.2022
2016 Clouds 19 1022 80 10000 2.06 300 01:42 21.05.2022
2017 Clouds 20 1020 72 10000 2.57 290 23:35 20.05.2022
2018 Clouds 20 1020 71 10000 4.12 240 22:40 20.05.2022
2019 Clouds 21 1020 70 10000 3.6 300 21:58 20.05.2022
2020 Clouds 21 1024 70 10000 3.6 300 21:19 20.05.2022
2021 Clouds 20 1024 76 10000 6.17 240 20:47 20.05.2022
2022 Clouds 21 1024 74 10000 6.69 200 19:47 20.05.2022
2023 Clouds 22 1024 63 10000 5.14 320 18:53 20.05.2022
2024 Clouds 22 1024 62 10000 5.14 320 18:18 20.05.2022
2025 Clouds 21 1024 61 10000 7.72 260 16:27 20.05.2022
2026 Clouds 20 1020 61 10000 5.66 260 15:54 20.05.2022
2027 Clouds 20 1020 61 10000 5.66 260 15:20 20.05.2022
2028 Clouds 20 1020 62 10000 4.63 300 14:27 20.05.2022
2029 Clouds 17 1019 76 10000 3.6 290 12:37 20.05.2022
2030 Clouds 17 1016 67 10000 3.09 280 10:48 20.05.2022
2031 Clouds 18 1016 63 10000 3.09 290 09:31 20.05.2022
2032 Clouds 18 1017 68 10000 3.6 300 08:27 20.05.2022
2033 Clouds 19 1017 59 10000 4.12 270 06:43 20.05.2022
2034 Clouds 19 1017 59 10000 6.69 270 05:40 20.05.2022
2035 Clouds 19 1016 67 10000 7.72 250 02:52 20.05.2022
2036 Clouds 20 1014 60 10000 8.75 280 23:47 19.05.2022
2037 Clouds 20 1013 59 10000 9.26 230 22:37 19.05.2022
2038 Clouds 20 1012 62 10000 6.69 280 21:51 19.05.2022
2039 Clouds 20 1012 62 10000 6.69 280 21:24 19.05.2022
2040 Clouds 20 1017 68 7000 6.69 230 20:53 19.05.2022
2041 Haze 21 1016 58 4500 9.26 250 19:57 19.05.2022
2042 Clouds 21 1016 54 10000 9.26 250 19:19 19.05.2022
2043 Clear 23 1011 43 10000 8.75 250 17:47 19.05.2022
2044 Clear 22 1011 45 10000 10.29 260 16:22 19.05.2022
2045 Clear 20 1011 47 10000 8.23 290 14:50 19.05.2022
2046 Clear 20 1011 48 10000 8.23 290 14:21 19.05.2022
2047 Clear 20 1011 48 10000 8.23 290 14:21 19.05.2022
2048 Clear 17 1010 49 10000 5.66 280 12:19 19.05.2022
2049 Clear 16 1009 51 10000 6.17 280 10:31 19.05.2022
2050 Clear 16 1009 48 10000 6.17 270 08:51 19.05.2022
2051 Clear 17 1009 45 10000 5.66 280 07:33 19.05.2022
2052 Clear 19 1009 45 10000 6.69 310 04:23 19.05.2022
2053 Clear 20 1008 54 10000 3.6 290 01:38 19.05.2022
2054 Clear 21 1008 47 10000 6.17 230 23:49 18.05.2022
2055 Clear 22 1007 36 10000 6.17 210 22:45 18.05.2022
2056 Clear 22 1006 32 10000 6.69 300 21:45 18.05.2022
2057 Clear 22 1006 33 10000 6.69 300 21:24 18.05.2022
2058 Clear 24 1011 26 10000 6.17 290 20:23 18.05.2022
2059 Clear 23 1006 26 10000 6.17 300 19:32 18.05.2022
2060 Clear 23 1007 25 10000 7.72 290 18:20 18.05.2022
2061 Clear 23 1012 29 10000 7.2 310 17:41 18.05.2022
2062 Clear 22 1008 29 10000 7.2 310 17:22 18.05.2022
2063 Clear 20 1010 33 10000 6.17 290 15:59 18.05.2022
2064 Clear 20 1010 33 10000 6.17 290 15:38 18.05.2022
2065 Clear 19 1010 35 10000 6.69 270 14:30 18.05.2022
2066 Clear 19 1010 35 10000 6.69 270 14:30 18.05.2022
2067 Clouds 17 1009 46 10000 7.72 240 12:59 18.05.2022
2068 Clouds 17 1009 46 10000 7.72 240 12:39 18.05.2022
2069 Clouds 18 1008 45 10000 7.72 210 11:34 18.05.2022
2070 Clouds 18 1010 82 10000 2.57 260 10:52 18.05.2022
2071 Clouds 18 1010 82 10000 2.57 230 08:29 18.05.2022
2072 Clouds 18 1010 88 10000 2.06 250 07:28 18.05.2022
2073 Clouds 19 1011 82 10000 2.57 270 05:21 18.05.2022
2074 Clouds 21 1011 72 10000 4.63 210 00:52 18.05.2022
2075 Clouds 21 1011 72 10000 4.63 210 00:52 18.05.2022
2076 Clouds 21 1011 72 10000 4.63 210 00:18 18.05.2022
2077 Clouds 22 1010 71 10000 6.17 200 21:36 17.05.2022
2078 Clouds 22 1010 71 10000 6.17 200 21:18 17.05.2022
2079 Clouds 24 1010 67 10000 8.23 200 19:49 17.05.2022
2080 Clouds 24 1010 67 10000 8.23 200 19:26 17.05.2022
2081 Clouds 25 1012 70 9000 5.66 200 17:49 17.05.2022
2082 Clouds 25 1012 71 9000 4.12 260 16:58 17.05.2022
2083 Clouds 25 1012 71 9000 4.12 260 16:29 17.05.2022
2084 Clouds 24 1013 73 10000 3.6 240 15:24 17.05.2022
2085 Clouds 22 1014 84 10000 3.09 350 14:30 17.05.2022
2086 Clouds 22 1014 84 10000 3.09 350 14:30 17.05.2022
2087 Clouds 22 1014 84 10000 3.09 350 14:30 17.05.2022
2088 Clouds 22 1013 84 10000 3.6 330 13:32 17.05.2022
2089 Clouds 21 1011 88 10000 2.57 280 11:21 17.05.2022
2090 Clouds 21 1012 88 10000 1.03 240 09:23 17.05.2022
2091 Clouds 21 1013 88 10000 1.54 310 08:23 17.05.2022
2092 Clouds 21 1013 83 10000 1.54 270 06:45 17.05.2022
2093 Clouds 22 1013 88 10000 2.57 290 02:55 17.05.2022
2094 Clouds 21 1013 88 8000 3.09 210 00:36 17.05.2022
2095 Mist 22 1012 89 10000 4.12 200 22:42 16.05.2022
2096 Mist 23 1017 86 1000 5.14 230 21:37 16.05.2022
2097 Mist 24 1016 83 1000 9.26 200 20:46 16.05.2022
2098 Clouds 25 1012 76 10000 5.14 180 19:22 16.05.2022
2099 Clouds 26 1018 71 10000 3.09 170 18:20 16.05.2022
2100 Clouds 24 1014 77 10000 3.09 360 15:49 16.05.2022
2101 Clear 23 1013 85 10000 3.09 360 13:49 16.05.2022
2102 Clear 23 1013 86 10000 3.09 360 13:23 16.05.2022
2103 Clear 22 1011 88 10000 1.03 40 11:20 16.05.2022
2104 Clear 21 1011 88 10000 1.54 320 09:30 16.05.2022
2105 Clouds 20 1009 94 10000 1.03 100 06:47 16.05.2022
2106 Clear 26 1010 61 10000 3.09 300 03:58 16.05.2022
2107 Clouds 24 1009 78 10000 2.57 340 23:30 15.05.2022
2108 Clouds 24 1009 76 10000 3.6 300 22:30 15.05.2022
2109 Clouds 24 1009 77 10000 3.6 320 21:46 15.05.2022
2110 Clouds 24 1009 76 10000 4.63 350 20:54 15.05.2022
2111 Clouds 23 1010 81 10000 4.12 340 19:33 15.05.2022
2112 Rain 23 1013 83 6000 2.57 340 17:51 15.05.2022
2113 Rain 23 1015 76 10000 3.09 260 16:29 15.05.2022
2114 Rain 21 1014 85 10000 3.6 20 13:58 15.05.2022
2115 Rain 20 1014 87 10000 3.09 40 12:50 15.05.2022
2116 Clouds 20 1013 88 10000 1.03 340 11:39 15.05.2022
2117 Clouds 19 1013 88 10000 2.06 80 10:27 15.05.2022
2118 Clouds 19 1014 88 10000 2.57 110 08:45 15.05.2022
2119 Clouds 20 1014 83 10000 2.06 130 06:58 15.05.2022
2120 Clouds 21 1015 83 10000 3.09 110 05:47 15.05.2022
2121 Clouds 24 1016 73 10000 4.12 120 00:49 15.05.2022
2122 Clouds 24 1015 72 10000 5.14 120 23:39 14.05.2022
2123 Clouds 24 1015 74 10000 6.17 120 22:59 14.05.2022
2124 Clouds 25 1015 69 10000 6.17 140 21:29 14.05.2022
2125 Clouds 25 1015 66 10000 6.69 150 20:53 14.05.2022
2126 Clouds 26 1015 66 10000 5.14 150 19:39 14.05.2022
2127 Clouds 26 1015 66 10000 5.14 150 19:19 14.05.2022
2128 Clouds 25 1016 68 10000 5.66 160 18:46 14.05.2022
2129 Clouds 25 1018 67 10000 3.09 100 16:56 14.05.2022
2130 Clouds 24 1020 76 10000 2.06 340 15:33 14.05.2022
2131 Clouds 24 1020 77 10000 1.54 340 14:34 14.05.2022
2132 Clouds 21 1019 88 10000 2.06 50 12:34 14.05.2022
2133 Clouds 22 1018 85 10000 2.06 50 11:36 14.05.2022
2134 Clouds 21 1018 94 10000 2.06 80 10:22 14.05.2022
2135 Clouds 22 1028 95 10000 1.03 70 09:54 14.05.2022
2136 Clouds 21 1018 88 10000 2.57 100 08:49 14.05.2022
2137 Clouds 22 1019 88 6000 1.54 0 06:47 14.05.2022
2138 Clouds 23 1019 81 10000 2.57 120 03:27 14.05.2022
2139 Clouds 24 1018 74 10000 4.63 160 23:45 13.05.2022
2140 Clouds 24 1023 76 10000 4.63 160 23:22 13.05.2022
2141 Clouds 24 1022 78 10000 4.12 170 22:51 13.05.2022
2142 Clouds 24 1023 79 10000 4.12 170 22:19 13.05.2022
2143 Clouds 25 1021 75 10000 5.66 150 20:49 13.05.2022
2144 Clouds 25 1021 75 10000 5.66 150 20:27 13.05.2022
2145 Clouds 25 1021 71 10000 6.17 130 19:40 13.05.2022
2146 Clouds 26 1022 70 10000 5.14 120 18:41 13.05.2022
2147 Clouds 25 1023 71 10000 4.12 130 17:29 13.05.2022
2148 Clouds 25 1024 72 10000 3.6 20 16:23 13.05.2022
2149 Clouds 25 1019 76 10000 2.57 50 15:43 13.05.2022
2150 Clouds 23 1018 86 10000 3.6 20 13:57 13.05.2022
2151 Clouds 22 1017 87 10000 1.54 320 12:46 13.05.2022
2152 Clouds 22 1016 85 10000 1.54 330 11:29 13.05.2022
2153 Clouds 21 1016 88 10000 2.06 310 09:43 13.05.2022
2154 Clouds 21 1016 88 10000 1.54 310 08:51 13.05.2022
2155 Clouds 21 1016 88 10000 1.54 290 07:49 13.05.2022
2156 Clouds 21 1016 88 10000 2.57 320 06:44 13.05.2022
2157 Clouds 23 1016 77 10000 3.09 320 04:48 13.05.2022
2158 Clouds 24 1015 75 10000 2.57 230 00:42 13.05.2022
2159 Clouds 24 1014 76 10000 4.63 230 22:47 12.05.2022
2160 Clouds 24 1014 76 10000 4.63 230 22:29 12.05.2022
2161 Clouds 24 1014 76 10000 5.66 200 20:41 12.05.2022
2162 Clouds 24 1014 75 10000 5.14 200 19:24 12.05.2022
2163 Clouds 24 1014 74 9000 6.17 220 18:19 12.05.2022
2164 Clouds 24 1020 85 6000 3.09 220 16:39 12.05.2022
2165 Clouds 23 1015 89 8000 3.09 250 14:52 12.05.2022
2166 Clouds 23 1020 93 8000 2.06 340 13:48 12.05.2022
2167 Mist 23 1012 85 10000 5.14 230 11:48 12.05.2022
2168 Clouds 22 1012 88 8000 3.09 220 10:32 12.05.2022
2169 Clear 24 1011 78 10000 3.09 210 08:52 12.05.2022
2170 Clear 24 1011 78 10000 3.09 210 08:52 12.05.2022
2171 Clear 24 1011 78 10000 3.09 210 08:52 12.05.2022
2172 Clear 24 1011 78 10000 3.09 210 08:52 12.05.2022
2173 Clear 24 1011 78 10000 3.09 210 08:52 12.05.2022
2174 Rain 25 1012 73 10000 4.12 240 07:58 12.05.2022
2175 Clear 25 1012 73 10000 4.12 250 06:58 12.05.2022
2176 Clear 24 1010 80 10000 2.57 340 03:50 12.05.2022
2177 Rain 25 1010 80 10000 1.03 60 01:29 12.05.2022
2178 Clear 27 1010 71 10000 2.57 60 22:59 11.05.2022
2179 Clear 27 1010 71 10000 2.57 60 22:18 11.05.2022
2180 Clear 28 1014 65 10000 3.09 350 21:24 11.05.2022
2181 Clear 28 1014 62 10000 3.09 10 20:20 11.05.2022
2182 Clear 26 1017 69 10000 3.09 340 17:33 11.05.2022
2183 Clear 25 1018 74 10000 3.09 10 16:19 11.05.2022
2184 Clouds 22 1014 84 10000 3.09 340 14:48 11.05.2022
2185 Clouds 22 1014 84 10000 3.09 340 14:25 11.05.2022
2186 Clouds 21 1014 92 10000 2.57 10 12:54 11.05.2022
2187 Clouds 20 1013 94 10000 2.57 10 11:48 11.05.2022
2188 Clouds 19 1014 94 10000 0.51 0 09:29 11.05.2022
2189 Clouds 20 1016 88 10000 1.03 120 06:36 11.05.2022
2190 Clouds 23 1016 78 10000 4.12 80 02:18 11.05.2022
2191 Clouds 24 1015 75 10000 5.66 110 22:58 10.05.2022
2192 Clouds 24 1015 75 10000 5.66 110 22:58 10.05.2022
2193 Clouds 24 1020 76 10000 5.66 110 22:30 10.05.2022
2194 Clouds 25 1015 71 10000 4.12 130 21:40 10.05.2022
2195 Clouds 25 1020 71 10000 4.63 160 20:34 10.05.2022
2196 Clouds 26 1021 63 10000 3.09 60 18:57 10.05.2022
2197 Clouds 25 1022 63 10000 3.09 350 17:38 10.05.2022
2198 Clouds 24 1023 70 10000 2.06 340 16:35 10.05.2022
2199 Clouds 20 1019 86 10000 3.09 320 13:37 10.05.2022
2200 Clouds 19 1018 88 10000 2.06 340 11:54 10.05.2022
2201 Clouds 19 1018 88 10000 2.06 340 11:34 10.05.2022
2202 Clouds 19 1018 88 10000 2.57 330 10:56 10.05.2022
2203 Clear 18 1019 82 8000 1.54 330 09:47 10.05.2022
2204 Clear 18 1019 88 10000 1.54 340 08:22 10.05.2022
2205 Clear 18 1020 88 10000 1.03 300 06:20 10.05.2022
2206 Clouds 22 1020 70 10000 3.09 120 02:23 10.05.2022
2207 Clouds 23 1019 70 10000 4.63 150 23:53 09.05.2022
2208 Clouds 24 1019 63 10000 4.63 150 22:41 09.05.2022
2209 Clouds 24 1024 63 10000 4.63 140 21:42 09.05.2022
2210 Clouds 25 1024 61 10000 4.63 160 20:21 09.05.2022
2211 Clouds 26 1025 55 10000 3.6 160 18:29 09.05.2022
2212 Clouds 26 1025 58 10000 2.57 30 17:27 09.05.2022
2213 Clouds 25 1026 71 10000 2.57 340 16:21 09.05.2022
2214 Clouds 24 1027 77 10000 2.06 340 15:47 09.05.2022
2215 Clouds 22 1021 81 10000 2.57 340 14:41 09.05.2022
2216 Clouds 21 1021 87 10000 2.57 310 13:59 09.05.2022
2217 Clouds 21 1021 87 10000 2.57 310 13:32 09.05.2022
2218 Clouds 20 1019 88 10000 2.57 10 11:53 09.05.2022
2219 Clouds 19 1020 88 10000 1.03 0 10:50 09.05.2022
2220 Clouds 19 1020 88 10000 1.03 0 10:26 09.05.2022
2221 Clouds 20 1020 88 10000 2.06 340 07:57 09.05.2022
2222 Clouds 20 1021 88 10000 2.06 30 06:42 09.05.2022
2223 Clouds 22 1021 80 10000 2.57 120 02:37 09.05.2022
2224 Clouds 22 1021 80 10000 2.57 120 02:37 09.05.2022
2225 Clouds 22 1021 80 10000 2.57 120 02:37 09.05.2022
2226 Clouds 22 1021 80 10000 2.57 120 02:37 09.05.2022
2227 Clouds 23 1020 75 10000 4.63 140 23:29 08.05.2022
2228 Clouds 23 1019 76 10000 5.14 140 22:42 08.05.2022
2229 Clouds 23 1024 81 10000 6.17 140 21:37 08.05.2022
2230 Clouds 24 1024 75 10000 6.17 140 20:31 08.05.2022
2231 Clouds 24 1024 76 10000 6.69 140 19:37 08.05.2022
2232 Clouds 24 1025 79 10000 4.12 150 18:49 08.05.2022
2233 Clouds 25 1025 73 10000 2.57 360 17:45 08.05.2022
2234 Clouds 24 1026 73 10000 3.09 350 16:30 08.05.2022
2235 Clouds 23 1022 81 10000 3.6 340 15:25 08.05.2022
2236 Clouds 21 1022 89 8000 2.57 330 14:23 08.05.2022
2237 Clouds 21 1020 86 8000 1.03 310 11:53 08.05.2022
2238 Clouds 20 1019 83 10000 1.03 300 10:27 08.05.2022
2239 Clouds 20 1019 83 10000 1.03 320 09:54 08.05.2022
2240 Clouds 20 1020 88 10000 1.03 0 08:37 08.05.2022
2241 Clouds 21 1020 78 10000 1.54 280 06:31 08.05.2022
2242 Clouds 23 1021 73 10000 1.54 260 03:23 08.05.2022
2243 Clouds 23 1021 71 10000 2.57 210 01:25 08.05.2022
2244 Clouds 24 1020 71 10000 2.57 270 00:20 08.05.2022
2245 Clouds 23 1021 73 10000 2.57 240 23:41 07.05.2022
2246 Clouds 23 1020 71 10000 4.12 210 22:46 07.05.2022
2247 Clouds 24 1020 73 10000 5.14 200 21:57 07.05.2022
2248 Clouds 24 1020 73 10000 5.14 200 21:32 07.05.2022
2249 Clouds 24 1020 69 10000 3.6 200 20:27 07.05.2022
2250 Clouds 25 1025 69 10000 4.12 180 18:59 07.05.2022
2251 Clouds 24 1026 78 10000 3.6 180 17:31 07.05.2022
2252 Clouds 24 1023 73 10000 2.57 320 15:18 07.05.2022
2253 Clouds 20 1021 85 10000 2.57 310 12:23 07.05.2022
2254 Clouds 19 1020 82 10000 2.57 350 10:23 07.05.2022
2255 Clear 19 1021 82 10000 2.06 320 08:37 07.05.2022
2256 Clear 20 1021 77 10000 2.57 300 07:37 07.05.2022
2257 Clear 20 1021 83 10000 3.09 310 06:42 07.05.2022
2258 Clear 22 1021 75 10000 2.57 270 04:21 07.05.2022
2259 Clouds 23 1020 66 10000 3.09 220 00:50 07.05.2022
2260 Clouds 24 1020 62 10000 5.14 210 22:55 06.05.2022
2261 Clouds 24 1020 62 10000 5.14 210 22:21 06.05.2022
2262 Clouds 25 1020 59 10000 5.66 190 21:36 06.05.2022
2263 Clouds 26 1024 54 10000 5.14 190 20:18 06.05.2022
2264 Clouds 26 1024 57 10000 5.66 220 19:28 06.05.2022
2265 Clouds 26 1024 58 10000 6.69 210 18:49 06.05.2022
2266 Clouds 25 1020 60 10000 5.66 220 17:38 06.05.2022
2267 Clouds 25 1021 57 10000 4.63 220 15:56 06.05.2022
2268 Clouds 25 1021 57 10000 4.63 220 15:33 06.05.2022
2269 Clouds 23 1021 70 10000 5.14 270 14:22 06.05.2022
2270 Clouds 22 1019 76 10000 4.12 250 12:52 06.05.2022
2271 Clouds 22 1019 76 10000 4.12 250 12:20 06.05.2022
2272 Clouds 23 1018 78 10000 3.09 250 11:33 06.05.2022
2273 Clouds 21 1018 83 10000 2.06 270 09:48 06.05.2022
2274 Clouds 21 1018 83 10000 2.06 270 09:19 06.05.2022
2275 Clouds 22 1018 78 10000 3.09 250 07:56 06.05.2022
2276 Clouds 22 1018 78 10000 3.09 250 06:28 06.05.2022
2277 Clouds 24 1018 71 10000 3.09 230 04:32 06.05.2022
2278 Clouds 24 1017 73 10000 2.57 240 02:40 06.05.2022
2279 Clouds 25 1015 67 10000 6.69 210 23:25 05.05.2022
2280 Clouds 27 1014 51 10000 7.72 210 21:51 05.05.2022
2281 Clouds 28 1013 48 10000 6.17 200 20:48 05.05.2022
2282 Clouds 29 1017 47 10000 6.17 230 19:42 05.05.2022
2283 Clouds 28 1017 62 10000 5.14 240 16:51 05.05.2022
2284 Clouds 27 1018 67 10000 5.14 270 15:52 05.05.2022
2285 Clouds 25 1013 81 9000 5.14 260 14:37 05.05.2022
2286 Mist 25 1012 86 8000 2.06 260 13:18 05.05.2022
2287 Mist 24 1011 94 9000 2.06 320 11:48 05.05.2022
2288 Clouds 23 1010 94 7000 1.54 150 10:28 05.05.2022
2289 Clouds 23 1010 94 7000 1.54 120 09:32 05.05.2022
2290 Clouds 24 1020 97 8000 3.09 160 07:19 05.05.2022
2291 Clouds 24 1017 98 10000 3.6 210 02:33 05.05.2022
2292 Mist 24 1016 97 5000 4.12 200 01:47 05.05.2022
2293 Mist 25 1016 89 2000 3.09 20 01:20 05.05.2022
2294 Clouds 25 1014 94 10000 4.12 180 23:28 04.05.2022
2295 Clouds 26 1013 92 10000 3.09 210 22:25 04.05.2022
2296 Mist 26 1013 89 4000 4.63 180 21:48 04.05.2022
2297 Mist 26 1009 86 4000 4.63 180 21:26 04.05.2022
2298 Clouds 28 1012 73 10000 9.26 170 20:22 04.05.2022
2299 Clouds 30 1011 68 10000 8.75 190 19:51 04.05.2022
2300 Clouds 33 1011 52 10000 4.12 350 18:49 04.05.2022
2301 Clouds 33 1011 52 10000 4.12 350 18:20 04.05.2022
2302 Clear 32 1013 47 10000 3.09 360 17:28 04.05.2022
2303 Clear 31 1013 53 10000 2.57 20 15:38 04.05.2022
2304 Clear 29 1009 59 10000 2.57 20 14:59 04.05.2022
2305 Clear 28 1009 59 10000 2.06 50 14:20 04.05.2022
2306 Clear 26 1009 76 10000 3.09 50 13:18 04.05.2022
2307 Clear 24 1009 89 10000 2.06 130 12:29 04.05.2022
2308 Clear 23 1008 83 10000 0 0 10:40 04.05.2022
2309 Clear 24 1008 78 10000 1.54 170 09:38 04.05.2022
2310 Clear 23 1009 88 10000 1.54 210 08:33 04.05.2022
2311 Clear 24 1010 83 10000 1.54 100 05:53 04.05.2022
2312 Clear 27 1010 72 10000 3.09 120 02:49 04.05.2022
2313 Clear 27 1010 75 10000 4.63 180 23:41 03.05.2022
2314 Clear 30 1009 60 10000 3.09 160 22:20 03.05.2022
2315 Clear 31 1009 55 10000 2.06 30 21:36 03.05.2022
2316 Clear 32 1013 44 10000 2.57 110 20:53 03.05.2022
2317 Clear 32 1013 45 10000 3.09 90 19:45 03.05.2022
2318 Clouds 32 1014 50 10000 3.6 150 18:50 03.05.2022
2319 Clouds 32 1014 50 10000 3.6 150 18:50 03.05.2022
2320 Clouds 30 1015 58 10000 2.57 30 17:45 03.05.2022
2321 Clouds 29 1017 62 10000 3.09 20 16:37 03.05.2022
2322 Clouds 27 1013 73 10000 2.06 330 15:32 03.05.2022
2323 Clouds 24 1013 89 10000 2.57 360 12:47 03.05.2022
2324 Clouds 24 1013 89 10000 2.57 360 12:27 03.05.2022
2325 Clouds 24 1013 88 10000 1.54 330 10:57 03.05.2022
2326 Clouds 24 1023 93 10000 1.03 30 09:21 03.05.2022
2327 Clouds 24 1014 78 10000 1.54 120 06:46 03.05.2022
2328 Clouds 25 1024 87 10000 2.06 110 05:58 03.05.2022
2329 Clouds 25 1020 90 10000 4.63 170 00:32 03.05.2022
2330 Clouds 26 1018 90 10000 5.14 160 22:36 02.05.2022
2331 Clouds 26 1017 88 10000 5.14 150 21:52 02.05.2022
2332 Clouds 27 1017 86 10000 6.69 130 20:51 02.05.2022
2333 Clouds 28 1017 78 10000 5.66 160 18:40 02.05.2022
2334 Clouds 28 1017 78 10000 5.66 160 18:21 02.05.2022
2335 Clouds 28 1018 72 10000 5.66 160 17:37 02.05.2022
2336 Clouds 29 1019 68 10000 3.6 160 16:22 02.05.2022
2337 Clouds 27 1015 74 10000 2.06 30 15:30 02.05.2022
2338 Clear 25 1014 81 10000 2.57 360 13:51 02.05.2022
2339 Clear 23 1014 92 10000 2.57 340 12:19 02.05.2022
2340 Clear 21 1013 94 10000 2.06 350 10:47 02.05.2022
2341 Clear 22 1013 88 10000 1.03 320 09:29 02.05.2022
2342 Clear 23 1013 88 10000 0 0 07:51 02.05.2022
2343 Clouds 25 1013 91 10000 2.06 10 03:53 02.05.2022
2344 Clear 26 1017 79 10000 2.57 300 00:24 02.05.2022
2345 Clear 27 1011 66 10000 2.57 90 23:52 01.05.2022
2346 Clear 28 1010 67 10000 3.09 60 22:33 01.05.2022
2347 Clear 29 1015 61 10000 2.57 40 21:22 01.05.2022
2348 Clear 28 1015 67 10000 2.57 20 19:53 01.05.2022
2349 Clear 28 1016 68 10000 2.57 100 18:58 01.05.2022
2350 Clear 28 1016 67 10000 2.57 100 18:39 01.05.2022
2351 Clear 26 1017 75 9000 3.09 30 17:38 01.05.2022
2352 Clouds 25 1019 80 8000 3.6 330 16:23 01.05.2022
2353 Clouds 24 1020 86 6000 3.09 10 15:36 01.05.2022
2354 Mist 22 1015 92 6000 2.06 40 13:47 01.05.2022
2355 Mist 22 1014 94 4000 3.09 20 11:28 01.05.2022
2356 Clouds 21 1015 94 8000 1.03 10 09:32 01.05.2022
2357 Clouds 21 1015 94 8000 1.03 110 08:42 01.05.2022
2358 Clouds 22 1017 94 10000 1.54 350 03:44 01.05.2022
2359 Clouds 22 1018 92 10000 2.57 330 00:29 01.05.2022
2360 Clouds 22 1017 94 6000 5.14 310 21:51 30.04.2022
2361 Clouds 22 1016 94 6000 5.14 310 21:18 30.04.2022
2362 Mist 24 1017 87 8000 6.17 140 19:42 30.04.2022
2363 Mist 24 1017 90 10000 4.12 110 18:28 30.04.2022
2364 Mist 23 1019 89 10000 4.12 120 16:50 30.04.2022
2365 Mist 24 1024 92 10000 4.63 110 15:48 30.04.2022
2366 Mist 23 1024 96 9000 4.12 90 14:53 30.04.2022
2367 Mist 23 1023 92 9000 5.14 140 13:20 30.04.2022
2368 Rain 23 1023 93 10000 2.57 200 11:34 30.04.2022
2369 Mist 21 1016 94 5000 2.57 250 10:49 30.04.2022
2370 Mist 21 1016 100 4000 2.57 290 09:48 30.04.2022
2371 Rain 23 1017 94 5000 2.57 250 07:31 30.04.2022
2372 Mist 25 1018 88 10000 3.6 200 03:34 30.04.2022
2373 Clouds 27 1017 79 10000 6.17 190 23:53 29.04.2022
2374 Clouds 28 1021 74 10000 5.66 220 22:34 29.04.2022
2375 Clouds 29 1020 67 10000 5.66 210 21:54 29.04.2022
2376 Clouds 30 1020 61 10000 6.69 230 20:51 29.04.2022
2377 Clouds 30 1020 60 10000 7.2 210 19:48 29.04.2022
2378 Clouds 31 1020 58 10000 6.69 210 18:47 29.04.2022
2379 Clouds 30 1020 64 10000 6.69 290 17:26 29.04.2022
2380 Clear 29 1021 65 10000 5.66 320 15:52 29.04.2022
2381 Clear 27 1015 71 10000 3.6 360 14:34 29.04.2022
2382 Clear 25 1015 79 10000 3.6 340 13:27 29.04.2022
2383 Clear 23 1014 91 10000 3.6 350 11:51 29.04.2022
2384 Clear 22 1014 88 10000 1.54 10 09:23 29.04.2022
2385 Clear 23 1014 88 10000 1.54 40 07:42 29.04.2022
2386 Clear 23 1014 88 10000 1.54 40 07:23 29.04.2022
2387 Clear 24 1015 83 10000 1.54 350 05:55 29.04.2022
2388 Clear 28 1014 66 10000 3.6 190 00:47 29.04.2022
2389 Clear 28 1014 67 10000 3.6 190 23:49 28.04.2022
2390 Clear 30 1013 55 10000 4.12 190 22:45 28.04.2022
2391 Clear 32 1017 51 10000 3.6 160 21:55 28.04.2022
2392 Clear 32 1017 49 10000 3.6 160 21:29 28.04.2022
2393 Clear 31 1017 51 10000 4.63 160 20:41 28.04.2022
2394 Clear 31 1017 52 10000 3.6 140 19:49 28.04.2022
2395 Clear 31 1017 52 10000 3.6 140 19:23 28.04.2022
2396 Clear 31 1017 51 10000 3.6 30 18:38 28.04.2022
2397 Clear 32 1018 49 10000 4.12 340 17:32 28.04.2022
2398 Clear 31 1019 55 10000 4.12 30 16:49 28.04.2022
2399 Clear 31 1019 56 10000 4.12 30 16:19 28.04.2022
2400 Clear 30 1020 59 10000 3.6 30 15:41 28.04.2022
2401 Clear 27 1015 69 10000 2.57 40 14:47 28.04.2022
2402 Clear 25 1015 78 10000 2.57 320 13:23 28.04.2022
2403 Clear 24 1014 83 10000 3.09 10 12:28 28.04.2022
2404 Clear 21 1014 94 10000 1.03 0 10:51 28.04.2022
2405 Clear 21 1014 94 10000 1.03 0 10:26 28.04.2022
2406 Clear 22 1014 88 10000 1.03 80 09:43 28.04.2022
2407 Clear 23 1015 88 10000 1.03 30 07:40 28.04.2022
2408 Clear 23 1015 88 10000 1.03 50 06:38 28.04.2022
2409 Clear 23 1015 88 10000 1.03 60 05:40 28.04.2022
2410 Clear 26 1015 83 10000 2.06 330 04:42 28.04.2022
2411 Clear 26 1020 84 10000 4.63 180 00:51 28.04.2022
2412 Clear 27 1019 76 10000 4.63 170 23:18 27.04.2022
2413 Clouds 29 1018 61 10000 5.66 170 21:58 27.04.2022
2414 Clouds 29 1018 60 10000 5.66 170 21:32 27.04.2022
2415 Clouds 29 1017 63 10000 5.14 170 20:44 27.04.2022
2416 Clouds 28 1018 72 10000 6.17 160 19:41 27.04.2022
2417 Clouds 28 1018 72 10000 6.17 160 19:22 27.04.2022
2418 Clouds 28 1018 72 10000 6.17 160 19:22 27.04.2022
2419 Clouds 28 1018 73 10000 6.17 160 18:38 27.04.2022
2420 Clear 28 1019 73 10000 5.66 150 17:41 27.04.2022
2421 Haze 28 1020 72 10000 2.57 360 15:56 27.04.2022
2422 Mist 23 1014 95 7000 3.6 350 12:50 27.04.2022
2423 Clouds 23 1013 97 7000 3.6 360 11:23 27.04.2022
2424 Clouds 23 1014 94 8000 1.03 110 10:27 27.04.2022
2425 Clear 23 1014 88 10000 2.06 50 07:53 27.04.2022
2426 Clear 23 1015 88 10000 0 0 06:41 27.04.2022
2427 Clear 26 1020 86 10000 2.06 120 02:26 27.04.2022
2428 Clear 26 1020 84 10000 2.57 100 01:21 27.04.2022
2429 Clear 26 1014 82 10000 3.6 190 00:27 27.04.2022
2430 Clear 26 1018 84 10000 4.63 180 23:24 26.04.2022
2431 Clear 27 1018 77 10000 4.63 170 22:44 26.04.2022
2432 Clear 28 1018 70 10000 4.63 130 21:59 26.04.2022
2433 Clear 29 1018 70 10000 4.63 130 21:18 26.04.2022
2434 Clear 29 1018 69 10000 5.14 170 20:36 26.04.2022
2435 Clear 29 1018 66 10000 5.14 160 19:45 26.04.2022
2436 Clear 29 1018 66 10000 5.14 160 19:26 26.04.2022
2437 Clear 28 1019 66 10000 5.14 150 18:31 26.04.2022
2438 Clear 28 1020 62 10000 3.09 120 17:39 26.04.2022
2439 Clear 25 1017 73 10000 2.57 10 15:32 26.04.2022
2440 Clear 23 1017 83 10000 2.57 10 13:40 26.04.2022
2441 Clear 22 1016 87 10000 2.57 330 12:47 26.04.2022
2442 Clear 22 1016 88 10000 2.57 10 11:23 26.04.2022
2443 Clouds 21 1015 88 10000 1.54 10 10:30 26.04.2022
2444 Clear 22 1016 83 10000 2.06 90 08:33 26.04.2022
2445 Clear 23 1017 80 10000 2.57 50 04:53 26.04.2022
2446 Clear 23 1017 80 10000 2.57 50 04:22 26.04.2022
2447 Clouds 25 1016 69 10000 4.63 110 00:46 26.04.2022
2448 Clouds 26 1016 70 10000 4.63 110 23:50 25.04.2022
2449 Clouds 27 1016 66 10000 5.14 160 21:53 25.04.2022
2450 Clouds 27 1016 66 10000 5.14 160 21:25 25.04.2022
2451 Clouds 27 1016 68 10000 6.17 130 19:53 25.04.2022
2452 Clouds 27 1017 64 10000 5.66 160 18:34 25.04.2022
2453 Clouds 27 1018 63 10000 4.63 160 17:40 25.04.2022
2454 Clouds 27 1019 62 10000 4.12 150 16:42 25.04.2022
2455 Clouds 26 1020 63 10000 4.12 110 15:22 25.04.2022
2456 Clouds 26 1020 63 10000 3.6 90 14:32 25.04.2022
2457 Clouds 24 1019 77 10000 1.54 80 12:47 25.04.2022
2458 Clouds 23 1019 78 10000 1.03 110 10:44 25.04.2022
2459 Clouds 22 1019 83 10000 1.54 100 09:41 25.04.2022
2460 Clouds 23 1019 83 10000 1.54 80 07:49 25.04.2022
2461 Clouds 24 1020 73 10000 2.57 100 05:54 25.04.2022
2462 Clouds 25 1019 73 10000 4.12 130 01:28 25.04.2022
2463 Clouds 25 1018 78 10000 6.17 160 23:54 24.04.2022
2464 Clouds 25 1018 78 10000 6.17 160 23:25 24.04.2022
2465 Clouds 25 1018 73 10000 6.17 120 22:39 24.04.2022
2466 Clouds 26 1017 69 10000 6.17 240 21:56 24.04.2022
2467 Clouds 26 1017 70 10000 6.17 240 21:22 24.04.2022
2468 Clouds 27 1017 62 10000 7.2 240 20:46 24.04.2022
2469 Clouds 27 1017 62 10000 7.2 240 20:21 24.04.2022
2470 Clouds 28 1017 64 10000 5.66 160 18:44 24.04.2022
2471 Clouds 28 1018 62 10000 4.63 140 17:49 24.04.2022
2472 Clouds 28 1018 62 10000 4.63 140 17:21 24.04.2022
2473 Clouds 28 1018 62 10000 4.63 140 17:21 24.04.2022
2474 Clouds 28 1018 66 10000 4.12 140 16:55 24.04.2022
2475 Clouds 28 1018 66 10000 4.12 140 16:29 24.04.2022
2476 Clouds 27 1019 69 10000 3.09 130 15:43 24.04.2022
2477 Clouds 26 1018 71 10000 2.06 360 14:36 24.04.2022
2478 Clouds 25 1017 78 10000 2.06 340 13:27 24.04.2022
2479 Clear 24 1016 85 10000 2.57 320 12:56 24.04.2022
2480 Clear 24 1015 80 10000 3.09 320 11:50 24.04.2022
2481 Clear 22 1015 88 10000 2.06 290 10:48 24.04.2022
2482 Clear 23 1015 83 10000 1.54 270 09:47 24.04.2022
2483 Clear 24 1014 78 10000 2.06 270 08:18 24.04.2022
2484 Clear 26 1014 65 10000 4.12 240 05:45 24.04.2022
2485 Clouds 29 1010 54 10000 5.66 210 02:48 24.04.2022
2486 Clear 29 1008 53 10000 4.12 250 00:47 24.04.2022
2487 Clear 29 1007 56 10000 2.57 230 23:55 23.04.2022
2488 Clear 29 1007 56 10000 2.57 230 23:25 23.04.2022
2489 Clear 33 1006 38 10000 3.6 300 22:39 23.04.2022
2490 Clear 32 1004 41 10000 5.14 330 21:47 23.04.2022
2491 Clear 32 1004 41 10000 5.14 330 21:29 23.04.2022
2492 Clear 35 1005 36 10000 7.72 330 19:56 23.04.2022
2493 Clear 35 1005 36 10000 7.72 330 19:20 23.04.2022
2494 Clear 34 1005 36 10000 8.75 330 18:54 23.04.2022
2495 Clear 34 1005 34 10000 8.75 330 18:32 23.04.2022
2496 Clear 34 1007 33 10000 8.75 320 17:47 23.04.2022
2497 Clear 34 1007 32 10000 8.23 320 16:46 23.04.2022
2498 Clear 30 1008 49 10000 5.14 10 15:51 23.04.2022
2499 Clear 26 1008 66 10000 4.12 10 13:31 23.04.2022
2500 Clear 23 1007 85 10000 3.6 330 11:29 23.04.2022
2501 Clear 21 1007 83 10000 1.54 120 10:32 23.04.2022
2502 Clear 22 1008 83 10000 1.03 130 08:18 23.04.2022
2503 Clear 25 1009 81 10000 3.6 180 03:57 23.04.2022
2504 Clear 25 1009 83 10000 3.6 190 02:36 23.04.2022
2505 Clear 25 1008 79 10000 4.63 170 23:37 22.04.2022
2506 Clear 25 1008 79 10000 4.63 170 23:18 22.04.2022
2507 Clear 27 1008 64 10000 4.63 150 21:58 22.04.2022
2508 Clear 27 1008 64 10000 4.63 150 21:39 22.04.2022
2509 Clouds 28 1008 61 10000 3.6 150 20:34 22.04.2022
2510 Clouds 28 1009 64 10000 4.63 140 19:26 22.04.2022
2511 Clear 28 1009 67 10000 6.17 120 18:56 22.04.2022
2512 Clear 28 1009 67 10000 6.17 120 18:24 22.04.2022
2513 Clear 27 1011 67 10000 3.09 20 16:54 22.04.2022
2514 Clear 26 1011 73 10000 3.6 20 15:58 22.04.2022
2515 Clear 26 1011 73 10000 3.6 20 15:24 22.04.2022
2516 Clear 24 1011 78 10000 3.09 350 14:38 22.04.2022
2517 Clear 24 1011 80 10000 1.03 0 13:41 22.04.2022
2518 Clear 22 1011 87 10000 1.03 0 12:47 22.04.2022
2519 Clear 22 1010 88 10000 1.03 50 11:23 22.04.2022
2520 Clear 21 1010 88 10000 2.06 350 10:56 22.04.2022
2521 Clouds 20 1010 88 10000 2.06 350 10:34 22.04.2022
2522 Clouds 21 1010 83 10000 1.54 10 09:57 22.04.2022
2523 Clouds 21 1010 83 10000 1.54 10 09:21 22.04.2022
2524 Clear 21 1011 83 10000 2.57 120 08:42 22.04.2022
2525 Clear 22 1011 83 10000 1.54 90 06:42 22.04.2022
2526 Clouds 24 1012 72 10000 3.6 170 01:24 22.04.2022
2527 Clouds 24 1012 72 10000 5.14 170 23:33 21.04.2022
2528 Clouds 25 1012 69 10000 6.17 180 22:43 21.04.2022
2529 Clouds 25 1012 69 10000 5.66 170 21:42 21.04.2022
2530 Rain 25 1012 67 10000 6.17 160 20:31 21.04.2022
2531 Clouds 26 1013 64 10000 5.66 160 18:49 21.04.2022
2532 Clouds 26 1013 64 10000 5.66 160 18:28 21.04.2022
2533 Clouds 26 1014 61 10000 4.63 160 17:19 21.04.2022
2534 Clear 26 1015 62 10000 2.06 160 16:19 21.04.2022
2535 Clear 25 1016 70 10000 3.6 40 15:19 21.04.2022
2536 Clouds 24 1016 76 10000 3.09 340 14:28 21.04.2022
2537 Clouds 23 1016 81 10000 3.09 320 13:21 21.04.2022
2538 Clouds 21 1016 88 10000 2.06 330 12:25 21.04.2022
2539 Clouds 22 1016 78 10000 1.03 350 09:36 21.04.2022
2540 Clear 22 1016 78 10000 2.06 290 08:47 21.04.2022
2541 Clear 22 1017 83 10000 1.03 290 06:44 21.04.2022
2542 Clouds 24 1017 64 10000 2.06 190 03:42 21.04.2022
2543 Clouds 24 1017 64 10000 2.06 190 03:22 21.04.2022
2544 Clouds 24 1017 73 10000 3.6 190 02:44 21.04.2022
2545 Clouds 24 1017 73 10000 3.6 190 02:44 21.04.2022
2546 Clouds 24 1016 72 10000 5.66 200 00:35 21.04.2022
2547 Clouds 24 1016 73 10000 6.69 190 23:40 20.04.2022
2548 Clouds 24 1016 73 10000 6.69 190 23:18 20.04.2022
2549 Clouds 24 1016 73 10000 7.2 180 22:36 20.04.2022
2550 Clouds 25 1015 70 10000 7.72 180 21:47 20.04.2022
2551 Clouds 25 1015 75 10000 6.69 170 20:50 20.04.2022
2552 Clouds 25 1015 75 10000 6.69 170 20:21 20.04.2022
2553 Clouds 26 1015 69 10000 6.17 240 19:47 20.04.2022
2554 Clouds 26 1016 69 10000 5.14 160 18:52 20.04.2022
2555 Clouds 26 1017 72 10000 4.63 150 17:52 20.04.2022
2556 Clouds 26 1017 70 10000 2.57 10 16:39 20.04.2022
2557 Clouds 25 1018 75 10000 2.06 20 15:33 20.04.2022
2558 Clouds 21 1017 90 8000 2.57 330 12:47 20.04.2022
2559 Clouds 21 1016 94 9000 2.57 340 11:42 20.04.2022
2560 Clouds 20 1017 94 10000 2.06 270 10:51 20.04.2022
2561 Clouds 20 1016 94 10000 2.06 280 09:45 20.04.2022
2562 Clouds 21 1017 88 10000 2.06 290 08:54 20.04.2022
2563 Clouds 21 1017 88 10000 2.06 290 08:20 20.04.2022
2564 Clear 21 1017 88 10000 1.54 300 06:26 20.04.2022
2565 Clouds 23 1017 83 10000 2.06 170 03:33 20.04.2022
2566 Clouds 24 1016 75 10000 3.6 140 00:22 20.04.2022
2567 Clouds 24 1015 75 10000 5.14 140 23:31 19.04.2022
2568 Clouds 24 1015 71 10000 6.17 160 22:24 19.04.2022
2569 Clear 26 1015 64 10000 5.66 160 21:55 19.04.2022
2570 Clear 26 1015 64 10000 5.66 160 21:18 19.04.2022
2571 Clouds 26 1015 62 10000 5.66 160 20:37 19.04.2022
2572 Clouds 26 1016 58 10000 5.14 160 19:43 19.04.2022
2573 Clouds 27 1016 52 10000 4.12 160 18:46 19.04.2022
2574 Clouds 27 1016 52 10000 4.12 160 18:46 19.04.2022
2575 Clouds 27 1017 52 10000 2.57 330 17:28 19.04.2022
2576 Clear 25 1018 61 10000 2.57 340 16:43 19.04.2022
2577 Clear 25 1023 63 10000 2.57 340 16:21 19.04.2022
2578 Clear 22 1018 78 7000 2.57 10 14:48 19.04.2022
2579 Clouds 21 1018 90 8000 2.57 10 13:35 19.04.2022
2580 Clouds 20 1018 92 9000 3.09 360 12:50 19.04.2022
2581 Clouds 19 1017 94 10000 2.57 360 11:55 19.04.2022
2582 Clear 18 1017 88 10000 1.54 10 10:23 19.04.2022
2583 Clear 19 1017 88 10000 1.03 0 08:54 19.04.2022
2584 Clouds 22 1018 82 10000 2.57 110 04:42 19.04.2022
2585 Clouds 22 1019 83 10000 3.09 90 03:25 19.04.2022
2586 Clear 22 1018 74 10000 2.57 160 00:54 19.04.2022
2587 Clouds 23 1022 74 10000 4.12 170 23:29 18.04.2022
2588 Clouds 25 1022 60 10000 4.63 180 21:30 18.04.2022
2589 Clouds 25 1022 60 10000 4.63 180 21:30 18.04.2022
2590 Clouds 25 1022 59 10000 5.66 150 20:54 18.04.2022
2591 Clouds 25 1022 59 10000 5.66 150 20:30 18.04.2022
2592 Clouds 26 1022 58 10000 4.12 140 19:49 18.04.2022
2593 Clouds 26 1022 60 10000 3.09 40 18:56 18.04.2022
2594 Clouds 25 1023 61 10000 3.09 140 17:57 18.04.2022
2595 Clouds 26 1023 62 10000 3.09 350 17:33 18.04.2022
2596 Clouds 25 1023 69 10000 3.6 350 16:50 18.04.2022
2597 Clouds 24 1019 70 10000 3.6 350 16:31 18.04.2022
2598 Clouds 23 1019 75 10000 3.09 10 14:45 18.04.2022
2599 Clouds 20 1019 86 10000 2.57 310 13:35 18.04.2022
2600 Clouds 20 1018 91 10000 3.09 340 12:29 18.04.2022
2601 Clouds 21 1017 88 10000 3.09 350 11:34 18.04.2022
2602 Clouds 18 1017 88 10000 1.54 40 10:31 18.04.2022
2603 Clouds 19 1017 82 10000 1.54 330 09:31 18.04.2022
2604 Clouds 19 1018 82 10000 1.03 340 07:42 18.04.2022
2605 Clouds 20 1019 83 10000 1.03 310 05:37 18.04.2022
2606 Clouds 23 1018 68 10000 3.09 200 00:47 18.04.2022
2607 Clouds 23 1017 68 10000 4.12 190 22:41 17.04.2022
2608 Clouds 24 1021 72 10000 5.14 250 21:46 17.04.2022
2609 Clouds 24 1022 74 10000 4.12 150 21:24 17.04.2022
2610 Clouds 24 1021 70 10000 5.66 160 20:36 17.04.2022
2611 Clouds 24 1021 70 10000 5.66 160 20:36 17.04.2022
2612 Clouds 24 1022 68 10000 6.17 150 19:38 17.04.2022
2613 Clouds 25 1023 65 10000 3.6 50 17:48 17.04.2022
2614 Clouds 23 1019 71 10000 3.6 330 15:40 17.04.2022
2615 Clouds 21 1019 80 10000 4.12 350 14:55 17.04.2022
2616 Clouds 21 1019 80 10000 4.12 350 14:19 17.04.2022
2617 Clouds 20 1018 89 7000 3.09 330 12:59 17.04.2022
2618 Clouds 20 1018 89 7000 3.09 330 12:27 17.04.2022
2619 Clouds 19 1017 82 8000 1.54 280 10:46 17.04.2022
2620 Clouds 19 1017 82 8000 1.54 280 10:28 17.04.2022
2621 Clouds 18 1019 82 10000 3.09 350 09:34 17.04.2022
2622 Clouds 19 1018 77 10000 3.09 300 08:51 17.04.2022
2623 Clear 19 1018 77 10000 2.06 350 07:37 17.04.2022
2624 Clouds 21 1018 78 10000 2.57 300 04:30 17.04.2022
2625 Clouds 23 1018 68 10000 2.06 260 01:26 17.04.2022
2626 Clouds 23 1016 71 10000 4.12 230 23:52 16.04.2022
2627 Clouds 24 1016 61 10000 6.69 210 22:39 16.04.2022
2628 Clouds 25 1016 58 10000 5.66 200 21:39 16.04.2022
2629 Clouds 25 1020 59 10000 5.66 190 20:32 16.04.2022
2630 Clouds 25 1021 63 10000 3.09 50 18:59 16.04.2022
2631 Clouds 25 1021 62 10000 3.09 50 18:28 16.04.2022
2632 Clouds 24 1022 67 10000 4.12 350 16:40 16.04.2022
2633 Clouds 22 1017 76 9000 3.09 360 15:46 16.04.2022
2634 Clouds 20 1017 85 10000 3.6 330 14:57 16.04.2022
2635 Clouds 19 1017 92 7000 3.6 320 13:58 16.04.2022
2636 Clouds 19 1017 92 7000 3.6 320 13:37 16.04.2022
2637 Clouds 19 1017 92 7000 3.6 320 13:37 16.04.2022
2638 Mist 19 1017 92 3500 5.14 310 12:27 16.04.2022
2639 Clouds 20 1015 75 10000 3.09 300 11:18 16.04.2022
2640 Clouds 19 1015 82 10000 1.03 340 09:56 16.04.2022
2641 Clear 19 1015 82 10000 2.57 20 08:59 16.04.2022
2642 Clear 19 1015 82 10000 2.57 20 08:18 16.04.2022
2643 Clear 20 1015 77 10000 2.57 330 06:59 16.04.2022
2644 Clouds 22 1015 68 10000 4.12 330 03:36 16.04.2022
2645 Clouds 23 1014 63 10000 3.09 240 00:31 16.04.2022
2646 Clouds 22 1014 64 10000 3.6 250 23:23 15.04.2022
2647 Clouds 23 1014 59 10000 5.66 230 22:36 15.04.2022
2648 Clouds 24 1014 53 10000 5.14 250 21:58 15.04.2022
2649 Clouds 24 1014 53 10000 5.14 250 21:18 15.04.2022
2650 Clouds 24 1013 50 10000 5.14 240 20:27 15.04.2022
2651 Clouds 25 1013 49 10000 4.63 240 19:40 15.04.2022
2652 Clouds 24 1014 51 10000 6.17 240 18:54 15.04.2022
2653 Clouds 24 1014 51 10000 6.17 240 18:25 15.04.2022
2654 Clouds 24 1014 52 10000 5.66 230 17:48 15.04.2022
2655 Clouds 24 1014 52 10000 5.66 230 17:21 15.04.2022
2656 Clouds 23 1015 61 10000 6.69 250 16:23 15.04.2022
2657 Clouds 23 1015 63 10000 3.6 230 15:24 15.04.2022
2658 Clouds 23 1014 69 10000 3.6 250 13:55 15.04.2022
2659 Clouds 22 1013 75 10000 5.14 330 12:46 15.04.2022
2660 Clouds 22 1012 74 10000 4.63 290 11:59 15.04.2022
2661 Clouds 22 1012 74 10000 4.63 290 11:40 15.04.2022
2662 Mist 20 1012 94 5000 3.6 270 10:45 15.04.2022
2663 Mist 21 1012 88 5000 3.6 310 09:57 15.04.2022
2664 Mist 21 1012 88 5000 3.6 310 09:21 15.04.2022
2665 Clouds 21 1012 88 6000 4.12 280 08:24 15.04.2022
2666 Mist 21 1012 88 4500 4.12 290 06:47 15.04.2022
2667 Rain 23 1019 92 7000 5.66 280 04:28 15.04.2022
2668 Clouds 26 1008 77 10000 3.6 210 23:42 14.04.2022
2669 Clouds 26 1008 77 10000 3.6 210 23:19 14.04.2022
2670 Clouds 25 920 68 10000 4.12 200 22:42 14.04.2022
2671 Clouds 26 1007 77 10000 4.12 200 22:24 14.04.2022
2672 Clouds 25 920 69 10000 3.09 170 21:39 14.04.2022
2673 Clouds 26 1007 77 10000 2.57 360 19:24 14.04.2022
2674 Clouds 26 1008 84 10000 2.57 310 18:38 14.04.2022
2675 Clouds 26 1009 85 10000 2.57 320 17:45 14.04.2022
2676 Clouds 25 1010 86 9000 3.6 310 16:49 14.04.2022
2677 Clouds 24 1011 91 8000 3.6 320 15:50 14.04.2022
2678 Rain 24 1011 93 5000 2.06 310 13:52 14.04.2022
2679 Rain 23 939 82 8000 2.06 310 13:19 14.04.2022
2680 Rain 23 927 80 6000 3.09 270 12:32 14.04.2022
2681 Mist 23 914 79 4500 4.12 240 11:36 14.04.2022
2682 Rain 22 850 69 4000 4.12 260 10:58 14.04.2022
2683 Clouds 23 850 66 6000 4.12 250 10:31 14.04.2022
2684 Clouds 23 850 64 10000 3.09 240 09:28 14.04.2022
2685 Clouds 23 850 64 10000 2.57 280 07:54 14.04.2022
2686 Clouds 24 850 64 10000 2.57 330 05:35 14.04.2022
2687 Clouds 28 1008 65 10000 5.66 230 00:29 14.04.2022
2688 Clouds 28 1007 76 10000 5.66 130 22:37 13.04.2022
2689 Clouds 28 1006 79 10000 6.69 140 21:42 13.04.2022
2690 Clouds 29 1006 72 10000 5.66 150 20:39 13.04.2022
2691 Clouds 30 1006 70 10000 5.66 140 19:48 13.04.2022
2692 Clouds 30 1007 68 10000 5.14 40 18:37 13.04.2022
2693 Clear 30 1008 65 10000 2.57 350 17:25 13.04.2022
2694 Clear 30 1009 68 10000 2.57 20 16:53 13.04.2022
2695 Clear 28 1009 71 10000 3.09 330 15:47 13.04.2022
2696 Clear 28 1009 71 10000 3.09 330 15:27 13.04.2022
2697 Clear 27 1010 78 10000 2.57 340 14:40 13.04.2022
2698 Clear 26 1009 84 10000 2.57 330 13:43 13.04.2022
2699 Clear 25 1009 89 10000 2.57 330 12:52 13.04.2022
2700 Clear 24 913 75 10000 2.06 80 11:47 13.04.2022
2701 Clear 23 850 66 10000 1.54 110 10:34 13.04.2022
2702 Clear 23 850 66 10000 3.09 70 08:49 13.04.2022
2703 Clear 23 850 66 10000 3.09 70 08:23 13.04.2022
2704 Clear 23 851 66 10000 2.57 70 06:49 13.04.2022
2705 Clear 23 851 66 10000 2.57 70 06:24 13.04.2022
2706 Rain 26 914 70 10000 2.57 100 02:24 13.04.2022
2707 Clear 27 1009 81 10000 3.09 170 00:20 13.04.2022
2708 Clear 27 1007 76 10000 3.6 180 22:36 12.04.2022
2709 Clouds 30 1007 66 10000 3.6 210 21:56 12.04.2022
2710 Clouds 30 1008 62 10000 3.6 130 20:48 12.04.2022
2711 Clouds 30 1008 62 10000 3.6 130 20:22 12.04.2022
2712 Clouds 30 1008 60 10000 3.6 140 19:40 12.04.2022
2713 Clouds 30 1008 60 10000 3.6 140 19:18 12.04.2022
2714 Clear 30 1010 61 10000 2.57 0 17:39 12.04.2022
2715 Clear 29 1011 63 10000 3.09 30 16:48 12.04.2022
2716 Clear 27 1012 73 10000 3.09 40 15:38 12.04.2022
2717 Clear 27 1012 73 10000 3.09 40 15:20 12.04.2022
2718 Clear 25 1011 79 10000 2.57 70 13:53 12.04.2022
2719 Clear 25 1011 79 10000 2.57 70 13:27 12.04.2022
2720 Clear 25 1011 79 10000 2.57 70 13:27 12.04.2022
2721 Clear 23 928 77 10000 3.09 20 12:26 12.04.2022
2722 Clear 22 914 77 10000 2.57 30 11:39 12.04.2022
2723 Clear 22 852 66 10000 1.03 20 09:59 12.04.2022
2724 Clear 22 852 66 10000 2.57 120 08:53 12.04.2022
2725 Clear 22 702 46 10000 2.06 110 07:47 12.04.2022
2726 Clear 22 702 46 10000 1.54 90 05:47 12.04.2022
2727 Clear 26 962 69 10000 3.09 70 03:28 12.04.2022
2728 Clouds 25 923 65 10000 5.14 140 23:36 11.04.2022
2729 Clouds 26 921 64 10000 5.14 140 22:44 11.04.2022
2730 Clouds 28 1010 67 10000 6.17 140 21:36 11.04.2022
2731 Clouds 28 1010 69 10000 5.66 140 20:54 11.04.2022
2732 Clouds 28 1010 69 10000 5.66 140 20:28 11.04.2022
2733 Clouds 28 1011 72 10000 6.17 160 19:36 11.04.2022
2734 Clouds 28 1011 68 10000 6.17 160 19:18 11.04.2022
2735 Clouds 28 1012 63 10000 5.14 160 18:37 11.04.2022
2736 Clouds 28 1012 67 10000 5.14 160 17:44 11.04.2022
2737 Clouds 27 1013 71 10000 3.6 30 16:38 11.04.2022
2738 Clouds 27 1014 71 10000 4.12 340 15:24 11.04.2022
2739 Clouds 24 941 74 10000 3.6 140 13:51 11.04.2022
2740 Clear 23 930 78 10000 1.54 160 12:43 11.04.2022
2741 Clear 24 923 76 10000 1.54 160 12:22 11.04.2022
2742 Clouds 24 961 81 10000 2.06 40 10:56 11.04.2022
2743 Clouds 22 702 46 10000 1.03 10 09:58 11.04.2022
2744 Clear 22 702 46 10000 1.03 40 08:24 11.04.2022
2745 Clear 22 702 46 10000 4.12 120 05:26 11.04.2022
2746 Clouds 25 923 71 10000 4.12 140 00:49 11.04.2022
2747 Clouds 25 923 70 10000 5.66 160 22:33 10.04.2022
2748 Clouds 25 923 70 10000 6.69 160 21:54 10.04.2022
2749 Clouds 27 1011 77 10000 6.69 160 21:26 10.04.2022
2750 Clouds 27 1011 77 10000 7.2 160 20:25 10.04.2022
2751 Clouds 27 1011 69 10000 7.72 240 19:37 10.04.2022
2752 Clouds 28 1011 72 10000 6.69 230 18:50 10.04.2022
2753 Clouds 28 1011 71 10000 6.69 230 18:30 10.04.2022
2754 Clouds 28 1012 71 10000 4.12 250 17:49 10.04.2022
2755 Clouds 28 1012 69 10000 2.57 20 16:59 10.04.2022
2756 Clouds 28 1013 73 10000 3.09 140 15:53 10.04.2022
2757 Clouds 26 1013 80 10000 2.57 130 14:49 10.04.2022
2758 Clouds 26 1013 84 10000 3.09 160 13:45 10.04.2022
2759 Clouds 24 929 77 10000 2.06 170 12:33 10.04.2022
2760 Clouds 24 915 75 10000 2.06 260 11:44 10.04.2022
2761 Clouds 24 915 75 10000 2.06 260 11:24 10.04.2022
2762 Clouds 23 851 66 10000 3.09 290 10:38 10.04.2022
2763 Clouds 23 851 66 10000 2.57 330 09:46 10.04.2022
2764 Clouds 22 702 46 10000 2.57 280 08:40 10.04.2022
2765 Clouds 22 702 46 10000 2.57 280 08:18 10.04.2022
2766 Clouds 22 702 46 10000 2.06 290 06:59 10.04.2022
2767 Clouds 26 961 77 10000 4.12 250 04:36 10.04.2022
2768 Clouds 26 961 77 10000 4.12 180 02:19 10.04.2022
2769 Clouds 25 922 74 10000 6.69 180 23:54 09.04.2022
2770 Clouds 25 922 74 10000 6.69 180 23:54 09.04.2022
2771 Clouds 25 922 74 10000 6.69 180 23:25 09.04.2022
2772 Clouds 25 920 70 10000 6.69 180 22:39 09.04.2022
2773 Clouds 27 1009 75 10000 6.69 170 21:28 09.04.2022
2774 Clouds 28 1009 70 10000 6.69 170 20:31 09.04.2022
2775 Clouds 29 1009 68 10000 7.2 160 19:59 09.04.2022
2776 Clouds 29 1009 68 10000 7.2 160 19:41 09.04.2022
2777 Clear 29 1010 68 10000 4.63 160 18:24 09.04.2022
2778 Clear 29 1010 65 10000 2.06 10 17:52 09.04.2022
2779 Clear 28 1012 70 10000 2.57 10 16:59 09.04.2022
2780 Clear 28 1012 70 10000 2.57 10 16:40 09.04.2022
2781 Clouds 27 1013 77 10000 3.6 10 15:52 09.04.2022
2782 Clouds 27 1013 77 10000 3.6 10 15:26 09.04.2022
2783 Clouds 25 1013 81 10000 3.09 340 14:26 09.04.2022
2784 Clouds 25 1013 80 10000 2.06 20 13:34 09.04.2022
2785 Clouds 23 922 73 10000 1.54 300 12:57 09.04.2022
2786 Clouds 23 915 75 9000 2.06 150 11:51 09.04.2022
2787 Clouds 22 702 46 7000 2.06 170 10:53 09.04.2022
2788 Clouds 22 702 46 7000 2.06 170 10:19 09.04.2022
2789 Clouds 22 702 46 6000 5.14 50 09:24 09.04.2022
2790 Mist 22 702 46 5000 1.03 0 08:35 09.04.2022
2791 Rain 22 702 46 10000 1.54 60 05:21 09.04.2022
2792 Clouds 25 920 71 10000 4.12 180 00:36 09.04.2022
2793 Clouds 25 922 71 10000 4.12 180 00:36 09.04.2022
2794 Clouds 26 1011 78 10000 6.69 180 23:24 08.04.2022
2795 Clear 28 1011 72 10000 6.17 170 21:54 08.04.2022
2796 Clouds 28 1011 69 10000 6.17 150 20:45 08.04.2022
2797 Clouds 28 1012 66 10000 5.66 150 19:57 08.04.2022
2798 Clouds 28 1012 67 10000 5.66 160 18:59 08.04.2022
2799 Clouds 28 1012 67 10000 5.66 160 18:25 08.04.2022
2800 Clouds 28 1013 64 10000 4.12 150 17:38 08.04.2022
2801 Clouds 28 1013 64 10000 4.12 150 17:19 08.04.2022
2802 Clouds 27 1014 66 10000 3.6 150 16:35 08.04.2022
2803 Clear 27 1015 69 10000 3.6 10 15:39 08.04.2022
2804 Clouds 25 1015 77 10000 3.09 330 14:52 08.04.2022
2805 Clouds 25 1015 77 10000 3.09 330 14:26 08.04.2022
2806 Clouds 24 941 74 10000 2.57 50 13:41 08.04.2022
2807 Clouds 24 941 74 10000 2.57 50 13:22 08.04.2022
2808 Clouds 22 917 75 10000 1.54 360 11:53 08.04.2022
2809 Clouds 22 853 66 10000 1.03 0 10:32 08.04.2022
2810 Clouds 22 853 66 10000 0 0 09:26 08.04.2022
2811 Clouds 22 853 66 10000 1.03 0 08:30 08.04.2022
2812 Clouds 22 702 46 10000 1.54 30 06:47 08.04.2022
2813 Clouds 22 702 46 10000 1.54 30 06:47 08.04.2022
2814 Clouds 25 960 76 10000 2.06 120 04:34 08.04.2022
2815 Clouds 24 964 73 10000 4.63 170 01:26 08.04.2022
2816 Clouds 24 931 64 10000 5.66 190 00:22 08.04.2022
2817 Clouds 25 1014 71 10000 4.63 160 22:59 07.04.2022
2818 Clouds 25 1014 71 10000 4.63 160 22:39 07.04.2022
2819 Clouds 25 1014 71 10000 4.63 160 22:20 07.04.2022
2820 Clouds 25 1013 71 10000 5.66 180 21:49 07.04.2022
2821 Clouds 25 1013 74 10000 5.66 160 20:58 07.04.2022
2822 Clouds 25 1013 74 10000 5.66 160 20:31 07.04.2022
2823 Clouds 26 1014 74 10000 5.66 170 18:34 07.04.2022
2824 Clouds 27 1015 73 10000 5.66 170 17:26 07.04.2022
2825 Clouds 25 1016 75 10000 4.63 250 16:44 07.04.2022
2826 Clouds 25 1016 75 10000 4.63 250 16:21 07.04.2022
2827 Clouds 26 1016 80 8000 3.09 20 14:50 07.04.2022
2828 Clouds 24 943 77 8000 3.09 360 13:43 07.04.2022
2829 Clouds 23 931 76 8000 2.06 190 12:50 07.04.2022
2830 Clouds 23 917 75 9000 2.06 180 11:34 07.04.2022
2831 Clouds 22 853 66 8000 2.57 40 09:37 07.04.2022
2832 Clouds 22 853 69 10000 3.09 350 08:38 07.04.2022
2833 Clouds 22 853 66 10000 2.06 310 06:43 07.04.2022
2834 Clouds 24 918 71 10000 3.6 200 02:54 07.04.2022
2835 Clouds 24 918 71 10000 3.6 200 02:27 07.04.2022
2836 Clouds 24 930 71 10000 3.09 200 00:28 07.04.2022
2837 Clouds 25 1014 83 10000 4.63 190 22:52 06.04.2022
2838 Clouds 25 1014 83 10000 4.63 190 22:27 06.04.2022
2839 Clouds 26 1014 75 10000 4.63 190 21:45 06.04.2022
2840 Clouds 26 1014 71 10000 4.63 230 20:40 06.04.2022
2841 Clouds 26 1014 80 10000 2.57 40 19:57 06.04.2022
2842 Clouds 25 1015 85 7000 3.09 10 18:52 06.04.2022
2843 Clouds 25 1015 85 7000 3.09 10 18:33 06.04.2022
2844 Mist 25 1015 84 5000 3.6 330 17:35 06.04.2022
2845 Mist 25 1016 86 8000 4.12 330 16:39 06.04.2022
2846 Mist 25 1016 86 8000 3.6 310 15:49 06.04.2022
2847 Mist 24 943 76 8000 3.09 350 15:21 06.04.2022
2848 Mist 24 942 83 10000 3.09 340 13:28 06.04.2022
2849 Mist 23 930 82 10000 2.57 320 12:28 06.04.2022
2850 Clouds 23 917 79 10000 2.57 320 10:54 06.04.2022
2851 Clouds 22 853 69 6000 2.57 300 10:31 06.04.2022
2852 Mist 22 853 69 4000 4.12 270 09:42 06.04.2022
2853 Mist 22 853 69 4000 2.06 230 08:36 06.04.2022
2854 Mist 23 853 66 3500 3.09 250 07:56 06.04.2022
2855 Clouds 25 917 71 10000 2.57 250 04:42 06.04.2022
2856 Clouds 27 1014 74 10000 5.66 190 23:57 05.04.2022
2857 Clouds 27 1014 74 10000 5.66 190 23:22 05.04.2022
2858 Clouds 27 1012 75 10000 7.72 200 21:31 05.04.2022
2859 Clouds 28 1012 74 10000 7.72 190 20:54 05.04.2022
2860 Clouds 28 1012 74 10000 7.72 190 20:23 05.04.2022
2861 Clouds 30 1013 65 10000 6.69 190 18:26 05.04.2022
2862 Clouds 30 1014 65 10000 6.17 190 17:20 05.04.2022
2863 Clouds 30 1014 66 10000 4.12 200 16:42 05.04.2022
2864 Clouds 28 1015 74 10000 5.14 220 15:50 05.04.2022
2865 Clouds 28 1015 74 10000 5.14 220 15:30 05.04.2022
2866 Clouds 27 1014 83 9000 2.57 230 13:45 05.04.2022
2867 Clouds 25 930 79 9000 1.54 360 12:29 05.04.2022
2868 Clear 24 915 77 10000 2.57 320 11:43 05.04.2022
2869 Clear 24 915 77 10000 2.57 320 11:24 05.04.2022
2870 Clouds 23 851 66 8000 1.54 30 09:31 05.04.2022
2871 Clear 23 851 66 10000 1.03 40 08:27 05.04.2022
2872 Clear 25 916 72 10000 1.54 140 03:50 05.04.2022
2873 Clear 28 1011 75 10000 5.14 190 23:42 04.04.2022
2874 Clear 29 1011 72 10000 5.14 190 22:37 04.04.2022
2875 Clear 30 1010 63 10000 4.12 180 21:51 04.04.2022
2876 Clear 30 1010 63 10000 4.12 180 21:20 04.04.2022
2877 Clouds 31 1011 62 10000 5.14 130 20:47 04.04.2022
2878 Clouds 31 1011 59 10000 4.63 50 19:30 04.04.2022
2879 Clouds 31 1012 58 10000 4.12 30 18:44 04.04.2022
2880 Clouds 29 1013 61 10000 3.6 50 17:21 04.04.2022
2881 Clouds 28 1014 65 10000 3.09 360 16:34 04.04.2022
2882 Clouds 28 1015 69 10000 3.09 20 15:34 04.04.2022
2883 Clouds 26 1015 80 10000 3.09 20 14:46 04.04.2022
2884 Clouds 26 1015 80 10000 3.09 20 14:28 04.04.2022
2885 Clouds 24 942 76 10000 2.57 10 13:18 04.04.2022
2886 Clouds 23 917 77 10000 1.54 350 11:29 04.04.2022
2887 Clouds 22 853 69 10000 1.54 40 10:29 04.04.2022
2888 Clouds 23 854 64 10000 2.57 100 06:58 04.04.2022
2889 Clouds 24 919 73 10000 3.6 110 03:18 04.04.2022
2890 Clouds 25 1015 85 10000 5.66 170 23:48 03.04.2022
2891 Clouds 26 1015 80 10000 7.2 130 22:31 03.04.2022
2892 Clouds 27 1015 74 10000 6.17 170 21:32 03.04.2022
2893 Clouds 27 1015 71 10000 6.69 170 20:40 03.04.2022
2894 Clouds 28 1015 70 10000 6.17 170 19:45 03.04.2022
2895 Clouds 28 1016 73 10000 6.17 150 18:29 03.04.2022
2896 Clouds 27 1017 76 10000 6.17 130 17:44 03.04.2022
2897 Clouds 27 1017 76 10000 6.17 130 17:44 03.04.2022
2898 Clouds 26 1018 79 10000 5.14 140 16:50 03.04.2022
2899 Clouds 26 1018 79 10000 5.14 140 16:31 03.04.2022
2900 Clouds 26 1019 81 10000 4.63 130 14:32 03.04.2022
2901 Clouds 25 1018 86 10000 4.12 130 13:45 03.04.2022
2902 Clouds 24 933 78 10000 4.12 170 12:21 03.04.2022
2903 Clouds 23 854 64 9000 3.09 140 10:54 03.04.2022
2904 Clouds 23 854 66 9000 4.12 130 09:36 03.04.2022
2905 Clouds 23 854 64 10000 3.6 120 07:37 03.04.2022
2906 Clouds 24 920 73 10000 8.23 130 04:37 03.04.2022
2907 Clouds 24 933 76 8000 7.2 120 00:41 03.04.2022
2908 Mist 25 1016 88 8000 5.66 140 22:57 02.04.2022
2909 Mist 25 1016 84 9000 5.66 150 21:58 02.04.2022
2910 Mist 25 1016 84 9000 5.66 150 21:36 02.04.2022
2911 Clouds 25 1016 85 9000 6.17 140 20:52 02.04.2022
2912 Clouds 26 1016 84 7000 5.66 170 19:32 02.04.2022
2913 Clouds 26 1016 84 7000 5.66 170 19:32 02.04.2022
2914 Clouds 26 1016 87 7000 5.66 160 18:21 02.04.2022
2915 Clouds 27 1017 83 7000 5.14 170 17:52 02.04.2022
2916 Clouds 26 1018 83 9000 4.63 170 16:25 02.04.2022
2917 Clouds 26 1018 85 8000 3.6 160 15:21 02.04.2022
2918 Clouds 25 1018 90 8000 4.63 100 14:49 02.04.2022
2919 Clouds 25 1018 90 8000 4.63 100 14:49 02.04.2022
2920 Rain 24 1017 92 8000 4.63 110 13:35 02.04.2022
2921 Rain 23 932 80 8000 4.12 100 12:38 02.04.2022
2922 Rain 23 918 77 7000 5.14 110 11:31 02.04.2022
2923 Clouds 22 853 69 6000 2.06 120 09:30 02.04.2022
2924 Mist 23 854 66 5000 4.12 110 06:51 02.04.2022
2925 Rain 23 918 77 6000 7.2 120 03:52 02.04.2022
2926 Rain 24 1016 87 4500 8.75 110 23:58 01.04.2022
2927 Rain 24 1016 89 4000 4.12 120 23:30 01.04.2022
2928 Clouds 24 942 79 10000 5.66 110 21:43 01.04.2022
2929 Clouds 24 1016 88 8000 5.66 160 20:52 01.04.2022
2930 Clouds 24 1016 87 8000 5.66 160 20:30 01.04.2022
2931 Clouds 24 927 76 10000 6.17 160 19:37 01.04.2022
2932 Clouds 24 943 74 10000 6.17 160 18:50 01.04.2022
2933 Clouds 24 944 76 9000 7.2 180 17:54 01.04.2022
2934 Clouds 24 944 76 9000 7.2 180 17:34 01.04.2022
2935 Clouds 24 928 72 9000 4.63 260 15:42 01.04.2022
2936 Clouds 23 919 77 6000 4.12 270 14:26 01.04.2022
2937 Mist 23 944 81 6000 3.6 320 13:34 01.04.2022
2938 Mist 23 932 80 6000 3.09 300 12:33 01.04.2022
2939 Clouds 23 918 80 6000 2.06 250 11:44 01.04.2022
2940 Clouds 22 853 66 6000 3.6 260 10:19 01.04.2022
2941 Clouds 22 853 66 7000 3.09 270 09:19 01.04.2022
2942 Rain 22 854 66 9000 2.57 240 06:55 01.04.2022
2943 Mist 23 1015 95 2000 3.6 300 04:53 01.04.2022
2944 Thunderstorm 23 1015 95 2000 3.6 300 04:34 01.04.2022
2945 Clouds 24 917 73 10000 3.6 10 01:58 01.04.2022
2946 Clouds 25 931 71 10000 3.09 50 00:44 01.04.2022
2947 Clouds 26 1012 76 10000 8.75 190 21:55 31.03.2022
2948 Clouds 26 1012 76 10000 8.75 190 21:33 31.03.2022
2949 Clouds 27 1012 75 10000 9.77 190 20:30 31.03.2022
2950 Clouds 28 1012 65 10000 9.77 190 19:50 31.03.2022
2951 Clouds 30 1012 61 10000 9.26 190 18:52 31.03.2022
2952 Clouds 29 1012 59 10000 9.26 190 17:54 31.03.2022
2953 Clouds 29 1012 65 10000 7.72 170 16:40 31.03.2022
2954 Clear 28 1012 66 10000 4.12 130 15:50 31.03.2022
2955 Clear 28 1012 66 10000 4.12 130 15:21 31.03.2022
2956 Clear 27 1013 72 10000 2.06 240 14:44 31.03.2022
2957 Clouds 24 1012 87 10000 3.6 300 12:48 31.03.2022
2958 Clouds 24 1011 86 10000 4.63 330 11:29 31.03.2022
2959 Rain 23 1012 83 10000 5.14 300 10:19 31.03.2022
2960 Rain 26 1011 69 10000 8.23 220 08:52 31.03.2022
2961 Clouds 24 850 67 10000 2.06 70 07:24 31.03.2022
2962 Clear 29 1008 69 10000 3.6 190 00:46 31.03.2022
2963 Clear 29 1007 68 10000 4.63 190 23:23 30.03.2022
2964 Clouds 31 1007 58 10000 6.17 160 21:50 30.03.2022
2965 Clouds 31 1007 58 10000 6.17 160 21:27 30.03.2022
2966 Clouds 32 1008 55 10000 4.12 160 20:22 30.03.2022
2967 Clouds 32 1008 58 10000 4.12 40 19:38 30.03.2022
2968 Clouds 31 1009 59 10000 2.57 20 18:40 30.03.2022
2969 Clear 30 1010 64 10000 3.09 140 17:49 30.03.2022
2970 Clear 30 1011 63 10000 3.6 340 16:58 30.03.2022
2971 Clear 30 1011 63 10000 3.6 340 16:38 30.03.2022
2972 Clear 28 1011 72 10000 3.09 10 15:38 30.03.2022
2973 Clouds 27 1011 80 10000 3.6 330 14:18 30.03.2022
2974 Clouds 25 939 78 10000 2.57 350 13:19 30.03.2022
2975 Clouds 23 914 77 10000 1.54 40 11:41 30.03.2022
2976 Clouds 23 851 66 10000 1.03 80 10:38 30.03.2022
2977 Clouds 23 851 64 10000 2.57 330 09:28 30.03.2022
2978 Clouds 23 851 66 10000 1.54 70 07:59 30.03.2022
2979 Clouds 23 852 64 10000 1.54 130 05:41 30.03.2022
2980 Clouds 23 852 64 10000 1.54 130 05:23 30.03.2022
2981 Clouds 25 930 74 10000 5.14 160 00:43 30.03.2022
2982 Clouds 27 1012 76 10000 4.12 150 22:35 29.03.2022
2983 Clouds 28 1012 72 10000 6.17 130 21:46 29.03.2022
2984 Clouds 28 1012 73 10000 6.17 120 20:55 29.03.2022
2985 Clouds 28 1012 73 10000 6.17 120 20:25 29.03.2022
2986 Clouds 28 1013 74 10000 8.23 130 19:20 29.03.2022
2987 Clouds 28 1013 73 10000 6.17 160 18:48 29.03.2022
2988 Clouds 27 1014 82 10000 4.63 100 17:40 29.03.2022
2989 Clouds 27 1015 79 9000 7.72 110 16:59 29.03.2022
2990 Clouds 27 1015 79 8000 7.72 110 16:20 29.03.2022
2991 Clouds 26 1015 69 10000 2.57 350 14:58 29.03.2022
2992 Clouds 26 1015 69 10000 2.57 350 14:39 29.03.2022
2993 Clouds 26 1015 88 10000 3.09 20 13:30 29.03.2022
2994 Clouds 24 917 76 10000 3.09 20 11:46 29.03.2022
2995 Rain 24 917 73 10000 2.57 350 10:59 29.03.2022
2996 Clouds 23 853 64 10000 2.06 310 09:50 29.03.2022
2997 Clouds 23 853 64 10000 2.57 260 08:32 29.03.2022
2998 Rain 23 854 66 10000 1.54 110 05:44 29.03.2022
2999 Clouds 25 918 69 10000 6.17 170 01:31 29.03.2022
3000 Clouds 26 1014 80 10000 5.66 170 23:26 28.03.2022
3001 Clouds 27 1013 73 10000 6.17 170 22:55 28.03.2022
3002 Clouds 27 1013 73 10000 6.17 170 22:30 28.03.2022
3003 Clouds 27 1013 76 10000 6.17 160 21:18 28.03.2022
3004 Rain 27 1013 72 10000 5.66 160 20:32 28.03.2022
3005 Clouds 28 1014 69 10000 5.14 140 19:46 28.03.2022
3006 Clouds 28 1014 69 10000 5.14 140 19:28 28.03.2022
3007 Clouds 28 1014 69 10000 5.66 150 18:40 28.03.2022
3008 Clouds 28 1016 69 10000 5.14 140 17:40 28.03.2022
3009 Clouds 28 1017 70 10000 4.63 150 16:38 28.03.2022
3010 Clouds 27 1016 76 10000 4.12 130 14:50 28.03.2022
3011 Clouds 27 1016 76 10000 4.12 130 14:22 28.03.2022
3012 Clouds 25 1015 87 10000 3.09 140 12:51 28.03.2022
3013 Clouds 23 917 77 10000 3.6 170 11:42 28.03.2022
3014 Clouds 22 853 66 10000 2.06 10 09:47 28.03.2022
3015 Clouds 22 853 66 10000 2.06 10 09:20 28.03.2022
3016 Clouds 23 853 66 10000 2.06 120 08:23 28.03.2022
3017 Clouds 23 853 66 10000 2.57 40 07:56 28.03.2022
3018 Clouds 23 853 66 10000 2.06 60 05:55 28.03.2022
3019 Rain 26 1014 78 10000 4.12 170 23:53 27.03.2022
3020 Clouds 26 1013 75 10000 6.69 170 22:25 27.03.2022
3021 Clouds 26 1013 75 10000 6.69 170 22:25 27.03.2022
3022 Clouds 26 1013 75 10000 6.69 170 22:25 27.03.2022
3023 Clouds 26 1013 76 10000 6.69 170 21:42 27.03.2022
3024 Clouds 27 1012 77 10000 8.23 130 20:58 27.03.2022
3025 Clouds 27 1012 78 10000 8.23 130 20:18 27.03.2022
3026 Clouds 27 1012 76 10000 9.26 140 19:34 27.03.2022
3027 Clouds 29 1013 76 10000 8.75 220 18:29 27.03.2022
3028 Clouds 29 1013 71 10000 7.2 120 17:42 27.03.2022
3029 Clouds 29 1013 71 10000 7.2 120 17:24 27.03.2022
3030 Clouds 29 1013 73 10000 5.14 150 15:39 27.03.2022
3031 Clouds 27 1012 77 9000 2.06 130 13:57 27.03.2022
3032 Clouds 26 1011 88 9000 1.54 330 12:50 27.03.2022
3033 Clouds 26 1011 86 9000 2.06 140 11:30 27.03.2022
3034 Clouds 26 1010 89 10000 2.06 230 09:32 27.03.2022
3035 Clouds 27 1010 78 10000 1.54 330 06:54 27.03.2022
3036 Clouds 29 1010 61 10000 4.12 240 01:55 27.03.2022
3037 Rain 26 1011 82 10000 0.36 306 00:25 27.03.2022
3038 Clouds 28 1007 67 10000 6.17 150 22:45 26.03.2022
3039 Clouds 29 1007 67 10000 7.2 170 21:50 26.03.2022
3040 Clouds 30 1007 65 10000 7.2 170 21:28 26.03.2022
3041 Clouds 30 1006 63 10000 8.23 160 19:31 26.03.2022
3042 Clouds 32 1007 54 10000 6.69 150 18:25 26.03.2022
3043 Clouds 35 1007 48 10000 5.66 170 17:34 26.03.2022
3044 Clear 34 1008 52 10000 4.12 10 16:30 26.03.2022
3045 Clear 33 1008 56 10000 3.6 40 15:37 26.03.2022
3046 Clear 30 1009 66 10000 3.09 30 13:55 26.03.2022
3047 Clear 29 1009 74 10000 2.57 360 13:19 26.03.2022
3048 Clear 26 1008 87 10000 2.57 360 11:42 26.03.2022
3049 Clear 26 1008 89 10000 3.09 320 10:44 26.03.2022
3050 Clear 25 1008 88 10000 2.06 350 08:46 26.03.2022
3051 Clear 26 1008 83 10000 1.54 40 06:37 26.03.2022
3052 Clear 26 1009 83 10000 2.57 50 05:29 26.03.2022
3053 Clear 28 1008 69 10000 3.09 190 00:54 26.03.2022
3054 Clear 32 1007 49 10000 7.2 190 21:58 25.03.2022
3055 Clouds 34 1007 43 10000 5.66 170 20:47 25.03.2022
3056 Clouds 34 1007 43 10000 5.66 170 20:24 25.03.2022
3057 Clouds 35 1007 45 10000 4.12 20 19:18 25.03.2022
3058 Clouds 35 1007 44 10000 4.63 350 18:22 25.03.2022
3059 Clear 34 1008 45 10000 4.63 30 17:28 25.03.2022
3060 Clear 32 1009 56 10000 4.63 10 16:27 25.03.2022
3061 Clear 33 1009 49 10000 3.09 50 15:26 25.03.2022
3062 Clear 28 1010 69 10000 3.09 350 13:28 25.03.2022
3063 Clear 24 1009 83 10000 4.12 350 10:50 25.03.2022
3064 Clear 23 1009 83 10000 1.54 60 09:28 25.03.2022
3065 Clear 23 1009 83 10000 1.54 90 08:43 25.03.2022
3066 Clear 24 1009 83 10000 1.03 80 07:35 25.03.2022
3067 Clear 24 1010 83 10000 1.03 70 06:29 25.03.2022
3068 Clear 27 1011 76 10000 3.6 100 02:28 25.03.2022
3069 Clear 30 1009 61 10000 4.63 200 22:56 24.03.2022
3070 Clear 30 1009 58 10000 5.14 190 21:56 24.03.2022
3071 Clear 31 1014 54 10000 4.63 160 20:51 24.03.2022
3072 Clear 32 1014 49 10000 4.12 150 19:49 24.03.2022
3073 Clouds 33 1028 46 10000 2.15 104 18:34 24.03.2022
3074 Clear 32 1017 47 10000 4.12 70 17:33 24.03.2022
3075 Clear 30 1017 49 10000 5.14 340 16:24 24.03.2022
3076 Clear 29 1019 54 10000 3.6 140 14:51 24.03.2022
3077 Clear 28 1015 56 10000 3.6 140 14:21 24.03.2022
3078 Clear 26 1015 66 10000 3.09 30 13:33 24.03.2022
3079 Clear 24 1014 74 10000 1.54 350 12:24 24.03.2022
3080 Clear 22 1013 85 10000 2.06 10 10:48 24.03.2022
3081 Clouds 21 1013 88 10000 1.03 0 09:24 24.03.2022
3082 Clouds 22 1013 83 10000 1.54 100 08:32 24.03.2022
3083 Clear 23 1015 73 10000 1.54 110 04:52 24.03.2022
3084 Clear 26 1014 66 10000 7.2 70 23:41 23.03.2022
3085 Clouds 27 1014 59 10000 5.66 80 22:18 23.03.2022
3086 Clouds 29 1014 53 10000 4.12 60 21:21 23.03.2022
3087 Clouds 28 1015 54 10000 4.63 50 19:56 23.03.2022
3088 Clouds 28 1015 54 10000 4.63 50 19:25 23.03.2022
3089 Clouds 29 1016 50 10000 4.12 40 17:48 23.03.2022
3090 Clouds 29 1020 50 10000 4.12 40 17:18 23.03.2022
3091 Clouds 27 1018 56 10000 4.12 40 15:25 23.03.2022
3092 Clouds 26 1018 59 10000 4.63 20 14:47 23.03.2022
3093 Clouds 25 1018 64 10000 3.6 70 13:30 23.03.2022
3094 Clear 23 1018 78 10000 2.57 60 11:24 23.03.2022
3095 Clouds 22 1018 78 10000 1.03 10 08:29 23.03.2022
3096 Clouds 24 1029 82 10000 1.54 100 05:50 23.03.2022
3097 Clouds 24 1026 75 10000 5.14 100 02:28 23.03.2022
3098 Clouds 24 1025 72 10000 3.09 100 00:26 23.03.2022
3099 Clouds 25 1023 66 10000 6.69 120 21:40 22.03.2022
3100 Clouds 25 1018 65 10000 6.69 120 20:59 22.03.2022
3101 Clouds 25 1018 65 10000 6.69 120 20:18 22.03.2022
3102 Clouds 26 1023 68 10000 7.2 130 19:26 22.03.2022
3103 Mist 24 1024 74 8000 4.63 140 18:46 22.03.2022
3104 Clouds 25 1024 73 8000 7.2 60 17:43 22.03.2022
3105 Clouds 26 1024 66 10000 3.6 160 16:39 22.03.2022
3106 Clouds 26 1025 65 10000 3.6 340 15:41 22.03.2022
3107 Clouds 25 1020 64 10000 3.6 340 15:19 22.03.2022
3108 Clouds 24 1021 73 10000 2.57 340 14:42 22.03.2022
3109 Clouds 23 1021 79 10000 2.57 350 13:42 22.03.2022
3110 Clouds 22 1020 86 10000 3.09 20 12:18 22.03.2022
3111 Mist 21 1019 92 8000 4.12 40 11:20 22.03.2022
3112 Clouds 22 1020 78 10000 3.6 140 09:28 22.03.2022
3113 Clouds 22 1020 78 10000 2.57 120 07:35 22.03.2022
3114 Clouds 23 1020 76 10000 3.6 40 03:58 22.03.2022
3115 Clouds 24 1021 69 10000 5.14 140 01:27 22.03.2022
3116 Clouds 24 1020 65 10000 4.12 140 22:57 21.03.2022
3117 Clouds 25 1019 62 10000 5.14 150 21:37 21.03.2022
3118 Clouds 25 1019 59 10000 5.14 140 20:44 21.03.2022
3119 Clouds 25 1019 60 10000 5.14 140 20:23 21.03.2022
3120 Clouds 25 1019 59 10000 6.17 140 19:47 21.03.2022
3121 Clouds 26 1019 59 10000 6.69 150 18:59 21.03.2022
3122 Clouds 26 1020 61 10000 5.66 160 17:36 21.03.2022
3123 Clouds 25 1020 71 10000 6.69 160 16:59 21.03.2022
3124 Clouds 25 1020 71 10000 6.69 160 16:35 21.03.2022
3125 Clouds 25 1020 74 10000 6.69 160 15:44 21.03.2022
3126 Rain 25 1020 69 10000 6.69 160 14:45 21.03.2022
3127 Rain 25 1020 66 10000 7.2 160 13:27 21.03.2022
3128 Clouds 23 1019 74 7000 7.72 170 12:22 21.03.2022
3129 Mist 23 1018 80 9000 7.72 170 11:34 21.03.2022
3130 Mist 24 1037 100 4500 4.63 320 09:53 21.03.2022
3131 Clouds 23 1027 94 7000 4.63 340 07:54 21.03.2022
3132 Rain 23 1027 92 6000 1.54 110 06:31 21.03.2022
3133 Rain 24 1017 91 8000 10.29 160 02:24 21.03.2022
3134 Thunderstorm 25 1015 90 10000 10.8 160 23:26 20.03.2022
3135 Rain 25 1014 89 10000 9.77 170 22:42 20.03.2022
3136 Rain 26 1013 87 10000 9.26 180 21:44 20.03.2022
3137 Rain 27 1013 80 10000 7.72 160 20:59 20.03.2022
3138 Rain 27 1013 80 10000 7.72 160 20:39 20.03.2022
3139 Rain 29 1013 72 10000 7.72 180 19:56 20.03.2022
3140 Clouds 29 1013 73 10000 7.72 180 19:26 20.03.2022
3141 Rain 30 1013 68 10000 7.72 190 17:51 20.03.2022
3142 Rain 30 1013 68 10000 7.72 190 17:29 20.03.2022
3143 Clouds 31 1013 64 10000 5.66 180 16:46 20.03.2022
3144 Clouds 29 1014 69 10000 3.6 130 14:54 20.03.2022
3145 Clouds 29 1013 74 10000 3.09 130 13:49 20.03.2022
3146 Clouds 27 1014 83 10000 4.12 250 12:22 20.03.2022
3147 Clouds 25 1011 89 10000 3.09 280 10:42 20.03.2022
3148 Clouds 27 1011 78 10000 3.6 290 08:37 20.03.2022
3149 Clear 27 1012 78 10000 4.12 280 06:55 20.03.2022
3150 Clear 27 1012 83 10000 3.6 310 04:23 20.03.2022
3151 Clear 27 1012 83 10000 4.63 270 01:29 20.03.2022
3152 Clear 29 1011 70 10000 5.14 260 00:36 20.03.2022
3153 Clear 29 1010 63 10000 4.63 160 22:56 19.03.2022
3154 Clear 31 1010 57 10000 6.69 240 21:27 19.03.2022
3155 Clear 32 1009 49 10000 6.17 180 20:28 19.03.2022
3156 Clear 34 1009 42 10000 3.6 40 18:44 19.03.2022
3157 Clear 34 1009 42 10000 3.6 40 18:23 19.03.2022
3158 Clear 34 1009 44 10000 4.12 30 17:35 19.03.2022
3159 Clear 33 1011 50 10000 4.12 20 15:43 19.03.2022
3160 Clear 30 1011 58 10000 4.12 50 14:30 19.03.2022
3161 Clear 28 1012 70 10000 2.57 330 12:58 19.03.2022
3162 Clear 28 1012 70 10000 2.57 330 12:38 19.03.2022
3163 Clear 26 1011 81 10000 3.09 340 11:51 19.03.2022
3164 Clear 25 1011 83 10000 2.06 350 10:45 19.03.2022
3165 Clear 25 1011 78 10000 2.57 70 06:29 19.03.2022
3166 Clear 27 1011 78 10000 2.06 70 03:24 19.03.2022
3167 Clear 29 1011 63 10000 2.06 80 01:41 19.03.2022
3168 Clear 30 1010 57 10000 4.12 140 23:36 18.03.2022
3169 Clear 29 1010 56 10000 5.14 140 22:27 18.03.2022
3170 Clouds 32 1010 48 10000 6.17 140 21:37 18.03.2022
3171 Clouds 34 1010 45 10000 6.17 160 19:51 18.03.2022
3172 Clouds 34 1010 45 10000 6.17 160 19:21 18.03.2022
3173 Clouds 33 1012 46 10000 4.12 30 17:50 18.03.2022
3174 Clouds 34 1013 46 10000 3.09 60 16:48 18.03.2022
3175 Clear 30 1014 65 10000 3.09 70 14:51 18.03.2022
3176 Clear 31 1014 58 10000 3.09 70 14:21 18.03.2022
3177 Clear 28 1013 70 10000 3.09 350 12:27 18.03.2022
3178 Clear 25 1012 86 10000 2.06 330 10:52 18.03.2022
3179 Clear 25 1012 83 10000 2.57 40 09:29 18.03.2022
3180 Clear 25 1011 83 10000 2.06 10 08:30 18.03.2022
3181 Clear 26 1012 78 10000 2.06 80 06:34 18.03.2022
3182 Clear 27 1012 73 10000 1.54 70 02:51 18.03.2022
3183 Clear 29 1011 69 10000 3.09 70 00:22 18.03.2022
3184 Clear 30 1011 63 10000 4.12 180 23:24 17.03.2022
3185 Clear 31 1010 54 10000 4.63 180 22:24 17.03.2022
3186 Clouds 31 1010 59 10000 5.14 130 21:48 17.03.2022
3187 Clouds 32 1010 54 10000 5.14 130 21:21 17.03.2022
3188 Clouds 32 1010 51 10000 6.17 130 20:44 17.03.2022
3189 Clouds 32 1010 52 10000 6.17 160 19:48 17.03.2022
3190 Clouds 33 1011 47 10000 5.66 160 18:59 17.03.2022
3191 Clouds 33 1011 47 10000 5.66 160 18:39 17.03.2022
3192 Clouds 32 1012 56 10000 4.63 160 16:58 17.03.2022
3193 Clouds 32 1013 55 10000 3.09 60 15:44 17.03.2022
3194 Clouds 32 1013 55 10000 3.09 60 15:25 17.03.2022
3195 Clear 31 1014 59 10000 3.09 40 14:29 17.03.2022
3196 Clear 28 1013 71 10000 2.06 10 12:55 17.03.2022
3197 Clear 28 1013 71 10000 2.06 10 12:25 17.03.2022
3198 Clear 26 1013 83 10000 2.06 100 11:29 17.03.2022
3199 Clear 25 1012 83 10000 1.03 110 10:30 17.03.2022
3200 Clear 25 1011 78 10000 2.06 20 08:37 17.03.2022
3201 Clear 25 1012 78 10000 2.57 40 07:36 17.03.2022
3202 Clear 26 1012 73 10000 1.03 110 05:47 17.03.2022
3203 Clear 28 1011 70 10000 4.12 100 01:37 17.03.2022
3204 Clouds 30 1010 61 10000 4.12 120 23:56 16.03.2022
3205 Clouds 30 1009 65 10000 5.66 190 22:50 16.03.2022
3206 Clouds 30 1009 65 10000 5.66 190 22:32 16.03.2022
3207 Clouds 31 1009 61 10000 5.14 170 21:42 16.03.2022
3208 Clouds 31 1009 61 10000 6.17 170 20:26 16.03.2022
3209 Clouds 31 1010 61 10000 6.69 170 19:21 16.03.2022
3210 Clouds 31 1010 65 10000 7.2 160 18:38 16.03.2022
3211 Clouds 31 1011 60 10000 6.69 160 17:43 16.03.2022
3212 Clouds 31 1011 60 10000 6.69 160 17:20 16.03.2022
3213 Clouds 29 1012 69 10000 4.12 140 15:55 16.03.2022
3214 Clouds 29 1013 70 10000 3.6 10 14:28 16.03.2022
3215 Clouds 28 1013 76 9000 3.09 340 13:32 16.03.2022
3216 Mist 26 1012 90 9000 3.6 80 11:57 16.03.2022
3217 Clouds 26 1012 89 8000 3.6 80 11:21 16.03.2022
3218 Clouds 25 1011 91 8000 3.09 70 10:27 16.03.2022
3219 Clouds 25 1011 88 10000 3.09 60 09:42 16.03.2022
3220 Clouds 26 1011 89 10000 1.54 30 06:27 16.03.2022
3221 Clouds 26 1012 86 10000 3.09 140 01:56 16.03.2022
3222 Thunderstorm 26 1010 85 10000 5.66 150 22:51 15.03.2022
3223 Rain 26 1010 85 10000 5.66 130 22:32 15.03.2022
3224 Clouds 29 1009 75 10000 8.23 170 20:36 15.03.2022
3225 Clouds 30 1009 68 10000 7.72 240 18:58 15.03.2022
3226 Clouds 31 1010 66 10000 7.2 160 17:24 15.03.2022
3227 Clouds 30 1010 65 8000 6.17 150 16:34 15.03.2022
3228 Clouds 31 1011 63 8000 4.12 150 15:21 15.03.2022
3229 Clouds 29 1011 70 7000 3.09 130 14:46 15.03.2022
3230 Clouds 28 1011 74 7000 2.06 130 13:55 15.03.2022
3231 Clouds 27 1011 77 7000 2.06 20 12:29 15.03.2022
3232 Clouds 26 1010 83 8000 1.54 330 11:32 15.03.2022
3233 Clouds 24 1009 88 10000 1.54 210 09:54 15.03.2022
3234 Clouds 25 1010 83 10000 1.54 230 08:49 15.03.2022
3235 Clouds 25 1010 83 10000 2.57 250 07:52 15.03.2022
3236 Clouds 25 1010 83 10000 2.57 250 07:34 15.03.2022
3237 Clouds 26 1011 78 10000 2.57 270 04:20 15.03.2022
3238 Clouds 28 1009 71 10000 7.2 190 23:58 14.03.2022
3239 Clouds 28 1009 71 10000 7.2 190 23:25 14.03.2022
3240 Clouds 27 1008 74 10000 6.69 170 22:30 14.03.2022
3241 Clouds 28 1007 73 10000 7.72 230 21:35 14.03.2022
3242 Clouds 29 1007 69 10000 7.2 170 20:54 14.03.2022
3243 Clouds 29 1007 70 10000 7.2 170 20:23 14.03.2022
3244 Clouds 29 1008 68 10000 7.72 160 19:21 14.03.2022
3245 Clouds 30 1009 67 8000 6.17 160 17:55 14.03.2022
3246 Clouds 30 1009 67 8000 6.17 160 17:24 14.03.2022
3247 Clouds 30 1010 65 8000 5.14 150 16:18 14.03.2022
3248 Clouds 29 1012 72 7000 3.09 30 14:41 14.03.2022
3249 Clouds 26 1012 84 9000 2.06 40 12:51 14.03.2022
3250 Clouds 24 1010 91 8000 2.57 140 10:54 14.03.2022
3251 Clouds 26 1010 83 8000 2.06 270 09:55 14.03.2022
3252 Clouds 26 1010 83 8000 2.06 270 09:22 14.03.2022
3253 Clouds 26 1010 83 8000 2.06 320 08:57 14.03.2022
3254 Clouds 25 1010 88 8000 1.54 320 07:43 14.03.2022
3255 Clouds 26 1011 83 10000 1.54 320 05:46 14.03.2022
3256 Clouds 26 1012 82 10000 3.09 240 01:58 14.03.2022
3257 Clouds 26 1012 82 10000 3.09 240 01:29 14.03.2022
3258 Thunderstorm 27 1011 79 10000 5.14 180 22:56 13.03.2022
3259 Clouds 28 1010 73 10000 7.2 180 21:31 13.03.2022
3260 Clouds 29 1010 70 10000 7.72 230 20:59 13.03.2022
3261 Clouds 29 1010 70 10000 7.72 230 20:37 13.03.2022
3262 Clouds 29 1010 72 10000 7.2 160 20:19 13.03.2022
3263 Clouds 29 1010 64 10000 8.23 240 19:39 13.03.2022
3264 Clouds 29 1010 64 10000 8.23 240 19:18 13.03.2022
3265 Clouds 29 1011 68 10000 7.72 160 18:39 13.03.2022
3266 Clouds 30 1012 60 10000 6.69 150 17:47 13.03.2022
3267 Clouds 30 1012 60 10000 6.69 150 17:21 13.03.2022
3268 Clouds 30 1012 61 10000 5.66 150 16:33 13.03.2022
3269 Clouds 29 1013 64 10000 4.63 10 15:49 13.03.2022
3270 Clouds 29 1014 67 7000 3.09 360 14:58 13.03.2022
3271 Clear 28 1014 72 7000 2.06 40 13:49 13.03.2022
3272 Clear 28 1014 72 7000 2.06 40 13:19 13.03.2022
3273 Clouds 26 1014 79 7000 1.54 50 12:19 13.03.2022
3274 Clouds 24 1013 92 7000 2.06 150 11:36 13.03.2022
3275 Clouds 23 1012 97 8000 2.57 160 10:48 13.03.2022
3276 Clouds 23 1012 97 8000 2.57 160 10:48 13.03.2022
3277 Clouds 23 1012 97 8000 2.57 160 10:24 13.03.2022
3278 Clouds 25 1013 88 10000 2.57 260 09:41 13.03.2022
3279 Clouds 25 1013 88 10000 2.57 260 09:41 13.03.2022
3280 Clouds 25 1013 88 10000 2.57 270 08:47 13.03.2022
3281 Clouds 25 1013 88 10000 3.09 240 07:47 13.03.2022
3282 Clouds 26 1013 83 10000 1.03 240 05:48 13.03.2022
3283 Clouds 26 1013 74 10000 1.54 170 02:50 13.03.2022
3284 Clouds 26 1012 73 10000 3.09 160 00:20 13.03.2022
3285 Clouds 27 1011 69 10000 4.63 120 22:37 12.03.2022
3286 Clouds 27 1011 69 10000 6.17 120 20:58 12.03.2022
3287 Clouds 27 1010 71 10000 6.69 120 19:56 12.03.2022
3288 Clouds 27 1010 71 10000 6.69 120 19:38 12.03.2022
3289 Clouds 28 1010 71 10000 6.69 150 18:27 12.03.2022
3290 Clouds 29 1011 70 10000 7.72 120 17:39 12.03.2022
3291 Clouds 31 1011 62 10000 7.72 170 16:24 12.03.2022
3292 Clouds 31 1012 61 10000 7.72 200 15:24 12.03.2022
3293 Clouds 31 1012 61 10000 7.72 200 15:24 12.03.2022
3294 Clouds 31 1012 61 10000 7.72 200 15:24 12.03.2022
3295 Clouds 29 1012 66 10000 8.23 200 14:51 12.03.2022
3296 Clouds 29 1011 68 10000 7.72 250 13:47 12.03.2022
3297 Clouds 29 1011 66 10000 4.63 320 12:18 12.03.2022
3298 Clouds 26 1010 84 10000 2.57 10 11:45 12.03.2022
3299 Clouds 26 1010 84 10000 2.57 10 11:19 12.03.2022
3300 Clouds 26 1009 86 10000 2.57 350 09:58 12.03.2022
3301 Clouds 25 1009 83 10000 1.54 290 09:38 12.03.2022
3302 Clouds 26 1009 78 10000 2.06 210 07:50 12.03.2022
3303 Clouds 28 1010 61 10000 3.09 240 04:50 12.03.2022
3304 Clouds 30 1008 63 10000 2.06 190 00:21 12.03.2022
3305 Clouds 30 1007 59 10000 4.12 180 23:28 11.03.2022
3306 Clouds 31 1007 56 10000 6.17 180 21:47 11.03.2022
3307 Clouds 30 1007 59 10000 7.2 170 20:57 11.03.2022
3308 Clouds 30 1007 59 10000 7.2 170 20:37 11.03.2022
3309 Clouds 30 1007 59 10000 7.2 170 20:37 11.03.2022
3310 Clouds 30 1008 62 10000 7.2 150 19:53 11.03.2022
3311 Clouds 30 1008 62 10000 7.2 150 19:26 11.03.2022
3312 Clouds 30 1009 64 10000 7.2 120 17:34 11.03.2022
3313 Clouds 31 1010 59 10000 6.17 150 16:42 11.03.2022
3314 Clear 31 1011 54 10000 5.14 150 15:57 11.03.2022
3315 Clear 32 1011 54 10000 3.6 110 14:22 11.03.2022
3316 Clear 28 1011 67 10000 3.09 360 12:53 11.03.2022
3317 Clear 28 1011 73 10000 3.09 360 12:21 11.03.2022
3318 Clear 27 1011 76 10000 2.57 340 11:56 11.03.2022
3319 Clear 25 1010 85 10000 2.06 350 10:18 11.03.2022
3320 Clear 25 1010 83 10000 1.54 120 08:57 11.03.2022
3321 Clear 25 1010 83 10000 1.54 120 08:24 11.03.2022
3322 Clear 25 1010 83 10000 1.03 110 07:46 11.03.2022
3323 Clear 26 1010 78 10000 2.57 100 05:49 11.03.2022
3324 Clear 26 1010 78 10000 0.51 90 04:22 11.03.2022
3325 Clear 29 1009 65 10000 4.12 130 23:49 10.03.2022
3326 Clouds 31 1008 57 10000 4.12 180 22:31 10.03.2022
3327 Clouds 32 1008 52 10000 5.66 180 21:50 10.03.2022
3328 Clouds 31 1008 56 10000 5.66 180 21:23 10.03.2022
3329 Clouds 31 1009 50 10000 6.69 160 19:51 10.03.2022
3330 Clouds 32 1010 50 10000 6.17 150 18:56 10.03.2022
3331 Clouds 33 1011 47 10000 4.12 150 17:36 10.03.2022
3332 Clouds 31 1012 55 10000 3.09 90 16:37 10.03.2022
3333 Clear 32 1012 50 10000 3.09 50 15:27 10.03.2022
3334 Clear 28 1013 69 10000 2.06 350 13:30 10.03.2022
3335 Clear 27 1013 79 10000 3.09 40 12:34 10.03.2022
3336 Clear 26 1012 85 10000 2.06 350 11:23 10.03.2022
3337 Clear 24 1012 94 10000 2.57 90 09:28 10.03.2022
3338 Clear 25 1012 88 10000 2.57 90 07:46 10.03.2022
3339 Clear 26 1013 83 10000 2.06 80 04:59 10.03.2022
3340 Clouds 27 1013 72 10000 5.14 100 01:53 10.03.2022
3341 Clouds 28 1012 66 10000 5.66 170 23:30 09.03.2022
3342 Clouds 29 1011 61 10000 7.72 120 21:56 09.03.2022
3343 Clouds 29 1011 61 10000 7.72 120 21:36 09.03.2022
3344 Clouds 30 1011 56 10000 7.72 240 19:56 09.03.2022
3345 Clouds 31 1011 51 10000 6.69 160 18:35 09.03.2022
3346 Clouds 31 1012 54 10000 7.72 240 17:27 09.03.2022
3347 Clouds 32 1013 47 10000 4.63 150 16:35 09.03.2022
3348 Clear 31 1014 52 10000 4.12 120 15:31 09.03.2022
3349 Clouds 29 1014 66 10000 2.57 340 13:54 09.03.2022
3350 Clouds 27 1014 73 10000 3.09 360 12:59 09.03.2022
3351 Clouds 27 1014 73 10000 3.09 360 12:19 09.03.2022
3352 Clouds 26 1013 84 10000 1.03 30 11:36 09.03.2022
3353 Clouds 25 1012 80 10000 1.54 90 10:39 09.03.2022
3354 Clear 24 1011 88 10000 1.03 60 08:59 09.03.2022
3355 Clear 24 1011 88 10000 1.03 60 08:25 09.03.2022
3356 Clear 26 1011 78 10000 2.06 50 04:47 09.03.2022
3357 Clear 28 1010 67 10000 3.6 190 00:52 09.03.2022
3358 Clear 29 1010 63 10000 5.14 180 23:18 08.03.2022
3359 Clear 30 1009 55 10000 6.69 180 22:44 08.03.2022
3360 Clouds 32 1009 47 10000 7.2 190 21:26 08.03.2022
3361 Clouds 32 1008 43 10000 6.69 140 20:54 08.03.2022
3362 Clouds 33 1009 43 10000 7.2 240 19:55 08.03.2022
3363 Clear 34 1009 37 10000 4.63 150 18:45 08.03.2022
3364 Clear 34 1010 41 10000 3.6 60 17:50 08.03.2022
3365 Clear 34 1011 43 10000 4.12 40 16:33 08.03.2022
3366 Clear 31 1012 54 10000 2.57 10 14:21 08.03.2022
3367 Clear 28 1013 70 10000 3.6 330 12:44 08.03.2022
3368 Clear 26 1012 79 10000 2.57 330 11:45 08.03.2022
3369 Clear 24 1012 85 10000 2.06 340 10:55 08.03.2022
3370 Clear 24 1012 85 10000 2.06 340 10:22 08.03.2022
3371 Clear 24 1010 83 10000 1.54 50 07:34 08.03.2022
3372 Clear 25 1011 83 10000 1.54 100 05:44 08.03.2022
3373 Clear 28 1009 68 10000 2.57 150 00:43 08.03.2022
3374 Clear 30 1008 59 10000 5.66 190 22:23 07.03.2022
3375 Clouds 32 1008 49 10000 6.17 180 21:35 07.03.2022
3376 Clouds 33 1008 48 10000 6.17 160 20:53 07.03.2022
3377 Clouds 33 1008 48 10000 6.17 160 20:20 07.03.2022
3378 Clouds 34 1008 43 10000 5.66 150 19:38 07.03.2022
3379 Clear 34 1009 43 10000 4.63 160 18:47 07.03.2022
3380 Clear 34 1010 43 10000 3.09 150 17:54 07.03.2022
3381 Clear 33 1011 46 10000 2.57 360 16:56 07.03.2022
3382 Clear 33 1011 46 10000 2.57 360 16:20 07.03.2022
3383 Clear 32 1012 52 10000 2.57 350 14:31 07.03.2022
3384 Clear 28 1012 70 10000 3.09 350 12:33 07.03.2022
3385 Clear 25 1011 83 10000 3.09 310 10:39 07.03.2022
3386 Clear 24 1010 88 10000 2.06 100 09:47 07.03.2022
3387 Clear 26 1020 79 10000 1.03 140 06:35 07.03.2022
3388 Clear 28 1015 69 10000 2.57 100 00:23 07.03.2022
3389 Clear 29 1013 66 10000 4.12 190 23:41 06.03.2022
3390 Clouds 31 1012 56 10000 6.17 190 22:58 06.03.2022
3391 Clear 32 1014 53 10000 5.14 110 22:24 06.03.2022
3392 Clear 32 1014 53 10000 5.14 110 22:24 06.03.2022
3393 Clouds 33 1009 48 10000 6.17 130 20:56 06.03.2022
3394 Clouds 33 1009 48 10000 6.17 130 20:28 06.03.2022
3395 Clouds 33 1013 47 10000 6.17 120 19:29 06.03.2022
3396 Clouds 33 1010 45 10000 5.66 160 18:25 06.03.2022
3397 Clouds 34 1014 45 10000 3.6 150 17:22 06.03.2022
3398 Clear 33 1011 46 10000 3.09 90 16:44 06.03.2022
3399 Clear 33 1011 46 10000 3.09 90 16:44 06.03.2022
3400 Clear 33 1017 52 10000 2.06 50 16:20 06.03.2022
3401 Clear 32 1016 53 10000 4.63 20 14:57 06.03.2022
3402 Clear 31 1012 55 10000 4.63 20 14:38 06.03.2022
3403 Clear 29 1013 63 10000 3.6 360 13:47 06.03.2022
3404 Clear 27 1012 71 10000 1.54 90 12:36 06.03.2022
3405 Clear 26 1012 78 10000 2.06 340 11:27 06.03.2022
3406 Clear 24 1012 85 10000 2.57 330 10:29 06.03.2022
3407 Clear 25 1021 82 10000 2.06 60 08:51 06.03.2022
3408 Clear 25 1021 82 10000 2.06 60 08:27 06.03.2022
3409 Clear 25 1012 78 10000 2.57 90 06:33 06.03.2022
3410 Clear 26 1011 75 10000 2.06 120 01:32 06.03.2022
3411 Clear 28 1010 70 10000 3.09 130 00:33 06.03.2022
3412 Clear 29 1014 65 10000 5.14 190 23:41 05.03.2022
3413 Clear 29 1014 65 10000 5.14 190 23:18 05.03.2022
3414 Clouds 29 1013 60 10000 5.14 180 22:31 05.03.2022
3415 Clouds 31 1013 56 10000 5.66 170 21:24 05.03.2022
3416 Clouds 32 1013 54 10000 6.69 170 19:56 05.03.2022
3417 Clouds 31 1014 57 10000 6.17 120 18:56 05.03.2022
3418 Clouds 31 1014 57 10000 6.17 120 18:34 05.03.2022
3419 Clear 31 1016 59 10000 4.63 150 16:57 05.03.2022
3420 Clear 31 1013 60 10000 3.6 140 15:49 05.03.2022
3421 Clear 29 1013 63 10000 3.09 360 14:53 05.03.2022
3422 Clear 29 1013 63 10000 3.09 360 14:34 05.03.2022
3423 Clear 28 1013 75 10000 4.12 340 13:35 05.03.2022
3424 Clouds 26 1018 90 10000 2.06 100 11:55 05.03.2022
3425 Clouds 25 1018 92 10000 2.06 100 11:20 05.03.2022
3426 Clouds 24 1018 95 10000 1.54 30 10:48 05.03.2022
3427 Clouds 24 1012 94 10000 1.54 40 09:28 05.03.2022
3428 Clear 26 1021 91 10000 1.54 50 07:59 05.03.2022
3429 Clear 25 1022 92 10000 1.03 120 06:29 05.03.2022
3430 Clear 26 1023 88 10000 1.54 70 04:54 05.03.2022
3431 Clouds 26 1013 78 10000 3.09 100 23:59 04.03.2022
3432 Clouds 26 1012 79 10000 3.09 50 22:45 04.03.2022
3433 Clouds 26 1012 79 10000 3.09 50 22:23 04.03.2022
3434 Clouds 27 1012 75 10000 4.63 20 21:39 04.03.2022
3435 Clouds 26 1012 82 6000 6.17 140 20:36 04.03.2022
3436 Clouds 27 1012 82 6000 8.23 150 19:36 04.03.2022
3437 Clouds 28 1012 76 6000 8.23 160 18:47 04.03.2022
3438 Mist 28 1012 78 4500 9.77 150 18:27 04.03.2022
3439 Fog 28 1012 78 6000 8.75 140 17:29 04.03.2022
3440 Clouds 30 1017 69 10000 6.17 130 15:48 04.03.2022
3441 Clear 30 1017 68 9000 3.6 150 14:45 04.03.2022
3442 Clear 29 1013 73 9000 2.06 180 13:34 04.03.2022
3443 Clear 26 1012 87 10000 1.54 340 11:59 04.03.2022
3444 Clear 25 1012 90 10000 1.54 340 11:28 04.03.2022
3445 Clear 24 1011 94 10000 2.06 30 10:23 04.03.2022
3446 Clear 25 1011 83 10000 1.54 260 09:27 04.03.2022
3447 Clear 26 1011 78 10000 2.06 280 07:47 04.03.2022
3448 Clear 26 1012 83 10000 2.06 330 05:44 04.03.2022
3449 Clear 27 1012 66 10000 3.6 170 01:23 04.03.2022
3450 Clear 29 1010 59 10000 5.14 180 23:31 03.03.2022
3451 Clouds 30 1014 58 10000 6.69 180 22:18 03.03.2022
3452 Clouds 30 1014 56 10000 6.69 180 21:36 03.03.2022
3453 Clouds 31 1010 53 10000 6.69 130 20:32 03.03.2022
3454 Clouds 32 1010 53 10000 6.17 130 19:22 03.03.2022
3455 Clouds 33 1010 47 10000 6.69 160 18:25 03.03.2022
3456 Clouds 33 1011 45 10000 6.17 160 17:31 03.03.2022
3457 Clear 33 1012 52 10000 3.6 160 16:41 03.03.2022
3458 Clear 32 1012 57 10000 3.6 30 15:44 03.03.2022
3459 Clear 32 1012 54 10000 3.6 50 14:44 03.03.2022
3460 Clear 32 1012 54 10000 3.6 50 14:25 03.03.2022
3461 Clear 28 1012 75 10000 3.09 350 12:33 03.03.2022
3462 Clear 26 1012 85 10000 2.06 360 11:23 03.03.2022
3463 Clear 25 1011 91 10000 2.57 360 10:38 03.03.2022
3464 Clear 25 1011 83 10000 3.09 350 08:42 03.03.2022
3465 Clear 26 1011 78 10000 2.57 220 06:57 03.03.2022
3466 Clear 27 1012 74 10000 2.06 290 05:44 03.03.2022
3467 Clear 30 1010 63 10000 4.63 80 00:30 03.03.2022
3468 Clear 30 1014 61 10000 4.12 180 23:18 02.03.2022
3469 Clouds 31 1013 56 10000 5.66 190 22:42 02.03.2022
3470 Clouds 33 1013 43 10000 3.6 180 21:22 02.03.2022
3471 Clouds 34 1013 39 10000 3.09 160 20:30 02.03.2022
3472 Clouds 35 1013 38 10000 3.6 40 19:43 02.03.2022
3473 Clouds 36 1009 40 10000 3.6 40 19:24 02.03.2022
3474 Clouds 36 1010 35 10000 4.12 60 18:39 02.03.2022
3475 Clouds 36 1010 35 10000 4.12 60 18:39 02.03.2022
3476 Clear 35 1011 37 10000 4.12 40 17:45 02.03.2022
3477 Clear 34 1012 43 10000 4.12 50 16:54 02.03.2022
3478 Clear 34 1012 43 10000 4.12 50 16:25 02.03.2022
3479 Clear 31 1013 60 10000 4.12 20 14:42 02.03.2022
3480 Clear 29 1013 64 10000 3.09 10 13:23 02.03.2022
3481 Clear 28 1013 71 10000 3.09 40 12:40 02.03.2022
3482 Clear 26 1012 85 10000 2.57 10 11:38 02.03.2022
3483 Clear 26 1012 85 10000 2.57 10 11:18 02.03.2022
3484 Clear 25 1010 88 10000 1.03 210 09:40 02.03.2022
3485 Clear 26 1010 83 10000 1.03 270 08:51 02.03.2022
3486 Clear 26 1011 83 10000 1.03 260 07:25 02.03.2022
3487 Clear 28 1020 57 10000 1.03 290 05:44 02.03.2022
3488 Clear 29 1009 67 10000 3.09 160 00:57 02.03.2022
3489 Clear 30 1008 58 10000 4.12 190 23:46 01.03.2022
3490 Clear 31 1008 53 10000 5.14 180 22:45 01.03.2022
3491 Clear 33 1007 47 10000 6.17 180 21:56 01.03.2022
3492 Clear 33 1007 47 10000 6.17 180 21:21 01.03.2022
3493 Clear 34 1008 42 10000 5.14 50 20:24 01.03.2022
3494 Clear 34 1008 39 10000 5.14 170 19:24 01.03.2022
3495 Clear 34 1009 38 10000 5.66 80 18:37 01.03.2022
3496 Clear 34 1009 38 10000 5.66 80 18:18 01.03.2022
3497 Clear 34 1010 46 10000 4.12 50 16:54 01.03.2022
3498 Clear 34 1010 46 10000 4.12 50 16:30 01.03.2022
3499 Clear 33 1010 48 10000 3.6 10 15:32 01.03.2022
3500 Clear 32 1011 56 10000 3.6 20 14:34 01.03.2022
3501 Clear 30 1011 65 10000 2.57 350 13:45 01.03.2022
3502 Clear 30 1011 65 10000 2.57 350 13:22 01.03.2022
3503 Clear 28 1011 70 10000 2.57 340 12:27 01.03.2022
3504 Clear 25 1010 85 10000 4.12 350 10:33 01.03.2022
3505 Clear 25 1010 88 10000 3.09 30 08:41 01.03.2022
3506 Clear 25 1011 88 10000 3.09 40 07:44 01.03.2022
3507 Clear 26 1011 83 10000 5.14 60 05:49 01.03.2022
3508 Clear 28 1010 74 10000 2.57 110 01:48 01.03.2022
3509 Clear 28 1010 72 10000 3.09 60 00:34 01.03.2022
3510 Clear 30 1009 61 10000 4.63 180 23:29 28.02.2022
3511 Clear 32 1008 54 10000 4.12 100 21:59 28.02.2022
3512 Clear 32 1008 54 10000 4.12 100 21:25 28.02.2022
3513 Clear 33 1009 49 10000 4.63 160 19:55 28.02.2022
3514 Clear 33 1009 49 10000 4.63 160 19:33 28.02.2022
3515 Clear 32 1010 54 10000 4.12 160 18:40 28.02.2022
3516 Clear 32 1011 53 10000 3.6 100 17:30 28.02.2022
3517 Clear 31 1011 56 10000 2.57 120 16:33 28.02.2022
3518 Clear 30 1012 69 10000 2.06 90 15:24 28.02.2022
3519 Clear 29 1012 72 10000 2.06 30 14:32 28.02.2022
3520 Clear 28 1013 73 10000 1.54 30 13:47 28.02.2022
3521 Clear 27 1012 82 10000 1.54 10 12:47 28.02.2022
3522 Clouds 25 1012 88 10000 2.57 100 11:58 28.02.2022
3523 Clouds 24 1011 91 10000 2.57 90 10:49 28.02.2022
3524 Clouds 24 1011 91 10000 2.06 80 10:21 28.02.2022
3525 Clouds 24 1011 94 10000 1.54 90 09:33 28.02.2022
3526 Clouds 24 1011 94 10000 2.06 80 08:44 28.02.2022
3527 Clouds 24 1011 94 10000 2.06 100 07:43 28.02.2022
3528 Clear 25 1012 94 10000 2.57 110 05:25 28.02.2022
3529 Clear 25 1013 83 10000 3.09 100 04:27 28.02.2022
3530 Clouds 27 1012 77 10000 5.14 190 23:45 27.02.2022
3531 Clouds 28 1011 68 10000 6.17 130 22:36 27.02.2022
3532 Clouds 29 1011 67 10000 7.2 180 21:52 27.02.2022
3533 Clouds 29 1011 67 10000 7.2 180 21:27 27.02.2022
3534 Clouds 30 1011 64 10000 6.69 170 20:37 27.02.2022
3535 Clouds 30 1011 64 10000 7.2 160 19:59 27.02.2022
3536 Clouds 30 1011 64 10000 7.2 160 19:27 27.02.2022
3537 Clouds 30 1012 67 10000 7.2 160 18:56 27.02.2022
3538 Clouds 31 1013 62 10000 6.69 250 17:57 27.02.2022
3539 Clouds 31 1013 62 10000 6.69 250 17:26 27.02.2022
3540 Clouds 29 1014 69 10000 5.66 160 16:22 27.02.2022
3541 Clouds 28 1015 76 10000 2.57 90 13:49 27.02.2022
3542 Clouds 27 1015 82 10000 2.57 90 12:35 27.02.2022
3543 Clouds 26 1015 89 10000 2.57 60 11:36 27.02.2022
3544 Clouds 25 1014 91 10000 2.06 90 10:36 27.02.2022
3545 Clouds 25 1014 88 10000 1.54 70 09:52 27.02.2022
3546 Clouds 25 1014 88 10000 1.54 70 09:21 27.02.2022
3547 Clouds 25 1014 88 10000 2.06 70 08:38 27.02.2022
3548 Clouds 25 1014 88 10000 3.09 90 05:43 27.02.2022
3549 Clouds 26 1015 89 10000 3.09 170 03:26 27.02.2022
3550 Clouds 27 1014 81 10000 7.2 150 23:51 26.02.2022
3551 Clouds 27 1014 82 10000 7.72 160 22:42 26.02.2022
3552 Clouds 28 1013 79 10000 7.72 160 21:26 26.02.2022
3553 Clouds 29 1013 73 10000 7.72 120 20:41 26.02.2022
3554 Clouds 29 1014 69 10000 8.23 120 19:55 26.02.2022
3555 Clouds 29 1014 69 10000 8.23 120 19:33 26.02.2022
3556 Clouds 31 1014 61 10000 8.23 110 18:33 26.02.2022
3557 Clouds 30 1014 69 10000 7.2 160 17:34 26.02.2022
3558 Clouds 30 1015 67 10000 5.14 160 16:39 26.02.2022
3559 Clouds 29 1016 71 10000 4.12 140 15:38 26.02.2022
3560 Clouds 29 1016 71 10000 4.12 140 15:19 26.02.2022
3561 Clouds 28 1016 75 10000 3.09 20 14:42 26.02.2022
3562 Clouds 28 1016 78 10000 2.06 360 13:53 26.02.2022
3563 Clouds 27 1016 79 10000 2.06 0 12:53 26.02.2022
3564 Clouds 25 1016 90 10000 2.06 30 11:52 26.02.2022
3565 Clouds 25 1016 90 10000 2.06 30 11:25 26.02.2022
3566 Clear 24 1015 89 10000 1.54 30 10:19 26.02.2022
3567 Clouds 24 1015 88 10000 2.57 10 08:35 26.02.2022
3568 Clear 25 1016 83 10000 2.06 40 06:40 26.02.2022
3569 Clouds 27 1021 86 10000 5.66 140 00:25 26.02.2022
3570 Clouds 27 1019 77 10000 7.72 140 22:44 25.02.2022
3571 Clouds 28 1020 74 10000 7.72 140 21:33 25.02.2022
3572 Clouds 29 1019 69 10000 8.23 140 20:57 25.02.2022
3573 Clouds 29 1019 70 10000 8.23 140 20:28 25.02.2022
3574 Clouds 30 1019 66 10000 7.2 160 18:18 25.02.2022
3575 Clouds 30 1015 64 10000 5.66 170 17:20 25.02.2022
3576 Clouds 30 1020 64 10000 5.14 160 16:19 25.02.2022
3577 Clouds 29 1017 69 10000 4.12 150 15:42 25.02.2022
3578 Clouds 29 1017 69 10000 4.12 150 15:18 25.02.2022
3579 Clouds 28 1017 74 10000 3.09 140 14:39 25.02.2022
3580 Clouds 27 1017 82 10000 2.57 10 13:36 25.02.2022
3581 Clouds 26 1017 85 10000 1.54 30 12:45 25.02.2022
3582 Clouds 25 1017 92 10000 1.54 30 11:28 25.02.2022
3583 Clouds 25 1015 94 10000 2.06 10 10:29 25.02.2022
3584 Clouds 24 1016 94 10000 2.06 140 09:53 25.02.2022
3585 Clouds 24 1016 94 10000 2.57 140 08:46 25.02.2022
3586 Clouds 25 1017 88 10000 1.03 120 07:41 25.02.2022
3587 Clouds 25 1017 88 10000 1.54 100 05:48 25.02.2022
3588 Clouds 26 1017 89 10000 1.54 140 03:34 25.02.2022
3589 Clouds 27 1019 84 10000 5.14 180 23:47 24.02.2022
3590 Clouds 28 1018 74 10000 5.14 110 21:56 24.02.2022
3591 Clouds 28 1017 73 10000 5.14 110 21:38 24.02.2022
3592 Clouds 28 1017 74 10000 5.14 110 21:19 24.02.2022
3593 Clouds 29 1017 72 10000 7.2 240 19:38 24.02.2022
3594 Clouds 29 1017 71 10000 6.17 170 18:43 24.02.2022
3595 Clouds 29 1017 69 10000 6.17 170 18:19 24.02.2022
3596 Clouds 29 1018 71 10000 5.66 170 17:33 24.02.2022
3597 Clouds 29 1018 74 10000 5.14 240 16:49 24.02.2022
3598 Clouds 29 1018 74 10000 5.14 240 16:23 24.02.2022
3599 Clouds 29 1020 72 10000 3.09 130 14:56 24.02.2022
3600 Clouds 29 1020 72 10000 3.09 130 14:36 24.02.2022
3601 Clouds 28 1014 80 10000 2.06 50 13:39 24.02.2022
3602 Clouds 27 1014 79 10000 2.06 290 12:54 24.02.2022
3603 Clouds 25 1012 91 9000 2.06 270 10:41 24.02.2022
3604 Clouds 25 1012 91 9000 2.06 270 10:41 24.02.2022
3605 Clouds 25 1011 88 10000 2.06 300 09:24 24.02.2022
3606 Clouds 25 1011 88 10000 2.57 290 08:41 24.02.2022
3607 Clouds 26 1012 83 10000 3.09 250 05:58 24.02.2022
3608 Clouds 27 1018 83 10000 4.12 190 01:58 24.02.2022
3609 Clouds 27 1016 85 10000 5.14 170 23:40 23.02.2022
3610 Clouds 28 1015 86 10000 7.2 240 21:53 23.02.2022
3611 Clouds 28 1013 84 10000 8.23 110 20:32 23.02.2022
3612 Clouds 29 1013 82 10000 8.75 120 19:49 23.02.2022
3613 Clouds 29 1014 78 10000 8.23 160 18:42 23.02.2022
3614 Clouds 30 1014 73 10000 7.2 160 17:45 23.02.2022
3615 Clouds 30 1012 69 10000 3.6 160 15:26 23.02.2022
3616 Clear 27 1012 79 10000 2.57 340 13:34 23.02.2022
3617 Clear 27 1012 82 10000 1.54 10 12:26 23.02.2022
3618 Clouds 25 1011 91 8000 2.57 360 10:45 23.02.2022
3619 Clouds 24 1011 94 10000 1.54 100 09:24 23.02.2022
3620 Clouds 25 1021 97 10000 3.09 60 08:27 23.02.2022
3621 Clouds 25 1021 97 10000 2.06 60 07:19 23.02.2022
3622 Clouds 25 1021 97 10000 2.06 60 07:19 23.02.2022
3623 Clouds 27 1019 85 10000 2.06 340 01:22 23.02.2022
3624 Clouds 27 1016 79 10000 3.6 140 23:46 22.02.2022
3625 Clouds 27 1016 79 10000 3.6 140 23:28 22.02.2022
3626 Clouds 28 1016 75 10000 6.17 240 21:59 22.02.2022
3627 Clouds 28 1016 74 10000 6.17 240 21:40 22.02.2022
3628 Clouds 28 1016 74 10000 6.17 240 21:19 22.02.2022
3629 Clouds 30 1015 69 10000 7.72 180 20:31 22.02.2022
3630 Clouds 31 1015 64 10000 6.69 170 19:54 22.02.2022
3631 Clouds 31 1015 63 10000 6.69 170 19:33 22.02.2022
3632 Clouds 31 1016 64 10000 6.17 170 18:35 22.02.2022
3633 Clouds 31 1016 65 10000 6.17 160 17:27 22.02.2022
3634 Clouds 31 1017 62 10000 4.63 100 16:55 22.02.2022
3635 Clouds 31 1017 62 10000 4.63 100 16:19 22.02.2022
3636 Clouds 31 1018 67 10000 4.12 60 15:18 22.02.2022
3637 Clear 28 1014 78 10000 3.09 340 13:37 22.02.2022
3638 Clear 25 1013 92 10000 1.54 340 11:18 22.02.2022
3639 Clouds 24 1012 94 10000 1.03 80 09:22 22.02.2022
3640 Clouds 25 1023 97 10000 1.54 60 07:29 22.02.2022
3641 Clouds 25 1023 100 10000 1.03 110 06:54 22.02.2022
3642 Rain 25 1020 94 10000 4.63 20 02:49 22.02.2022
3643 Thunderstorm 25 1018 93 6000 7.2 100 23:18 21.02.2022
3644 Rain 26 1017 86 6000 12.35 60 22:36 21.02.2022
3645 Thunderstorm 30 1015 67 10000 6.17 190 20:52 21.02.2022
3646 Clouds 32 1016 58 10000 4.12 80 18:47 21.02.2022
3647 Clouds 32 1016 65 10000 4.12 80 18:19 21.02.2022
3648 Clouds 32 1017 60 10000 2.57 110 16:23 21.02.2022
3649 Clouds 29 1014 73 10000 3.09 50 14:23 21.02.2022
3650 Clouds 28 1014 79 10000 2.57 40 13:31 21.02.2022
3651 Clouds 28 1014 79 10000 2.57 40 13:31 21.02.2022
3652 Clouds 26 1018 91 7000 2.06 10 12:46 21.02.2022
3653 Clouds 26 1018 92 7000 2.06 10 12:21 21.02.2022
3654 Clouds 24 1013 94 8000 2.57 40 10:29 21.02.2022
3655 Clear 24 1012 94 10000 1.03 20 07:48 21.02.2022
3656 Clouds 26 1019 88 10000 5.14 190 00:35 21.02.2022
3657 Rain 27 1016 80 10000 6.17 180 22:32 20.02.2022
3658 Clouds 28 1017 73 10000 4.12 150 21:44 20.02.2022
3659 Clouds 28 1017 71 10000 4.12 150 21:24 20.02.2022
3660 Clouds 29 1016 68 10000 5.14 120 20:43 20.02.2022
3661 Clouds 30 1015 68 10000 6.17 150 19:49 20.02.2022
3662 Clouds 31 1017 61 10000 3.6 100 18:56 20.02.2022
3663 Clouds 30 1012 65 10000 3.6 140 18:36 20.02.2022
3664 Clear 30 1012 59 10000 3.09 120 17:55 20.02.2022
3665 Clear 29 1012 71 10000 3.09 110 16:59 20.02.2022
3666 Clear 28 1013 75 10000 4.12 120 15:27 20.02.2022
3667 Clouds 26 1017 86 10000 3.6 10 13:58 20.02.2022
3668 Clouds 25 1013 89 10000 3.6 20 12:45 20.02.2022
3669 Clouds 24 1012 95 8000 3.6 10 11:50 20.02.2022
3670 Clouds 24 1012 97 8000 4.12 10 10:21 20.02.2022
3671 Rain 24 1012 94 6000 1.54 160 09:24 20.02.2022
3672 Rain 23 1012 94 8000 2.57 120 06:28 20.02.2022
3673 Clouds 25 1017 94 10000 3.6 100 00:32 20.02.2022
3674 Clouds 25 1016 92 10000 4.12 130 23:33 19.02.2022
3675 Clouds 25 1014 89 10000 4.63 170 22:24 19.02.2022
3676 Rain 25 1014 84 10000 5.14 130 21:45 19.02.2022
3677 Rain 26 1014 79 10000 6.17 130 20:26 19.02.2022
3678 Rain 27 1014 78 10000 7.2 120 19:34 19.02.2022
3679 Clouds 27 1014 75 10000 7.2 120 18:40 19.02.2022
3680 Clouds 27 1014 75 10000 7.2 120 18:40 19.02.2022
3681 Clouds 28 1014 74 10000 5.66 170 17:57 19.02.2022
3682 Clouds 28 1015 75 10000 4.12 160 16:47 19.02.2022
3683 Clouds 27 1015 71 10000 2.57 140 15:59 19.02.2022
3684 Clouds 26 1011 79 10000 1.03 0 14:54 19.02.2022
3685 Clouds 25 1015 87 10000 2.06 10 13:57 19.02.2022
3686 Clouds 24 1010 93 10000 2.06 60 11:47 19.02.2022
3687 Clouds 23 1009 94 10000 1.54 330 10:54 19.02.2022
3688 Rain 23 1009 94 8000 3.09 280 08:57 19.02.2022
3689 Clouds 23 1010 88 8000 2.06 350 06:48 19.02.2022
3690 Rain 25 1009 89 5000 3.6 170 00:38 19.02.2022
3691 Mist 25 1007 83 9000 6.17 240 22:24 18.02.2022
3692 Rain 26 1007 80 10000 6.17 180 21:22 18.02.2022
3693 Clouds 27 1007 76 9000 5.14 190 20:18 18.02.2022
3694 Rain 26 1007 79 9000 5.66 180 19:25 18.02.2022
3695 Mist 27 1008 79 8000 5.14 120 18:29 18.02.2022
3696 Haze 26 1008 81 7000 2.57 220 17:56 18.02.2022
3697 Clouds 27 1012 85 7000 3.09 360 16:19 18.02.2022
3698 Mist 25 1013 93 5000 1.03 20 14:19 18.02.2022
3699 Rain 24 1013 95 5000 2.57 330 13:45 18.02.2022
3700 Rain 24 1008 94 6000 3.09 350 12:48 18.02.2022
3701 Rain 24 1008 96 8000 2.06 290 11:56 18.02.2022
3702 Rain 24 1007 94 8000 2.06 290 10:42 18.02.2022
3703 Clouds 23 1008 94 10000 1.54 250 07:21 18.02.2022
3704 Clouds 23 1010 94 10000 1.54 280 05:52 18.02.2022
3705 Clouds 23 1010 94 10000 1.54 280 05:34 18.02.2022
3706 Thunderstorm 26 1009 79 4500 7.72 130 21:59 17.02.2022
3707 Thunderstorm 27 1008 75 8000 7.72 180 21:33 17.02.2022
3708 Clouds 28 1008 68 10000 8.23 160 20:42 17.02.2022
3709 Clouds 29 1012 70 10000 7.72 170 19:55 17.02.2022
3710 Clouds 29 1013 67 10000 7.72 170 19:22 17.02.2022
3711 Clouds 31 1009 56 10000 6.17 250 18:29 17.02.2022
3712 Clouds 31 1010 56 10000 4.63 150 17:30 17.02.2022
3713 Clouds 29 1012 64 10000 5.66 170 15:57 17.02.2022
3714 Clouds 28 1012 64 10000 4.63 150 14:29 17.02.2022
3715 Clear 27 1012 71 10000 3.09 170 13:31 17.02.2022
3716 Clear 24 1013 87 10000 1.54 20 11:48 17.02.2022
3717 Clouds 23 1012 91 10000 2.06 40 10:20 17.02.2022
3718 Clouds 23 1012 88 10000 1.03 360 07:45 17.02.2022
3719 Clouds 25 1013 77 10000 5.66 120 23:23 16.02.2022
3720 Clouds 26 1017 75 10000 6.17 130 22:28 16.02.2022
3721 Clouds 27 1017 70 10000 7.72 120 20:22 16.02.2022
3722 Clouds 28 1018 70 10000 6.69 160 18:56 16.02.2022
3723 Clouds 28 1018 70 10000 6.69 160 18:27 16.02.2022
3724 Clouds 28 1019 78 10000 5.66 130 17:22 16.02.2022
3725 Clouds 28 1015 67 9000 4.63 160 15:22 16.02.2022
3726 Clouds 27 1015 77 9000 3.6 140 13:40 16.02.2022
3727 Clouds 26 1014 83 9000 2.57 120 12:26 16.02.2022
3728 Clouds 24 1014 93 10000 1.54 140 11:46 16.02.2022
3729 Clouds 25 1013 91 10000 2.06 330 10:34 16.02.2022
3730 Clouds 24 1013 94 8000 2.57 350 09:38 16.02.2022
3731 Clouds 25 1014 88 10000 2.06 90 06:43 16.02.2022
3732 Clouds 26 1014 81 10000 3.6 180 00:37 16.02.2022
3733 Clouds 26 1012 81 10000 5.66 170 22:34 15.02.2022
3734 Clouds 27 1016 80 10000 7.2 180 21:50 15.02.2022
3735 Clouds 28 1016 80 10000 7.2 180 21:29 15.02.2022
3736 Clouds 27 1011 81 10000 7.72 180 20:58 15.02.2022
3737 Clouds 27 1011 81 10000 6.17 160 20:22 15.02.2022
3738 Clouds 28 1012 80 10000 7.72 180 19:45 15.02.2022
3739 Clouds 30 1012 69 10000 6.17 200 18:26 15.02.2022
3740 Clouds 30 1012 69 10000 6.69 210 17:53 15.02.2022
3741 Clouds 30 1012 69 10000 6.69 210 17:32 15.02.2022
3742 Clouds 29 1012 68 10000 4.63 260 15:43 15.02.2022
3743 Clouds 29 1012 69 10000 3.09 230 14:31 15.02.2022
3744 Clouds 28 1012 73 9000 3.09 20 13:25 15.02.2022
3745 Clouds 26 1012 88 9000 2.57 40 11:41 15.02.2022
3746 Clouds 25 1010 91 10000 1.54 90 10:27 15.02.2022
3747 Clouds 25 1009 88 10000 3.09 310 08:42 15.02.2022
3748 Clouds 25 1010 94 10000 2.06 270 06:46 15.02.2022
3749 Thunderstorm 27 1009 77 10000 4.12 30 23:35 14.02.2022
3750 Clouds 29 1007 68 10000 9.26 240 21:57 14.02.2022
3751 Clouds 30 1006 63 10000 8.23 230 20:53 14.02.2022
3752 Clouds 30 1007 69 10000 7.72 120 19:49 14.02.2022
3753 Clouds 30 1007 69 10000 7.72 120 19:29 14.02.2022
3754 Clouds 31 1007 65 10000 7.72 160 18:24 14.02.2022
3755 Clouds 32 1008 59 10000 6.17 160 17:30 14.02.2022
3756 Clouds 31 1008 64 10000 3.09 260 16:37 14.02.2022
3757 Clouds 31 1009 64 10000 3.09 30 15:42 14.02.2022
3758 Clouds 28 1009 76 10000 4.12 160 13:36 14.02.2022
3759 Clouds 27 1009 81 10000 2.06 160 12:59 14.02.2022
3760 Clouds 27 1009 81 10000 2.06 160 12:32 14.02.2022
3761 Clouds 26 1009 92 10000 3.09 160 11:39 14.02.2022
3762 Clouds 24 1008 97 10000 2.57 170 10:22 14.02.2022
3763 Clouds 25 1008 88 10000 2.57 320 08:26 14.02.2022
3764 Clouds 25 1008 88 10000 2.57 300 07:26 14.02.2022
3765 Clouds 27 1009 79 10000 5.14 190 23:19 13.02.2022
3766 Clouds 27 1008 79 10000 5.66 180 22:41 13.02.2022
3767 Clouds 27 1008 81 10000 5.66 180 22:22 13.02.2022
3768 Clouds 28 1008 75 10000 6.69 190 21:24 13.02.2022
3769 Clouds 28 1009 72 10000 7.2 170 20:30 13.02.2022
3770 Clouds 28 1009 71 10000 7.2 170 19:23 13.02.2022
3771 Clouds 30 1010 68 10000 4.63 140 18:41 13.02.2022
3772 Clouds 29 1011 64 10000 4.12 120 17:52 13.02.2022
3773 Clouds 28 1012 65 10000 4.63 150 15:53 13.02.2022
3774 Clouds 27 1012 71 10000 3.09 170 14:57 13.02.2022
3775 Clouds 26 1012 78 10000 2.57 10 13:59 13.02.2022
3776 Clouds 25 1012 83 10000 2.06 30 12:49 13.02.2022
3777 Clouds 23 1012 92 10000 3.09 30 11:24 13.02.2022
3778 Clouds 23 1011 91 10000 2.06 30 10:28 13.02.2022
3779 Clouds 22 1011 94 10000 1.54 20 09:36 13.02.2022
3780 Clouds 23 1011 94 10000 2.57 300 07:19 13.02.2022
3781 Clouds 24 1013 85 9000 6.17 50 00:35 13.02.2022
3782 Clouds 25 1013 82 10000 8.23 60 23:39 12.02.2022
3783 Clouds 25 1012 81 10000 5.14 140 22:33 12.02.2022
3784 Clouds 26 1011 73 10000 8.23 120 21:19 12.02.2022
3785 Clouds 27 1011 71 10000 5.66 160 20:32 12.02.2022
3786 Clouds 27 1011 72 10000 5.14 160 19:21 12.02.2022
3787 Clouds 27 1011 70 10000 6.69 120 18:52 12.02.2022
3788 Clouds 27 1011 70 10000 5.66 160 18:34 12.02.2022
3789 Clouds 27 1013 74 10000 4.63 160 16:56 12.02.2022
3790 Clouds 27 1013 76 10000 4.63 160 16:25 12.02.2022
3791 Clouds 27 1013 76 10000 4.63 160 16:25 12.02.2022
3792 Clouds 26 1013 77 10000 3.6 150 15:50 12.02.2022
3793 Clouds 26 1014 75 10000 2.57 100 14:31 12.02.2022
3794 Clouds 24 1014 89 10000 1.03 60 12:58 12.02.2022
3795 Clouds 24 1018 94 10000 2.06 340 10:41 12.02.2022
3796 Clouds 23 1012 94 10000 1.03 340 09:39 12.02.2022
3797 Clouds 23 1012 94 10000 1.03 340 09:20 12.02.2022
3798 Clouds 23 1012 94 10000 1.03 0 08:18 12.02.2022
3799 Clouds 23 1012 94 10000 1.03 0 08:18 12.02.2022
3800 Rain 23 1013 94 10000 1.54 60 05:33 12.02.2022
3801 Clouds 23 1013 88 10000 2.06 30 04:27 12.02.2022
3802 Clouds 24 1014 83 10000 2.57 60 02:18 12.02.2022
3803 Clouds 24 1012 87 8000 7.2 130 22:37 11.02.2022
3804 Mist 24 1012 89 4500 6.69 150 22:18 11.02.2022
3805 Clouds 26 1012 81 10000 6.69 160 20:41 11.02.2022
3806 Clouds 27 1016 74 10000 5.14 160 19:47 11.02.2022
3807 Clouds 27 1017 73 10000 5.14 120 19:27 11.02.2022
3808 Clouds 27 1013 68 9000 4.12 160 17:59 11.02.2022
3809 Clouds 27 1013 69 9000 4.12 160 17:26 11.02.2022
3810 Clouds 27 1013 68 10000 2.57 230 16:26 11.02.2022
3811 Clouds 25 1014 77 9000 2.57 360 14:44 11.02.2022
3812 Clouds 25 1014 77 9000 2.57 360 14:23 11.02.2022
3813 Clouds 24 1013 81 10000 1.54 20 13:59 11.02.2022
3814 Clouds 24 1013 81 10000 1.54 20 13:39 11.02.2022
3815 Clouds 24 1017 85 10000 2.57 350 12:19 11.02.2022
3816 Rain 23 1012 94 10000 2.06 10 10:24 11.02.2022
3817 Clouds 22 1011 94 10000 1.54 290 08:49 11.02.2022
3818 Rain 22 1011 94 10000 1.54 290 08:27 11.02.2022
3819 Clouds 22 1012 88 10000 1.54 310 07:22 11.02.2022
3820 Clouds 24 1014 80 10000 3.09 360 02:40 11.02.2022
3821 Clouds 24 1014 80 10000 3.09 360 02:40 11.02.2022
3822 Rain 24 1014 80 10000 3.09 360 02:19 11.02.2022
3823 Clouds 24 1013 75 10000 3.09 140 23:20 10.02.2022
3824 Clouds 25 1011 77 10000 5.14 160 21:53 10.02.2022
3825 Clouds 25 1011 77 10000 5.14 160 21:24 10.02.2022
3826 Clouds 25 1011 77 10000 4.12 150 20:48 10.02.2022
3827 Clouds 26 1012 73 10000 4.12 140 19:26 10.02.2022
3828 Clouds 26 1012 73 10000 2.06 110 18:47 10.02.2022
3829 Clouds 26 1012 72 10000 2.57 20 17:27 10.02.2022
3830 Clouds 26 1013 73 10000 2.57 350 16:57 10.02.2022
3831 Clouds 25 1013 76 10000 2.57 350 16:20 10.02.2022
3832 Clouds 25 1013 76 8000 2.06 340 15:33 10.02.2022
3833 Clouds 24 1013 81 8000 3.09 10 14:49 10.02.2022
3834 Clouds 24 1013 81 8000 3.09 10 14:29 10.02.2022
3835 Clouds 22 1013 87 7000 2.57 350 13:33 10.02.2022
3836 Clouds 22 1013 94 6000 2.57 10 12:51 10.02.2022
3837 Mist 21 1013 96 5000 2.06 350 11:44 10.02.2022
3838 Mist 21 1013 96 5000 2.06 350 11:25 10.02.2022
3839 Mist 21 1012 94 5000 1.03 360 10:19 10.02.2022
3840 Clouds 22 1012 94 7000 1.03 40 09:25 10.02.2022
3841 Rain 22 1012 94 8000 1.54 30 07:40 10.02.2022
3842 Mist 21 1013 94 5000 1.54 350 05:52 10.02.2022
3843 Mist 22 1013 94 7000 2.57 30 01:58 10.02.2022
3844 Mist 22 1012 91 6000 2.06 20 00:51 10.02.2022
3845 Mist 22 1012 91 6000 2.06 20 00:29 10.02.2022
3846 Mist 22 1012 92 4000 2.06 70 23:28 09.02.2022
3847 Mist 22 1012 93 7000 3.09 250 22:38 09.02.2022
3848 Mist 23 1011 87 5000 2.57 120 21:56 09.02.2022
3849 Mist 23 1011 87 5000 2.57 120 21:38 09.02.2022
3850 Mist 23 1011 86 5000 2.57 120 21:18 09.02.2022
3851 Drizzle 24 1011 83 7000 2.57 360 20:41 09.02.2022
3852 Drizzle 23 1011 83 7000 2.57 360 20:20 09.02.2022
3853 Clouds 24 1011 79 6000 2.57 20 19:38 09.02.2022
3854 Clouds 26 1012 67 10000 3.09 340 17:43 09.02.2022
3855 Clouds 25 1016 72 10000 2.57 360 16:53 09.02.2022
3856 Clouds 25 1013 72 10000 2.57 360 15:55 09.02.2022
3857 Clouds 25 1013 72 10000 2.57 360 15:19 09.02.2022
3858 Clouds 22 1013 83 10000 2.57 20 12:42 09.02.2022
3859 Clouds 22 1013 83 10000 2.57 20 12:42 09.02.2022
3860 Clouds 22 1012 85 10000 2.57 310 11:20 09.02.2022
3861 Clouds 22 1012 83 10000 2.57 340 10:32 09.02.2022
3862 Clouds 21 1012 88 10000 1.03 160 09:42 09.02.2022
3863 Clouds 21 1012 88 10000 1.03 160 09:20 09.02.2022
3864 Clouds 20 1012 88 8000 2.57 270 08:26 09.02.2022
3865 Clouds 20 1013 94 8000 3.09 320 05:30 09.02.2022
3866 Rain 21 1014 94 10000 4.12 40 03:51 09.02.2022
3867 Rain 21 1014 97 5000 5.66 30 01:28 09.02.2022
3868 Rain 22 1013 90 10000 5.14 350 23:39 08.02.2022
3869 Clouds 23 1012 86 10000 4.63 360 22:51 08.02.2022
3870 Clouds 23 1012 87 10000 4.63 360 22:22 08.02.2022
3871 Clouds 24 1012 83 10000 3.6 20 21:52 08.02.2022
3872 Clouds 24 1012 83 10000 3.6 20 21:21 08.02.2022
3873 Clouds 24 1012 82 10000 3.09 20 20:55 08.02.2022
3874 Clouds 24 1012 82 10000 3.09 20 20:23 08.02.2022
3875 Clouds 25 1012 75 10000 5.66 190 18:53 08.02.2022
3876 Clouds 25 1012 77 10000 6.69 200 17:50 08.02.2022
3877 Clouds 24 1012 78 10000 6.17 240 16:42 08.02.2022
3878 Clouds 24 1013 83 7000 8.23 220 15:39 08.02.2022
3879 Rain 25 1012 81 10000 8.23 250 14:57 08.02.2022
3880 Mist 24 1012 90 10000 10.29 260 13:30 08.02.2022
3881 Mist 25 1011 89 10000 5.14 320 12:20 08.02.2022
3882 Clouds 25 1009 88 10000 4.12 290 10:45 08.02.2022
3883 Clouds 24 1009 94 10000 2.06 310 09:46 08.02.2022
3884 Clouds 24 1009 94 10000 2.57 340 08:27 08.02.2022
3885 Clouds 24 1010 94 10000 2.06 270 05:46 08.02.2022
3886 Clouds 24 1010 94 10000 2.06 300 04:40 08.02.2022
3887 Clouds 24 1010 94 10000 2.06 300 04:21 08.02.2022
3888 Rain 25 1010 91 5000 3.09 310 03:36 08.02.2022
3889 Rain 25 1010 91 5000 3.09 310 03:18 08.02.2022
3890 Rain 25 1010 91 5000 3.09 310 03:18 08.02.2022
3891 Rain 24 1010 94 5000 3.09 320 02:59 08.02.2022
3892 Rain 24 1010 94 5000 3.09 320 02:36 08.02.2022
3893 Rain 24 1010 94 5000 3.09 320 02:18 08.02.2022
3894 Rain 24 1010 94 5000 3.09 320 02:18 08.02.2022
3895 Rain 25 1010 94 5000 2.57 310 01:44 08.02.2022
3896 Rain 25 1010 94 4500 3.6 300 01:24 08.02.2022
3897 Rain 25 1010 100 5000 4.12 270 00:55 08.02.2022
3898 Rain 25 1010 100 5000 4.12 270 00:19 08.02.2022
3899 Rain 25 1010 96 5000 3.6 300 23:42 07.02.2022
3900 Rain 25 1010 96 5000 3.6 300 23:18 07.02.2022
3901 Rain 25 1010 96 5000 4.12 300 22:59 07.02.2022
3902 Rain 25 1010 96 5000 4.12 300 22:18 07.02.2022
3903 Rain 25 1010 94 7000 4.12 270 21:49 07.02.2022
3904 Rain 25 1010 94 7000 4.12 270 21:27 07.02.2022
3905 Thunderstorm 26 1009 91 8000 5.66 140 20:41 07.02.2022
3906 Thunderstorm 26 1009 91 8000 5.66 140 20:18 07.02.2022
3907 Rain 27 1008 81 10000 8.23 140 19:46 07.02.2022
3908 Clouds 29 1008 74 10000 8.23 120 18:34 07.02.2022
3909 Rain 29 1009 72 10000 5.66 150 16:53 07.02.2022
3910 Rain 29 1009 72 10000 5.66 150 16:24 07.02.2022
3911 Rain 30 1010 68 10000 4.12 150 15:48 07.02.2022
3912 Clouds 29 1010 72 10000 3.09 250 13:51 07.02.2022
3913 Clouds 29 1010 72 10000 3.09 250 13:26 07.02.2022
3914 Clouds 27 1009 87 10000 3.09 160 11:58 07.02.2022
3915 Clouds 27 1009 87 10000 3.09 160 11:38 07.02.2022
3916 Clouds 25 1008 91 10000 2.57 170 10:59 07.02.2022
3917 Clouds 25 1008 91 10000 2.57 170 10:41 07.02.2022
3918 Clouds 25 1008 91 10000 2.57 170 10:22 07.02.2022
3919 Clouds 25 1008 88 10000 1.03 130 09:47 07.02.2022
3920 Clouds 25 1008 88 10000 1.03 130 09:18 07.02.2022
3921 Clouds 25 1008 88 10000 1.03 300 07:34 07.02.2022
3922 Clouds 25 1008 94 10000 1.03 280 06:34 07.02.2022
3923 Clouds 26 1010 94 10000 1.03 0 04:31 07.02.2022
3924 Thunderstorm 28 1009 76 10000 4.12 310 01:37 07.02.2022
3925 Clouds 27 1008 83 10000 2.57 120 23:51 06.02.2022
3926 Clouds 27 1008 83 10000 2.57 120 23:20 06.02.2022
3927 Clouds 29 1008 73 10000 3.09 310 22:41 06.02.2022
3928 Clouds 29 1007 72 10000 3.09 140 21:38 06.02.2022
3929 Clouds 29 1007 72 10000 3.09 140 21:20 06.02.2022
3930 Clouds 30 1007 68 10000 4.12 240 20:48 06.02.2022
3931 Clouds 30 1007 68 10000 4.12 240 20:21 06.02.2022
3932 Clouds 30 1007 68 10000 5.66 180 19:18 06.02.2022
3933 Clouds 32 1007 56 10000 6.17 170 18:28 06.02.2022
3934 Clouds 32 1008 56 10000 5.14 150 17:31 06.02.2022
3935 Clouds 34 1008 50 10000 3.09 40 16:51 06.02.2022
3936 Clouds 32 1008 56 10000 3.6 150 16:20 06.02.2022
3937 Clear 31 1009 61 10000 3.6 140 15:47 06.02.2022
3938 Clear 31 1009 61 10000 3.6 140 15:24 06.02.2022
3939 Clear 31 1012 64 10000 3.6 140 14:19 06.02.2022
3940 Clear 31 1008 62 10000 1.54 30 13:21 06.02.2022
3941 Clouds 29 1008 69 10000 2.57 20 12:27 06.02.2022
3942 Clouds 26 1007 92 10000 2.06 340 10:37 06.02.2022
3943 Clouds 26 1008 83 10000 1.03 290 09:48 06.02.2022
3944 Clear 27 1007 74 10000 2.06 220 08:41 06.02.2022
3945 Clear 27 1007 74 10000 1.03 250 07:31 06.02.2022
3946 Clear 27 1008 83 10000 0 0 05:28 06.02.2022
3947 Clear 28 1008 80 10000 3.09 320 02:25 06.02.2022
3948 Clear 27 1007 83 10000 3.6 360 00:49 06.02.2022
3949 Clear 27 1007 83 10000 3.6 360 00:22 06.02.2022
3950 Clouds 32 1006 63 10000 4.12 360 21:48 05.02.2022
3951 Clouds 32 1006 64 10000 5.66 180 20:48 05.02.2022
3952 Clouds 32 1006 64 10000 5.66 180 20:23 05.02.2022
3953 Clouds 32 1006 62 10000 5.66 190 19:44 05.02.2022
3954 Clouds 33 1006 57 10000 6.17 170 18:45 05.02.2022
3955 Clouds 33 1007 56 10000 4.12 150 17:36 05.02.2022
3956 Clouds 33 1008 60 10000 3.09 50 16:24 05.02.2022
3957 Clouds 31 1013 67 10000 3.09 330 15:31 05.02.2022
3958 Clouds 29 1009 76 10000 3.09 330 13:55 05.02.2022
3959 Clouds 28 1009 82 9000 3.09 340 12:46 05.02.2022
3960 Clouds 27 1008 86 10000 3.6 20 11:47 05.02.2022
3961 Clouds 26 1008 92 10000 2.06 340 10:44 05.02.2022
3962 Clouds 25 1008 94 10000 1.54 30 09:51 05.02.2022
3963 Clouds 26 1008 89 10000 2.06 340 08:51 05.02.2022
3964 Clouds 26 1008 89 10000 2.06 340 07:27 05.02.2022
3965 Clouds 26 1008 83 10000 1.54 290 06:55 05.02.2022
3966 Clouds 28 1009 83 10000 1.03 170 02:43 05.02.2022
3967 Clouds 27 1009 89 10000 1.54 150 01:18 05.02.2022
3968 Clouds 27 1008 83 10000 6.17 160 00:36 05.02.2022
3969 Rain 28 1008 75 10000 4.63 180 23:33 04.02.2022
3970 Clouds 28 1008 76 10000 5.14 190 22:50 04.02.2022
3971 Clouds 28 1008 72 10000 6.17 180 21:36 04.02.2022
3972 Clouds 28 1008 74 10000 6.17 180 21:18 04.02.2022
3973 Clouds 29 1008 71 10000 6.69 170 20:37 04.02.2022
3974 Rain 29 1009 72 10000 7.2 180 19:19 04.02.2022
3975 Rain 30 1011 70 10000 4.63 150 16:50 04.02.2022
3976 Clouds 29 1011 72 10000 4.12 160 15:33 04.02.2022
3977 Clouds 29 1012 74 10000 1.54 50 14:47 04.02.2022
3978 Clouds 27 1012 77 10000 2.57 110 12:43 04.02.2022
3979 Clouds 25 1017 91 10000 0.51 120 11:46 04.02.2022
3980 Clouds 25 1018 96 10000 1.03 190 10:59 04.02.2022
3981 Clouds 24 1011 94 10000 1.03 190 10:22 04.02.2022
3982 Clouds 24 1011 94 10000 2.57 80 08:31 04.02.2022
3983 Clouds 25 1013 88 10000 3.6 120 04:45 04.02.2022
3984 Clouds 25 1019 92 10000 4.12 160 02:38 04.02.2022
3985 Clouds 25 1012 86 10000 2.57 160 00:18 04.02.2022
3986 Clouds 27 1012 75 10000 5.66 180 22:52 03.02.2022
3987 Clouds 27 1012 74 10000 5.66 170 21:58 03.02.2022
3988 Clouds 27 1012 74 10000 5.66 170 21:37 03.02.2022
3989 Clouds 28 1012 74 10000 7.2 170 20:22 03.02.2022
3990 Clouds 28 1012 73 10000 6.17 160 19:49 03.02.2022
3991 Clouds 28 1012 75 10000 6.17 160 19:20 03.02.2022
3992 Clouds 28 1013 77 10000 7.2 160 17:59 03.02.2022
3993 Clouds 28 1013 77 10000 7.2 160 17:26 03.02.2022
3994 Clouds 28 1014 76 10000 5.66 160 15:38 03.02.2022
3995 Clouds 27 1014 77 10000 3.09 150 14:18 03.02.2022
3996 Clouds 26 1019 88 10000 1.54 120 12:32 03.02.2022
3997 Clouds 24 1013 100 8000 2.06 90 08:59 03.02.2022
3998 Clouds 24 1013 100 8000 2.06 90 08:18 03.02.2022
3999 Rain 25 1014 94 8000 3.09 310 00:59 03.02.2022
4000 Clouds 25 1014 94 8000 3.09 310 00:22 03.02.2022
4001 Rain 25 1013 91 9000 3.09 190 22:41 02.02.2022
4002 Rain 25 1013 91 9000 5.14 180 21:52 02.02.2022
4003 Rain 25 1013 91 9000 5.14 180 21:29 02.02.2022
4004 Rain 26 1013 83 10000 5.66 170 20:27 02.02.2022
4005 Thunderstorm 27 1012 80 10000 6.17 170 19:48 02.02.2022
4006 Rain 28 1014 81 10000 1.81 178 19:00 02.02.2022
4007 Rain 27 1012 75 10000 6.17 160 18:25 02.02.2022
4008 Clouds 29 1013 69 10000 6.17 170 17:23 02.02.2022
4009 Clouds 29 1014 71 10000 4.12 150 16:59 02.02.2022
4010 Clouds 29 1018 76 8000 2.57 140 15:49 02.02.2022
4011 Clouds 26 1014 86 6000 2.06 350 12:50 02.02.2022
4012 Clouds 25 1013 96 8000 1.03 30 11:51 02.02.2022
4013 Clouds 25 1013 96 8000 1.03 30 11:30 02.02.2022
4014 Clouds 24 1013 100 9000 1.54 300 09:22 02.02.2022
4015 Rain 24 1013 94 8000 2.06 280 05:29 02.02.2022
4016 Clouds 28 1011 72 10000 4.12 170 22:36 01.02.2022
4017 Clouds 29 1010 64 10000 5.14 200 21:30 01.02.2022
4018 Clouds 31 1009 58 10000 9.26 190 19:56 01.02.2022
4019 Clouds 32 1010 54 10000 6.69 190 17:38 01.02.2022
4020 Clouds 31 1010 58 10000 3.6 140 16:31 01.02.2022
4021 Clouds 30 1010 59 10000 3.09 300 13:28 01.02.2022
4022 Clouds 27 1013 80 10000 1.54 340 12:28 01.02.2022
4023 Clouds 27 1013 80 10000 1.54 340 12:28 01.02.2022
4024 Clouds 25 1008 94 10000 2.57 330 10:44 01.02.2022
4025 Clouds 25 1009 88 10000 3.09 180 02:30 01.02.2022
4026 Clouds 26 1008 83 10000 4.63 190 23:40 31.01.2022
4027 Clouds 26 1008 83 10000 5.14 170 22:43 31.01.2022
4028 Clouds 26 1006 83 10000 6.69 160 21:38 31.01.2022
4029 Rain 27 1007 79 10000 5.66 150 20:45 31.01.2022
4030 Rain 27 1007 79 10000 5.66 150 20:26 31.01.2022
4031 Clouds 28 1009 74 10000 5.66 160 18:54 31.01.2022
4032 Rain 28 1009 74 10000 5.66 160 18:20 31.01.2022
4033 Rain 27 1010 81 10000 4.63 130 17:25 31.01.2022
4034 Rain 28 1014 81 10000 4.12 130 16:25 31.01.2022
4035 Clouds 27 1010 76 10000 3.09 340 14:54 31.01.2022
4036 Rain 27 1010 80 10000 3.6 10 13:51 31.01.2022
4037 Rain 25 1009 88 10000 1.54 70 12:38 31.01.2022
4038 Clouds 25 1009 90 10000 2.06 320 11:42 31.01.2022
4039 Rain 24 1008 94 10000 2.57 360 10:50 31.01.2022
4040 Clouds 25 1008 94 10000 2.57 350 09:59 31.01.2022
4041 Clouds 24 1018 100 7000 1.54 110 08:59 31.01.2022
4042 Clouds 24 1018 100 7000 1.54 110 08:39 31.01.2022
4043 Clouds 24 1018 100 7000 1.54 110 08:20 31.01.2022
4044 Clouds 24 1019 100 7000 1.54 140 06:18 31.01.2022
4045 Rain 24 1011 94 4000 3.6 100 00:44 31.01.2022
4046 Clouds 26 1009 79 10000 4.63 160 22:40 30.01.2022
4047 Clouds 26 1009 79 10000 4.63 160 22:22 30.01.2022
4048 Clouds 26 1008 76 10000 6.69 160 21:38 30.01.2022
4049 Clouds 26 1008 77 10000 6.69 160 21:18 30.01.2022
4050 Clouds 26 1008 82 10000 6.69 160 20:45 30.01.2022
4051 Clouds 26 1008 82 10000 6.69 160 20:27 30.01.2022
4052 Clouds 27 1009 80 10000 5.14 160 19:45 30.01.2022
4053 Rain 28 1009 77 10000 5.66 160 18:43 30.01.2022
4054 Clouds 27 1009 82 10000 5.66 160 18:18 30.01.2022
4055 Rain 28 1010 73 10000 2.06 10 17:22 30.01.2022
4056 Clouds 28 1010 74 10000 3.6 30 16:40 30.01.2022
4057 Clouds 28 1010 74 10000 3.6 30 16:21 30.01.2022
4058 Clouds 27 1010 82 9000 2.06 20 15:50 30.01.2022
4059 Clouds 27 1010 82 9000 2.06 20 15:31 30.01.2022
4060 Clouds 26 1010 84 7000 1.54 240 14:46 30.01.2022
4061 Mist 25 1010 90 10000 2.06 330 12:47 30.01.2022
4062 Clouds 24 930 82 10000 2.57 320 11:58 30.01.2022
4063 Clouds 23 909 78 7000 2.06 330 10:36 30.01.2022
4064 Clouds 23 853 70 7000 1.54 160 09:51 30.01.2022
4065 Clouds 23 853 70 7000 1.54 110 08:55 30.01.2022
4066 Rain 23 853 70 7000 1.03 170 07:29 30.01.2022
4067 Rain 24 910 74 10000 1.54 70 01:56 30.01.2022
4068 Clouds 24 910 76 10000 4.12 40 00:34 30.01.2022
4069 Clouds 25 1008 88 10000 0 0 23:20 29.01.2022
4070 Clouds 25 1007 88 7000 1.54 140 21:58 29.01.2022
4071 Clouds 25 1007 88 7000 1.54 140 21:25 29.01.2022
4072 Thunderstorm 24 1007 92 7000 1.54 150 20:35 29.01.2022
4073 Rain 24 943 78 4000 2.57 130 19:35 29.01.2022
4074 Mist 26 1007 85 10000 8.23 160 18:58 29.01.2022
4075 Clouds 27 1007 83 10000 8.23 160 18:26 29.01.2022
4076 Clouds 27 1007 79 10000 7.72 150 17:35 29.01.2022
4077 Rain 28 1007 75 10000 6.17 160 16:38 29.01.2022
4078 Rain 28 1008 75 10000 3.09 360 14:24 29.01.2022
4079 Clouds 27 1008 81 10000 1.03 140 13:45 29.01.2022
4080 Clouds 27 1008 81 10000 1.03 140 13:24 29.01.2022
4081 Clouds 26 1008 89 10000 1.54 110 12:35 29.01.2022
4082 Rain 25 1008 90 10000 2.06 40 11:38 29.01.2022
4083 Rain 23 852 70 10000 2.57 260 09:49 29.01.2022
4084 Clouds 23 853 70 6000 1.54 0 06:55 29.01.2022
4085 Thunderstorm 24 909 73 10000 1.03 0 00:50 29.01.2022
4086 Thunderstorm 25 1008 85 10000 1.03 0 00:31 29.01.2022
4087 Clouds 26 1007 85 10000 3.09 180 22:52 28.01.2022
4088 Clouds 26 1007 85 10000 3.09 180 22:27 28.01.2022
4089 Clouds 26 1007 84 9000 3.6 120 21:52 28.01.2022
4090 Clouds 27 1007 82 9000 5.14 180 20:31 28.01.2022
4091 Thunderstorm 28 1006 78 10000 7.2 170 19:44 28.01.2022
4092 Clouds 30 1006 68 10000 7.72 160 18:48 28.01.2022
4093 Clouds 30 1007 69 10000 8.23 160 17:43 28.01.2022
4094 Clouds 30 1008 68 10000 6.17 170 15:45 28.01.2022
4095 Clouds 30 1008 67 10000 2.57 120 14:18 28.01.2022
4096 Clouds 28 1008 74 10000 3.09 140 12:33 28.01.2022
4097 Clouds 27 1008 78 10000 5.14 150 11:38 28.01.2022
4098 Clouds 26 1007 79 10000 5.14 150 10:22 28.01.2022
4099 Clear 28 1016 65 10000 3.6 240 09:45 28.01.2022
4100 Clear 27 1007 83 10000 2.06 270 07:40 28.01.2022
4101 Clear 28 1016 63 10000 1.54 320 05:24 28.01.2022
4102 Clear 28 1013 65 10000 1.03 0 03:47 28.01.2022
4103 Clear 28 1013 58 10000 2.57 160 02:23 28.01.2022
4104 Clear 29 1012 56 10000 1.54 160 01:34 28.01.2022
4105 Clear 31 1010 54 10000 5.14 170 23:46 27.01.2022
4106 Clouds 33 1008 48 10000 6.17 160 21:54 27.01.2022
4107 Clouds 33 1008 48 10000 6.17 160 21:32 27.01.2022
4108 Clouds 34 1009 44 10000 6.17 170 20:53 27.01.2022
4109 Clouds 35 1009 40 10000 6.69 160 19:35 27.01.2022
4110 Clear 37 1010 36 10000 5.66 310 17:56 27.01.2022
4111 Clear 35 1007 39 10000 7.2 330 15:31 27.01.2022
4112 Clear 33 1008 45 10000 6.17 330 13:39 27.01.2022
4113 Clear 32 1008 51 10000 5.66 310 12:46 27.01.2022
4114 Clear 29 1007 61 10000 6.17 320 10:57 27.01.2022
4115 Clear 28 1006 61 10000 6.17 20 09:20 27.01.2022
4116 Clear 29 1007 58 10000 7.2 350 08:38 27.01.2022
4117 Clear 29 1007 58 10000 3.09 20 07:22 27.01.2022
4118 Clear 29 1008 66 10000 2.06 340 02:59 27.01.2022
4119 Clouds 30 1006 62 10000 4.12 180 23:45 26.01.2022
4120 Clouds 32 1010 58 10000 4.63 190 22:26 26.01.2022
4121 Clouds 33 1010 51 10000 5.14 190 21:37 26.01.2022
4122 Clouds 33 1010 52 10000 5.14 180 20:41 26.01.2022
4123 Clouds 33 1010 52 10000 5.14 180 20:23 26.01.2022
4124 Clouds 34 1011 49 10000 4.12 160 19:27 26.01.2022
4125 Clouds 33 1011 51 10000 5.14 160 18:46 26.01.2022
4126 Clouds 33 1012 48 10000 5.14 160 17:51 26.01.2022
4127 Clouds 33 1012 49 10000 5.14 160 17:24 26.01.2022
4128 Clear 34 1014 40 10000 2.57 90 16:40 26.01.2022
4129 Clear 33 1014 48 10000 2.57 300 15:50 26.01.2022
4130 Clear 30 1011 58 10000 3.09 340 14:23 26.01.2022
4131 Clear 25 1011 81 10000 2.06 240 11:56 26.01.2022
4132 Clear 25 1011 85 10000 0 0 10:45 26.01.2022
4133 Clear 24 1011 88 10000 2.06 130 09:49 26.01.2022
4134 Clear 24 1011 88 10000 2.57 130 08:32 26.01.2022
4135 Clear 25 1011 83 10000 3.09 110 06:20 26.01.2022
4136 Clear 25 1011 83 10000 3.09 110 06:20 26.01.2022
4137 Clouds 28 1010 67 10000 5.14 100 00:18 26.01.2022
4138 Clouds 29 1010 62 10000 4.12 130 23:28 25.01.2022
4139 Clouds 30 1009 59 10000 2.57 160 22:48 25.01.2022
4140 Clouds 30 1009 59 10000 2.57 160 22:18 25.01.2022
4141 Clouds 32 1009 56 10000 4.12 140 21:22 25.01.2022
4142 Clouds 32 1009 52 10000 6.17 130 20:44 25.01.2022
4143 Clouds 33 1013 50 10000 4.63 150 19:53 25.01.2022
4144 Clouds 32 1013 52 10000 6.17 150 18:46 25.01.2022
4145 Clouds 32 1014 51 10000 5.14 160 17:45 25.01.2022
4146 Clouds 32 1014 51 10000 5.14 160 17:18 25.01.2022
4147 Clouds 32 1015 51 10000 4.63 160 16:34 25.01.2022
4148 Clouds 32 1015 51 10000 3.6 160 15:39 25.01.2022
4149 Clear 30 1012 58 10000 3.6 150 14:58 25.01.2022
4150 Clear 30 1012 58 10000 3.6 150 14:38 25.01.2022
4151 Clear 26 1011 76 10000 2.57 10 11:30 25.01.2022
4152 Clear 24 1010 88 10000 2.06 60 09:21 25.01.2022
4153 Clear 24 1010 88 10000 2.57 110 07:46 25.01.2022
4154 Clear 25 1011 83 10000 2.57 70 06:54 25.01.2022
4155 Clear 25 1011 83 10000 3.09 80 05:23 25.01.2022
4156 Clouds 28 1009 70 10000 0.51 0 00:28 25.01.2022
4157 Clouds 29 1009 61 10000 3.09 170 23:36 24.01.2022
4158 Clouds 29 1009 61 10000 3.09 170 23:18 24.01.2022
4159 Clouds 29 1009 61 10000 3.09 170 23:18 24.01.2022
4160 Clouds 30 1009 59 10000 5.14 190 22:42 24.01.2022
4161 Clouds 31 1013 58 10000 5.14 180 21:57 24.01.2022
4162 Clouds 31 1013 58 10000 5.14 180 21:32 24.01.2022
4163 Clouds 32 1013 54 10000 3.6 160 20:38 24.01.2022
4164 Clouds 32 1013 55 10000 3.6 160 20:20 24.01.2022
4165 Clouds 32 1014 56 10000 6.69 170 19:38 24.01.2022
4166 Clouds 32 1014 50 10000 5.66 150 18:47 24.01.2022
4167 Clouds 32 1014 53 10000 5.66 160 17:24 24.01.2022
4168 Clouds 32 1015 55 10000 6.17 160 16:58 24.01.2022
4169 Clouds 32 1015 55 10000 6.17 160 16:58 24.01.2022
4170 Clouds 32 1015 55 10000 6.17 160 16:58 24.01.2022
4171 Clouds 31 1015 54 10000 6.17 160 16:30 24.01.2022
4172 Clear 29 1011 62 10000 3.09 150 14:56 24.01.2022
4173 Clear 29 1011 66 10000 1.54 360 13:39 24.01.2022
4174 Clear 27 1011 70 10000 2.57 330 12:33 24.01.2022
4175 Clear 26 1012 77 10000 1.54 340 11:21 24.01.2022
4176 Clear 24 1011 85 10000 2.57 360 10:18 24.01.2022
4177 Clear 23 1011 88 10000 1.54 120 09:44 24.01.2022
4178 Clear 24 1011 83 10000 1.54 110 07:45 24.01.2022
4179 Clear 26 1011 79 10000 2.57 130 01:38 24.01.2022
4180 Clear 27 1010 70 10000 3.6 180 00:50 24.01.2022
4181 Clear 27 1010 70 10000 3.6 180 00:29 24.01.2022
4182 Clear 30 1009 59 10000 4.12 170 22:58 23.01.2022
4183 Clear 31 1013 57 10000 4.63 170 21:53 23.01.2022
4184 Clear 31 1013 57 10000 4.63 170 21:29 23.01.2022
4185 Clouds 32 1014 55 10000 5.66 150 20:57 23.01.2022
4186 Clouds 32 1014 55 10000 5.66 150 20:21 23.01.2022
4187 Clouds 31 1015 58 10000 6.69 160 18:53 23.01.2022
4188 Clouds 31 1015 57 10000 6.69 160 18:22 23.01.2022
4189 Clouds 31 1016 56 10000 4.63 150 16:56 23.01.2022
4190 Clear 30 1016 59 10000 2.57 150 15:56 23.01.2022
4191 Clear 29 1012 64 10000 2.06 350 14:50 23.01.2022
4192 Clear 29 1012 64 10000 2.06 350 14:18 23.01.2022
4193 Clear 27 1013 72 10000 1.54 360 12:45 23.01.2022
4194 Clear 27 1013 72 10000 1.54 360 12:19 23.01.2022
4195 Clouds 26 1012 80 10000 2.57 360 11:26 23.01.2022
4196 Clouds 24 1012 83 10000 1.54 20 10:57 23.01.2022
4197 Clouds 24 1012 83 10000 1.54 20 10:25 23.01.2022
4198 Clouds 24 1012 88 10000 1.54 100 09:31 23.01.2022
4199 Clouds 24 1011 88 10000 1.54 120 08:49 23.01.2022
4200 Clear 25 1013 86 10000 2.57 120 03:49 23.01.2022
4201 Clear 26 1012 82 10000 2.06 150 01:38 23.01.2022
4202 Clear 27 1011 74 10000 3.09 180 00:47 23.01.2022
4203 Clear 28 1011 68 10000 4.63 190 23:59 22.01.2022
4204 Clear 29 1011 62 10000 5.66 200 22:55 22.01.2022
4205 Clear 29 1011 62 10000 5.66 200 22:33 22.01.2022
4206 Clouds 30 1015 62 10000 7.72 180 20:46 22.01.2022
4207 Clouds 30 1015 60 10000 7.72 180 19:46 22.01.2022
4208 Clouds 31 1017 58 10000 6.69 150 18:41 22.01.2022
4209 Clouds 30 1017 65 10000 6.17 160 17:49 22.01.2022
4210 Clouds 30 1017 65 10000 6.17 160 17:31 22.01.2022
4211 Clouds 30 1017 63 10000 5.66 160 16:54 22.01.2022
4212 Clouds 31 1018 58 10000 3.6 20 15:45 22.01.2022
4213 Clouds 30 1018 65 10000 3.09 320 14:57 22.01.2022
4214 Clouds 28 1014 71 10000 2.57 340 13:36 22.01.2022
4215 Clouds 27 1014 75 10000 1.54 340 12:40 22.01.2022
4216 Clouds 27 1014 75 10000 1.54 340 12:22 22.01.2022
4217 Clouds 24 1013 88 10000 0 0 10:55 22.01.2022
4218 Clouds 24 1013 88 10000 0 0 10:27 22.01.2022
4219 Clear 24 1012 88 10000 3.09 100 09:46 22.01.2022
4220 Clear 24 1012 88 10000 2.57 140 08:51 22.01.2022
4221 Clear 25 1022 91 10000 4.12 100 07:28 22.01.2022
4222 Clear 25 1013 78 10000 6.17 110 04:50 22.01.2022
4223 Clouds 26 1013 76 10000 3.6 190 01:32 22.01.2022
4224 Clouds 27 1012 70 10000 6.69 200 23:30 21.01.2022
4225 Clouds 28 1015 69 10000 5.66 190 22:19 21.01.2022
4226 Clouds 28 1015 69 10000 5.66 190 22:19 21.01.2022
4227 Clouds 30 1017 66 10000 7.2 130 19:56 21.01.2022
4228 Clouds 29 1016 71 10000 6.69 160 18:23 21.01.2022
4229 Clouds 30 1018 71 10000 6.17 130 17:18 21.01.2022
4230 Clouds 30 1019 69 8000 5.66 130 15:27 21.01.2022
4231 Clouds 28 1014 75 10000 1.54 30 13:18 21.01.2022
4232 Clouds 28 1014 79 10000 3.6 10 12:28 21.01.2022
4233 Mist 26 1013 87 10000 0 0 11:27 21.01.2022
4234 Clouds 25 1013 88 6000 2.57 100 09:46 21.01.2022
4235 Clouds 25 1012 88 6000 3.09 60 08:23 21.01.2022
4236 Clear 26 1014 83 10000 3.09 60 04:49 21.01.2022
4237 Clouds 28 1017 75 10000 4.12 170 23:31 20.01.2022
4238 Clouds 28 1016 76 10000 5.14 160 22:21 20.01.2022
4239 Clouds 29 1016 71 10000 5.66 170 21:42 20.01.2022
4240 Clouds 30 1016 71 10000 6.69 170 20:40 20.01.2022
4241 Clouds 30 1016 66 10000 6.69 170 19:19 20.01.2022
4242 Clouds 30 1016 66 10000 6.69 170 19:19 20.01.2022
4243 Clouds 31 1017 65 10000 6.17 170 18:23 20.01.2022
4244 Clouds 31 1018 67 10000 5.66 160 16:58 20.01.2022
4245 Clouds 31 1019 63 10000 2.57 80 15:41 20.01.2022
4246 Clouds 30 1014 69 10000 5.14 160 15:19 20.01.2022
4247 Clear 29 1015 71 10000 1.54 40 13:41 20.01.2022
4248 Clear 27 1015 77 10000 2.06 350 12:34 20.01.2022
4249 Clouds 26 1015 83 10000 3.6 20 11:50 20.01.2022
4250 Clouds 26 1015 83 10000 3.6 20 11:50 20.01.2022
4251 Clear 24 1015 91 10000 0.51 30 10:40 20.01.2022
4252 Clouds 24 1015 88 10000 2.06 70 09:37 20.01.2022
4253 Clear 24 1014 88 10000 2.57 80 07:51 20.01.2022
4254 Clouds 25 1015 83 10000 1.54 90 05:32 20.01.2022
4255 Clouds 28 1019 70 10000 2.57 340 23:28 19.01.2022
4256 Clouds 29 1018 65 10000 3.09 320 22:24 19.01.2022
4257 Clouds 29 1018 69 10000 2.06 50 21:23 19.01.2022
4258 Clouds 29 1017 69 10000 5.14 170 20:49 19.01.2022
4259 Thunderstorm 30 1017 68 10000 7.2 180 19:54 19.01.2022
4260 Thunderstorm 31 1017 67 10000 6.69 170 18:40 19.01.2022
4261 Clouds 32 1018 66 10000 7.2 170 17:45 19.01.2022
4262 Clouds 32 1018 67 10000 6.17 160 16:48 19.01.2022
4263 Clouds 31 1015 69 10000 3.09 130 14:42 19.01.2022
4264 Clear 28 1015 80 10000 2.06 360 12:43 19.01.2022
4265 Clouds 27 1015 86 10000 1.54 20 11:42 19.01.2022
4266 Clouds 26 1015 92 10000 2.06 20 10:35 19.01.2022
4267 Clouds 26 1014 89 10000 3.09 100 09:34 19.01.2022
4268 Clouds 26 1014 89 10000 3.09 30 07:18 19.01.2022
4269 Clear 27 1013 89 10000 2.06 30 05:18 19.01.2022
4270 Clouds 30 1011 66 10000 7.72 190 23:20 18.01.2022
4271 Clouds 31 1010 61 10000 6.17 190 22:44 18.01.2022
4272 Clouds 32 1010 59 10000 6.17 190 21:20 18.01.2022
4273 Clouds 35 1014 52 10000 5.14 150 19:55 18.01.2022
4274 Clouds 35 1014 52 10000 5.14 150 19:55 18.01.2022
4275 Clouds 35 1015 52 10000 5.14 150 19:37 18.01.2022
4276 Clouds 35 1015 51 10000 5.14 160 18:57 18.01.2022
4277 Clouds 34 1015 52 10000 4.12 160 17:58 18.01.2022
4278 Clear 33 1016 55 10000 3.09 150 16:59 18.01.2022
4279 Clear 33 1017 60 10000 2.06 40 15:48 18.01.2022
4280 Clear 32 1013 63 10000 2.06 40 15:22 18.01.2022
4281 Clear 30 1014 66 10000 3.09 310 13:26 18.01.2022
4282 Clouds 26 1013 81 10000 1.54 50 10:48 18.01.2022
4283 Clear 26 1013 89 10000 1.03 90 09:39 18.01.2022
4284 Clear 25 1012 88 10000 1.03 50 07:58 18.01.2022
4285 Clear 25 1012 88 10000 1.03 50 07:21 18.01.2022
4286 Clear 30 1010 72 10000 3.09 120 00:21 18.01.2022
4287 Clouds 32 1009 63 10000 5.14 180 22:30 17.01.2022
4288 Clouds 32 1009 63 10000 5.14 160 21:36 17.01.2022
4289 Clouds 33 1013 61 10000 5.14 170 20:29 17.01.2022
4290 Clouds 33 1014 58 10000 4.63 160 18:31 17.01.2022
4291 Clouds 33 1016 55 10000 4.12 100 17:55 17.01.2022
4292 Clouds 32 1015 64 10000 3.6 150 16:53 17.01.2022
4293 Clear 30 1012 69 10000 2.06 100 15:24 17.01.2022
4294 Clear 29 1013 71 10000 1.54 0 14:57 17.01.2022
4295 Clear 28 1013 75 10000 2.57 330 13:42 17.01.2022
4296 Clear 27 1012 80 10000 3.09 340 12:57 17.01.2022
4297 Clouds 25 1012 85 10000 2.57 50 11:51 17.01.2022
4298 Clouds 24 1012 91 10000 3.09 30 10:43 17.01.2022
4299 Clouds 23 1013 94 10000 1.03 300 09:35 17.01.2022
4300 Clouds 23 1012 94 10000 1.03 260 08:18 17.01.2022
4301 Clouds 23 1012 94 10000 0 0 07:19 17.01.2022
4302 Thunderstorm 24 1013 87 7000 2.57 220 00:57 17.01.2022
4303 Thunderstorm 28 1011 72 10000 4.12 200 22:53 16.01.2022
4304 Clouds 31 1014 69 10000 5.14 170 20:41 16.01.2022
4305 Clouds 30 1015 70 10000 5.66 170 19:44 16.01.2022
4306 Clouds 31 1017 68 10000 3.6 130 18:42 16.01.2022
4307 Clouds 30 1016 72 10000 5.14 150 17:46 16.01.2022
4308 Clouds 29 1017 72 10000 4.12 150 16:50 16.01.2022
4309 Clouds 29 1014 69 10000 1.03 0 15:39 16.01.2022
4310 Clear 28 1014 75 10000 1.54 110 14:29 16.01.2022
4311 Clouds 28 1018 79 10000 1.54 40 12:57 16.01.2022
4312 Clouds 26 1014 87 10000 1.03 50 11:49 16.01.2022
4313 Clouds 25 1014 88 10000 0.51 0 11:27 16.01.2022
4314 Clouds 25 1014 88 10000 1.03 0 10:27 16.01.2022
4315 Clouds 25 1014 91 10000 0.51 0 09:57 16.01.2022
4316 Clouds 24 1014 94 10000 1.54 100 09:23 16.01.2022
4317 Clouds 24 1014 88 10000 1.54 110 08:52 16.01.2022
4318 Clouds 25 1015 83 10000 2.57 110 05:51 16.01.2022
4319 Clouds 26 1020 85 10000 3.6 190 00:18 16.01.2022
4320 Clouds 28 1014 75 10000 5.14 160 22:38 15.01.2022
4321 Clouds 29 1018 74 10000 4.63 180 21:21 15.01.2022
4322 Clouds 28 1019 78 10000 5.14 180 20:43 15.01.2022
4323 Rain 28 1019 82 10000 6.17 160 19:58 15.01.2022
4324 Rain 28 1019 83 10000 6.17 160 19:23 15.01.2022
4325 Rain 28 1020 77 10000 5.14 160 17:52 15.01.2022
4326 Rain 29 1022 77 10000 5.14 130 16:42 15.01.2022
4327 Rain 29 1018 73 10000 1.03 120 14:32 15.01.2022
4328 Rain 27 1017 82 10000 3.09 350 12:33 15.01.2022
4329 Clouds 26 1017 87 10000 3.09 30 11:19 15.01.2022
4330 Clouds 24 1017 94 10000 1.54 350 09:21 15.01.2022
4331 Clouds 27 1018 83 10000 5.66 170 01:25 15.01.2022
4332 Clouds 29 1021 78 10000 6.17 160 21:57 14.01.2022
4333 Clouds 30 1021 74 10000 6.69 160 20:51 14.01.2022
4334 Clouds 30 1021 74 10000 6.69 160 20:23 14.01.2022
4335 Clouds 31 1021 67 10000 6.17 170 19:48 14.01.2022
4336 Clouds 31 1023 67 10000 5.14 160 18:33 14.01.2022
4337 Clouds 30 1023 71 10000 4.63 150 16:51 14.01.2022
4338 Clouds 30 1023 71 10000 4.63 150 16:33 14.01.2022
4339 Clouds 29 1019 74 10000 5.14 160 14:49 14.01.2022
4340 Clouds 29 1019 75 10000 3.6 160 13:48 14.01.2022
4341 Clouds 28 1019 78 10000 3.09 170 12:34 14.01.2022
4342 Clouds 26 1018 88 10000 1.54 50 11:34 14.01.2022
4343 Clear 25 1017 94 10000 1.03 0 10:22 14.01.2022
4344 Clouds 25 1017 88 10000 3.09 160 08:52 14.01.2022
4345 Clouds 25 1017 88 10000 2.06 110 07:27 14.01.2022
4346 Clouds 26 1017 92 10000 3.6 160 01:43 14.01.2022
4347 Clouds 27 1022 85 10000 6.17 170 23:39 13.01.2022
4348 Clouds 27 1020 88 10000 6.69 160 21:45 13.01.2022
4349 Clouds 27 1020 88 10000 6.69 160 21:27 13.01.2022
4350 Clouds 28 1020 81 10000 6.17 160 19:44 13.01.2022
4351 Clouds 28 1020 81 10000 6.17 160 19:22 13.01.2022
4352 Clouds 29 1019 78 10000 6.17 160 18:33 13.01.2022
4353 Clouds 29 1020 74 10000 4.12 150 16:43 13.01.2022
4354 Clouds 29 1020 74 10000 3.6 140 15:38 13.01.2022
4355 Clouds 29 1020 76 10000 4.12 140 14:50 13.01.2022
4356 Clouds 27 1016 78 10000 3.09 130 13:22 13.01.2022
4357 Clouds 25 1014 94 6000 1.54 130 10:29 13.01.2022
4358 Clouds 24 1013 94 10000 2.06 250 09:22 13.01.2022
4359 Clouds 24 1013 94 10000 1.03 200 08:28 13.01.2022
4360 Rain 25 1014 88 10000 2.06 150 07:58 13.01.2022
4361 Rain 25 1014 88 10000 2.06 150 07:18 13.01.2022
4362 Clouds 25 1014 88 10000 1.03 140 05:20 13.01.2022
4363 Clouds 25 1020 91 10000 2.06 150 03:33 13.01.2022
4364 Clouds 26 1018 86 10000 4.12 170 00:57 13.01.2022
4365 Clouds 25 1017 87 10000 4.12 170 23:53 12.01.2022
4366 Clouds 25 1017 87 10000 4.12 170 23:33 12.01.2022
4367 Clouds 26 1016 84 10000 5.66 170 21:58 12.01.2022
4368 Clouds 26 1016 84 10000 5.66 170 21:39 12.01.2022
4369 Clouds 26 1016 86 10000 5.66 170 21:18 12.01.2022
4370 Clouds 27 1015 82 10000 6.69 160 20:41 12.01.2022
4371 Clouds 28 1015 79 10000 7.72 170 18:48 12.01.2022
4372 Clouds 28 1016 81 7000 7.72 170 17:53 12.01.2022
4373 Clouds 27 1016 85 7000 6.17 170 16:43 12.01.2022
4374 Clouds 27 1015 83 6000 6.69 180 14:49 12.01.2022
4375 Clouds 27 1011 82 6000 5.14 140 13:40 12.01.2022
4376 Clouds 26 1011 84 6000 2.06 130 12:57 12.01.2022
4377 Mist 24 1019 97 5000 2.06 310 09:26 12.01.2022
4378 Clouds 24 1019 97 8000 2.06 350 07:57 12.01.2022
4379 Clouds 25 1020 97 8000 2.06 350 07:33 12.01.2022
4380 Clouds 24 1017 98 8000 2.06 170 02:20 12.01.2022
4381 Rain 24 1014 96 4500 4.12 160 23:26 11.01.2022
4382 Thunderstorm 24 1013 98 4500 4.12 170 22:25 11.01.2022
4383 Rain 24 1013 96 4500 4.12 170 21:58 11.01.2022
4384 Mist 25 1013 90 3000 2.06 0 20:39 11.01.2022
4385 Rain 26 1012 85 10000 7.2 170 19:31 11.01.2022
4386 Clouds 27 1013 86 10000 6.17 160 17:54 11.01.2022
4387 Clouds 27 1016 87 8000 3.09 100 16:40 11.01.2022
4388 Clouds 27 1016 85 8000 3.09 100 16:18 11.01.2022
4389 Clouds 27 1016 85 8000 3.09 100 16:18 11.01.2022
4390 Clouds 25 1009 87 10000 3.09 170 14:53 11.01.2022
4391 Rain 25 1009 87 10000 3.09 170 14:34 11.01.2022
4392 Rain 25 1009 85 10000 2.57 140 13:52 11.01.2022
4393 Clouds 26 1013 88 10000 2.57 140 13:28 11.01.2022
4394 Mist 24 1009 91 10000 3.09 140 12:34 11.01.2022
4395 Mist 23 1014 96 10000 0.51 140 10:32 11.01.2022
4396 Mist 22 1007 100 5000 1.03 130 08:26 11.01.2022
4397 Rain 23 1010 94 4000 2.06 50 04:28 11.01.2022
4398 Rain 24 1015 94 9000 4.63 180 00:27 11.01.2022
4399 Drizzle 24 1014 93 8000 4.63 170 23:39 10.01.2022
4400 Clouds 24 1013 91 8000 5.14 180 22:42 10.01.2022
4401 Rain 24 1014 92 8000 5.14 180 22:18 10.01.2022
4402 Rain 24 1013 90 9000 5.14 170 21:42 10.01.2022
4403 Clouds 25 1014 90 9000 5.14 170 21:18 10.01.2022
4404 Clouds 25 1012 87 9000 5.66 180 20:55 10.01.2022
4405 Clouds 25 1012 87 9000 5.66 180 20:23 10.01.2022
4406 Clouds 25 1012 85 9000 5.14 180 19:39 10.01.2022
4407 Clouds 25 1013 87 9000 5.14 180 19:19 10.01.2022
4408 Rain 26 1012 80 10000 3.6 150 18:47 10.01.2022
4409 Clouds 25 1009 79 9000 2.06 110 16:51 10.01.2022
4410 Clouds 25 1009 79 9000 2.06 110 16:33 10.01.2022
4411 Clouds 24 1010 84 7000 2.06 360 14:58 10.01.2022
4412 Clouds 23 1014 91 7000 1.03 100 13:35 10.01.2022
4413 Rain 21 1010 97 7000 2.06 170 11:57 10.01.2022
4414 Mist 21 1010 97 7000 2.06 170 11:24 10.01.2022
4415 Mist 22 1020 97 4000 2.57 270 09:41 10.01.2022
4416 Rain 21 1011 94 7000 2.06 260 05:52 10.01.2022
4417 Rain 21 1011 94 7000 2.06 260 05:23 10.01.2022
4418 Rain 21 1019 93 9000 3.09 160 01:24 10.01.2022
4419 Rain 21 1012 90 9000 4.12 180 00:23 10.01.2022
4420 Rain 22 1017 93 8000 3.6 150 23:28 09.01.2022
4421 Rain 22 1016 94 10000 3.09 150 22:22 09.01.2022
4422 Rain 22 1012 88 7000 2.57 160 21:42 09.01.2022
4423 Rain 22 1012 88 7000 2.57 160 21:42 09.01.2022
4424 Rain 22 1011 88 7000 2.57 160 21:23 09.01.2022
4425 Rain 22 1011 88 7000 2.57 160 21:23 09.01.2022
4426 Rain 22 1012 92 6000 3.09 60 20:50 09.01.2022
4427 Rain 22 1012 92 6000 3.09 60 20:29 09.01.2022
4428 Rain 23 1012 87 6000 4.12 40 19:44 09.01.2022
4429 Rain 23 1012 87 6000 4.12 40 19:23 09.01.2022
4430 Clouds 24 1012 81 6000 3.09 100 18:49 09.01.2022
4431 Drizzle 25 1012 78 10000 4.12 140 18:30 09.01.2022
4432 Clouds 24 1013 82 10000 3.09 140 17:30 09.01.2022
4433 Drizzle 25 1013 83 10000 3.09 150 16:51 09.01.2022
4434 Clouds 24 1014 83 10000 1.54 360 15:56 09.01.2022
4435 Clouds 24 1014 83 10000 1.54 360 15:34 09.01.2022
4436 Clouds 24 1014 84 10000 1.03 0 14:40 09.01.2022
4437 Rain 24 1014 89 10000 0.51 0 13:50 09.01.2022
4438 Rain 23 1014 89 10000 1.03 0 12:48 09.01.2022
4439 Rain 23 1013 93 10000 2.06 170 11:48 09.01.2022
4440 Clouds 23 1019 96 10000 0 0 10:49 09.01.2022
4441 Rain 23 1022 97 7000 1.54 120 09:42 09.01.2022
4442 Clouds 23 1022 97 8000 2.57 120 08:31 09.01.2022
4443 Clouds 23 1020 96 7000 2.06 200 03:55 09.01.2022
4444 Mist 23 1019 96 4500 4.63 140 01:23 09.01.2022
4445 Clouds 23 1017 94 7000 5.66 140 23:39 08.01.2022
4446 Rain 23 1016 97 6000 5.66 150 22:59 08.01.2022
4447 Mist 23 1017 97 4500 5.14 150 22:19 08.01.2022
4448 Rain 23 1016 95 6000 6.17 140 21:25 08.01.2022
4449 Rain 23 1015 94 5000 6.69 160 20:41 08.01.2022
4450 Rain 23 1017 94 5000 6.69 160 20:19 08.01.2022
4451 Rain 24 1015 93 5000 4.63 150 18:34 08.01.2022
4452 Rain 24 1011 89 7000 4.63 160 17:22 08.01.2022
4453 Clouds 24 1011 89 6000 3.6 160 15:52 08.01.2022
4454 Rain 24 1011 90 6000 4.63 150 14:44 08.01.2022
4455 Rain 24 1015 96 6000 4.12 150 13:28 08.01.2022
4456 Rain 23 1011 96 6000 3.6 160 11:28 08.01.2022
4457 Rain 24 1010 94 5000 4.63 170 10:28 08.01.2022
4458 Rain 23 1010 94 5000 1.54 110 09:48 08.01.2022
4459 Rain 23 1009 88 9000 2.06 200 08:22 08.01.2022
4460 Clouds 24 1016 96 6000 3.09 160 03:31 08.01.2022
4461 Rain 24 1010 92 7000 5.14 180 00:42 08.01.2022
4462 Rain 24 1009 94 6000 5.14 190 22:49 07.01.2022
4463 Mist 24 1009 92 6000 7.2 200 21:21 07.01.2022
4464 Mist 25 1009 87 5000 5.14 190 20:20 07.01.2022
4465 Mist 25 1008 88 6000 5.14 200 19:25 07.01.2022
4466 Mist 25 1009 89 5000 5.66 210 18:45 07.01.2022
4467 Rain 25 1009 88 6000 5.66 310 17:28 07.01.2022
4468 Clouds 25 1009 92 6000 6.17 210 16:41 07.01.2022
4469 Mist 25 1009 93 4000 5.66 210 14:37 07.01.2022
4470 Mist 25 1009 94 1500 4.12 200 13:41 07.01.2022
4471 Mist 24 1008 95 4000 4.12 190 12:50 07.01.2022
4472 Mist 24 1007 94 5000 2.57 280 09:48 07.01.2022
4473 Rain 25 1007 94 9000 1.54 130 02:58 07.01.2022
4474 Clouds 25 1007 94 9000 1.54 130 02:19 07.01.2022
4475 Rain 25 1007 94 9000 1.54 120 01:41 07.01.2022
4476 Rain 25 1007 94 9000 1.54 120 01:20 07.01.2022
4477 Rain 25 1007 92 9000 2.57 70 00:28 07.01.2022
4478 Rain 27 1005 84 10000 7.2 210 21:40 06.01.2022
4479 Rain 28 1004 80 10000 7.2 170 20:36 06.01.2022
4480 Rain 30 1004 68 10000 4.63 150 19:54 06.01.2022
4481 Rain 30 1004 68 10000 4.63 150 19:28 06.01.2022
4482 Clouds 31 1004 64 10000 3.09 10 17:51 06.01.2022
4483 Clouds 31 1004 66 10000 3.09 10 17:19 06.01.2022
4484 Rain 30 1005 69 10000 4.12 350 16:22 06.01.2022
4485 Clouds 29 1005 74 10000 4.12 360 15:41 06.01.2022
4486 Clouds 29 1005 74 10000 4.12 360 15:20 06.01.2022
4487 Clouds 28 1005 79 9000 4.12 320 14:19 06.01.2022
4488 Rain 26 1005 91 8000 4.12 340 12:59 06.01.2022
4489 Rain 26 1005 93 8000 3.6 330 11:58 06.01.2022
4490 Rain 26 1005 93 8000 3.6 330 11:29 06.01.2022
4491 Rain 25 1004 94 9000 1.03 20 09:50 06.01.2022
4492 Clouds 25 1005 94 10000 1.54 120 05:55 06.01.2022
4493 Rain 27 1004 85 6000 4.12 260 23:56 05.01.2022
4494 Rain 27 1004 85 6000 4.12 260 23:22 05.01.2022
4495 Rain 28 1005 78 8000 7.2 310 22:42 05.01.2022
4496 Rain 28 1005 78 8000 7.2 310 22:18 05.01.2022
4497 Clouds 31 1003 55 10000 2.06 10 21:23 05.01.2022
4498 Clouds 32 1003 54 10000 2.57 40 20:30 05.01.2022
4499 Clouds 33 1003 51 10000 3.09 350 19:29 05.01.2022
4500 Clouds 33 1003 49 10000 3.09 310 18:21 05.01.2022
4501 Rain 31 1005 54 10000 7.2 330 16:56 05.01.2022
4502 Rain 31 1005 54 10000 7.2 330 16:18 05.01.2022
4503 Clouds 30 1005 55 10000 6.17 340 15:19 05.01.2022
4504 Rain 30 1005 57 10000 10.8 350 13:34 05.01.2022
4505 Rain 30 1005 56 10000 9.77 350 12:20 05.01.2022
4506 Rain 29 1004 54 8000 4.63 360 08:46 05.01.2022
4507 Clouds 28 1005 61 10000 4.63 340 06:46 05.01.2022
4508 Clouds 28 1006 76 10000 1.54 120 01:49 05.01.2022
4509 Clouds 30 1005 66 10000 2.57 140 23:44 04.01.2022
4510 Clouds 30 1005 66 10000 2.57 140 23:25 04.01.2022
4511 Clouds 32 1004 55 10000 4.12 20 21:50 04.01.2022
4512 Clouds 33 1004 50 10000 1.03 0 20:45 04.01.2022
4513 Clouds 32 1006 54 10000 1.54 100 18:41 04.01.2022
4514 Clouds 32 1007 56 10000 2.06 130 17:34 04.01.2022
4515 Clouds 31 1007 57 10000 2.06 150 16:39 04.01.2022
4516 Clouds 31 1007 57 10000 2.06 150 16:20 04.01.2022
4517 Clouds 30 1008 60 10000 2.57 90 14:42 04.01.2022
4518 Clouds 29 1008 65 10000 3.09 100 13:57 04.01.2022
4519 Clouds 29 1008 67 10000 0.51 140 12:36 04.01.2022
4520 Clouds 26 1007 83 10000 0.51 50 10:28 04.01.2022
4521 Clouds 26 1008 73 10000 3.6 90 08:59 04.01.2022
4522 Clouds 26 1008 73 10000 1.54 230 06:46 04.01.2022
4523 Rain 30 1008 63 10000 2.57 340 00:50 04.01.2022
4524 Rain 30 1008 63 10000 2.57 340 00:31 04.01.2022
4525 Clouds 30 1006 66 10000 3.09 360 22:30 03.01.2022
4526 Clouds 32 1006 55 10000 2.06 40 21:41 03.01.2022
4527 Clouds 33 1006 49 10000 3.09 360 20:42 03.01.2022
4528 Clouds 33 1006 49 10000 5.14 330 19:44 03.01.2022
4529 Clouds 34 1011 49 10000 4.12 330 18:32 03.01.2022
4530 Clouds 33 1008 53 10000 1.54 50 17:40 03.01.2022
4531 Clouds 31 1009 56 10000 2.06 20 16:56 03.01.2022
4532 Clouds 29 1010 73 10000 2.57 350 14:54 03.01.2022
4533 Clouds 28 1010 83 10000 2.06 340 13:25 03.01.2022
4534 Rain 28 1010 82 10000 1.54 350 12:33 03.01.2022
4535 Rain 26 1010 89 10000 1.03 0 11:31 03.01.2022
4536 Clouds 24 1009 94 9000 1.54 210 09:42 03.01.2022
4537 Clouds 25 1009 88 10000 1.54 230 08:28 03.01.2022
4538 Rain 25 1010 94 10000 2.57 250 06:31 03.01.2022
4539 Rain 28 1008 69 10000 2.57 190 23:45 02.01.2022
4540 Rain 28 1008 69 10000 2.57 190 23:18 02.01.2022
4541 Rain 28 1009 74 10000 4.12 190 22:42 02.01.2022
4542 Rain 28 1008 68 10000 3.6 180 21:32 02.01.2022
4543 Clouds 28 1008 72 10000 5.66 160 20:31 02.01.2022
4544 Rain 28 1008 72 10000 5.66 160 20:30 02.01.2022
4545 Rain 28 1008 72 10000 5.66 160 20:30 02.01.2022
4546 Clouds 28 1008 72 10000 5.66 160 20:30 02.01.2022
4547 Clouds 29 1008 70 10000 4.63 190 19:31 02.01.2022
4548 Clouds 29 1009 64 10000 2.06 150 18:56 02.01.2022
4549 Rain 31 1009 57 10000 2.06 310 17:58 02.01.2022
4550 Clouds 31 1009 57 10000 2.06 310 17:39 02.01.2022
4551 Rain 31 1009 57 10000 2.06 310 17:21 02.01.2022
4552 Clouds 30 1010 61 10000 1.54 20 16:28 02.01.2022
4553 Clouds 29 1011 67 10000 2.06 10 15:18 02.01.2022
4554 Rain 28 1011 72 10000 2.57 320 13:38 02.01.2022
4555 Rain 27 1011 73 10000 5.14 310 12:32 02.01.2022
4556 Rain 27 1010 75 10000 3.6 310 11:49 02.01.2022
4557 Rain 27 1009 76 10000 3.6 280 10:54 02.01.2022
4558 Rain 26 1009 83 10000 3.6 280 09:58 02.01.2022
4559 Rain 25 1008 88 10000 2.06 200 07:35 02.01.2022
4560 Clouds 26 1010 85 10000 1.54 170 02:56 02.01.2022
4561 Clouds 26 1008 85 10000 2.06 340 23:45 01.01.2022
4562 Clouds 26 1008 85 10000 2.06 340 23:24 01.01.2022
4563 Clouds 27 1007 75 10000 6.17 20 22:25 01.01.2022
4564 Clouds 29 1007 69 10000 5.14 60 21:54 01.01.2022
4565 Clouds 29 1007 69 10000 5.14 60 21:36 01.01.2022
4566 Clouds 29 1007 69 10000 3.09 60 20:27 01.01.2022
4567 Clouds 29 1007 71 10000 2.57 150 19:36 01.01.2022
4568 Clouds 28 1008 71 10000 4.63 150 18:51 01.01.2022
4569 Rain 29 1008 69 10000 1.54 140 17:41 01.01.2022
4570 Clouds 28 1009 78 10000 1.54 120 16:35 01.01.2022
4571 Clouds 28 1009 78 10000 1.54 310 15:42 01.01.2022
4572 Rain 27 1009 81 10000 1.03 0 14:39 01.01.2022
4573 Rain 26 1009 85 10000 0.51 70 13:42 01.01.2022
4574 Clouds 25 1009 89 10000 1.03 0 12:25 01.01.2022
4575 Rain 24 1008 91 10000 1.03 0 11:26 01.01.2022
4576 Rain 23 1007 94 10000 2.06 170 10:58 01.01.2022
4577 Rain 23 1007 94 8000 1.03 180 09:48 01.01.2022
4578 Rain 23 1007 94 8000 1.03 310 08:45 01.01.2022
4579 Rain 24 1017 97 8000 1.03 310 08:18 01.01.2022
4580 Rain 24 1017 97 9000 1.54 150 07:39 01.01.2022
4581 Rain 23 1007 94 10000 1.54 180 06:44 01.01.2022
4582 Rain 24 1007 88 10000 1.54 160 05:24 01.01.2022
4583 Rain 24 1007 88 9000 2.57 150 04:35 01.01.2022
4584 Rain 25 1007 88 10000 1.54 20 00:25 01.01.2022
4585 Rain 25 1007 90 10000 3.6 60 22:34 31.12.2021
4586 Rain 25 1006 88 10000 3.09 70 21:49 31.12.2021
4587 Rain 25 1012 84 10000 2.57 90 19:56 31.12.2021
4588 Rain 25 1007 81 10000 2.57 90 19:28 31.12.2021
4589 Rain 26 1007 82 10000 1.03 0 18:24 31.12.2021
4590 Clouds 25 1008 88 10000 2.06 170 17:37 31.12.2021
4591 Rain 25 1008 90 10000 2.06 170 17:18 31.12.2021
4592 Rain 25 1008 87 9000 2.57 170 16:19 31.12.2021
4593 Rain 25 1009 87 10000 1.03 0 15:51 31.12.2021
4594 Rain 25 1009 86 10000 1.03 0 15:28 31.12.2021
4595 Rain 25 1009 90 10000 1.54 220 14:41 31.12.2021
4596 Rain 24 1009 93 9000 0 0 13:58 31.12.2021
4597 Rain 24 1009 93 9000 0 0 13:35 31.12.2021
4598 Rain 24 1009 94 10000 1.03 10 12:44 31.12.2021
4599 Rain 24 1008 93 10000 2.06 30 11:43 31.12.2021
4600 Rain 24 1008 95 10000 2.06 30 11:20 31.12.2021
4601 Rain 24 1008 94 10000 2.57 30 10:30 31.12.2021
4602 Rain 23 1008 94 8000 1.03 80 09:35 31.12.2021
4603 Rain 23 1008 94 7000 1.03 80 08:56 31.12.2021
4604 Clouds 24 1018 97 7000 1.03 80 08:25 31.12.2021
4605 Rain 24 1018 97 7000 2.57 130 07:30 31.12.2021
4606 Mist 23 1016 96 5000 2.57 250 23:23 30.12.2021
4607 Rain 24 1014 97 8000 2.57 180 22:33 30.12.2021
4608 Rain 24 1009 94 7000 4.12 120 21:51 30.12.2021
4609 Rain 24 1014 95 7000 4.12 120 21:33 30.12.2021
4610 Rain 25 1014 93 4500 3.6 130 20:45 30.12.2021
4611 Mist 25 1014 93 4500 3.6 130 20:24 30.12.2021
4612 Rain 26 1009 87 10000 5.14 170 19:44 30.12.2021
4613 Rain 27 1014 84 10000 5.66 170 18:29 30.12.2021
4614 Rain 27 1016 78 9000 5.66 110 17:52 30.12.2021
4615 Rain 27 1011 73 10000 5.14 140 16:19 30.12.2021
4616 Rain 28 1012 69 10000 1.54 100 15:42 30.12.2021
4617 Clouds 27 1012 74 10000 1.03 340 14:38 30.12.2021
4618 Clouds 26 1013 80 10000 2.06 360 13:49 30.12.2021
4619 Rain 25 1013 87 10000 2.57 30 12:40 30.12.2021
4620 Clouds 24 1011 91 10000 1.54 360 10:58 30.12.2021
4621 Clouds 24 1011 94 10000 1.54 10 09:58 30.12.2021
4622 Clouds 24 1011 88 10000 1.03 330 08:56 30.12.2021
4623 Clouds 24 1012 88 10000 1.03 0 06:52 30.12.2021
4624 Rain 24 1013 88 10000 3.09 200 03:42 30.12.2021
4625 Rain 24 1020 92 10000 4.12 170 02:47 30.12.2021
4626 Clouds 26 1012 86 10000 4.63 160 23:43 29.12.2021
4627 Clouds 26 1019 90 10000 4.63 160 23:23 29.12.2021
4628 Clouds 26 1012 82 10000 4.63 170 22:22 29.12.2021
4629 Clouds 27 1016 82 10000 6.17 170 21:43 29.12.2021
4630 Rain 28 1016 77 10000 7.2 180 20:39 29.12.2021
4631 Thunderstorm 27 1016 78 10000 7.2 170 19:50 29.12.2021
4632 Thunderstorm 28 1016 72 10000 6.69 170 18:57 29.12.2021
4633 Clouds 29 1017 68 10000 5.66 160 17:57 29.12.2021
4634 Clouds 29 1017 68 10000 5.66 160 17:28 29.12.2021
4635 Clouds 29 1018 65 10000 4.12 150 16:44 29.12.2021
4636 Clouds 29 1020 66 10000 4.12 150 16:19 29.12.2021
4637 Clouds 28 1015 68 10000 2.57 120 14:40 29.12.2021
4638 Clouds 26 1015 75 10000 1.54 40 12:48 29.12.2021
4639 Clouds 26 1015 75 10000 1.54 40 12:20 29.12.2021
4640 Clear 24 1013 86 10000 3.09 100 10:36 29.12.2021
4641 Clear 24 1013 73 10000 1.03 190 08:24 29.12.2021
4642 Clear 24 1013 78 10000 0.51 240 06:48 29.12.2021
4643 Clear 24 1013 78 10000 0.51 240 06:27 29.12.2021
4644 Clear 25 1013 73 10000 1.54 230 05:43 29.12.2021
4645 Clear 25 1013 81 10000 2.06 140 03:20 29.12.2021
4646 Clouds 25 1013 78 10000 2.57 70 00:25 29.12.2021
4647 Clouds 26 1013 67 10000 3.6 200 23:49 28.12.2021
4648 Clouds 26 1012 65 10000 6.69 180 22:50 28.12.2021
4649 Clouds 26 1012 65 10000 6.69 180 22:24 28.12.2021
4650 Rain 27 1011 66 10000 6.69 160 21:54 28.12.2021
4651 Rain 28 1015 61 10000 6.69 160 20:54 28.12.2021
4652 Clouds 29 1014 55 10000 6.17 160 19:50 28.12.2021
4653 Clear 30 1015 54 10000 6.17 120 18:50 28.12.2021
4654 Clear 30 1015 55 10000 6.17 120 18:23 28.12.2021
4655 Clear 30 1016 56 10000 6.17 120 17:25 28.12.2021
4656 Clear 29 1015 62 10000 2.57 10 15:53 28.12.2021
4657 Clear 27 1011 68 10000 2.57 10 15:29 28.12.2021
4658 Clear 27 1011 69 10000 2.06 130 14:54 28.12.2021
4659 Clear 27 1011 69 10000 2.06 130 14:22 28.12.2021
4660 Clear 26 1012 74 10000 3.09 140 13:54 28.12.2021
4661 Clear 26 1012 74 10000 3.09 140 13:33 28.12.2021
4662 Clear 26 1011 76 10000 2.57 120 12:55 28.12.2021
4663 Clear 26 1011 76 10000 2.57 120 12:19 28.12.2021
4664 Clear 21 1010 94 10000 2.06 50 09:32 28.12.2021
4665 Clear 22 1009 94 10000 1.54 350 07:33 28.12.2021
4666 Clouds 23 1010 91 10000 2.57 20 03:34 28.12.2021
4667 Mist 23 1017 92 10000 5.14 20 23:39 27.12.2021
4668 Clouds 22 1010 91 6000 7.2 50 22:20 27.12.2021
4669 Thunderstorm 23 1016 87 4000 7.72 300 21:30 27.12.2021
4670 Rain 25 1015 78 9000 5.14 0 20:39 27.12.2021
4671 Thunderstorm 26 1014 67 9000 8.23 220 19:48 27.12.2021
4672 Thunderstorm 27 1014 66 10000 10.8 200 19:27 27.12.2021
4673 Clouds 30 1013 60 10000 9.26 190 17:51 27.12.2021
4674 Clouds 30 1013 60 10000 9.26 190 17:28 27.12.2021
4675 Clouds 30 1014 63 10000 8.23 190 16:23 27.12.2021
4676 Clear 29 1015 72 10000 6.17 160 15:44 27.12.2021
4677 Clear 30 1010 60 10000 6.17 170 14:24 27.12.2021
4678 Clear 26 1009 74 10000 1.54 120 12:56 27.12.2021
4679 Clear 23 1008 85 10000 2.57 10 10:56 27.12.2021
4680 Clear 23 1008 85 10000 2.57 10 10:27 27.12.2021
4681 Clear 22 1007 94 10000 1.54 60 09:19 27.12.2021
4682 Clear 22 1008 88 10000 2.06 80 07:34 27.12.2021
4683 Clear 22 1008 83 10000 2.06 110 06:29 27.12.2021
4684 Clouds 25 1009 71 10000 3.09 70 01:57 27.12.2021
4685 Clouds 25 1008 74 10000 5.14 180 23:50 26.12.2021
4686 Clouds 25 1008 74 10000 5.14 180 23:20 26.12.2021
4687 Clouds 28 1007 60 10000 7.2 180 21:41 26.12.2021
4688 Clouds 30 1008 54 10000 8.23 170 19:57 26.12.2021
4689 Clouds 30 1009 54 10000 7.72 170 18:53 26.12.2021
4690 Clouds 31 1009 48 10000 4.12 130 18:22 26.12.2021
4691 Clear 28 1011 58 10000 3.09 140 15:54 26.12.2021
4692 Clear 25 1012 65 10000 2.57 340 13:51 26.12.2021
4693 Clear 25 1012 65 10000 2.57 340 13:32 26.12.2021
4694 Clear 24 1012 71 10000 1.54 330 12:37 26.12.2021
4695 Clear 23 1012 78 10000 1.03 0 11:57 26.12.2021
4696 Clear 21 1011 88 10000 2.57 10 09:44 26.12.2021
4697 Clear 20 1010 88 10000 2.57 50 08:59 26.12.2021
4698 Clear 20 1010 88 10000 2.57 50 08:38 26.12.2021
4699 Clear 21 1011 83 10000 2.06 70 06:47 26.12.2021
4700 Clouds 23 1012 76 10000 3.6 130 00:45 26.12.2021
4701 Clouds 23 1012 76 10000 5.14 140 23:50 25.12.2021
4702 Clouds 23 1012 76 10000 5.14 140 23:26 25.12.2021
4703 Clouds 24 1012 70 10000 6.17 160 22:22 25.12.2021
4704 Clouds 26 1011 63 10000 6.69 160 20:48 25.12.2021
4705 Clouds 26 1011 60 10000 7.2 160 19:21 25.12.2021
4706 Clouds 26 1011 60 10000 6.69 160 18:54 25.12.2021
4707 Clouds 26 1012 55 10000 4.63 150 16:58 25.12.2021
4708 Clouds 26 1012 55 10000 4.63 150 16:18 25.12.2021
4709 Clouds 25 1013 61 10000 1.54 70 14:38 25.12.2021
4710 Clouds 24 1013 74 10000 3.09 20 12:48 25.12.2021
4711 Clouds 22 1013 83 10000 2.06 320 11:37 25.12.2021
4712 Clouds 20 1012 88 10000 3.09 330 09:49 25.12.2021
4713 Clouds 20 1011 88 10000 1.03 330 07:54 25.12.2021
4714 Clouds 23 1012 80 10000 3.6 140 02:22 25.12.2021
4715 Clouds 23 1011 71 10000 4.63 170 00:33 25.12.2021
4716 Clouds 24 1011 71 10000 4.12 160 23:38 24.12.2021
4717 Clouds 26 1009 66 10000 6.17 160 19:39 24.12.2021
4718 Clouds 26 1009 66 10000 6.17 160 19:39 24.12.2021
4719 Rain 26 1009 66 10000 6.17 160 19:21 24.12.2021
4720 Clouds 26 1010 64 10000 7.2 170 16:50 24.12.2021
4721 Clouds 26 1010 64 10000 7.2 170 16:21 24.12.2021
4722 Clouds 26 1010 65 10000 5.66 170 15:46 24.12.2021
4723 Clouds 26 1010 68 10000 5.14 160 14:46 24.12.2021
4724 Clouds 26 1010 68 10000 5.14 160 14:23 24.12.2021
4725 Clouds 24 1010 76 10000 1.54 50 13:37 24.12.2021
4726 Clouds 23 1010 86 10000 2.06 10 12:48 24.12.2021
4727 Clouds 21 1010 94 10000 4.63 320 11:58 24.12.2021
4728 Clouds 21 1010 94 10000 4.63 320 11:27 24.12.2021
4729 Clouds 21 1009 94 9000 4.12 320 10:53 24.12.2021
4730 Clouds 21 1009 94 7000 4.63 310 10:22 24.12.2021
4731 Clouds 22 1008 88 10000 2.06 310 08:25 24.12.2021
4732 Clouds 22 1009 88 10000 2.06 290 07:50 24.12.2021
4733 Clouds 24 1010 73 10000 3.09 220 02:52 24.12.2021
4734 Clouds 25 1009 67 10000 3.6 230 00:19 24.12.2021
4735 Clouds 24 1008 77 10000 2.06 160 23:23 23.12.2021
4736 Clouds 25 1008 71 10000 2.57 240 22:39 23.12.2021
4737 Clouds 25 1008 71 10000 2.57 240 22:20 23.12.2021
4738 Clouds 25 1008 69 10000 3.09 190 21:34 23.12.2021
4739 Clouds 24 1008 81 10000 2.06 150 20:21 23.12.2021
4740 Clouds 25 1009 73 10000 2.57 190 18:53 23.12.2021
4741 Clouds 25 1009 70 8000 4.12 190 17:57 23.12.2021
4742 Clouds 25 1010 72 7000 3.09 240 16:58 23.12.2021
4743 Clouds 25 1010 72 7000 3.09 240 16:26 23.12.2021
4744 Clouds 25 1009 77 7000 3.09 200 15:32 23.12.2021
4745 Clouds 24 1009 85 7000 2.57 220 14:55 23.12.2021
4746 Rain 24 1009 85 7000 2.57 220 14:37 23.12.2021
4747 Rain 24 1009 88 7000 5.14 210 13:22 23.12.2021
4748 Rain 23 1007 97 7000 2.57 340 10:54 23.12.2021
4749 Rain 23 1007 94 8000 2.57 310 09:49 23.12.2021
4750 Rain 23 1007 94 8000 2.57 310 09:26 23.12.2021
4751 Rain 22 1007 94 6000 2.06 320 08:25 23.12.2021
4752 Rain 23 1007 94 8000 4.63 330 04:36 23.12.2021
4753 Thunderstorm 28 1004 60 10000 6.17 190 23:43 22.12.2021
4754 Clouds 29 1007 61 10000 8.23 180 22:49 22.12.2021
4755 Clouds 29 1007 60 10000 7.2 180 21:57 22.12.2021
4756 Clouds 30 1007 59 10000 7.2 180 21:29 22.12.2021
4757 Clouds 30 1007 58 10000 6.69 170 20:52 22.12.2021
4758 Clouds 30 1007 58 10000 6.69 170 20:33 22.12.2021
4759 Clouds 31 1008 56 10000 7.72 170 19:37 22.12.2021
4760 Clouds 32 1009 53 10000 6.69 160 18:19 22.12.2021
4761 Clouds 33 1009 50 10000 4.12 160 17:37 22.12.2021
4762 Clear 32 1006 57 10000 3.6 20 15:49 22.12.2021
4763 Clear 29 1007 60 10000 3.09 360 13:46 22.12.2021
4764 Clear 28 1007 67 10000 3.09 360 12:47 22.12.2021
4765 Clear 26 1007 74 10000 2.57 350 11:37 22.12.2021
4766 Clear 22 1006 94 10000 1.54 100 09:43 22.12.2021
4767 Clear 23 1007 88 10000 1.03 120 07:56 22.12.2021
4768 Clear 24 1007 83 10000 2.06 100 05:51 22.12.2021
4769 Clear 24 1007 83 10000 2.06 100 05:33 22.12.2021
4770 Clear 24 1008 83 10000 2.57 110 04:55 22.12.2021
4771 Clear 24 1008 83 10000 2.57 110 04:35 22.12.2021
4772 Clear 24 1008 80 10000 1.54 340 03:37 22.12.2021
4773 Clear 24 1008 80 10000 1.54 340 03:18 22.12.2021
4774 Clouds 26 1007 71 10000 5.14 190 23:47 21.12.2021
4775 Clouds 28 1007 66 10000 5.66 190 22:36 21.12.2021
4776 Clouds 29 1011 62 10000 5.14 180 21:55 21.12.2021
4777 Clouds 29 1007 59 10000 5.14 180 21:31 21.12.2021
4778 Clouds 30 1011 60 10000 4.63 150 20:24 21.12.2021
4779 Clouds 30 1011 60 10000 6.69 160 19:55 21.12.2021
4780 Clouds 30 1011 59 10000 6.69 160 19:33 21.12.2021
4781 Clouds 30 1012 58 10000 5.14 160 18:23 21.12.2021
4782 Clouds 30 1013 59 10000 7.72 160 17:53 21.12.2021
4783 Clouds 30 1013 59 10000 7.72 160 17:29 21.12.2021
4784 Clouds 29 1014 59 10000 5.14 160 15:34 21.12.2021
4785 Clouds 27 1011 66 10000 5.14 160 14:20 21.12.2021
4786 Clear 26 1011 67 10000 3.09 160 13:41 21.12.2021
4787 Clouds 26 1011 70 10000 1.03 0 12:25 21.12.2021
4788 Clear 23 1010 85 10000 1.54 30 10:38 21.12.2021
4789 Clouds 22 1010 83 8000 3.09 70 09:50 21.12.2021
4790 Clouds 22 1010 83 8000 3.09 120 08:55 21.12.2021
4791 Clouds 22 1010 83 10000 3.09 80 07:43 21.12.2021
4792 Clouds 22 1010 83 10000 3.09 80 07:20 21.12.2021
4793 Clouds 24 1012 75 10000 2.57 100 03:26 21.12.2021
4794 Clouds 24 1012 71 10000 5.14 110 01:25 21.12.2021
4795 Clouds 24 1011 78 10000 4.12 130 23:54 20.12.2021
4796 Clouds 25 1010 72 10000 6.69 130 22:35 20.12.2021
4797 Clouds 26 1014 68 10000 5.66 150 21:52 20.12.2021
4798 Clouds 26 1014 67 10000 5.66 150 21:24 20.12.2021
4799 Clouds 27 1015 67 10000 7.2 160 20:54 20.12.2021
4800 Clouds 27 1015 69 10000 7.2 160 20:23 20.12.2021
4801 Clouds 27 1015 64 10000 6.17 150 19:38 20.12.2021
4802 Clouds 27 1016 66 10000 6.17 150 19:19 20.12.2021
4803 Clouds 28 1016 62 10000 5.66 150 18:32 20.12.2021
4804 Clouds 27 1017 62 10000 6.69 160 17:50 20.12.2021
4805 Clouds 27 1018 62 10000 6.69 160 16:47 20.12.2021
4806 Clouds 27 1018 61 10000 6.69 160 16:18 20.12.2021
4807 Clouds 27 1018 62 10000 5.14 160 15:40 20.12.2021
4808 Clouds 25 1015 70 10000 2.06 330 13:49 20.12.2021
4809 Clouds 24 1015 76 10000 2.57 330 12:30 20.12.2021
4810 Clouds 21 1014 91 10000 2.57 20 10:50 20.12.2021
4811 Clouds 20 1014 88 10000 1.54 160 09:40 20.12.2021
4812 Clouds 20 1015 88 10000 1.54 130 08:50 20.12.2021
4813 Clouds 21 1015 88 10000 1.54 130 08:32 20.12.2021
4814 Clouds 20 1015 88 10000 2.06 140 07:35 20.12.2021
4815 Clouds 22 1015 78 10000 2.06 110 06:39 20.12.2021
4816 Clouds 24 1015 69 10000 5.14 110 00:26 20.12.2021
4817 Clouds 25 1014 67 10000 5.14 100 22:58 19.12.2021
4818 Clouds 25 1014 67 10000 5.14 100 22:40 19.12.2021
4819 Clouds 26 1018 61 10000 5.66 160 21:32 19.12.2021
4820 Clouds 26 1018 61 10000 5.66 160 20:42 19.12.2021
4821 Clouds 26 1018 61 10000 5.66 160 20:23 19.12.2021
4822 Clouds 27 1018 60 10000 6.17 160 19:41 19.12.2021
4823 Clouds 27 1019 57 10000 6.17 160 18:46 19.12.2021
4824 Clouds 27 1020 58 10000 8.75 140 17:54 19.12.2021
4825 Clouds 26 1015 60 10000 5.66 160 17:35 19.12.2021
4826 Clouds 26 1015 64 10000 6.69 150 16:41 19.12.2021
4827 Clouds 26 1020 63 10000 6.17 150 15:56 19.12.2021
4828 Clouds 26 1016 63 10000 6.17 150 15:25 19.12.2021
4829 Clouds 26 1016 67 10000 4.63 140 14:45 19.12.2021
4830 Clouds 25 1016 73 10000 3.6 160 13:35 19.12.2021
4831 Clouds 24 1015 79 10000 3.6 100 12:59 19.12.2021
4832 Clouds 24 1015 79 10000 3.6 100 12:31 19.12.2021
4833 Clouds 23 1015 84 10000 1.54 130 11:38 19.12.2021
4834 Clouds 23 1014 85 10000 1.03 0 10:50 19.12.2021
4835 Clouds 23 1014 85 10000 1.03 0 10:22 19.12.2021
4836 Clouds 22 1014 88 10000 2.57 150 08:51 19.12.2021
4837 Clouds 23 1015 83 10000 2.57 110 06:51 19.12.2021
4838 Clouds 23 1015 86 10000 4.12 170 02:30 19.12.2021
4839 Clouds 24 1021 86 10000 3.6 110 00:55 19.12.2021
4840 Clouds 24 1020 84 10000 7.72 150 23:21 18.12.2021
4841 Clouds 25 1014 77 10000 4.63 140 22:28 18.12.2021
4842 Clouds 25 1014 71 10000 5.14 140 21:44 18.12.2021
4843 Clouds 25 1014 71 10000 5.14 140 21:26 18.12.2021
4844 Clouds 25 1013 73 10000 5.66 150 20:43 18.12.2021
4845 Clouds 26 1013 72 10000 6.69 160 19:40 18.12.2021
4846 Clouds 26 1018 75 10000 7.2 160 18:26 18.12.2021
4847 Clouds 26 1018 74 10000 7.2 160 17:49 18.12.2021
4848 Clouds 26 1019 74 10000 7.72 160 16:50 18.12.2021
4849 Clouds 26 1020 76 10000 7.72 160 16:21 18.12.2021
4850 Clouds 27 1019 73 10000 7.2 160 15:24 18.12.2021
4851 Mist 26 1015 73 10000 5.14 160 13:58 18.12.2021
4852 Clouds 25 1014 86 8000 4.12 160 11:59 18.12.2021
4853 Clouds 24 1013 85 10000 4.63 180 09:59 18.12.2021
4854 Clouds 23 1013 94 10000 1.03 0 09:32 18.12.2021
4855 Clouds 24 1012 83 10000 2.06 200 08:36 18.12.2021
4856 Clouds 25 1022 91 10000 2.57 200 07:41 18.12.2021
4857 Drizzle 25 1012 97 9000 2.06 170 01:46 18.12.2021
4858 Clouds 24 1010 97 8000 2.57 90 23:56 17.12.2021
4859 Clouds 25 1014 96 6000 1.03 0 22:51 17.12.2021
4860 Rain 25 1014 95 6000 3.6 30 21:49 17.12.2021
4861 Rain 25 1014 95 4500 4.12 360 20:44 17.12.2021
4862 Clouds 26 1014 88 6000 2.57 320 19:58 17.12.2021
4863 Mist 27 1014 91 5000 5.14 190 18:40 17.12.2021
4864 Mist 26 1014 92 5000 5.14 190 18:18 17.12.2021
4865 Clouds 30 1010 72 10000 2.57 120 16:57 17.12.2021
4866 Clouds 30 1010 72 10000 2.57 120 16:28 17.12.2021
4867 Clouds 29 1011 77 10000 4.63 130 15:51 17.12.2021
4868 Clouds 29 1011 77 10000 2.57 120 14:43 17.12.2021
4869 Clouds 28 1011 80 10000 1.54 30 13:56 17.12.2021
4870 Clouds 27 1010 87 10000 3.09 20 12:38 17.12.2021
4871 Clouds 25 1009 94 10000 4.12 360 10:49 17.12.2021
4872 Clouds 25 1009 94 10000 1.03 310 09:51 17.12.2021
4873 Clouds 25 1008 94 8000 1.54 300 08:43 17.12.2021
4874 Clouds 24 1008 94 8000 1.54 300 08:18 17.12.2021
4875 Clouds 25 1010 94 10000 1.54 290 04:58 17.12.2021
4876 Clouds 24 1010 94 10000 2.57 340 00:58 17.12.2021
4877 Rain 24 1008 91 6000 2.06 150 22:44 16.12.2021
4878 Rain 25 1013 91 4000 8.75 250 22:22 16.12.2021
4879 Rain 26 1008 84 4000 7.72 310 21:43 16.12.2021
4880 Clouds 29 1006 68 10000 6.69 160 20:48 16.12.2021
4881 Clouds 29 1010 69 10000 6.69 160 20:21 16.12.2021
4882 Clouds 31 1006 63 10000 5.14 150 19:30 16.12.2021
4883 Clouds 32 1007 61 10000 4.12 10 18:33 16.12.2021
4884 Clouds 32 1007 60 10000 3.09 20 17:47 16.12.2021
4885 Clouds 31 1007 64 10000 2.57 20 16:26 16.12.2021
4886 Clear 31 1008 66 10000 2.06 20 15:50 16.12.2021
4887 Clear 29 1008 74 10000 2.06 10 13:46 16.12.2021
4888 Clear 29 1008 75 10000 1.03 30 12:30 16.12.2021
4889 Clouds 27 1008 86 10000 1.03 0 11:19 16.12.2021
4890 Rain 26 1007 91 10000 2.57 20 10:41 16.12.2021
4891 Rain 25 1007 94 7000 1.54 360 09:43 16.12.2021
4892 Clouds 25 1007 94 10000 1.54 30 06:51 16.12.2021
4893 Clouds 25 1007 94 10000 1.54 30 06:18 16.12.2021
4894 Rain 27 1008 81 10000 3.6 30 23:59 15.12.2021
4895 Clouds 27 1008 81 10000 3.6 30 23:18 15.12.2021
4896 Clouds 27 1007 84 10000 4.63 30 22:21 15.12.2021
4897 Clouds 28 1007 76 10000 5.66 20 21:44 15.12.2021
4898 Rain 28 1007 81 10000 2.06 100 21:24 15.12.2021
4899 Clouds 31 1006 62 10000 7.72 340 19:54 15.12.2021
4900 Clouds 34 1006 51 10000 2.57 330 19:18 15.12.2021
4901 Rain 32 1007 62 10000 3.09 20 18:20 15.12.2021
4902 Rain 33 1007 56 10000 4.12 30 17:45 15.12.2021
4903 Rain 33 1007 58 10000 4.12 30 17:21 15.12.2021
4904 Clouds 33 1008 54 10000 4.12 10 15:49 15.12.2021
4905 Clouds 33 1008 54 10000 4.12 10 15:31 15.12.2021
4906 Clouds 32 1009 60 10000 2.57 70 14:59 15.12.2021
4907 Clouds 30 1009 70 10000 2.57 20 13:45 15.12.2021
4908 Clouds 27 1008 88 10000 2.06 340 11:52 15.12.2021
4909 Clouds 26 1008 91 10000 1.03 0 10:22 15.12.2021
4910 Clouds 25 1008 88 10000 2.57 230 08:26 15.12.2021
4911 Clouds 25 1009 94 10000 2.06 320 05:54 15.12.2021
4912 Clouds 26 1009 90 10000 2.06 20 00:39 15.12.2021
4913 Clouds 27 1009 86 10000 2.06 330 23:31 14.12.2021
4914 Rain 27 1008 87 7000 1.54 240 22:44 14.12.2021
4915 Rain 28 1007 81 5000 1.54 100 21:43 14.12.2021
4916 Clouds 29 1007 77 10000 7.2 180 20:23 14.12.2021
4917 Clouds 30 1007 71 10000 7.2 170 19:37 14.12.2021
4918 Clouds 31 1011 69 10000 6.69 160 18:39 14.12.2021
4919 Clouds 31 1012 70 10000 5.66 160 17:56 14.12.2021
4920 Clouds 30 1009 69 10000 6.17 160 16:49 14.12.2021
4921 Clouds 30 1009 69 10000 6.17 160 16:30 14.12.2021
4922 Clouds 30 1010 71 10000 3.6 160 14:32 14.12.2021
4923 Clouds 29 1010 77 8000 3.09 160 13:22 14.12.2021
4924 Clouds 26 1010 88 6000 1.03 130 11:51 14.12.2021
4925 Clouds 26 1010 88 6000 1.03 130 11:22 14.12.2021
4926 Clouds 25 1016 94 6000 1.54 130 09:55 14.12.2021
4927 Clouds 25 1019 94 10000 1.03 310 09:22 14.12.2021
4928 Clouds 25 1019 93 10000 1.03 300 08:22 14.12.2021
4929 Clouds 25 1011 88 10000 1.54 230 07:42 14.12.2021
4930 Clouds 26 1016 88 10000 4.63 170 00:35 14.12.2021
4931 Clouds 26 1010 85 10000 4.63 120 22:49 13.12.2021
4932 Clouds 27 1009 76 10000 5.66 160 21:51 13.12.2021
4933 Clouds 29 1008 72 10000 8.23 180 20:58 13.12.2021
4934 Clouds 29 1008 72 10000 8.23 180 20:31 13.12.2021
4935 Clouds 29 1008 74 10000 7.2 170 19:52 13.12.2021
4936 Rain 28 1013 78 10000 7.72 160 17:56 13.12.2021
4937 Rain 28 1013 80 10000 7.72 160 17:23 13.12.2021
4938 Rain 28 1013 80 10000 7.72 160 17:23 13.12.2021
4939 Clouds 29 1013 71 10000 6.69 150 15:49 13.12.2021
4940 Clouds 29 1013 70 10000 6.69 150 15:19 13.12.2021
4941 Clear 29 1009 70 10000 2.06 140 13:38 13.12.2021
4942 Clear 28 1009 78 10000 3.09 140 12:42 13.12.2021
4943 Clear 26 1009 84 10000 2.57 170 11:54 13.12.2021
4944 Clear 26 1009 84 10000 2.57 170 11:35 13.12.2021
4945 Clear 24 1008 94 10000 1.54 40 10:43 13.12.2021
4946 Clouds 25 1018 95 10000 1.03 0 08:52 13.12.2021
4947 Clouds 23 1007 94 10000 1.03 0 07:38 13.12.2021
4948 Clouds 25 1017 93 10000 1.03 0 05:34 13.12.2021
4949 Rain 25 1014 88 10000 4.63 20 00:43 13.12.2021
4950 Clouds 24 1008 88 9000 7.72 300 22:22 12.12.2021
4951 Mist 25 1011 81 8000 5.14 230 21:35 12.12.2021
4952 Rain 32 1008 60 10000 5.14 190 19:40 12.12.2021
4953 Clouds 33 1008 51 10000 3.6 160 18:35 12.12.2021
4954 Clear 34 1010 49 10000 1.54 70 17:26 12.12.2021
4955 Clear 33 1010 51 10000 1.54 320 16:27 12.12.2021
4956 Clear 32 1011 61 10000 2.57 10 15:41 12.12.2021
4957 Clear 31 1011 61 10000 2.57 10 15:22 12.12.2021
4958 Clouds 29 1007 69 10000 2.57 20 14:34 12.12.2021
4959 Clouds 26 1008 86 10000 2.57 360 13:22 12.12.2021
4960 Rain 25 1007 89 10000 4.12 20 12:27 12.12.2021
4961 Rain 25 1012 93 10000 1.54 20 11:44 12.12.2021
4962 Rain 24 1007 93 10000 1.54 20 11:20 12.12.2021
4963 Clouds 24 1007 89 10000 1.54 140 10:22 12.12.2021
4964 Clouds 24 1005 83 10000 1.03 270 08:58 12.12.2021
4965 Clouds 24 1006 83 10000 1.54 280 07:32 12.12.2021
4966 Clouds 25 1007 83 10000 1.54 300 05:57 12.12.2021
4967 Clouds 25 1007 78 10000 1.03 310 04:56 12.12.2021
4968 Clouds 25 1007 83 10000 1.54 200 03:27 12.12.2021
4969 Clouds 26 1012 82 10000 5.14 180 23:44 11.12.2021
4970 Clouds 26 1011 81 10000 8.23 170 22:22 11.12.2021
4971 Clouds 27 1010 76 10000 7.72 170 21:51 11.12.2021
4972 Clouds 27 1010 74 10000 8.75 170 20:51 11.12.2021
4973 Clouds 27 1010 71 10000 8.23 170 19:23 11.12.2021
4974 Clouds 28 1011 70 10000 9.26 160 18:52 11.12.2021
4975 Clouds 28 1007 66 10000 9.26 160 18:21 11.12.2021
4976 Clouds 29 1012 65 10000 7.2 160 17:21 11.12.2021
4977 Clear 28 1013 65 10000 5.14 160 15:54 11.12.2021
4978 Clear 28 1013 63 10000 5.14 160 15:28 11.12.2021
4979 Clear 24 1010 76 10000 2.57 360 12:57 11.12.2021
4980 Clouds 23 1010 83 10000 2.06 20 11:26 11.12.2021
4981 Clouds 22 1009 88 10000 1.54 360 09:46 11.12.2021
4982 Clouds 23 1019 89 10000 2.06 10 08:28 11.12.2021
4983 Clouds 23 1018 74 10000 3.6 120 02:29 11.12.2021
4984 Clouds 23 1016 76 10000 4.63 170 00:36 11.12.2021
4985 Clouds 23 1016 75 10000 5.14 180 23:23 10.12.2021
4986 Clouds 24 1010 69 10000 7.72 180 21:57 10.12.2021
4987 Clouds 24 1014 69 10000 7.72 180 21:31 10.12.2021
4988 Clouds 26 1014 65 10000 7.2 170 19:22 10.12.2021
4989 Clouds 26 1015 62 10000 6.69 170 18:21 10.12.2021
4990 Clouds 26 1016 63 10000 5.14 160 16:57 10.12.2021
4991 Clouds 26 1016 63 10000 5.14 160 16:29 10.12.2021
4992 Clouds 26 1016 64 10000 5.14 160 15:41 10.12.2021
4993 Clouds 26 1016 64 10000 5.14 160 15:21 10.12.2021
4994 Clouds 25 1013 68 10000 3.09 20 13:52 10.12.2021
4995 Clouds 25 1013 68 10000 3.09 20 13:26 10.12.2021
4996 Clouds 24 1013 71 10000 3.6 30 12:47 10.12.2021
4997 Clouds 22 1013 82 10000 3.6 10 11:30 10.12.2021
4998 Clouds 22 1012 83 10000 3.09 40 10:38 10.12.2021
4999 Clouds 21 1013 83 10000 2.57 230 09:19 10.12.2021
5000 Clouds 22 1013 78 10000 2.57 290 06:59 10.12.2021
5001 Clouds 23 1014 73 10000 3.09 190 02:51 10.12.2021
5002 Clouds 23 1014 71 10000 4.63 190 00:57 10.12.2021
5003 Clouds 23 1013 67 10000 4.63 200 23:38 09.12.2021
5004 Clouds 24 1012 68 10000 4.63 210 22:40 09.12.2021
5005 Clouds 24 1012 68 10000 4.63 210 22:19 09.12.2021
5006 Clouds 25 1012 63 10000 7.72 190 21:20 09.12.2021
5007 Clouds 25 1012 63 10000 8.23 190 20:34 09.12.2021
5008 Clouds 26 1013 62 10000 8.23 200 19:22 09.12.2021
5009 Clouds 26 1013 63 10000 8.23 200 18:53 09.12.2021
5010 Clouds 25 1013 65 10000 7.72 200 17:58 09.12.2021
5011 Clouds 25 1013 65 10000 7.72 200 17:28 09.12.2021
5012 Clouds 26 1018 65 10000 2.06 100 16:57 09.12.2021
5013 Clouds 26 1014 65 10000 2.06 100 16:20 09.12.2021
5014 Clouds 25 1018 69 10000 2.06 130 14:58 09.12.2021
5015 Clouds 24 1015 71 10000 3.6 350 13:52 09.12.2021
5016 Clouds 23 1015 74 10000 2.06 280 12:47 09.12.2021
5017 Clouds 22 1014 82 10000 3.09 310 11:29 09.12.2021
5018 Clouds 21 1013 88 10000 1.54 270 10:20 09.12.2021
5019 Clouds 20 1014 94 8000 1.54 230 06:53 09.12.2021
5020 Rain 22 1014 85 10000 3.09 280 03:50 09.12.2021
5021 Clouds 21 1014 88 10000 2.57 130 00:25 09.12.2021
5022 Clouds 21 1014 81 10000 1.54 150 23:36 08.12.2021
5023 Clouds 22 1014 82 10000 2.57 160 22:57 08.12.2021
5024 Rain 22 1017 83 10000 3.6 170 21:50 08.12.2021
5025 Clouds 22 1017 83 10000 3.6 170 21:32 08.12.2021
5026 Clouds 23 1017 83 10000 2.57 140 20:31 08.12.2021
5027 Clouds 22 1017 85 10000 4.12 160 19:55 08.12.2021
5028 Rain 22 1018 83 10000 5.66 180 18:57 08.12.2021
5029 Rain 22 1018 85 10000 5.66 180 18:22 08.12.2021
5030 Mist 22 1018 87 10000 7.2 180 16:49 08.12.2021
5031 Clouds 23 1014 83 10000 5.14 210 15:41 08.12.2021
5032 Clouds 23 1014 83 10000 5.14 210 15:22 08.12.2021
5033 Clouds 22 1013 90 8000 2.57 330 13:21 08.12.2021
5034 Rain 20 1013 97 9000 2.06 90 10:44 08.12.2021
5035 Rain 20 1013 94 6000 2.06 250 09:32 08.12.2021
5036 Rain 21 1012 94 10000 3.09 300 08:32 08.12.2021
5037 Rain 21 1012 94 8000 2.06 280 06:22 08.12.2021
5038 Rain 21 1020 96 5000 3.09 190 00:41 08.12.2021
5039 Rain 21 1019 96 6000 5.66 170 23:22 07.12.2021
5040 Rain 22 1013 91 9000 3.09 160 21:25 07.12.2021
5041 Rain 23 1017 89 8000 4.12 170 20:25 07.12.2021
5042 Rain 23 1018 91 9000 5.14 170 19:21 07.12.2021
5043 Rain 23 1016 90 4500 6.17 130 18:23 07.12.2021
5044 Clouds 26 1013 71 10000 4.63 160 17:27 07.12.2021
5045 Clouds 25 1013 77 10000 5.14 160 16:53 07.12.2021
5046 Rain 25 1017 78 10000 5.14 160 16:25 07.12.2021
5047 Rain 25 1018 81 10000 5.66 150 14:38 07.12.2021
5048 Clouds 24 1013 83 10000 1.54 140 13:41 07.12.2021
5049 Clouds 25 1019 83 10000 1.03 0 12:22 07.12.2021
5050 Clouds 24 1013 88 10000 3.6 180 11:19 07.12.2021
5051 Clouds 22 1012 88 9000 2.06 190 09:36 07.12.2021
5052 Rain 22 1012 88 10000 1.54 120 07:50 07.12.2021
5053 Rain 23 1012 88 10000 2.06 250 05:52 07.12.2021
5054 Rain 23 1012 88 10000 2.06 250 05:26 07.12.2021
5055 Clouds 25 1012 73 10000 4.63 210 23:36 06.12.2021
5056 Clouds 25 1012 74 10000 4.63 190 22:41 06.12.2021
5057 Clouds 26 1011 68 10000 3.09 190 21:59 06.12.2021
5058 Clouds 26 1011 68 10000 3.09 190 21:36 06.12.2021
5059 Clouds 26 1011 76 10000 5.66 220 20:33 06.12.2021
5060 Clouds 27 1015 72 10000 5.14 210 19:25 06.12.2021
5061 Clouds 27 1015 69 10000 7.2 200 18:55 06.12.2021
5062 Clouds 28 1016 71 10000 7.2 180 17:55 06.12.2021
5063 Clouds 28 1015 72 10000 7.2 180 17:34 06.12.2021
5064 Clouds 28 1019 66 10000 6.17 110 15:52 06.12.2021
5065 Rain 27 1012 69 8000 5.14 150 14:46 06.12.2021
5066 Clouds 26 1012 76 7000 4.12 20 13:36 06.12.2021
5067 Clouds 25 1013 84 7000 3.09 340 12:39 06.12.2021
5068 Clouds 23 1012 94 8000 1.03 0 10:29 06.12.2021
5069 Clouds 23 1011 88 10000 2.06 230 07:41 06.12.2021
5070 Thunderstorm 25 1012 85 10000 2.57 350 03:52 06.12.2021
5071 Clouds 26 1011 72 10000 7.72 190 22:28 05.12.2021
5072 Clouds 27 1011 67 10000 5.66 170 21:26 05.12.2021
5073 Clouds 28 1011 63 10000 5.66 160 20:58 05.12.2021
5074 Clouds 28 1016 67 10000 5.66 160 20:18 05.12.2021
5075 Clouds 28 1018 70 10000 7.72 160 19:26 05.12.2021
5076 Clouds 28 1017 65 10000 7.2 160 18:39 05.12.2021
5077 Clouds 28 1019 70 10000 7.2 160 18:18 05.12.2021
5078 Clouds 28 1018 64 10000 7.2 160 17:45 05.12.2021
5079 Clouds 29 1019 61 10000 5.66 150 16:41 05.12.2021
5080 Clouds 29 1019 61 10000 5.66 150 16:22 05.12.2021
5081 Clouds 27 1016 63 10000 2.57 140 14:48 05.12.2021
5082 Clouds 27 1016 63 10000 2.57 140 14:30 05.12.2021
5083 Clear 26 1016 69 10000 3.09 150 13:38 05.12.2021
5084 Clear 26 1016 67 10000 1.03 110 12:47 05.12.2021
5085 Clear 26 1016 67 10000 1.03 110 12:29 05.12.2021
5086 Clear 24 1017 76 10000 1.03 100 11:49 05.12.2021
5087 Clouds 23 1016 83 10000 2.06 160 10:51 05.12.2021
5088 Clouds 22 1016 83 10000 1.03 120 09:52 05.12.2021
5089 Clouds 24 1025 82 10000 1.03 0 07:33 05.12.2021
5090 Clouds 24 1024 78 10000 3.09 130 02:25 05.12.2021
5091 Clouds 24 1021 72 10000 4.12 140 23:28 04.12.2021
5092 Clouds 25 1020 70 10000 5.14 160 21:54 04.12.2021
5093 Clouds 25 1020 72 10000 5.66 170 20:50 04.12.2021
5094 Clouds 25 1020 69 10000 5.66 160 19:54 04.12.2021
5095 Clouds 25 1020 69 10000 5.66 160 19:31 04.12.2021
5096 Clouds 26 1021 67 10000 6.17 160 17:59 04.12.2021
5097 Clouds 26 1021 67 10000 6.17 160 17:38 04.12.2021
5098 Clouds 26 1021 66 10000 5.66 160 16:48 04.12.2021
5099 Clouds 26 1021 66 10000 5.66 160 16:48 04.12.2021
5100 Clouds 26 1021 66 10000 5.66 160 16:30 04.12.2021
5101 Clouds 26 1021 62 10000 5.66 160 15:18 04.12.2021
5102 Clouds 23 1017 80 10000 1.54 110 11:50 04.12.2021
5103 Clouds 23 1017 80 10000 1.54 110 11:32 04.12.2021
5104 Clouds 22 1016 91 10000 2.06 110 10:43 04.12.2021
5105 Clouds 22 1015 83 10000 3.09 90 08:46 04.12.2021
5106 Clouds 23 1015 83 10000 2.57 100 06:24 04.12.2021
5107 Clouds 23 1016 83 10000 3.09 80 04:41 04.12.2021
5108 Clouds 24 1020 79 10000 4.12 160 00:18 04.12.2021
5109 Clouds 24 1019 78 10000 4.12 150 23:20 03.12.2021
5110 Clouds 24 1018 76 10000 5.66 140 22:41 03.12.2021
5111 Clouds 24 1017 76 10000 4.63 150 21:25 03.12.2021
5112 Clouds 24 1017 72 10000 5.66 160 20:48 03.12.2021
5113 Clouds 25 1017 69 10000 6.17 160 19:50 03.12.2021
5114 Clouds 26 1017 66 10000 6.17 160 18:34 03.12.2021
5115 Clouds 26 1018 64 10000 6.17 160 17:59 03.12.2021
5116 Clouds 26 1019 66 10000 4.12 160 15:47 03.12.2021
5117 Clouds 23 1014 74 10000 4.12 160 12:54 03.12.2021
5118 Clouds 23 1018 80 10000 2.57 160 11:49 03.12.2021
5119 Clouds 22 1012 81 10000 2.06 180 10:55 03.12.2021
5120 Clouds 23 1021 86 10000 3.6 120 08:26 03.12.2021
5121 Clouds 23 1021 84 10000 4.63 120 07:43 03.12.2021
5122 Clouds 23 1022 84 10000 3.09 120 04:35 03.12.2021
5123 Clouds 24 1017 83 10000 4.12 160 00:48 03.12.2021
5124 Clouds 24 1017 80 10000 6.69 170 23:47 02.12.2021
5125 Clouds 24 1015 80 10000 8.23 160 22:24 02.12.2021
5126 Clouds 25 1015 80 10000 8.23 160 21:35 02.12.2021
5127 Clouds 26 1014 77 10000 7.2 160 20:40 02.12.2021
5128 Clouds 26 1014 77 10000 7.2 160 20:20 02.12.2021
5129 Clouds 27 1015 73 10000 7.2 160 18:35 02.12.2021
5130 Clouds 27 1016 69 10000 6.17 150 16:33 02.12.2021
5131 Clouds 27 1017 65 10000 6.17 170 15:30 02.12.2021
5132 Clouds 27 1017 64 10000 5.66 150 14:51 02.12.2021
5133 Clouds 26 1013 70 10000 3.6 140 13:26 02.12.2021
5134 Clouds 26 1012 72 10000 3.6 120 12:23 02.12.2021
5135 Clouds 23 1011 85 10000 3.6 190 10:42 02.12.2021
5136 Clouds 23 1010 83 10000 1.54 140 09:25 02.12.2021
5137 Clouds 24 1011 73 10000 3.09 130 06:59 02.12.2021
5138 Clouds 24 1016 91 9000 4.12 130 00:59 02.12.2021
5139 Clouds 25 1015 90 10000 6.17 160 23:34 01.12.2021
5140 Clouds 25 1014 90 10000 5.66 160 22:25 01.12.2021
5141 Clouds 26 1013 87 10000 5.14 170 21:43 01.12.2021
5142 Clouds 26 1013 86 8000 5.14 170 20:23 01.12.2021
5143 Clouds 27 1014 84 10000 8.75 170 19:40 01.12.2021
5144 Clouds 28 1012 72 10000 8.75 190 18:42 01.12.2021
5145 Clouds 29 1013 72 10000 7.72 190 16:59 01.12.2021
5146 Clouds 29 1015 73 10000 5.14 140 15:47 01.12.2021
5147 Clouds 27 1009 75 8000 3.6 140 14:30 01.12.2021
5148 Clouds 27 1009 80 8000 3.6 140 13:37 01.12.2021
5149 Mist 24 1007 94 10000 4.63 150 10:44 01.12.2021
5150 Mist 24 1007 94 10000 4.63 150 10:22 01.12.2021
5151 Mist 24 1006 100 4000 2.06 250 08:52 01.12.2021
5152 Mist 24 1005 94 4000 3.09 350 07:58 01.12.2021
5153 Mist 24 1005 94 4000 3.09 350 07:27 01.12.2021
5154 Rain 25 1007 91 8000 0.51 0 03:55 01.12.2021
5155 Rain 25 1013 94 8000 0.51 0 03:20 01.12.2021
5156 Rain 25 1011 97 8000 1.54 70 00:34 01.12.2021
5157 Rain 25 1011 94 8000 0.51 0 23:29 30.11.2021
5158 Rain 25 1011 94 8000 0.51 0 23:29 30.11.2021
5159 Rain 25 1010 93 10000 2.57 330 22:32 30.11.2021
5160 Rain 25 1005 92 10000 3.6 180 20:47 30.11.2021
5161 Rain 25 1010 93 10000 3.6 180 20:25 30.11.2021
5162 Rain 26 1011 87 7000 5.66 120 19:39 30.11.2021
5163 Rain 27 1006 80 10000 5.66 160 18:54 30.11.2021
5164 Clouds 27 1010 78 10000 7.2 160 17:46 30.11.2021
5165 Rain 28 1010 67 10000 9.26 190 16:19 30.11.2021
5166 Rain 30 1009 59 10000 4.63 260 14:35 30.11.2021
5167 Rain 29 1005 61 10000 4.12 260 13:41 30.11.2021
5168 Rain 28 1005 71 10000 3.09 140 12:54 30.11.2021
5169 Rain 27 1005 73 10000 3.09 140 12:21 30.11.2021
5170 Rain 27 1005 79 10000 1.54 120 11:26 30.11.2021
5171 Rain 27 1003 83 10000 1.03 0 10:36 30.11.2021
5172 Clouds 25 1002 88 8000 1.03 220 08:58 30.11.2021
5173 Rain 26 1012 89 8000 1.03 220 08:32 30.11.2021
5174 Clouds 26 1011 88 8000 2.06 90 07:59 30.11.2021
5175 Clear 25 1002 88 10000 1.54 100 06:39 30.11.2021
5176 Clear 27 1003 72 10000 1.03 0 01:51 30.11.2021
5177 Clear 27 1003 72 10000 1.03 0 01:28 30.11.2021
5178 Clear 28 1002 66 10000 2.57 160 23:51 29.11.2021
5179 Clear 28 1002 66 10000 2.57 160 23:20 29.11.2021
5180 Clear 30 1001 61 10000 4.63 190 22:42 29.11.2021
5181 Clear 30 1001 65 10000 4.63 190 22:23 29.11.2021
5182 Clear 30 1006 63 10000 6.69 190 21:21 29.11.2021
5183 Clear 32 1005 56 10000 7.2 180 20:54 29.11.2021
5184 Clear 31 1005 56 10000 7.2 180 20:21 29.11.2021
5185 Clear 32 1006 55 10000 6.17 180 19:43 29.11.2021
5186 Clear 32 1006 54 10000 6.17 180 19:25 29.11.2021
5187 Clouds 30 1003 58 10000 4.14 108 18:45 29.11.2021
5188 Clouds 31 1004 54 10000 3.69 121 17:22 29.11.2021
5189 Clouds 31 1004 54 10000 3.69 121 16:54 29.11.2021
5190 Clouds 31 1005 54 10000 2.99 122 16:25 29.11.2021
5191 Clouds 30 1006 56 10000 2.33 113 14:52 29.11.2021
5192 Clouds 29 1006 58 10000 1.26 104 14:29 29.11.2021
5193 Clouds 28 1006 63 10000 0.79 64 13:23 29.11.2021
5194 Clouds 26 1006 71 10000 1.53 26 12:20 29.11.2021
5195 Clouds 26 1006 71 10000 1.53 26 11:31 29.11.2021
5196 Clouds 23 1006 87 10000 1.68 5 10:27 29.11.2021
5197 Clear 22 1008 88 10000 2.06 90 07:48 29.11.2021
5198 Clear 23 1008 88 10000 1.03 130 05:54 29.11.2021
5199 Clouds 23 1008 83 10000 3.6 170 01:31 29.11.2021
5200 Clouds 25 1009 77 10000 5.14 180 00:35 29.11.2021
5201 Clouds 24 1007 77 10000 4.63 170 23:41 28.11.2021
5202 Clouds 25 1006 77 10000 5.14 160 22:29 28.11.2021
5203 Clouds 25 1006 73 10000 5.14 160 21:41 28.11.2021
5204 Clouds 25 1006 77 10000 5.66 160 20:44 28.11.2021
5205 Clouds 26 1006 73 10000 7.2 160 19:54 28.11.2021
5206 Clouds 27 1005 68 10000 5.66 160 18:42 28.11.2021
5207 Clouds 27 1005 68 10000 5.66 160 18:23 28.11.2021
5208 Clouds 28 1006 67 10000 6.17 160 17:46 28.11.2021
5209 Clouds 28 1006 67 10000 6.17 160 17:27 28.11.2021
5210 Clouds 27 1006 68 10000 4.12 150 16:28 28.11.2021
5211 Clouds 26 1007 74 10000 2.06 50 15:52 28.11.2021
5212 Clouds 25 1006 77 10000 2.57 10 14:56 28.11.2021
5213 Clouds 25 1006 77 10000 2.57 10 14:30 28.11.2021
5214 Clouds 23 1007 89 10000 2.57 340 12:55 28.11.2021
5215 Clouds 22 1007 92 10000 3.09 350 11:56 28.11.2021
5216 Clouds 22 1006 91 10000 3.6 30 10:37 28.11.2021
5217 Clouds 22 1006 91 10000 3.6 30 10:19 28.11.2021
5218 Clouds 21 1007 94 7000 7.2 110 09:36 28.11.2021
5219 Clouds 24 1005 88 10000 3.09 100 05:50 28.11.2021
5220 Clouds 26 1004 68 10000 3.09 200 23:23 27.11.2021
5221 Clouds 28 1003 63 10000 6.69 170 20:33 27.11.2021
5222 Clouds 29 1002 58 10000 9.26 160 18:47 27.11.2021
5223 Clouds 33 1003 46 10000 5.66 170 16:31 27.11.2021
5224 Clouds 33 1004 46 10000 4.63 30 15:32 27.11.2021
5225 Clouds 32 1004 48 10000 4.63 340 13:46 27.11.2021
5226 Clouds 30 1004 55 10000 4.12 350 12:29 27.11.2021
5227 Clear 24 1003 88 10000 5.14 350 10:32 27.11.2021
5228 Clouds 22 1003 88 10000 1.54 130 09:43 27.11.2021
5229 Clouds 23 1002 88 10000 2.06 110 07:44 27.11.2021
5230 Clouds 24 1004 88 9000 2.06 30 04:57 27.11.2021
5231 Rain 24 1007 82 10000 2.57 140 00:55 27.11.2021
5232 Rain 26 1006 71 10000 5.14 160 23:35 26.11.2021
5233 Rain 28 1005 61 10000 3.6 210 22:25 26.11.2021
5234 Rain 29 1005 55 10000 4.63 290 21:35 26.11.2021
5235 Rain 31 1005 49 10000 5.14 290 20:46 26.11.2021
5236 Rain 31 1005 49 10000 5.14 290 20:18 26.11.2021
5237 Rain 31 1005 51 10000 3.09 300 19:47 26.11.2021
5238 Clouds 30 1005 54 10000 3.6 160 18:33 26.11.2021
5239 Rain 30 1006 55 10000 5.14 150 17:23 26.11.2021
5240 Clear 31 1009 53 10000 4.12 30 15:57 26.11.2021
5241 Clear 28 1011 63 10000 2.57 330 13:36 26.11.2021
5242 Clear 25 1008 74 10000 3.09 340 12:34 26.11.2021
5243 Clear 22 1008 85 10000 3.09 310 10:38 26.11.2021
5244 Clear 22 1019 90 10000 3.09 130 08:59 26.11.2021
5245 Clear 22 1019 90 10000 3.09 130 08:21 26.11.2021
5246 Clear 23 1019 88 10000 3.6 90 07:29 26.11.2021
5247 Clear 23 1019 87 10000 4.12 110 06:27 26.11.2021
5248 Clear 23 1021 87 10000 4.12 120 04:51 26.11.2021
5249 Clear 23 1018 81 10000 3.09 70 03:25 26.11.2021
5250 Clear 25 1016 76 10000 5.66 190 23:27 25.11.2021
5251 Clouds 27 1015 67 10000 4.12 180 21:50 25.11.2021
5252 Clouds 28 1015 65 10000 4.63 160 20:37 25.11.2021
5253 Clouds 28 1016 67 10000 6.69 160 18:48 25.11.2021
5254 Clouds 28 1017 68 10000 7.72 160 17:48 25.11.2021
5255 Clouds 28 1017 68 10000 7.72 160 17:26 25.11.2021
5256 Clouds 28 1019 65 10000 4.12 140 16:34 25.11.2021
5257 Clouds 28 1020 65 10000 4.12 30 15:49 25.11.2021
5258 Clouds 28 1021 63 10000 4.12 40 14:19 25.11.2021
5259 Clouds 24 1017 85 10000 2.06 140 12:47 25.11.2021
5260 Clouds 24 1020 88 10000 1.03 150 11:52 25.11.2021
5261 Clouds 22 1021 96 10000 2.06 170 09:56 25.11.2021
5262 Clear 23 1025 92 10000 3.09 80 06:24 25.11.2021
5263 Clear 23 1022 85 10000 3.09 170 02:53 25.11.2021
5264 Clear 24 1020 77 10000 5.66 180 23:39 24.11.2021
5265 Clouds 25 1019 75 10000 6.17 180 22:28 24.11.2021
5266 Clouds 26 1018 67 10000 6.17 180 21:44 24.11.2021
5267 Clouds 27 1014 59 10000 6.69 180 20:58 24.11.2021
5268 Clouds 28 1018 58 10000 6.69 180 20:26 24.11.2021
5269 Clouds 28 1019 59 10000 6.69 180 18:37 24.11.2021
5270 Clouds 28 1019 59 10000 6.69 180 18:18 24.11.2021
5271 Clouds 27 1016 61 10000 2.57 0 16:20 24.11.2021
5272 Clouds 26 1016 68 10000 3.09 100 14:56 24.11.2021
5273 Clouds 26 1016 68 10000 3.09 100 14:21 24.11.2021
5274 Clouds 25 1016 71 10000 2.06 60 12:51 24.11.2021
5275 Clouds 24 1016 74 10000 2.06 360 11:22 24.11.2021
5276 Clear 23 1015 68 10000 1.03 0 10:50 24.11.2021
5277 Clear 23 1015 68 10000 1.03 0 10:27 24.11.2021
5278 Clear 21 1011 78 10000 3.09 140 07:59 24.11.2021
5279 Clear 21 1011 78 10000 3.09 140 07:31 24.11.2021
5280 Clear 23 1011 73 10000 2.06 20 03:59 24.11.2021
5281 Clear 24 1011 69 10000 1.03 200 01:36 24.11.2021
5282 Clear 25 1016 58 10000 4.12 170 23:33 23.11.2021
5283 Clear 25 1014 61 10000 5.66 170 22:37 23.11.2021
5284 Clear 26 1014 58 10000 8.23 170 21:45 23.11.2021
5285 Clear 28 1013 58 10000 7.2 160 20:22 23.11.2021
5286 Clear 28 1009 54 10000 7.2 160 19:29 23.11.2021
5287 Clear 29 1013 57 10000 6.17 150 18:33 23.11.2021
5288 Clear 29 1013 58 10000 5.66 150 17:30 23.11.2021
5289 Clear 29 1014 54 10000 3.6 150 16:35 23.11.2021
5290 Clear 29 1015 54 10000 2.06 20 15:26 23.11.2021
5291 Clear 27 1011 61 10000 4.12 360 14:45 23.11.2021
5292 Clear 25 1012 65 10000 4.12 330 13:19 23.11.2021
5293 Clear 20 1012 85 10000 2.06 10 10:28 23.11.2021
5294 Clear 18 1011 94 10000 1.03 0 09:46 23.11.2021
5295 Clear 19 1011 88 10000 1.54 100 07:56 23.11.2021
5296 Clear 19 1012 82 10000 3.6 90 04:53 23.11.2021
5297 Clear 21 1013 78 10000 1.03 0 03:32 23.11.2021
5298 Clouds 22 1018 68 10000 5.66 190 23:38 22.11.2021
5299 Clouds 23 1016 64 10000 6.17 160 22:58 22.11.2021
5300 Clouds 23 1016 64 10000 6.17 160 22:30 22.11.2021
5301 Clouds 23 1016 64 10000 6.17 160 22:30 22.11.2021
5302 Clouds 24 1016 63 10000 6.69 160 21:44 22.11.2021
5303 Clouds 24 1016 63 10000 6.69 160 21:19 22.11.2021
5304 Clouds 25 1016 58 10000 6.17 160 20:26 22.11.2021
5305 Clouds 26 1016 55 10000 7.72 160 19:20 22.11.2021
5306 Clear 26 1017 56 10000 6.17 160 18:40 22.11.2021
5307 Clouds 26 1017 57 10000 6.69 160 17:48 22.11.2021
5308 Clouds 26 1019 57 10000 4.12 130 16:31 22.11.2021
5309 Clouds 25 1018 59 10000 5.66 160 15:29 22.11.2021
5310 Clouds 23 1015 62 10000 2.57 120 12:48 22.11.2021
5311 Clouds 22 1014 68 10000 1.54 140 11:28 22.11.2021
5312 Clouds 20 1014 78 10000 1.03 340 10:22 22.11.2021
5313 Clouds 19 1015 88 10000 2.57 120 08:43 22.11.2021
5314 Clouds 19 1015 88 10000 2.57 120 08:23 22.11.2021
5315 Clouds 21 1016 75 10000 1.54 160 01:36 22.11.2021
5316 Clouds 21 1021 69 10000 3.09 160 23:20 21.11.2021
5317 Clouds 22 1019 65 10000 4.63 160 22:42 21.11.2021
5318 Clouds 23 1020 64 10000 6.17 160 20:55 21.11.2021
5319 Clouds 22 1020 64 10000 6.17 160 20:34 21.11.2021
5320 Clouds 24 1020 61 10000 6.69 160 18:55 21.11.2021
5321 Clouds 24 1020 60 10000 6.17 160 17:56 21.11.2021
5322 Clouds 24 1020 60 10000 6.17 160 17:35 21.11.2021
5323 Clouds 24 1021 65 10000 4.12 160 14:56 21.11.2021
5324 Clouds 24 1021 65 10000 4.12 160 14:38 21.11.2021
5325 Clouds 22 1017 78 10000 3.09 120 12:59 21.11.2021
5326 Clouds 22 1017 78 10000 3.09 120 12:25 21.11.2021
5327 Clouds 22 1016 80 10000 2.57 160 11:37 21.11.2021
5328 Clouds 20 1015 91 10000 1.03 0 10:19 21.11.2021
5329 Clouds 21 1025 87 8000 2.06 320 09:47 21.11.2021
5330 Clouds 21 1026 86 10000 1.54 130 08:33 21.11.2021
5331 Clouds 21 1026 89 10000 1.54 150 07:53 21.11.2021
5332 Clouds 21 1016 83 10000 2.06 140 06:37 21.11.2021
5333 Clouds 21 1016 83 10000 2.06 110 05:42 21.11.2021
5334 Clouds 21 1017 86 10000 1.54 120 03:26 21.11.2021
5335 Clouds 21 1024 84 10000 1.54 160 02:56 21.11.2021
5336 Clouds 22 1024 84 10000 1.54 160 02:19 21.11.2021
5337 Clouds 21 1022 86 10000 2.57 130 00:50 21.11.2021
5338 Clouds 22 1020 88 7000 4.63 170 22:35 20.11.2021
5339 Mist 22 1019 90 5000 4.12 170 21:33 20.11.2021
5340 Drizzle 22 1019 90 6000 3.6 150 20:33 20.11.2021
5341 Mist 22 1019 90 4800 6.17 180 18:45 20.11.2021
5342 Clouds 23 1019 87 6000 6.17 170 18:24 20.11.2021
5343 Drizzle 23 1019 84 4500 5.14 180 17:22 20.11.2021
5344 Clouds 25 1015 72 10000 6.17 180 15:54 20.11.2021
5345 Clouds 25 1015 72 9000 6.17 190 14:39 20.11.2021
5346 Clouds 25 1015 72 9000 6.17 190 14:21 20.11.2021
5347 Clouds 23 1014 86 7000 4.63 220 11:56 20.11.2021
5348 Clouds 22 1012 91 7000 4.12 210 10:28 20.11.2021
5349 Mist 22 1010 94 5000 3.09 260 08:55 20.11.2021
5350 Mist 22 1011 94 4000 2.06 260 07:19 20.11.2021
5351 Mist 22 1012 94 4000 3.09 300 05:25 20.11.2021
5352 Mist 22 1012 94 4000 2.57 300 04:50 20.11.2021
5353 Clouds 22 1012 94 7000 1.03 0 01:41 20.11.2021
5354 Clouds 23 1011 85 9000 2.57 160 00:38 20.11.2021
5355 Clouds 24 1009 81 9000 2.06 0 22:55 19.11.2021
5356 Clouds 24 1009 80 9000 5.66 210 21:57 19.11.2021
5357 Clouds 25 1007 79 9000 4.63 190 20:57 19.11.2021
5358 Clouds 25 1007 79 9000 4.63 190 20:36 19.11.2021
5359 Clouds 26 1011 83 10000 4.63 160 19:50 19.11.2021
5360 Clouds 26 1008 85 10000 3.09 330 18:53 19.11.2021
5361 Clouds 26 1008 85 10000 3.09 330 18:22 19.11.2021
5362 Rain 25 1012 89 7000 2.06 340 16:47 19.11.2021
5363 Rain 24 1008 89 6000 2.06 300 15:32 19.11.2021
5364 Rain 23 1009 94 4800 1.03 150 13:25 19.11.2021
5365 Rain 23 1007 91 6000 1.03 0 10:27 19.11.2021
5366 Mist 22 1008 94 5000 2.57 120 09:37 19.11.2021
5367 Clouds 23 1018 97 9000 1.54 260 07:41 19.11.2021
5368 Rain 22 1010 94 8000 2.57 260 04:29 19.11.2021
5369 Rain 23 1010 91 8000 5.14 310 02:26 19.11.2021
5370 Mist 22 1010 92 4500 2.06 340 23:51 18.11.2021
5371 Rain 23 1008 76 10000 4.12 130 21:55 18.11.2021
5372 Clouds 25 1008 69 10000 5.14 170 20:49 18.11.2021
5373 Clouds 25 1012 69 10000 5.14 170 20:30 18.11.2021
5374 Rain 26 1011 67 10000 6.17 180 19:49 18.11.2021
5375 Rain 26 1011 67 10000 6.17 180 19:29 18.11.2021
5376 Rain 27 1012 66 10000 9.26 180 18:28 18.11.2021
5377 Rain 28 1012 62 10000 8.23 170 17:51 18.11.2021
5378 Clouds 29 1009 57 10000 8.23 180 16:44 18.11.2021
5379 Clear 31 1009 52 10000 4.63 180 15:32 18.11.2021
5380 Clear 30 1009 55 10000 2.57 40 13:31 18.11.2021
5381 Clear 28 1009 66 10000 3.09 350 12:33 18.11.2021
5382 Clear 26 1009 77 10000 2.57 350 11:42 18.11.2021
5383 Clear 26 1009 77 10000 2.57 350 11:24 18.11.2021
5384 Clear 22 1008 88 10000 1.03 0 09:37 18.11.2021
5385 Clear 22 1008 88 10000 1.03 130 07:35 18.11.2021
5386 Clear 23 1009 88 10000 4.63 80 05:55 18.11.2021
5387 Clear 23 1009 88 10000 4.63 80 05:36 18.11.2021
5388 Clear 25 1010 76 10000 2.57 170 01:24 18.11.2021
5389 Clear 25 1010 76 10000 2.57 170 01:24 18.11.2021
5390 Clear 26 1008 67 10000 2.57 160 23:18 17.11.2021
5391 Clear 26 1008 64 10000 3.6 160 22:21 17.11.2021
5392 Clouds 28 1008 54 10000 5.14 160 21:53 17.11.2021
5393 Clouds 28 1008 54 10000 5.14 160 21:34 17.11.2021
5394 Clouds 32 1009 42 10000 4.12 130 19:22 17.11.2021
5395 Clouds 30 1010 50 10000 5.14 160 17:31 17.11.2021
5396 Clear 28 1013 54 10000 3.09 330 14:53 17.11.2021
5397 Clear 25 1014 68 10000 2.06 330 12:42 17.11.2021
5398 Clear 23 1014 76 10000 2.57 350 11:52 17.11.2021
5399 Clear 20 1013 91 10000 1.54 360 10:50 17.11.2021
5400 Clear 20 1012 88 10000 2.57 120 09:27 17.11.2021
5401 Clear 20 1013 83 10000 1.54 130 07:46 17.11.2021
5402 Clear 20 1013 83 10000 2.57 130 06:42 17.11.2021
5403 Clear 23 1013 76 10000 0.51 100 02:43 17.11.2021
5404 Clouds 25 1012 67 10000 4.63 190 23:27 16.11.2021
5405 Clouds 28 1012 55 10000 4.12 170 21:51 16.11.2021
5406 Clouds 29 1012 49 10000 5.14 160 20:19 16.11.2021
5407 Clouds 30 1013 46 10000 4.63 160 19:23 16.11.2021
5408 Clouds 29 1013 47 10000 6.17 170 18:38 16.11.2021
5409 Clouds 28 1014 51 10000 6.17 160 17:44 16.11.2021
5410 Clouds 29 1016 46 10000 3.6 140 16:59 16.11.2021
5411 Clouds 28 1016 51 10000 4.63 160 16:19 16.11.2021
5412 Clouds 27 1016 54 10000 4.63 150 15:42 16.11.2021
5413 Clear 25 1018 61 10000 2.06 320 13:42 16.11.2021
5414 Clear 21 1017 83 10000 0.51 0 10:22 16.11.2021
5415 Clear 19 1016 94 10000 2.57 80 09:39 16.11.2021
5416 Clear 20 1016 88 10000 2.57 90 07:47 16.11.2021
5417 Clear 20 1016 83 10000 3.09 100 06:43 16.11.2021
5418 Clear 23 936 62 10000 1.03 0 23:26 15.11.2021
5419 Clouds 24 949 58 10000 5.14 150 22:41 15.11.2021
5420 Clouds 24 917 58 10000 5.14 150 22:19 15.11.2021
5421 Clouds 25 948 55 10000 6.17 140 21:31 15.11.2021
5422 Clouds 25 948 56 10000 7.72 130 20:43 15.11.2021
5423 Clouds 28 1015 51 10000 5.66 150 19:26 15.11.2021
5424 Clear 27 1016 51 10000 7.2 170 17:35 15.11.2021
5425 Clear 26 1017 50 10000 5.14 150 15:55 15.11.2021
5426 Clear 26 1017 50 10000 5.14 150 15:36 15.11.2021
5427 Clear 25 1018 59 10000 1.54 340 14:32 15.11.2021
5428 Clear 22 938 62 10000 2.06 350 12:38 15.11.2021
5429 Clear 20 915 70 10000 1.54 30 10:33 15.11.2021
5430 Clear 18 1017 82 10000 3.09 120 09:23 15.11.2021
5431 Clear 19 1018 72 10000 3.09 130 07:23 15.11.2021
5432 Clear 21 1018 66 10000 3.09 110 02:34 15.11.2021
5433 Clouds 23 1016 57 10000 5.14 130 22:45 14.11.2021
5434 Clouds 23 1016 57 10000 5.14 130 22:27 14.11.2021
5435 Clouds 25 948 50 10000 7.2 130 19:36 14.11.2021
5436 Clouds 26 1015 51 10000 7.2 130 19:18 14.11.2021
5437 Clouds 25 949 49 10000 6.69 150 18:54 14.11.2021
5438 Clouds 25 949 49 10000 6.69 150 18:36 14.11.2021
5439 Clouds 26 1016 49 10000 6.69 150 18:18 14.11.2021
5440 Clouds 26 1016 50 10000 6.17 150 17:54 14.11.2021
5441 Clouds 26 1016 50 10000 6.17 150 17:36 14.11.2021
5442 Clouds 26 1016 50 10000 6.17 150 17:18 14.11.2021
5443 Clouds 25 1017 54 10000 6.69 160 16:42 14.11.2021
5444 Clouds 25 1017 54 10000 6.69 160 16:19 14.11.2021
5445 Clouds 23 937 53 10000 3.09 140 15:21 14.11.2021
5446 Clouds 23 938 52 10000 3.6 330 14:45 14.11.2021
5447 Clouds 23 938 52 10000 3.6 330 14:23 14.11.2021
5448 Clouds 23 952 55 10000 3.09 340 13:53 14.11.2021
5449 Clouds 22 938 57 10000 3.09 340 13:32 14.11.2021
5450 Clear 21 938 63 10000 2.57 340 12:26 14.11.2021
5451 Clear 21 952 66 10000 1.54 50 11:34 14.11.2021
5452 Clear 19 1018 79 10000 1.03 0 10:40 14.11.2021
5453 Clear 19 1018 79 10000 1.03 0 10:40 14.11.2021
5454 Clouds 18 1018 88 10000 3.09 140 09:42 14.11.2021
5455 Clouds 18 1018 88 10000 2.06 120 08:52 14.11.2021
5456 Clear 18 1018 88 10000 3.09 160 06:54 14.11.2021
5457 Clouds 21 937 58 10000 5.66 110 23:28 13.11.2021
5458 Clouds 21 950 59 10000 5.66 120 22:22 13.11.2021
5459 Clouds 21 936 62 10000 6.69 140 21:50 13.11.2021
5460 Clouds 21 950 61 10000 6.69 140 21:18 13.11.2021
5461 Clouds 22 950 60 10000 6.17 160 19:38 13.11.2021
5462 Clouds 22 937 57 10000 6.17 160 18:33 13.11.2021
5463 Clouds 22 937 63 10000 6.69 160 17:50 13.11.2021
5464 Clouds 22 937 62 10000 6.17 160 16:35 13.11.2021
5465 Clouds 21 938 63 10000 2.57 90 14:57 13.11.2021
5466 Clouds 21 938 63 10000 2.57 90 14:19 13.11.2021
5467 Clouds 20 938 76 10000 2.57 350 12:56 13.11.2021
5468 Clouds 20 938 76 10000 2.57 350 12:20 13.11.2021
5469 Clouds 18 1019 91 8000 3.09 310 11:28 13.11.2021
5470 Clouds 18 1018 94 8000 2.06 340 10:44 13.11.2021
5471 Clouds 17 1018 94 8000 2.06 340 09:53 13.11.2021
5472 Clouds 16 1018 100 10000 1.03 0 09:33 13.11.2021
5473 Clouds 16 1018 100 10000 1.03 0 08:56 13.11.2021
5474 Clouds 16 1018 100 10000 1.03 0 08:22 13.11.2021
5475 Clouds 18 1020 88 10000 2.06 330 04:44 13.11.2021
5476 Clouds 18 1020 88 10000 2.06 330 04:25 13.11.2021
5477 Clouds 19 1021 92 10000 1.54 40 00:39 13.11.2021
5478 Drizzle 19 1019 86 10000 2.06 210 22:46 12.11.2021
5479 Clouds 20 1019 81 6000 5.66 190 21:45 12.11.2021
5480 Clouds 21 1019 77 10000 3.09 30 19:46 12.11.2021
5481 Clouds 21 1019 74 10000 2.57 150 19:27 12.11.2021
5482 Clouds 21 951 71 10000 2.57 150 18:28 12.11.2021
5483 Clouds 21 952 70 10000 4.12 160 16:34 12.11.2021
5484 Clouds 21 952 69 10000 3.09 170 15:32 12.11.2021
5485 Mist 18 1019 97 4500 4.12 160 11:54 12.11.2021
5486 Mist 19 1018 94 2500 4.63 160 10:51 12.11.2021
5487 Mist 18 1018 94 5000 1.54 40 09:44 12.11.2021
5488 Mist 18 1017 94 5000 1.03 30 08:38 12.11.2021
5489 Rain 19 1019 91 6000 2.06 190 02:32 12.11.2021
5490 Clouds 19 1019 92 6000 1.03 170 23:42 11.11.2021
5491 Mist 19 1018 93 5000 1.03 180 22:31 11.11.2021
5492 Mist 20 1018 94 5000 2.57 170 21:27 11.11.2021
5493 Rain 20 1018 93 5000 3.6 170 20:42 11.11.2021
5494 Rain 20 951 82 5000 1.54 170 19:20 11.11.2021
5495 Rain 21 951 71 4500 4.12 60 17:43 11.11.2021
5496 Rain 22 937 65 10000 3.6 160 16:58 11.11.2021
5497 Rain 23 952 69 10000 1.03 0 14:58 11.11.2021
5498 Rain 22 938 70 10000 1.03 0 14:29 11.11.2021
5499 Rain 22 952 69 10000 2.06 170 13:40 11.11.2021
5500 Rain 22 1019 78 10000 2.57 160 12:50 11.11.2021
5501 Clouds 22 1024 86 10000 2.57 170 10:44 11.11.2021
5502 Clouds 21 1027 96 8000 1.54 90 09:39 11.11.2021
5503 Rain 21 1026 95 10000 1.54 100 07:59 11.11.2021
5504 Clouds 21 1027 96 10000 1.54 80 05:55 11.11.2021
5505 Clouds 22 1017 77 10000 2.06 160 00:34 11.11.2021
5506 Clouds 22 1020 81 10000 4.63 170 22:32 10.11.2021
5507 Clouds 22 1019 83 10000 4.63 170 21:33 10.11.2021
5508 Clouds 23 1019 77 10000 4.63 170 20:47 10.11.2021
5509 Clouds 23 1020 78 10000 5.14 160 19:47 10.11.2021
5510 Clouds 24 1019 75 10000 5.14 160 19:28 10.11.2021
5511 Clouds 23 1020 78 10000 2.57 140 16:38 10.11.2021
5512 Clouds 24 1021 73 10000 1.54 30 15:46 10.11.2021
5513 Clouds 23 1017 77 10000 1.54 340 14:22 10.11.2021
5514 Clouds 23 1017 78 10000 2.06 340 13:26 10.11.2021
5515 Clouds 22 1016 90 10000 2.06 20 11:38 10.11.2021
5516 Clouds 21 1025 92 8000 1.03 360 08:59 10.11.2021
5517 Clouds 21 1025 92 8000 1.03 360 08:39 10.11.2021
5518 Clouds 21 1025 90 8000 2.06 170 06:43 10.11.2021
5519 Clouds 21 1025 90 8000 1.54 130 05:53 10.11.2021
5520 Drizzle 20 1022 96 5000 3.6 160 01:31 10.11.2021
5521 Drizzle 21 1018 88 8000 5.66 160 21:58 09.11.2021
5522 Clouds 23 1018 81 10000 4.63 160 20:32 09.11.2021
5523 Clouds 23 1018 81 10000 5.14 170 19:26 09.11.2021
5524 Clouds 23 1018 83 10000 4.63 150 18:44 09.11.2021
5525 Clouds 24 1018 83 10000 5.66 160 16:29 09.11.2021
5526 Clouds 25 1019 77 10000 3.6 150 14:59 09.11.2021
5527 Clouds 24 1019 78 10000 2.57 150 13:25 09.11.2021
5528 Clouds 23 1019 83 10000 3.6 150 12:24 09.11.2021
5529 Clouds 23 1020 91 10000 0.51 0 10:53 09.11.2021
5530 Mist 22 1024 91 5000 3.6 210 09:43 09.11.2021
5531 Mist 22 1024 93 5000 2.06 230 08:42 09.11.2021
5532 Mist 22 1023 92 5000 3.09 200 06:59 09.11.2021
5533 Clouds 23 1022 83 10000 2.06 20 02:32 09.11.2021
5534 Clouds 23 1021 85 10000 2.06 150 01:50 09.11.2021
5535 Clouds 23 1020 81 10000 2.06 120 00:22 09.11.2021
5536 Clouds 23 1019 78 10000 3.6 170 23:28 08.11.2021
5537 Clouds 23 1017 76 10000 6.17 170 22:36 08.11.2021
5538 Clouds 24 1019 75 10000 7.2 170 21:22 08.11.2021
5539 Clouds 24 1016 69 10000 7.72 170 20:31 08.11.2021
5540 Clouds 25 1016 62 10000 5.66 170 19:18 08.11.2021
5541 Clouds 26 1017 59 10000 5.66 160 17:35 08.11.2021
5542 Clouds 26 1018 59 10000 2.06 360 15:48 08.11.2021
5543 Clouds 25 1015 66 10000 3.09 350 14:55 08.11.2021
5544 Clouds 25 1015 66 10000 3.09 350 14:24 08.11.2021
5545 Clouds 24 1019 75 10000 2.57 20 12:48 08.11.2021
5546 Clouds 22 1014 80 10000 2.06 30 11:37 08.11.2021
5547 Clouds 21 1013 83 10000 1.54 10 10:35 08.11.2021
5548 Clear 20 1013 88 10000 1.03 340 08:56 08.11.2021
5549 Clouds 21 1013 83 10000 1.54 330 07:56 08.11.2021
5550 Clouds 21 1013 83 10000 1.54 10 06:55 08.11.2021
5551 Clear 21 1014 83 10000 2.06 100 03:35 08.11.2021
5552 Clear 22 1019 74 10000 4.12 160 00:18 08.11.2021
5553 Clouds 23 1017 71 10000 6.17 180 22:48 07.11.2021
5554 Clear 24 1017 68 10000 5.14 170 21:24 07.11.2021
5555 Clear 25 1016 65 10000 6.17 150 19:56 07.11.2021
5556 Clear 25 1016 66 10000 6.69 150 18:30 07.11.2021
5557 Clouds 25 1016 63 10000 7.2 150 17:40 07.11.2021
5558 Clouds 25 1017 62 10000 5.66 150 16:21 07.11.2021
5559 Clouds 25 1017 63 10000 4.63 140 14:54 07.11.2021
5560 Clouds 25 1017 64 10000 4.63 140 14:27 07.11.2021
5561 Clouds 23 1014 68 10000 3.09 140 12:48 07.11.2021
5562 Clear 22 1014 77 10000 1.54 110 11:31 07.11.2021
5563 Clouds 19 1012 88 8000 2.06 100 08:59 07.11.2021
5564 Clouds 21 1020 82 10000 3.09 160 02:55 07.11.2021
5565 Clouds 21 1020 82 10000 3.09 160 02:18 07.11.2021
5566 Clouds 22 1016 73 10000 6.69 160 22:56 06.11.2021
5567 Clouds 23 1016 71 10000 6.17 160 21:58 06.11.2021
5568 Clouds 24 1016 72 10000 6.69 160 20:59 06.11.2021
5569 Clouds 24 1015 69 10000 6.69 160 20:18 06.11.2021
5570 Clouds 25 1016 70 10000 7.2 160 17:31 06.11.2021
5571 Clouds 25 1016 67 10000 6.69 160 16:32 06.11.2021
5572 Clouds 24 1014 71 10000 2.06 10 13:41 06.11.2021
5573 Clouds 23 1014 78 10000 2.06 50 12:58 06.11.2021
5574 Clouds 22 1014 84 10000 2.06 30 11:24 06.11.2021
5575 Clouds 18 1011 94 8000 2.06 270 08:49 06.11.2021
5576 Clouds 20 1013 88 10000 2.57 130 04:52 06.11.2021
5577 Clouds 22 1018 84 10000 4.12 170 00:43 06.11.2021
5578 Clouds 22 1017 81 10000 4.63 170 23:31 05.11.2021
5579 Clouds 23 1016 79 10000 5.66 160 22:33 05.11.2021
5580 Clouds 23 1016 79 10000 5.66 160 22:33 05.11.2021
5581 Clouds 25 1015 71 10000 6.17 160 20:41 05.11.2021
5582 Clouds 25 1015 71 10000 6.17 160 20:18 05.11.2021
5583 Clouds 25 1017 73 10000 7.72 160 18:56 05.11.2021
5584 Clouds 25 1017 73 10000 7.72 160 18:37 05.11.2021
5585 Clouds 25 1016 69 10000 7.2 160 16:50 05.11.2021
5586 Clouds 25 1016 70 10000 4.12 140 14:41 05.11.2021
5587 Clouds 24 1012 81 10000 2.57 160 12:50 05.11.2021
5588 Clouds 22 1021 97 10000 2.06 120 09:51 05.11.2021
5589 Clouds 21 1020 97 10000 2.06 150 08:38 05.11.2021
5590 Clouds 21 1020 97 10000 1.03 110 06:50 05.11.2021
5591 Clouds 22 1022 97 10000 2.06 140 04:42 05.11.2021
5592 Clouds 22 1019 94 10000 2.06 140 02:22 05.11.2021
5593 Clouds 22 1017 93 10000 3.6 180 00:30 05.11.2021
5594 Clouds 22 1015 92 7000 6.17 160 22:56 04.11.2021
5595 Drizzle 22 1015 91 10000 5.14 170 22:18 04.11.2021
5596 Clouds 23 1014 86 10000 5.66 160 21:29 04.11.2021
5597 Clouds 24 1014 78 10000 6.69 160 20:29 04.11.2021
5598 Clouds 25 1014 79 10000 4.12 150 19:50 04.11.2021
5599 Clouds 25 1014 79 10000 4.12 150 19:28 04.11.2021
5600 Clouds 25 1014 80 10000 5.66 160 18:42 04.11.2021
5601 Clouds 24 1015 86 10000 5.14 160 17:28 04.11.2021
5602 Clouds 25 1015 81 10000 6.17 150 16:23 04.11.2021
5603 Clouds 25 1016 78 10000 4.12 160 14:19 04.11.2021
5604 Mist 21 1017 96 4500 1.03 0 10:52 04.11.2021
5605 Clouds 22 1020 97 7000 1.03 0 09:29 04.11.2021
5606 Mist 22 1020 97 5000 2.06 300 08:29 04.11.2021
5607 Clouds 22 1020 97 7000 1.54 310 07:34 04.11.2021
5608 Clouds 23 1016 89 8000 3.6 180 23:52 03.11.2021
5609 Clouds 23 1014 87 10000 5.66 170 22:49 03.11.2021
5610 Clouds 24 1014 78 10000 6.17 180 21:45 03.11.2021
5611 Clouds 24 1014 77 10000 6.17 180 21:19 03.11.2021
5612 Clouds 25 1014 74 10000 7.2 180 20:33 03.11.2021
5613 Clouds 26 1015 73 10000 7.2 180 19:40 03.11.2021
5614 Clouds 25 1015 74 10000 3.6 160 18:47 03.11.2021
5615 Clouds 25 1015 74 10000 3.6 160 18:18 03.11.2021
5616 Clouds 26 1016 75 10000 6.17 170 17:20 03.11.2021
5617 Clouds 25 1016 73 10000 5.14 170 15:56 03.11.2021
5618 Clouds 25 1016 73 10000 5.14 170 15:38 03.11.2021
5619 Clouds 24 1013 85 10000 3.6 160 13:46 03.11.2021
5620 Mist 22 1012 92 7000 3.6 210 11:39 03.11.2021
5621 Clouds 22 1018 95 7000 3.09 210 10:53 03.11.2021
5622 Mist 22 1018 96 4500 3.09 230 10:18 03.11.2021
5623 Clouds 21 1011 94 10000 4.12 280 09:28 03.11.2021
5624 Clouds 21 1011 94 10000 3.6 250 08:21 03.11.2021
5625 Clouds 21 1011 94 8000 4.12 250 07:38 03.11.2021
5626 Mist 22 1022 97 4000 3.09 270 04:24 03.11.2021
5627 Clouds 22 1012 91 10000 4.12 220 01:45 03.11.2021
5628 Clouds 23 1017 90 10000 3.6 210 23:33 02.11.2021
5629 Clouds 23 1011 85 10000 3.09 260 22:29 02.11.2021
5630 Mist 24 1010 80 10000 6.17 190 20:54 02.11.2021
5631 Mist 24 1010 80 10000 6.17 190 20:23 02.11.2021
5632 Mist 25 1014 79 10000 6.69 200 19:46 02.11.2021
5633 Mist 25 1014 79 10000 6.17 190 18:43 02.11.2021
5634 Mist 25 1014 78 10000 3.6 280 17:57 02.11.2021
5635 Mist 25 1010 77 10000 3.6 280 17:31 02.11.2021
5636 Drizzle 26 1015 77 10000 7.2 250 16:29 02.11.2021
5637 Clouds 24 1012 81 10000 5.66 290 14:59 02.11.2021
5638 Mist 23 1012 88 10000 4.63 290 13:50 02.11.2021
5639 Mist 23 1012 88 10000 4.63 290 13:26 02.11.2021
5640 Mist 23 1011 89 10000 4.12 290 12:33 02.11.2021
5641 Mist 22 1015 96 5000 2.57 300 11:31 02.11.2021
5642 Clouds 22 1016 94 9000 4.63 270 10:51 02.11.2021
5643 Clouds 22 1016 94 9000 4.63 270 10:23 02.11.2021
5644 Clouds 21 1019 97 7000 4.63 290 08:42 02.11.2021
5645 Clouds 22 1020 97 6000 2.57 260 06:43 02.11.2021
5646 Clouds 21 1017 96 7000 2.57 300 03:33 02.11.2021
5647 Mist 21 1017 96 5000 2.06 310 01:24 02.11.2021
5648 Mist 21 1015 97 4000 5.14 180 22:39 01.11.2021
5649 Mist 22 1014 93 7000 4.12 150 20:52 01.11.2021
5650 Mist 22 1014 93 7000 4.12 150 20:32 01.11.2021
5651 Rain 22 1015 95 6000 7.2 140 19:44 01.11.2021
5652 Rain 22 1012 96 3500 2.57 260 18:57 01.11.2021
5653 Rain 22 1012 96 3500 2.57 260 18:20 01.11.2021
5654 Rain 21 1017 96 4500 3.6 160 17:19 01.11.2021
5655 Rain 21 1017 98 4500 3.6 180 16:37 01.11.2021
5656 Rain 21 1018 98 5000 2.06 180 15:46 01.11.2021
5657 Rain 21 1018 97 5000 2.06 180 15:20 01.11.2021
5658 Rain 21 1014 96 5000 2.57 80 14:41 01.11.2021
5659 Rain 21 1014 97 5000 2.57 80 14:19 01.11.2021
5660 Rain 21 1019 97 5000 2.57 180 13:18 01.11.2021
5661 Rain 21 1013 95 6000 3.09 160 11:56 01.11.2021
5662 Rain 21 1019 98 5000 3.6 180 10:23 01.11.2021
5663 Rain 21 1013 94 7000 4.12 130 08:53 01.11.2021
5664 Rain 21 1023 97 7000 3.6 140 07:47 01.11.2021
5665 Rain 21 1024 97 7000 4.12 150 05:53 01.11.2021
5666 Rain 22 1022 96 9000 4.63 180 03:40 01.11.2021
5667 Rain 22 1020 97 7000 2.57 180 23:59 31.10.2021
5668 Rain 23 1018 92 8000 6.17 130 21:37 31.10.2021
5669 Rain 22 1014 93 7000 4.63 170 20:25 31.10.2021
5670 Rain 22 1014 93 7000 4.63 170 20:25 31.10.2021
5671 Mist 23 1015 83 4000 3.6 150 18:51 31.10.2021
5672 Mist 23 1015 83 4000 3.6 150 18:25 31.10.2021
5673 Drizzle 24 1020 82 5000 2.06 150 16:48 31.10.2021
5674 Clouds 23 1026 94 8000 4.63 170 15:18 31.10.2021
5675 Clouds 23 1022 89 9000 3.09 170 13:27 31.10.2021
5676 Rain 22 1018 88 10000 3.6 190 12:30 31.10.2021
5677 Rain 22 1023 94 10000 3.6 180 10:53 31.10.2021
5678 Clouds 22 1022 92 10000 4.12 170 09:54 31.10.2021
5679 Clouds 21 1015 88 10000 3.09 110 08:48 31.10.2021
5680 Clouds 21 1017 92 10000 2.39 79 04:55 31.10.2021
5681 Clouds 23 1017 79 10000 5.14 130 00:47 31.10.2021
5682 Clouds 24 1020 76 10000 4.12 130 22:31 30.10.2021
5683 Clouds 24 1020 76 10000 7.2 110 21:33 30.10.2021
5684 Clouds 24 1025 79 10000 6.17 80 20:19 30.10.2021
5685 Clouds 24 1017 74 10000 6.69 130 18:21 30.10.2021
5686 Clouds 24 1018 72 10000 4.12 150 16:20 30.10.2021
5687 Clouds 23 1019 73 10000 4.63 60 14:25 30.10.2021
5688 Clouds 23 1022 77 10000 4.12 70 13:39 30.10.2021
5689 Clouds 23 1018 78 10000 4.12 70 13:20 30.10.2021
5690 Clouds 21 1023 92 10000 6.17 80 11:50 30.10.2021
5691 Clouds 21 1023 94 10000 6.17 80 11:26 30.10.2021
5692 Clouds 20 1016 88 10000 3.09 100 09:53 30.10.2021
5693 Clouds 20 1016 88 10000 2.57 110 08:48 30.10.2021
5694 Clouds 21 1018 83 10000 4.63 100 05:50 30.10.2021
5695 Clouds 21 1029 91 10000 4.63 100 05:19 30.10.2021
5696 Clouds 22 1017 83 10000 2.57 130 23:47 29.10.2021
5697 Clouds 23 1017 86 7000 4.63 120 22:36 29.10.2021
5698 Clouds 22 1017 89 7000 5.14 140 21:23 29.10.2021
5699 Mist 23 1017 83 4500 1.03 0 20:42 29.10.2021
5700 Mist 24 1018 80 4500 4.12 160 19:44 29.10.2021
5701 Clouds 24 1018 82 10000 4.12 130 18:26 29.10.2021
5702 Clouds 24 1024 86 10000 4.12 180 16:50 29.10.2021
5703 Clouds 23 1020 89 10000 3.6 150 14:29 29.10.2021
5704 Clouds 22 1025 98 10000 1.03 130 10:56 29.10.2021
5705 Clouds 22 1029 97 9000 2.06 140 10:34 29.10.2021
5706 Rain 23 1029 97 8000 3.09 120 07:25 29.10.2021
5707 Rain 22 1021 88 5000 5.14 120 00:36 29.10.2021
5708 Rain 23 1020 84 4000 5.14 80 22:54 28.10.2021
5709 Rain 24 1019 80 10000 6.17 180 21:52 28.10.2021
5710 Clouds 25 1023 82 10000 6.17 170 20:25 28.10.2021
5711 Rain 25 1024 83 10000 5.66 170 19:46 28.10.2021
5712 Clouds 25 1025 87 10000 5.66 160 18:18 28.10.2021
5713 Mist 24 1021 85 10000 2.06 150 16:58 28.10.2021
5714 Mist 24 1022 87 10000 1.54 160 15:20 28.10.2021
5715 Mist 23 1022 92 8000 1.54 180 13:45 28.10.2021
5716 Mist 23 1022 92 8000 1.54 180 13:21 28.10.2021
5717 Mist 22 1025 99 8000 1.54 150 12:39 28.10.2021
5718 Mist 21 1020 97 5000 3.6 150 10:54 28.10.2021
5719 Mist 22 1019 94 2500 0 0 09:38 28.10.2021
5720 Clouds 22 1019 94 6000 2.06 150 08:55 28.10.2021
5721 Clouds 22 1019 94 6000 2.06 150 08:28 28.10.2021
5722 Clouds 22 1021 91 7000 4.12 170 04:42 28.10.2021
5723 Mist 23 1019 88 7000 5.66 180 23:38 27.10.2021
5724 Mist 23 1019 87 7000 4.12 150 22:31 27.10.2021
5725 Mist 24 1018 86 6000 4.12 160 21:33 27.10.2021
5726 Mist 24 1023 88 7000 5.14 150 20:53 27.10.2021
5727 Mist 24 1023 88 9000 4.63 140 19:57 27.10.2021
5728 Mist 24 1019 86 9000 4.63 140 19:38 27.10.2021
5729 Mist 24 1019 86 6000 5.14 140 18:39 27.10.2021
5730 Mist 24 1020 83 4500 4.12 150 16:27 27.10.2021
5731 Mist 25 1024 81 4000 2.57 140 15:30 27.10.2021
5732 Mist 24 1020 88 3000 1.54 140 14:40 27.10.2021
5733 Fog 22 1018 97 500 1.54 130 11:28 27.10.2021
5734 Fog 21 1018 94 500 1.54 130 10:58 27.10.2021
5735 Mist 22 1017 94 4500 2.57 350 09:51 27.10.2021
5736 Mist 23 1027 97 2500 2.06 330 08:22 27.10.2021
5737 Mist 23 1028 97 2500 2.57 300 07:22 27.10.2021
5738 Mist 22 1025 98 9000 5.14 180 02:24 27.10.2021
5739 Clouds 23 1023 92 9000 4.63 180 00:56 27.10.2021
5740 Clouds 23 1023 92 9000 4.63 180 00:26 27.10.2021
5741 Clouds 23 1022 90 9000 5.66 180 23:41 26.10.2021
5742 Clouds 23 1022 87 9000 6.17 180 22:38 26.10.2021
5743 Clouds 24 1017 78 10000 5.66 180 21:59 26.10.2021
5744 Clouds 24 1021 78 10000 4.63 150 20:36 26.10.2021
5745 Clouds 25 1022 74 10000 4.63 140 19:30 26.10.2021
5746 Clouds 25 1022 74 10000 4.63 140 19:30 26.10.2021
5747 Clouds 25 1022 73 10000 3.09 150 18:41 26.10.2021
5748 Clouds 25 1024 65 10000 2.06 140 16:28 26.10.2021
5749 Clouds 23 1020 73 10000 1.54 10 14:56 26.10.2021
5750 Clouds 20 1018 88 10000 2.06 160 11:39 26.10.2021
5751 Clouds 20 1018 88 10000 1.03 0 10:20 26.10.2021
5752 Clouds 20 1018 88 10000 1.03 0 07:25 26.10.2021
5753 Clouds 20 1018 88 10000 1.03 160 06:40 26.10.2021
5754 Haze 21 1023 81 10000 4.63 120 23:51 25.10.2021
5755 Haze 21 1023 81 10000 4.63 120 23:51 25.10.2021
5756 Haze 22 1023 79 9000 4.63 160 22:54 25.10.2021
5757 Haze 22 1023 79 9000 4.63 160 22:19 25.10.2021
5758 Clouds 22 1023 80 9000 6.17 160 21:39 25.10.2021
5759 Clouds 22 1019 78 10000 4.63 170 19:54 25.10.2021
5760 Clouds 22 1023 79 10000 4.63 170 19:26 25.10.2021
5761 Clouds 22 1024 79 9000 5.14 170 18:59 25.10.2021
5762 Clouds 23 1025 81 9000 5.14 170 18:20 25.10.2021
5763 Clouds 23 1026 79 10000 3.09 150 16:20 25.10.2021
5764 Clouds 23 1025 82 8000 2.06 170 14:28 25.10.2021
5765 Clouds 20 1021 92 8000 1.03 160 12:30 25.10.2021
5766 Clouds 20 1019 94 8000 1.54 310 10:23 25.10.2021
5767 Clouds 21 1018 88 7000 1.54 250 08:35 25.10.2021
5768 Clouds 21 1019 88 6000 2.57 220 06:25 25.10.2021
5769 Clouds 23 1017 78 10000 2.06 280 02:31 25.10.2021
5770 Rain 24 1015 72 10000 3.6 290 00:46 25.10.2021
5771 Rain 24 1013 73 10000 7.72 210 23:47 24.10.2021
5772 Clouds 24 1011 76 10000 5.14 220 22:56 24.10.2021
5773 Clouds 24 1011 76 10000 5.14 220 22:36 24.10.2021
5774 Clouds 24 1011 76 10000 5.14 220 22:18 24.10.2021
5775 Clouds 27 1013 75 10000 2.57 320 20:45 24.10.2021
5776 Clouds 27 1008 76 10000 2.57 320 20:26 24.10.2021
5777 Clouds 24 1009 87 7000 1.03 0 18:53 24.10.2021
5778 Rain 23 1010 87 7000 1.54 70 17:58 24.10.2021
5779 Rain 28 1029 74 6000 2.06 300 17:18 24.10.2021
5780 Mist 23 1011 79 5000 3.09 200 15:47 24.10.2021
5781 Rain 27 1013 67 10000 5.66 190 13:52 24.10.2021
5782 Clouds 25 1008 68 10000 5.66 150 12:41 24.10.2021
5783 Rain 25 1006 69 10000 2.06 260 11:41 24.10.2021
5784 Clear 25 1016 76 10000 4.12 170 10:45 24.10.2021
5785 Clear 26 1005 65 10000 2.57 330 09:54 24.10.2021
5786 Clear 24 1022 84 10000 2.57 130 05:35 24.10.2021
5787 Clear 27 1011 68 10000 1.03 0 00:44 24.10.2021
5788 Clear 27 1006 65 10000 2.57 160 23:32 23.10.2021
5789 Clouds 30 1010 54 10000 6.17 190 21:50 23.10.2021
5790 Clouds 28 1011 59 10000 6.69 170 19:52 23.10.2021
5791 Clear 28 1013 59 10000 5.66 160 18:59 23.10.2021
5792 Clear 28 1013 59 10000 5.66 160 18:21 23.10.2021
5793 Clear 28 1015 61 10000 4.63 160 17:42 23.10.2021
5794 Clear 27 1016 62 10000 3.6 150 16:20 23.10.2021
5795 Clear 24 1014 73 10000 1.03 100 13:57 23.10.2021
5796 Clouds 21 1021 85 10000 3.6 180 03:33 23.10.2021
5797 Clouds 22 1018 70 10000 6.17 130 23:45 22.10.2021
5798 Clouds 23 1016 68 10000 7.72 180 22:44 22.10.2021
5799 Clouds 24 1017 65 10000 7.72 170 19:51 22.10.2021
5800 Clouds 25 1017 61 10000 7.72 170 18:40 22.10.2021
5801 Clouds 25 1018 59 10000 4.63 150 17:36 22.10.2021
5802 Clouds 23 1016 66 10000 3.09 350 14:58 22.10.2021
5803 Clouds 21 1017 74 10000 1.03 0 13:35 22.10.2021
5804 Clouds 19 1015 82 10000 1.54 50 11:18 22.10.2021
5805 Clouds 18 1015 82 7000 2.06 70 10:38 22.10.2021
5806 Clouds 19 1015 77 8000 2.06 90 09:41 22.10.2021
5807 Clouds 20 1025 82 10000 2.57 100 08:30 22.10.2021
5808 Clouds 20 1025 83 10000 2.57 80 07:21 22.10.2021
5809 Clouds 20 1025 82 10000 2.57 80 07:21 22.10.2021
5810 Clouds 20 1023 75 10000 4.12 120 02:56 22.10.2021
5811 Clouds 21 1020 76 10000 3.09 150 23:54 21.10.2021
5812 Clouds 20 1022 79 10000 3.09 150 23:21 21.10.2021
5813 Clouds 21 1021 72 10000 5.14 170 21:39 21.10.2021
5814 Clouds 22 1020 68 10000 6.17 170 20:27 21.10.2021
5815 Clouds 22 1020 68 10000 6.17 160 19:57 21.10.2021
5816 Clouds 22 1021 69 10000 6.17 160 19:28 21.10.2021
5817 Clouds 22 1017 67 10000 5.66 160 18:45 21.10.2021
5818 Clouds 23 1022 66 10000 5.14 140 17:54 21.10.2021
5819 Clouds 23 1022 66 10000 5.14 140 17:32 21.10.2021
5820 Clouds 23 1022 66 10000 5.14 140 17:32 21.10.2021
5821 Clouds 21 1018 68 10000 2.06 340 15:34 21.10.2021
5822 Clouds 20 1018 74 10000 2.06 10 14:58 21.10.2021
5823 Clouds 20 1018 74 10000 2.06 10 14:37 21.10.2021
5824 Clouds 18 1018 89 10000 2.06 20 12:51 21.10.2021
5825 Clouds 18 1027 91 10000 2.06 100 09:58 21.10.2021
5826 Clouds 18 1027 90 10000 1.54 150 08:21 21.10.2021
5827 Clouds 18 1028 91 10000 1.03 140 07:23 21.10.2021
5828 Clouds 18 1026 88 10000 1.03 100 03:24 21.10.2021
5829 Clouds 19 1023 83 10000 3.6 170 23:25 20.10.2021
5830 Clouds 19 1023 83 10000 4.12 170 21:51 20.10.2021
5831 Clouds 19 1023 83 10000 4.12 170 21:28 20.10.2021
5832 Clouds 19 1022 82 10000 2.57 160 20:47 20.10.2021
5833 Clouds 18 1018 81 10000 2.57 160 20:28 20.10.2021
5834 Clouds 19 1018 80 10000 3.09 190 19:40 20.10.2021
5835 Clouds 19 1019 78 7000 3.6 170 18:53 20.10.2021
5836 Clouds 19 1019 81 10000 2.57 150 17:41 20.10.2021
5837 Clouds 17 1024 93 8000 2.57 160 15:26 20.10.2021
5838 Rain 17 1030 97 4000 4.12 100 10:25 20.10.2021
5839 Rain 17 1029 97 4000 4.12 130 08:37 20.10.2021
5840 Rain 18 1026 96 5000 5.66 180 02:59 20.10.2021
5841 Mist 18 1024 96 4000 6.17 150 00:43 20.10.2021
5842 Mist 18 1022 95 2500 5.66 140 23:45 19.10.2021
5843 Mist 19 1021 94 3000 4.63 160 21:41 19.10.2021
5844 Mist 19 1021 94 3000 5.66 160 20:54 19.10.2021
5845 Mist 19 1022 97 3000 5.66 160 20:22 19.10.2021
5846 Mist 20 1021 92 4000 5.14 160 19:41 19.10.2021
5847 Mist 20 1022 96 4000 4.12 160 18:53 19.10.2021
5848 Mist 20 1022 96 4000 4.12 160 18:53 19.10.2021
5849 Rain 20 1023 96 3500 5.14 160 17:58 19.10.2021
5850 Rain 21 1023 92 6000 5.14 170 15:39 19.10.2021
5851 Rain 21 1023 92 6000 5.14 170 15:19 19.10.2021
5852 Mist 21 1022 93 7000 2.57 180 14:26 19.10.2021
5853 Drizzle 20 1022 94 7000 3.6 170 13:29 19.10.2021
5854 Mist 20 1022 100 4500 2.57 180 11:32 19.10.2021
5855 Drizzle 20 1026 97 7000 3.09 150 10:23 19.10.2021
5856 Clouds 20 1025 94 10000 3.6 140 08:58 19.10.2021
5857 Clouds 20 1026 97 10000 5.14 130 06:50 19.10.2021
5858 Rain 20 1021 97 4500 4.12 150 00:24 19.10.2021
5859 Mist 20 1020 96 4000 4.12 160 23:50 18.10.2021
5860 Mist 20 1020 96 4500 4.63 160 23:20 18.10.2021
5861 Mist 20 1019 96 4500 3.6 170 22:53 18.10.2021
5862 Rain 21 1019 94 4500 6.17 180 21:44 18.10.2021
5863 Mist 21 1019 90 4500 4.63 160 20:42 18.10.2021
5864 Mist 21 1015 87 4500 4.63 160 20:18 18.10.2021
5865 Clouds 21 1014 84 9000 4.63 170 19:30 18.10.2021
5866 Clouds 22 1015 77 9000 4.12 180 18:57 18.10.2021
5867 Mist 22 1021 85 7000 3.09 170 15:45 18.10.2021
5868 Mist 21 1021 91 7000 2.06 170 14:26 18.10.2021
5869 Clouds 21 1021 94 8000 2.57 180 10:55 18.10.2021
5870 Clouds 22 1024 94 6000 2.06 140 09:31 18.10.2021
5871 Clouds 22 1026 96 7000 1.54 10 05:32 18.10.2021
5872 Clouds 21 1021 89 8000 4.12 160 23:45 17.10.2021
5873 Clouds 22 1020 84 10000 5.66 170 21:58 17.10.2021
5874 Clouds 22 1020 84 10000 5.66 170 21:40 17.10.2021
5875 Clouds 23 1020 81 10000 4.63 180 20:42 17.10.2021
5876 Clouds 23 1021 79 10000 4.63 170 19:43 17.10.2021
5877 Clouds 24 1021 79 10000 4.63 170 19:25 17.10.2021
5878 Clouds 24 1036 88 10000 1.78 243 18:28 17.10.2021
5879 Drizzle 22 1018 89 8000 4.12 190 15:56 17.10.2021
5880 Mist 22 1018 89 4500 1.54 130 14:35 17.10.2021
5881 Clouds 22 1018 88 8000 1.03 0 13:56 17.10.2021
5882 Clouds 22 1018 88 8000 1.03 0 13:30 17.10.2021
5883 Clouds 21 1016 94 10000 1.54 180 10:59 17.10.2021
5884 Clouds 21 1015 94 7000 3.6 320 09:56 17.10.2021
5885 Mist 21 1015 94 4000 3.09 280 07:42 17.10.2021
5886 Clouds 24 1016 80 10000 4.63 180 02:35 17.10.2021
5887 Clouds 23 1016 81 10000 2.57 210 00:29 17.10.2021
5888 Clouds 25 1014 72 10000 7.72 220 22:46 16.10.2021
5889 Clouds 28 1016 63 10000 8.75 210 20:36 16.10.2021
5890 Clouds 26 1016 73 10000 6.17 160 19:59 16.10.2021
5891 Clouds 26 1012 74 10000 6.17 160 19:40 16.10.2021
5892 Clouds 26 1012 74 10000 6.17 160 19:18 16.10.2021
5893 Clouds 28 1016 70 10000 2.57 180 18:44 16.10.2021
5894 Clouds 27 1018 75 10000 2.57 180 18:22 16.10.2021
5895 Clouds 27 1012 74 10000 1.54 10 17:31 16.10.2021
5896 Clouds 27 1016 77 10000 3.09 320 16:20 16.10.2021
5897 Clouds 25 1012 83 10000 4.63 360 13:26 16.10.2021
5898 Rain 24 1012 83 10000 4.12 340 11:24 16.10.2021
5899 Rain 24 1011 83 10000 4.63 270 08:58 16.10.2021
5900 Clouds 25 1010 81 10000 2.57 140 04:33 16.10.2021
5901 Rain 29 1008 62 10000 3.6 170 00:51 16.10.2021
5902 Clouds 30 1007 58 10000 4.63 180 23:27 15.10.2021
5903 Clouds 31 1007 51 10000 5.14 170 22:21 15.10.2021
5904 Clouds 33 1006 44 10000 4.63 180 21:41 15.10.2021
5905 Clouds 33 1007 45 10000 4.12 140 20:54 15.10.2021
5906 Clouds 33 1007 45 10000 4.12 140 20:35 15.10.2021
5907 Clouds 33 1007 47 10000 2.06 120 19:20 15.10.2021
5908 Clouds 34 1008 44 10000 2.06 30 18:25 15.10.2021
5909 Clouds 30 1010 56 10000 3.09 330 16:19 15.10.2021
5910 Clear 28 1011 69 10000 2.57 360 14:26 15.10.2021
5911 Clear 24 945 76 10000 3.6 340 12:27 15.10.2021
5912 Clear 23 911 74 10000 3.6 330 11:20 15.10.2021
5913 Clouds 23 854 67 10000 1.54 20 10:32 15.10.2021
5914 Clouds 23 853 67 10000 2.06 50 08:36 15.10.2021
5915 Clouds 23 854 67 10000 1.54 90 05:31 15.10.2021
5916 Clear 26 1008 70 10000 4.12 180 00:25 15.10.2021
5917 Rain 26 1008 69 10000 5.14 190 23:34 14.10.2021
5918 Rain 26 1008 69 10000 5.14 190 23:34 14.10.2021
5919 Clear 28 1008 61 10000 5.66 200 22:40 14.10.2021
5920 Clear 29 1006 55 10000 6.69 180 21:41 14.10.2021
5921 Clear 30 1007 53 10000 6.17 190 20:22 14.10.2021
5922 Clear 30 1008 53 10000 6.17 170 19:50 14.10.2021
5923 Clear 30 1009 52 10000 5.66 160 18:45 14.10.2021
5924 Clear 30 1010 54 10000 4.12 160 17:25 14.10.2021
5925 Clear 29 1010 59 10000 1.54 100 16:46 14.10.2021
5926 Clear 27 1011 61 10000 1.54 330 15:22 14.10.2021
5927 Clear 25 1012 71 10000 2.57 340 14:40 14.10.2021
5928 Clear 23 947 69 10000 2.57 20 13:35 14.10.2021
5929 Clouds 21 933 80 10000 2.06 360 11:43 14.10.2021
5930 Clear 21 900 75 10000 3.09 110 09:50 14.10.2021
5931 Clouds 22 702 46 10000 1.7 43 06:47 14.10.2021
5932 Clouds 22 702 46 10000 3.63 89 00:54 14.10.2021
5933 Clouds 24 946 66 10000 5.14 200 22:51 13.10.2021
5934 Clouds 25 945 62 10000 7.72 130 21:41 13.10.2021
5935 Clouds 26 1011 67 10000 6.17 140 20:46 13.10.2021
5936 Clouds 27 1011 60 10000 5.66 150 19:48 13.10.2021
5937 Clouds 27 1012 60 10000 4.63 160 18:49 13.10.2021
5938 Clouds 27 1013 61 10000 6.69 160 17:36 13.10.2021
5939 Clouds 24 1014 69 10000 3.6 140 15:24 13.10.2021
5940 Clouds 23 1015 75 10000 3.09 150 14:44 13.10.2021
5941 Clouds 22 948 75 10000 1.54 40 12:55 13.10.2021
5942 Clouds 20 934 77 10000 1.54 60 11:55 13.10.2021
5943 Clouds 20 1015 91 8000 2.06 60 10:39 13.10.2021
5944 Clouds 20 1014 89 10000 1.54 130 07:58 13.10.2021
5945 Clouds 20 1014 86 10000 2.06 100 06:33 13.10.2021
5946 Clear 21 1016 80 10000 3.6 70 02:24 13.10.2021
5947 Clouds 22 1015 75 10000 4.63 100 00:18 13.10.2021
5948 Clouds 22 1015 74 10000 9.26 90 23:29 12.10.2021
5949 Clouds 23 1014 73 10000 5.14 70 22:44 12.10.2021
5950 Clouds 23 948 63 10000 6.69 70 21:30 12.10.2021
5951 Clouds 24 1015 66 10000 5.66 70 20:34 12.10.2021
5952 Clouds 24 1015 66 10000 5.14 50 19:52 12.10.2021
5953 Clouds 24 1016 66 10000 4.63 80 18:27 12.10.2021
5954 Clouds 23 936 65 10000 6.17 40 17:44 12.10.2021
5955 Clouds 23 1017 72 10000 7.2 70 16:38 12.10.2021
5956 Clouds 22 1018 77 10000 5.14 50 15:46 12.10.2021
5957 Clouds 21 1018 81 10000 1.03 0 14:39 12.10.2021
5958 Clouds 20 1018 85 10000 1.54 40 13:43 12.10.2021
5959 Rain 19 1017 92 10000 2.06 90 11:37 12.10.2021
5960 Rain 18 1016 94 7000 2.06 130 09:42 12.10.2021
5961 Rain 18 1016 94 10000 3.09 140 08:42 12.10.2021
5962 Rain 18 1016 94 10000 3.09 140 08:42 12.10.2021
5963 Clouds 19 1017 91 10000 2.57 120 06:56 12.10.2021
5964 Rain 19 1017 88 10000 4.12 90 05:29 12.10.2021
5965 Rain 19 1018 88 10000 2.06 100 04:32 12.10.2021
5966 Rain 20 1017 88 8000 4.63 110 00:28 12.10.2021
5967 Rain 20 1017 89 10000 4.12 150 23:40 11.10.2021
5968 Rain 20 1017 89 8000 6.17 150 22:57 11.10.2021
5969 Rain 21 949 79 8000 3.6 120 21:46 11.10.2021
5970 Rain 21 949 80 10000 4.12 80 20:39 11.10.2021
5971 Rain 21 1016 88 6000 5.66 80 19:44 11.10.2021
5972 Rain 21 1017 91 6000 4.12 90 18:37 11.10.2021
5973 Rain 21 1018 91 7000 4.63 100 17:46 11.10.2021
5974 Rain 21 1018 88 7000 3.09 90 16:31 11.10.2021
5975 Mist 20 1018 93 5000 1.03 150 15:50 11.10.2021
5976 Rain 20 1019 89 5000 3.09 170 14:55 11.10.2021
5977 Rain 20 1019 89 5000 3.09 170 14:30 11.10.2021
5978 Rain 20 1018 92 5000 1.03 120 13:36 11.10.2021
5979 Mist 19 1018 94 5000 1.03 150 11:39 11.10.2021
5980 Rain 19 1017 94 4000 3.6 50 10:34 11.10.2021
5981 Rain 19 1016 94 5000 3.09 70 09:22 11.10.2021
5982 Rain 20 1017 91 7000 5.14 110 06:30 11.10.2021
5983 Rain 19 1017 94 5000 3.6 180 01:38 11.10.2021
5984 Clouds 20 1016 86 6000 4.12 120 00:46 11.10.2021
5985 Clouds 21 1016 86 6000 4.12 120 00:23 11.10.2021
5986 Mist 20 1015 94 5000 6.17 100 21:54 10.10.2021
5987 Mist 20 1015 94 5000 6.17 100 21:32 10.10.2021
5988 Mist 20 1015 92 4500 8.23 120 20:47 10.10.2021
5989 Mist 20 1015 92 4500 8.23 120 20:21 10.10.2021
5990 Mist 21 1015 91 4800 7.72 110 19:59 10.10.2021
5991 Mist 21 1015 91 4800 7.72 110 19:35 10.10.2021
5992 Mist 21 949 78 10000 7.2 120 18:35 10.10.2021
5993 Rain 22 1016 75 10000 3.09 190 16:46 10.10.2021
5994 Clouds 22 1016 79 10000 2.06 360 15:44 10.10.2021
5995 Clouds 19 1017 88 10000 4.63 30 13:57 10.10.2021
5996 Rain 19 1017 88 10000 4.63 30 13:33 10.10.2021
5997 Clouds 19 1016 91 10000 3.6 80 12:35 10.10.2021
5998 Rain 18 1017 94 4000 2.57 110 10:43 10.10.2021
5999 Rain 19 1016 91 4000 4.63 80 09:30 10.10.2021
6000 Rain 19 1016 85 10000 3.6 90 08:53 10.10.2021
6001 Clouds 19 1016 77 10000 4.12 120 07:28 10.10.2021
6002 Clouds 20 1018 86 6000 4.63 120 02:42 10.10.2021
6003 Mist 20 1017 77 4500 5.14 110 00:57 10.10.2021
6004 Rain 21 1016 75 9000 4.63 120 00:23 10.10.2021
6005 Rain 22 948 70 9000 4.63 70 22:52 09.10.2021
6006 Clouds 22 934 67 10000 3.6 130 21:45 09.10.2021
6007 Clouds 22 934 68 10000 3.6 130 21:26 09.10.2021
6008 Clouds 22 949 65 10000 5.14 170 19:44 09.10.2021
6009 Clouds 22 949 65 10000 5.14 170 19:19 09.10.2021
6010 Clouds 22 936 64 10000 6.17 160 18:33 09.10.2021
6011 Clouds 22 936 63 10000 2.06 140 16:43 09.10.2021
6012 Clouds 21 937 66 10000 1.03 350 15:33 09.10.2021
6013 Clouds 20 952 73 10000 1.54 360 13:44 09.10.2021
6014 Clouds 20 951 76 10000 1.54 20 12:40 09.10.2021
6015 Mist 19 1018 82 9000 2.57 40 11:48 09.10.2021
6016 Clouds 19 1018 82 10000 4.63 50 10:42 09.10.2021
6017 Clouds 20 904 64 10000 4.12 110 09:40 09.10.2021
6018 Clouds 21 904 63 10000 4.12 130 08:30 09.10.2021
6019 Clouds 21 904 62 10000 4.12 110 07:48 09.10.2021
6020 Clouds 21 904 62 10000 4.12 100 05:29 09.10.2021
6021 Clouds 21 937 64 10000 3.09 100 02:59 09.10.2021
6022 Clouds 21 937 64 10000 3.09 100 02:40 09.10.2021
6023 Clouds 21 949 66 10000 4.63 110 23:51 08.10.2021
6024 Clouds 22 949 63 10000 5.14 140 22:55 08.10.2021
6025 Clouds 22 949 63 10000 5.14 140 22:24 08.10.2021
6026 Clouds 22 949 63 10000 5.14 160 21:18 08.10.2021
6027 Clouds 23 950 60 10000 4.12 170 18:59 08.10.2021
6028 Clouds 22 950 66 9000 1.03 0 17:36 08.10.2021
6029 Clouds 21 951 74 7000 2.57 350 16:51 08.10.2021
6030 Clouds 21 951 74 7000 2.57 350 16:23 08.10.2021
6031 Mist 20 951 76 5000 4.63 130 13:58 08.10.2021
6032 Mist 20 951 76 5000 5.14 150 13:35 08.10.2021
6033 Clouds 20 915 73 8000 2.57 320 11:33 08.10.2021
6034 Clouds 20 856 64 6000 3.09 130 10:41 08.10.2021
6035 Clouds 20 857 64 6000 2.57 110 09:44 08.10.2021
6036 Mist 20 1017 90 4000 7.2 190 00:34 08.10.2021
6037 Rain 21 1015 89 4000 5.66 200 23:21 07.10.2021
6038 Rain 23 1014 77 6000 4.63 190 21:46 07.10.2021
6039 Rain 23 1014 77 6000 4.63 190 21:26 07.10.2021
6040 Rain 24 1013 74 10000 3.6 210 20:28 07.10.2021
6041 Clouds 24 947 65 10000 7.72 200 19:30 07.10.2021
6042 Clouds 25 1012 69 10000 5.14 190 18:24 07.10.2021
6043 Clouds 26 1012 66 10000 10.8 210 17:27 07.10.2021
6044 Clear 27 1011 67 10000 2.57 360 15:53 07.10.2021
6045 Clear 26 946 64 10000 3.6 10 14:21 07.10.2021
6046 Clouds 23 933 77 9000 4.63 30 13:38 07.10.2021
6047 Clouds 23 1011 90 9000 2.57 10 12:45 07.10.2021
6048 Clouds 21 1011 94 10000 3.09 10 10:56 07.10.2021
6049 Clouds 22 1021 97 10000 1.54 280 10:20 07.10.2021
6050 Clouds 22 1021 97 10000 1.54 320 09:34 07.10.2021
6051 Clouds 22 1012 88 10000 1.54 360 08:51 07.10.2021
6052 Clouds 22 1012 88 10000 2.06 10 07:56 07.10.2021
6053 Clouds 22 1012 88 10000 2.06 10 07:36 07.10.2021
6054 Clouds 22 1014 83 10000 4.12 200 03:54 07.10.2021
6055 Clouds 23 1013 80 10000 2.57 180 00:29 07.10.2021
6056 Clouds 24 1013 75 10000 5.14 130 22:51 06.10.2021
6057 Clouds 24 1013 75 10000 5.14 130 22:21 06.10.2021
6058 Clouds 25 1017 73 10000 6.69 130 20:40 06.10.2021
6059 Clouds 25 1017 73 10000 6.69 130 20:20 06.10.2021
6060 Clouds 25 1015 74 10000 3.6 140 18:42 06.10.2021
6061 Clouds 24 1018 76 8000 3.09 170 16:58 06.10.2021
6062 Clouds 23 1019 76 8000 1.03 150 15:31 06.10.2021
6063 Clouds 22 1024 89 8000 4.12 100 14:28 06.10.2021
6064 Clouds 22 1023 92 7000 3.09 120 13:23 06.10.2021
6065 Mist 21 1023 93 7000 3.6 120 12:44 06.10.2021
6066 Mist 21 1023 93 7000 3.6 120 12:22 06.10.2021
6067 Clouds 21 1027 97 7000 2.57 120 10:23 06.10.2021
6068 Mist 21 1027 97 3000 4.12 140 09:39 06.10.2021
6069 Clouds 21 1027 97 6000 3.09 150 08:52 06.10.2021
6070 Mist 21 1027 97 4000 2.57 130 07:53 06.10.2021
6071 Mist 21 1029 97 3000 2.06 110 05:27 06.10.2021
6072 Mist 21 1029 97 3000 2.06 110 05:27 06.10.2021
6073 Drizzle 20 1019 96 4000 5.14 150 01:23 06.10.2021
6074 Drizzle 21 1023 95 4500 4.63 160 00:18 06.10.2021
6075 Mist 20 1017 96 4500 5.14 160 23:45 05.10.2021
6076 Mist 20 1017 96 4500 5.14 160 23:27 05.10.2021
6077 Mist 21 1021 95 3500 6.69 180 22:28 05.10.2021
6078 Mist 20 1016 97 3500 7.2 180 21:50 05.10.2021
6079 Mist 22 1020 93 3500 7.2 180 20:49 05.10.2021
6080 Mist 22 1020 93 3500 7.2 180 20:25 05.10.2021
6081 Mist 22 1016 90 4000 7.72 180 19:50 05.10.2021
6082 Mist 22 1016 91 3000 7.2 180 19:18 05.10.2021
6083 Mist 22 1016 91 4500 5.66 160 17:23 05.10.2021
6084 Mist 23 1021 94 3000 5.14 180 15:22 05.10.2021
6085 Mist 23 1016 87 10000 1.54 360 13:43 05.10.2021
6086 Clouds 22 1016 92 10000 2.06 350 12:57 05.10.2021
6087 Clouds 22 1016 91 10000 2.06 340 12:32 05.10.2021
6088 Clouds 22 1014 91 10000 1.54 320 11:22 05.10.2021
6089 Clouds 22 1013 88 9000 2.06 250 10:21 05.10.2021
6090 Clouds 23 1015 83 9000 3.6 210 05:56 05.10.2021
6091 Rain 24 1013 84 9000 3.09 10 00:37 05.10.2021
6092 Clouds 24 1012 79 9000 6.69 170 22:49 04.10.2021
6093 Rain 27 1014 70 10000 13.89 190 20:51 04.10.2021
6094 Clear 30 1010 57 10000 4.63 130 18:47 04.10.2021
6095 Clear 30 1015 63 10000 3.09 10 16:55 04.10.2021
6096 Rain 29 1011 68 10000 2.57 10 15:32 04.10.2021
6097 Rain 27 1011 72 10000 2.06 30 14:44 04.10.2021
6098 Clear 25 1011 87 10000 3.09 10 13:58 04.10.2021
6099 Rain 26 1011 82 10000 3.09 10 13:31 04.10.2021
6100 Rain 23 1010 92 10000 3.09 310 12:38 04.10.2021
6101 Rain 23 1009 94 8000 3.6 310 11:33 04.10.2021
6102 Rain 23 1019 94 8000 4.63 120 10:44 04.10.2021
6103 Rain 23 1020 97 7000 2.06 30 09:33 04.10.2021
6104 Rain 22 1011 94 7000 3.6 330 07:53 04.10.2021
6105 Rain 22 1011 94 7000 2.06 10 06:42 04.10.2021
6106 Mist 25 1008 89 3000 6.69 290 22:48 03.10.2021
6107 Rain 28 1005 63 10000 8.23 180 21:52 03.10.2021
6108 Rain 29 1009 61 10000 8.23 190 21:29 03.10.2021
6109 Clear 29 1009 61 10000 7.72 170 20:44 03.10.2021
6110 Clear 30 1010 60 10000 7.2 170 19:42 03.10.2021
6111 Clear 30 1010 57 10000 5.14 150 18:29 03.10.2021
6112 Clear 30 1011 53 10000 2.06 340 17:36 03.10.2021
6113 Clear 26 1016 74 10000 5.14 160 14:50 03.10.2021
6114 Clear 25 1011 77 10000 5.14 160 14:29 03.10.2021
6115 Clear 25 1011 76 10000 1.03 0 13:35 03.10.2021
6116 Clouds 23 1011 90 10000 0 0 12:44 03.10.2021
6117 Clouds 23 1010 94 10000 3.09 50 11:19 03.10.2021
6118 Clouds 21 1012 94 10000 2.57 100 09:57 03.10.2021
6119 Clouds 22 1012 88 10000 0 0 05:25 03.10.2021
6120 Clouds 26 1014 68 10000 7.72 170 22:52 02.10.2021
6121 Clear 27 1013 65 10000 7.72 150 21:51 02.10.2021
6122 Clear 28 1012 63 10000 7.2 160 20:30 02.10.2021
6123 Clear 28 1013 64 10000 7.72 150 18:56 02.10.2021
6124 Clear 28 1013 63 10000 7.72 150 18:20 02.10.2021
6125 Clear 29 1014 62 10000 6.17 150 17:37 02.10.2021
6126 Clear 29 1014 62 10000 4.63 150 16:39 02.10.2021
6127 Clouds 22 1009 94 7000 4.12 80 07:30 02.10.2021
6128 Clouds 25 1016 64 10000 3.09 40 15:37 30.09.2021
6129 Clouds 24 1016 73 10000 1.54 30 13:57 30.09.2021
6130 Clouds 23 1014 78 10000 1.03 300 11:54 30.09.2021
6131 Clouds 22 1014 83 10000 1.03 0 10:55 30.09.2021
6132 Clouds 21 1013 83 10000 2.57 260 10:25 30.09.2021
6133 Clouds 22 1014 83 10000 3.09 260 08:31 30.09.2021
6134 Clouds 22 1015 83 10000 3.09 260 07:35 30.09.2021
6135 Clouds 23 1015 78 10000 4.12 240 05:25 30.09.2021
6136 Clouds 24 1014 75 10000 4.12 200 02:19 30.09.2021
6137 Clouds 25 1013 67 10000 4.12 190 00:31 30.09.2021
6138 Clouds 26 1011 57 10000 6.69 190 22:41 29.09.2021
6139 Clear 28 1014 55 10000 5.14 150 21:28 29.09.2021
6140 Clear 30 1014 50 10000 5.14 180 20:30 29.09.2021
6141 Clear 29 1014 53 10000 7.2 190 19:56 29.09.2021
6142 Clear 29 1014 54 10000 7.2 190 19:18 29.09.2021
6143 Clouds 29 1016 54 9000 5.66 190 17:58 29.09.2021
6144 Clouds 28 1017 58 9000 6.17 180 16:55 29.09.2021
6145 Clouds 29 1017 58 9000 6.17 180 16:22 29.09.2021
6146 Clear 26 1013 73 10000 1.54 140 14:42 29.09.2021
6147 Clear 26 1012 73 10000 1.54 140 14:20 29.09.2021
6148 Clear 24 1012 81 10000 2.06 130 13:32 29.09.2021
6149 Clear 23 1011 89 10000 1.03 150 12:38 29.09.2021
6150 Clear 22 1016 91 10000 1.54 360 10:57 29.09.2021
6151 Clear 21 1010 94 10000 3.09 120 10:25 29.09.2021
6152 Clear 21 1010 94 10000 2.57 100 09:39 29.09.2021
6153 Clear 22 1011 88 10000 1.54 90 07:48 29.09.2021
6154 Clear 24 1013 78 10000 2.06 340 05:52 29.09.2021
6155 Clear 27 1016 67 10000 4.12 200 23:47 28.09.2021
6156 Clear 28 1015 61 10000 5.66 190 22:25 28.09.2021
6157 Clear 29 1015 60 10000 7.72 190 21:45 28.09.2021
6158 Clear 29 1016 59 10000 7.2 180 20:48 28.09.2021
6159 Clear 29 1016 61 10000 6.69 160 19:48 28.09.2021
6160 Clear 29 1016 61 10000 6.69 160 19:25 28.09.2021
6161 Clear 29 1017 58 10000 6.17 160 18:40 28.09.2021
6162 Clear 29 1019 60 10000 2.57 150 16:43 28.09.2021
6163 Clouds 26 1017 73 8000 2.57 320 14:53 28.09.2021
6164 Clouds 24 1017 84 8000 2.57 330 13:25 28.09.2021
6165 Mist 23 1021 89 8000 1.54 350 12:24 28.09.2021
6166 Mist 23 1022 92 8000 1.54 320 11:47 28.09.2021
6167 Mist 22 1016 91 8000 1.54 320 11:26 28.09.2021
6168 Mist 22 1016 88 4000 1.54 100 10:27 28.09.2021
6169 Clouds 22 1015 83 6000 2.57 90 09:29 28.09.2021
6170 Clouds 22 1016 83 6000 1.54 80 08:43 28.09.2021
6171 Clouds 22 1016 83 6000 1.54 80 08:18 28.09.2021
6172 Clouds 22 1017 78 6000 3.09 290 06:46 28.09.2021
6173 Clear 22 1023 88 10000 3.6 150 01:35 28.09.2021
6174 Clouds 23 1022 84 10000 3.6 160 00:30 28.09.2021
6175 Clouds 23 1022 81 10000 5.66 170 23:49 27.09.2021
6176 Clouds 23 1022 80 10000 5.66 170 23:24 27.09.2021
6177 Clouds 24 1021 75 10000 5.66 170 22:21 27.09.2021
6178 Clouds 25 1021 74 10000 5.66 150 21:38 27.09.2021
6179 Clouds 25 1022 76 10000 6.17 140 20:27 27.09.2021
6180 Clouds 26 1018 66 10000 5.66 150 19:37 27.09.2021
6181 Clouds 26 1018 65 10000 5.14 150 18:53 27.09.2021
6182 Clouds 26 1023 68 8000 4.63 160 17:41 27.09.2021
6183 Clouds 26 1023 68 8000 4.63 160 17:41 27.09.2021
6184 Clouds 26 1023 68 8000 4.63 160 17:21 27.09.2021
6185 Clouds 26 1024 69 8000 4.63 160 16:35 27.09.2021
6186 Clouds 25 1025 74 8000 4.63 130 15:39 27.09.2021
6187 Clouds 23 1020 83 8000 2.06 10 13:50 27.09.2021
6188 Clouds 22 1019 89 8000 1.54 340 12:26 27.09.2021
6189 Mist 21 1028 90 5000 1.03 30 10:51 27.09.2021
6190 Clouds 20 1017 88 6000 1.03 50 09:42 27.09.2021
6191 Clouds 22 1027 85 7000 1.54 110 07:57 27.09.2021
6192 Clear 22 1024 83 10000 2.57 150 04:51 27.09.2021
6193 Clear 23 1022 79 10000 5.14 170 00:21 27.09.2021
6194 Clear 24 1020 73 10000 7.72 180 22:18 26.09.2021
6195 Clear 24 1021 72 10000 6.69 170 21:30 26.09.2021
6196 Clear 25 1020 68 10000 6.69 160 20:38 26.09.2021
6197 Clear 26 1016 63 10000 7.72 150 19:59 26.09.2021
6198 Clear 26 1016 63 10000 7.72 150 19:26 26.09.2021
6199 Clear 26 1016 63 10000 7.72 150 19:26 26.09.2021
6200 Clear 26 1016 60 10000 5.66 150 18:45 26.09.2021
6201 Clear 26 1017 58 10000 6.69 180 17:49 26.09.2021
6202 Clear 26 1021 60 10000 6.69 180 17:20 26.09.2021
6203 Clear 26 1021 61 10000 6.17 160 16:28 26.09.2021
6204 Clear 25 1021 66 10000 5.14 180 15:56 26.09.2021
6205 Clouds 24 1017 73 10000 4.12 160 14:26 26.09.2021
6206 Clouds 22 1017 78 10000 0.51 140 13:44 26.09.2021
6207 Clouds 21 1017 90 10000 1.03 100 12:32 26.09.2021
6208 Clouds 21 1016 88 10000 2.06 80 11:58 26.09.2021
6209 Clouds 21 1016 88 10000 2.06 80 11:36 26.09.2021
6210 Clouds 21 1025 85 10000 2.06 10 09:52 26.09.2021
6211 Clouds 21 1015 78 10000 2.06 350 08:54 26.09.2021
6212 Rain 22 1016 76 10000 3.09 180 03:24 26.09.2021
6213 Clouds 23 1017 69 10000 4.12 200 00:20 26.09.2021
6214 Clear 24 1019 68 10000 4.12 180 23:22 25.09.2021
6215 Clouds 24 1018 64 10000 5.14 170 22:36 25.09.2021
6216 Clouds 26 1018 57 10000 5.66 180 21:55 25.09.2021
6217 Clouds 26 1018 57 10000 5.66 180 21:19 25.09.2021
6218 Clear 26 1018 56 10000 5.66 170 20:37 25.09.2021
6219 Clear 25 1016 57 10000 6.17 160 18:40 25.09.2021
6220 Clear 25 1017 59 10000 5.14 150 17:47 25.09.2021
6221 Clear 24 1022 63 10000 2.57 130 15:41 25.09.2021
6222 Clear 21 1018 79 10000 1.03 0 13:57 25.09.2021
6223 Clear 21 1018 79 10000 1.03 0 13:27 25.09.2021
6224 Clear 19 1017 85 10000 1.54 20 11:54 25.09.2021
6225 Clear 19 1017 82 10000 2.06 70 10:33 25.09.2021
6226 Clear 20 1027 80 10000 2.06 60 09:26 25.09.2021
6227 Clear 20 1027 78 10000 2.57 80 07:55 25.09.2021
6228 Clear 21 1028 74 10000 3.09 110 05:19 25.09.2021
6229 Clear 23 1020 61 10000 5.66 200 23:45 24.09.2021
6230 Clear 25 1019 54 10000 4.12 150 21:42 24.09.2021
6231 Clear 26 1019 50 10000 4.63 160 20:33 24.09.2021
6232 Clear 26 1019 49 10000 5.14 160 19:47 24.09.2021
6233 Clear 26 1020 44 10000 5.14 160 18:32 24.09.2021
6234 Clear 25 1023 47 10000 3.6 170 17:54 24.09.2021
6235 Clear 25 1023 47 10000 3.6 170 17:35 24.09.2021
6236 Clear 24 1024 48 10000 2.57 150 16:55 24.09.2021
6237 Clear 21 1021 66 10000 2.06 360 13:57 24.09.2021
6238 Clear 19 1020 80 10000 2.57 30 12:46 24.09.2021
6239 Clear 18 1020 80 10000 2.57 30 12:27 24.09.2021
6240 Clear 17 1020 82 10000 1.03 0 11:59 24.09.2021
6241 Clear 17 1020 82 10000 2.06 350 10:25 24.09.2021
6242 Clouds 18 1019 72 10000 4.12 80 08:29 24.09.2021
6243 Clouds 18 1019 72 10000 7.72 70 07:33 24.09.2021
6244 Clouds 19 1020 68 10000 7.2 80 06:44 24.09.2021
6245 Clear 20 1021 62 10000 2.57 90 04:54 24.09.2021
6246 Clouds 20 1021 61 10000 5.66 140 23:57 23.09.2021
6247 Clouds 20 1021 64 10000 6.17 160 22:22 23.09.2021
6248 Clouds 21 1020 60 10000 6.17 160 21:47 23.09.2021
6249 Clouds 22 1020 53 10000 6.69 150 20:33 23.09.2021
6250 Clouds 23 1021 48 10000 5.66 160 19:30 23.09.2021
6251 Clouds 23 1022 48 10000 4.63 160 17:46 23.09.2021
6252 Clouds 23 1023 41 10000 3.09 170 15:28 23.09.2021
6253 Clouds 22 1023 45 10000 1.03 0 14:59 23.09.2021
6254 Clouds 21 1023 52 10000 2.06 140 13:45 23.09.2021
6255 Clouds 21 1023 52 10000 2.06 140 13:19 23.09.2021
6256 Clouds 19 1022 66 10000 1.54 130 12:50 23.09.2021
6257 Clouds 19 1022 66 10000 1.54 130 12:22 23.09.2021
6258 Clouds 19 1021 68 10000 2.06 140 11:32 23.09.2021
6259 Clouds 18 1021 82 10000 2.06 330 10:25 23.09.2021
6260 Clouds 18 1020 82 10000 0 0 09:51 23.09.2021
6261 Clouds 18 1021 82 10000 1.54 320 07:54 23.09.2021
6262 Clouds 20 1022 66 10000 3.6 180 03:50 23.09.2021
6263 Clouds 20 1020 67 10000 3.6 180 23:24 22.09.2021
6264 Clouds 21 1019 63 10000 5.66 180 22:29 22.09.2021
6265 Clouds 22 1019 59 10000 6.69 200 21:55 22.09.2021
6266 Clouds 22 1019 59 10000 6.69 200 21:33 22.09.2021
6267 Clouds 22 1019 59 10000 5.14 170 20:52 22.09.2021
6268 Clouds 22 1019 69 10000 5.66 180 19:29 22.09.2021
6269 Clouds 21 1020 71 8000 6.69 190 18:39 22.09.2021
6270 Clouds 21 1020 60 10000 4.98 194 17:47 22.09.2021
6271 Clouds 22 1021 61 10000 5.24 199 16:37 22.09.2021
6272 Clouds 23 1020 49 10000 5.66 210 15:19 22.09.2021
6273 Clouds 21 1020 65 10000 5.14 220 13:48 22.09.2021
6274 Clouds 19 1017 80 7000 8.23 220 11:57 22.09.2021
6275 Clouds 19 1018 88 7000 8.23 230 10:45 22.09.2021
6276 Mist 20 1017 83 3000 11.83 210 09:24 22.09.2021
6277 Clouds 21 1016 73 8000 7.2 230 08:28 22.09.2021
6278 Mist 20 1017 88 5000 7.72 230 06:59 22.09.2021
6279 Clouds 22 1017 73 8000 8.23 210 05:56 22.09.2021
6280 Clouds 22 1017 73 8000 8.23 210 05:34 22.09.2021
6281 Clouds 22 1017 81 6000 5.66 240 03:50 22.09.2021
6282 Mist 22 1015 90 5000 5.66 220 00:22 22.09.2021
6283 Clouds 24 1012 79 8000 2.06 0 22:54 21.09.2021
6284 Clouds 24 1012 79 7000 7.2 240 21:36 21.09.2021
6285 Clear 27 1010 74 10000 7.46 230 20:26 21.09.2021
6286 Clear 31 1006 58 10000 8.23 170 19:22 21.09.2021
6287 Clear 32 1008 44 10000 4.08 222 17:36 21.09.2021
6288 Clear 31 1008 54 10000 2.57 150 16:38 21.09.2021
6289 Clear 30 1009 57 10000 3.09 140 15:44 21.09.2021
6290 Clear 28 1009 64 10000 3.6 340 14:58 21.09.2021
6291 Clear 26 1008 71 10000 5.14 360 13:56 21.09.2021
6292 Clear 26 1008 71 10000 5.14 360 13:36 21.09.2021
6293 Clear 25 1008 82 10000 5.14 350 12:36 21.09.2021
6294 Clear 21 1008 94 10000 1.54 130 10:32 21.09.2021
6295 Clear 22 1009 88 10000 1.03 120 08:29 21.09.2021
6296 Clear 22 1010 94 10000 3.6 70 07:18 21.09.2021
6297 Clear 26 1011 75 10000 2.57 170 00:48 21.09.2021
6298 Clear 28 1011 64 10000 6.17 200 22:37 20.09.2021
6299 Clear 28 1011 60 10000 7.72 200 21:41 20.09.2021
6300 Clear 29 1011 61 10000 6.17 170 20:55 20.09.2021
6301 Clouds 29 1012 60 10000 5.66 170 19:33 20.09.2021
6302 Clouds 29 1014 61 10000 3.6 150 17:52 20.09.2021
6303 Clouds 28 1015 63 10000 2.57 120 16:50 20.09.2021
6304 Clouds 27 1016 68 10000 2.57 340 15:57 20.09.2021
6305 Clouds 27 1016 68 10000 2.57 340 15:32 20.09.2021
6306 Clouds 26 1017 75 10000 1.54 0 14:25 20.09.2021
6307 Clouds 23 1017 92 8000 4.12 160 12:39 20.09.2021
6308 Clouds 23 1017 92 8000 4.12 160 12:20 20.09.2021
6309 Clouds 22 1015 94 7000 2.06 150 10:32 20.09.2021
6310 Clouds 23 1015 88 7000 2.57 140 09:44 20.09.2021
6311 Clouds 23 1015 88 7000 2.57 140 09:25 20.09.2021
6312 Clouds 23 1016 88 8000 3.09 140 08:31 20.09.2021
6313 Clouds 23 1017 87 8000 5.14 170 02:27 20.09.2021
6314 Clouds 24 1015 82 8000 5.66 160 22:46 19.09.2021
6315 Clouds 24 1015 78 8000 5.14 160 21:47 19.09.2021
6316 Clouds 25 1014 76 9000 5.14 160 20:58 19.09.2021
6317 Haze 25 1015 72 9000 5.66 150 19:41 19.09.2021
6318 Haze 26 1015 69 8000 3.6 140 18:42 19.09.2021
6319 Haze 27 1016 68 8000 3.09 340 17:23 19.09.2021
6320 Haze 25 1017 72 9000 2.06 130 16:32 19.09.2021
6321 Clouds 24 1017 78 10000 1.54 100 15:31 19.09.2021
6322 Clouds 24 1017 82 10000 1.03 90 14:48 19.09.2021
6323 Clouds 23 1016 89 10000 1.54 160 13:49 19.09.2021
6324 Mist 22 1015 90 9000 3.09 180 12:52 19.09.2021
6325 Mist 21 1014 97 8000 2.06 130 11:42 19.09.2021
6326 Mist 21 1014 97 8000 2.06 130 11:21 19.09.2021
6327 Clouds 21 1013 94 9000 1.54 110 09:50 19.09.2021
6328 Clouds 21 1013 94 9000 1.54 110 09:21 19.09.2021
6329 Clear 22 1014 83 10000 2.57 310 06:48 19.09.2021
6330 Clouds 22 1014 87 10000 5.14 160 00:40 19.09.2021
6331 Clouds 23 1013 85 10000 5.66 160 22:54 18.09.2021
6332 Clouds 23 1012 82 10000 7.72 160 21:40 18.09.2021
6333 Clouds 25 1011 75 10000 6.17 160 20:46 18.09.2021
6334 Clouds 26 1012 70 10000 7.72 160 19:42 18.09.2021
6335 Clouds 26 1012 70 10000 7.72 160 19:22 18.09.2021
6336 Clouds 26 1012 68 10000 7.2 160 18:52 18.09.2021
6337 Clouds 26 1012 68 10000 7.2 160 18:29 18.09.2021
6338 Clouds 25 1015 71 10000 3.09 140 16:34 18.09.2021
6339 Clouds 23 1016 85 10000 2.06 130 13:51 18.09.2021
6340 Clouds 23 1016 85 10000 2.06 130 13:31 18.09.2021
6341 Clouds 21 1016 94 10000 2.06 170 12:51 18.09.2021
6342 Clouds 20 1015 94 10000 2.57 170 11:59 18.09.2021
6343 Clouds 20 1015 94 10000 2.57 170 11:29 18.09.2021
6344 Clouds 19 1017 94 7000 2.57 200 10:22 18.09.2021
6345 Clouds 19 1018 94 7000 2.06 180 09:23 18.09.2021
6346 Clouds 20 1020 88 6000 2.57 120 08:24 18.09.2021
6347 Clouds 21 1020 85 10000 4.11 88 00:42 18.09.2021
6348 Clouds 21 1020 83 10000 4.48 95 23:53 17.09.2021
6349 Clouds 21 1020 83 10000 4.79 95 22:43 17.09.2021
6350 Clouds 22 1019 82 10000 4.99 100 22:21 17.09.2021
6351 Clouds 23 1019 72 10000 6.69 140 21:31 17.09.2021
6352 Clouds 23 1019 71 10000 6.17 130 19:30 17.09.2021
6353 Clouds 23 1021 66 10000 6.69 160 18:30 17.09.2021
6354 Clouds 23 1023 69 10000 4.12 160 16:34 17.09.2021
6355 Clouds 21 1024 77 10000 4.12 140 14:34 17.09.2021
6356 Clouds 20 1023 88 9000 5.14 130 11:48 17.09.2021
6357 Clouds 21 1023 83 7000 2.57 120 09:57 17.09.2021
6358 Clouds 21 1023 83 8000 2.06 100 07:42 17.09.2021
6359 Clouds 20 1024 88 7000 3.6 150 05:27 17.09.2021
6360 Mist 21 1024 93 5000 4.12 150 00:31 17.09.2021
6361 Mist 21 1022 96 2000 4.63 160 22:41 16.09.2021
6362 Mist 21 1022 96 2000 4.63 160 22:23 16.09.2021
6363 Mist 21 1022 96 2000 6.17 160 21:31 16.09.2021
6364 Mist 22 1022 92 4000 5.14 180 20:29 16.09.2021
6365 Clouds 23 1022 82 7000 5.14 170 18:46 16.09.2021
6366 Clouds 23 1022 82 7000 5.14 170 18:18 16.09.2021
6367 Mist 23 1024 87 6000 5.14 170 15:33 16.09.2021
6368 Clouds 22 1024 90 7000 4.12 180 14:49 16.09.2021
6369 Mist 22 1024 88 8000 3.09 170 13:33 16.09.2021
6370 Clouds 22 1023 90 8000 3.6 160 12:42 16.09.2021
6371 Clouds 21 1022 91 8000 4.12 170 11:46 16.09.2021
6372 Clouds 21 1022 91 8000 4.12 170 10:54 16.09.2021
6373 Clouds 22 1021 88 10000 5.14 170 10:21 16.09.2021
6374 Clouds 22 1020 94 10000 5.14 180 09:18 16.09.2021
6375 Clouds 23 1020 88 10000 6.17 170 07:48 16.09.2021
6376 Clouds 23 1021 88 10000 6.17 150 06:56 16.09.2021
6377 Clouds 23 1021 88 10000 6.17 150 06:37 16.09.2021
6378 Clouds 24 1021 83 10000 4.63 190 03:22 16.09.2021
6379 Clouds 24 1020 82 10000 6.69 180 00:49 16.09.2021
6380 Clouds 25 1019 81 8000 6.17 180 23:25 15.09.2021
6381 Clouds 25 1018 78 8000 7.72 190 22:26 15.09.2021
6382 Clouds 27 1018 73 8000 8.23 180 21:31 15.09.2021
6383 Clouds 27 1016 68 8000 9.26 180 20:34 15.09.2021
6384 Clouds 28 1016 64 8000 8.75 170 19:33 15.09.2021
6385 Clouds 28 1016 67 8000 7.72 170 18:41 15.09.2021
6386 Clouds 29 1016 58 8000 7.72 150 17:39 15.09.2021
6387 Clouds 29 1016 58 8000 7.72 150 17:39 15.09.2021
6388 Clear 30 1016 57 8000 3.09 20 16:29 15.09.2021
6389 Clear 30 1016 60 8000 3.6 350 15:22 15.09.2021
6390 Clear 28 1015 66 8000 3.09 340 14:41 15.09.2021
6391 Clear 26 1015 72 7000 2.57 360 13:45 15.09.2021
6392 Clear 26 1015 72 7000 2.57 360 13:27 15.09.2021
6393 Clear 24 1014 84 7000 3.6 360 12:33 15.09.2021
6394 Clouds 24 1013 91 8000 3.6 360 11:50 15.09.2021
6395 Clear 23 1013 91 8000 2.57 360 10:57 15.09.2021
6396 Clear 22 1012 88 10000 1.03 140 10:30 15.09.2021
6397 Clear 23 1012 83 10000 1.03 0 08:50 15.09.2021
6398 Clear 25 1014 73 10000 3.09 280 07:26 15.09.2021
6399 Clear 28 1009 63 10000 2.57 170 00:55 15.09.2021
6400 Clear 33 1007 45 10000 2.06 160 22:24 14.09.2021
6401 Clear 35 1007 36 10000 1.54 160 21:21 14.09.2021
6402 Clear 36 1007 37 10000 4.63 20 20:18 14.09.2021
6403 Clear 38 1008 27 10000 4.63 20 18:57 14.09.2021
6404 Clear 36 1009 35 10000 3.09 360 17:33 14.09.2021
6405 Clear 33 1010 48 10000 3.09 350 16:39 14.09.2021
6406 Clear 29 1010 65 10000 3.6 340 14:52 14.09.2021
6407 Clear 29 1010 65 10000 3.6 340 14:52 14.09.2021
6408 Clear 29 1010 65 10000 3.6 340 14:19 14.09.2021
6409 Clear 23 1009 94 10000 3.09 340 11:46 14.09.2021
6410 Clear 22 1009 94 10000 1.54 170 10:25 14.09.2021
6411 Clear 23 1009 88 10000 1.03 0 09:48 14.09.2021
6412 Clear 23 1009 88 10000 1.54 120 07:53 14.09.2021
6413 Clear 26 1010 83 10000 1.03 0 02:20 14.09.2021
6414 Clear 27 1009 75 10000 2.57 170 23:27 13.09.2021
6415 Clear 29 1009 68 10000 3.09 170 22:28 13.09.2021
6416 Clear 29 1009 66 10000 3.6 170 21:55 13.09.2021
6417 Clear 29 1009 66 10000 3.6 170 21:32 13.09.2021
6418 Clear 29 1011 65 10000 6.17 160 19:35 13.09.2021
6419 Clear 28 1012 67 10000 5.66 160 18:45 13.09.2021
6420 Clouds 28 1013 68 10000 5.14 160 17:28 13.09.2021
6421 Clouds 27 1014 72 10000 4.12 150 16:49 13.09.2021
6422 Clouds 25 1015 79 8000 2.06 320 14:45 13.09.2021
6423 Clouds 22 1015 94 8000 0.51 0 11:44 13.09.2021
6424 Clouds 21 1016 94 10000 2.06 150 10:41 13.09.2021
6425 Clouds 21 1017 94 10000 1.54 140 08:23 13.09.2021
6426 Clouds 23 1018 89 10000 2.57 170 00:34 13.09.2021
6427 Clouds 24 1017 82 10000 7.72 180 22:51 12.09.2021
6428 Clouds 24 1017 82 10000 7.72 180 22:22 12.09.2021
6429 Clouds 26 1017 73 10000 6.69 180 20:57 12.09.2021
6430 Clouds 26 1017 73 10000 6.69 180 20:19 12.09.2021
6431 Clouds 26 1017 71 10000 6.69 160 19:36 12.09.2021
6432 Clouds 26 1017 71 10000 6.69 160 19:18 12.09.2021
6433 Clouds 26 1018 70 10000 6.69 160 18:18 12.09.2021
6434 Clouds 25 1019 74 10000 3.6 150 15:56 12.09.2021
6435 Clouds 23 1020 83 10000 3.6 190 14:47 12.09.2021
6436 Clear 22 1018 92 10000 3.09 120 12:42 12.09.2021
6437 Rain 20 1017 94 10000 3.6 110 10:32 12.09.2021
6438 Rain 21 1017 88 8000 2.57 90 08:39 12.09.2021
6439 Thunderstorm 21 1020 94 4000 3.6 70 07:30 12.09.2021
6440 Clouds 22 1018 89 10000 3.6 160 00:47 12.09.2021
6441 Rain 23 1018 86 10000 3.6 170 22:58 11.09.2021
6442 Rain 23 1018 82 10000 3.6 180 21:39 11.09.2021
6443 Mist 24 1018 76 10000 3.6 140 19:39 11.09.2021
6444 Haze 25 1018 72 10000 2.06 90 18:28 11.09.2021
6445 Clouds 25 1019 74 10000 2.06 150 17:28 11.09.2021
6446 Clouds 23 1019 79 10000 3.09 170 15:36 11.09.2021
6447 Rain 22 1017 82 10000 2.06 150 13:25 11.09.2021
6448 Rain 21 1016 88 10000 4.12 140 11:44 11.09.2021
6449 Clouds 20 1015 94 8000 1.54 160 10:35 11.09.2021
6450 Clouds 22 1016 88 10000 1.03 120 08:54 11.09.2021
6451 Clouds 22 1016 83 10000 0 0 07:44 11.09.2021
6452 Clouds 22 1016 88 10000 2.57 140 04:23 11.09.2021
6453 Mist 24 1014 84 5000 4.12 160 22:47 10.09.2021
6454 Mist 24 1014 84 5000 4.12 160 22:18 10.09.2021
6455 Mist 24 1014 83 7000 4.12 140 21:40 10.09.2021
6456 Clouds 25 1014 80 8000 2.57 120 19:32 10.09.2021
6457 Mist 26 1015 77 8000 2.06 310 17:59 10.09.2021
6458 Mist 24 1015 84 8000 3.6 310 16:28 10.09.2021
6459 Mist 23 1014 91 6000 3.6 30 13:32 10.09.2021
6460 Mist 22 1014 94 5000 0.51 0 11:36 10.09.2021
6461 Clouds 22 1013 94 7000 1.54 330 08:27 10.09.2021
6462 Clouds 22 1014 94 7000 1.03 360 07:44 10.09.2021
6463 Clouds 24 1012 80 8000 3.6 140 00:41 10.09.2021
6464 Clouds 25 1009 75 9000 10.8 190 21:56 09.09.2021
6465 Clouds 27 1008 69 9000 9.26 190 20:48 09.09.2021
6466 Clouds 27 1008 69 9000 9.26 190 20:30 09.09.2021
6467 Clear 32 1009 51 9000 3.6 90 18:50 09.09.2021
6468 Clouds 30 1010 57 9000 3.6 320 17:51 09.09.2021
6469 Clouds 28 1011 63 9000 3.09 360 16:39 09.09.2021
6470 Clouds 27 1012 68 9000 4.63 10 15:26 09.09.2021
6471 Clear 23 1012 86 10000 4.12 50 12:34 09.09.2021
6472 Clouds 23 1011 86 10000 4.12 50 11:33 09.09.2021
6473 Clear 23 1010 78 10000 2.06 200 09:39 09.09.2021
6474 Clear 22 1010 88 10000 4.63 30 07:56 09.09.2021
6475 Clear 24 1010 73 10000 1.54 150 06:20 09.09.2021
6476 Clear 24 1009 76 10000 4.63 190 01:31 09.09.2021
6477 Clear 24 1009 76 10000 4.63 190 01:31 09.09.2021
6478 Clear 24 1009 76 10000 4.63 190 01:31 09.09.2021
6479 Clear 30 1008 55 10000 2.06 180 21:50 08.09.2021
6480 Clear 30 1009 54 10000 4.12 180 20:57 08.09.2021
6481 Clear 29 1010 57 10000 3.6 180 19:47 08.09.2021
6482 Clear 28 1011 58 10000 4.12 180 18:49 08.09.2021
6483 Clear 28 1011 58 10000 4.12 180 18:27 08.09.2021
6484 Clear 27 1013 61 10000 4.63 170 17:52 08.09.2021
6485 Clear 26 1014 64 10000 4.12 170 16:24 08.09.2021
6486 Clouds 23 1015 78 10000 1.54 80 13:53 08.09.2021
6487 Clouds 22 1015 83 10000 2.06 70 12:42 08.09.2021
6488 Clouds 22 1015 83 10000 2.06 70 12:24 08.09.2021
6489 Clouds 21 1014 88 10000 4.12 70 11:26 08.09.2021
6490 Clouds 19 1017 88 10000 2.06 20 10:32 08.09.2021
6491 Clouds 19 1016 88 10000 3.09 40 09:57 08.09.2021
6492 Clouds 21 1017 78 10000 3.09 70 07:55 08.09.2021
6493 Clouds 21 1017 78 10000 3.09 70 07:29 08.09.2021
6494 Clouds 23 1016 75 10000 3.09 130 00:33 08.09.2021
6495 Clouds 23 1016 76 10000 7.2 120 22:30 07.09.2021
6496 Clouds 24 1016 73 10000 8.23 120 21:38 07.09.2021
6497 Clouds 26 1016 63 10000 8.23 160 19:40 07.09.2021
6498 Clouds 27 1017 59 10000 7.2 160 18:39 07.09.2021
6499 Clouds 26 1018 59 10000 4.63 160 17:43 07.09.2021
6500 Clouds 25 1019 67 10000 4.12 130 15:57 07.09.2021
6501 Clouds 25 1019 67 10000 4.12 130 15:33 07.09.2021
6502 Clouds 24 1019 74 10000 4.63 120 14:38 07.09.2021
6503 Clouds 22 1018 85 10000 2.57 110 12:28 07.09.2021
6504 Clouds 22 1017 88 10000 3.6 130 11:33 07.09.2021
6505 Clouds 21 1017 88 7000 2.57 50 10:40 07.09.2021
6506 Clouds 22 1017 83 10000 2.57 110 08:18 07.09.2021
6507 Clouds 22 1018 83 10000 3.09 100 06:43 07.09.2021
6508 Clouds 22 1019 87 10000 4.63 170 02:43 07.09.2021
6509 Clouds 22 1019 87 10000 4.63 170 02:43 07.09.2021
6510 Clouds 22 1019 87 10000 4.63 170 02:25 07.09.2021
6511 Clouds 23 1017 84 10000 4.12 170 00:23 07.09.2021
6512 Clouds 23 1016 81 10000 5.14 170 23:31 06.09.2021
6513 Clouds 23 1016 81 9000 7.2 170 22:53 06.09.2021
6514 Clouds 23 1016 81 9000 7.2 170 22:28 06.09.2021
6515 Clouds 25 1015 71 10000 6.17 180 20:37 06.09.2021
6516 Clouds 26 1015 71 10000 5.66 190 19:22 06.09.2021
6517 Clouds 26 1015 71 10000 5.66 190 19:22 06.09.2021
6518 Clouds 26 1015 71 10000 5.66 190 19:22 06.09.2021
6519 Clouds 26 1016 73 8000 5.14 170 18:46 06.09.2021
6520 Clouds 26 1016 73 8000 5.14 170 18:18 06.09.2021
6521 Clouds 25 1017 76 7000 2.06 130 17:35 06.09.2021
6522 Haze 24 1018 84 7000 2.06 360 15:43 06.09.2021
6523 Mist 22 1017 92 7000 2.06 330 13:47 06.09.2021
6524 Mist 21 1016 91 6000 1.03 200 12:46 06.09.2021
6525 Clouds 20 1013 94 8000 2.06 10 10:44 06.09.2021
6526 Clouds 22 1013 83 10000 2.57 310 07:59 06.09.2021
6527 Clouds 22 1013 89 10000 4.63 180 04:44 06.09.2021
6528 Clouds 23 1011 78 10000 3.09 150 23:27 05.09.2021
6529 Clouds 24 1011 76 8000 3.6 180 22:46 05.09.2021
6530 Clouds 23 1012 77 8000 4.12 160 21:57 05.09.2021
6531 Clouds 23 1012 77 8000 4.12 160 21:29 05.09.2021
6532 Clouds 23 1014 84 8000 5.14 160 19:50 05.09.2021
6533 Clouds 23 1015 84 8000 5.66 160 18:41 05.09.2021
6534 Mist 23 1015 82 8000 6.17 170 17:29 05.09.2021
6535 Clouds 25 1016 75 8000 5.66 160 15:27 05.09.2021
6536 Clouds 24 1015 81 8000 1.03 0 13:54 05.09.2021
6537 Clouds 22 1013 91 10000 1.03 0 11:57 05.09.2021
6538 Clouds 22 1013 83 10000 2.06 70 10:48 05.09.2021
6539 Clouds 22 1013 83 10000 2.06 70 10:23 05.09.2021
6540 Clouds 22 1013 83 10000 2.06 70 10:23 05.09.2021
6541 Clouds 22 1013 83 10000 2.57 60 09:21 05.09.2021
6542 Clouds 23 1015 78 10000 1.03 310 07:43 05.09.2021
6543 Clouds 23 1015 73 10000 4.12 200 00:48 05.09.2021
6544 Clouds 23 1015 73 10000 4.12 200 00:22 05.09.2021
6545 Clear 23 1014 75 10000 5.14 200 23:32 04.09.2021
6546 Clear 25 1014 69 10000 6.69 190 22:35 04.09.2021
6547 Clear 26 1013 63 10000 6.69 190 21:55 04.09.2021
6548 Clouds 27 1013 61 10000 8.23 190 19:41 04.09.2021
6549 Clouds 28 1014 59 10000 7.72 190 18:39 04.09.2021
6550 Clear 28 1015 55 10000 5.66 180 15:54 04.09.2021
6551 Clear 23 1012 75 10000 3.09 340 12:48 04.09.2021
6552 Clear 22 1012 88 10000 3.6 350 11:19 04.09.2021
6553 Clear 21 1012 83 10000 1.54 50 08:58 04.09.2021
6554 Clear 24 1013 80 10000 2.57 320 04:50 04.09.2021
6555 Clear 26 1012 65 10000 2.57 190 00:24 04.09.2021
6556 Clear 26 1012 67 10000 4.12 190 23:31 03.09.2021
6557 Clouds 30 1011 47 10000 4.63 180 21:53 03.09.2021
6558 Clouds 30 1011 47 10000 4.63 180 21:33 03.09.2021
6559 Clear 32 1012 43 10000 4.63 110 20:42 03.09.2021
6560 Clear 32 1012 39 10000 2.57 50 19:49 03.09.2021
6561 Clear 30 1013 49 10000 2.06 100 18:59 03.09.2021
6562 Clear 30 1014 47 10000 2.06 20 17:42 03.09.2021
6563 Clear 28 1015 52 10000 2.06 330 16:25 03.09.2021
6564 Clear 25 1016 69 10000 2.57 330 14:47 03.09.2021
6565 Clear 20 1015 91 10000 2.06 330 11:57 03.09.2021
6566 Clear 18 1016 88 10000 1.54 40 10:26 03.09.2021
6567 Clear 19 1016 88 10000 2.57 40 08:44 03.09.2021
6568 Clear 20 1016 83 10000 2.06 110 07:39 03.09.2021
6569 Clear 24 1017 73 10000 1.03 80 01:39 03.09.2021
6570 Clouds 26 1016 60 10000 5.14 190 22:55 02.09.2021
6571 Clouds 27 1016 58 10000 5.14 180 21:25 02.09.2021
6572 Clouds 27 1017 55 10000 5.14 160 19:55 02.09.2021
6573 Clouds 26 1019 57 10000 5.14 160 17:31 02.09.2021
6574 Clouds 26 1019 57 10000 5.14 160 17:31 02.09.2021
6575 Clouds 26 1019 57 10000 5.14 160 17:30 02.09.2021
6576 Clear 24 1021 70 10000 1.03 0 15:49 02.09.2021
6577 Clouds 20 1021 90 10000 2.57 60 13:56 02.09.2021
6578 Clouds 19 1020 93 10000 3.09 20 12:36 02.09.2021
6579 Clouds 19 1020 94 10000 3.09 50 11:33 02.09.2021
6580 Clouds 18 1019 94 10000 1.54 10 09:39 02.09.2021
6581 Clouds 18 1020 94 10000 1.54 130 07:45 02.09.2021
6582 Clouds 18 1020 94 10000 2.57 140 06:58 02.09.2021
6583 Clouds 21 1021 81 10000 4.12 100 02:51 02.09.2021
6584 Clouds 21 1021 83 10000 2.57 140 01:55 02.09.2021
6585 Clouds 21 1021 88 10000 2.57 140 01:19 02.09.2021
6586 Clouds 22 1021 75 10000 5.14 140 23:35 01.09.2021
6587 Clouds 23 1020 73 10000 3.09 100 22:34 01.09.2021
6588 Clouds 24 1020 67 9000 5.66 140 21:34 01.09.2021
6589 Clouds 24 1020 65 10000 3.09 90 20:28 01.09.2021
6590 Clouds 25 1022 65 10000 6.17 100 18:29 01.09.2021
6591 Clouds 25 1023 68 10000 6.17 130 17:37 01.09.2021
6592 Clouds 24 1024 70 10000 5.66 140 16:46 01.09.2021
6593 Clouds 24 1024 74 10000 1.03 0 15:25 01.09.2021
6594 Clouds 20 1022 94 10000 3.09 140 11:50 01.09.2021
6595 Clouds 19 1023 94 8000 1.03 60 10:55 01.09.2021
6596 Clouds 19 1023 88 10000 2.57 100 08:46 01.09.2021
6597 Clouds 19 1023 94 10000 4.12 60 07:51 01.09.2021
6598 Clouds 20 1023 91 10000 6.69 130 01:48 01.09.2021
6599 Clouds 21 1023 81 10000 7.72 120 22:33 31.08.2021
6600 Mist 21 1023 87 10000 6.17 110 21:22 31.08.2021
6601 Clouds 23 1023 79 6000 7.2 100 19:45 31.08.2021
6602 Rain 23 1023 81 8000 8.23 130 18:28 31.08.2021
6603 Clouds 22 1024 85 8000 7.72 130 17:36 31.08.2021
6604 Clouds 21 1024 88 7000 4.12 130 16:52 31.08.2021
6605 Clouds 21 1024 88 7000 4.12 130 16:24 31.08.2021
6606 Clouds 21 1024 88 8000 1.54 110 13:20 31.08.2021
6607 Clouds 20 1022 91 10000 1.03 0 11:27 31.08.2021
6608 Clouds 19 1022 94 8000 2.57 130 10:52 31.08.2021
6609 Clouds 19 1022 94 8000 3.6 130 09:44 31.08.2021
6610 Clouds 19 1022 94 8000 2.57 130 08:38 31.08.2021
6611 Clouds 19 1023 94 6000 2.57 100 05:58 31.08.2021
6612 Clouds 22 1023 83 7000 5.14 100 02:39 31.08.2021
6613 Clouds 22 1022 86 7000 6.17 140 23:35 30.08.2021
6614 Clouds 23 1021 79 8000 6.69 160 21:43 30.08.2021
6615 Clouds 23 1021 77 10000 7.2 160 20:49 30.08.2021
6616 Clouds 23 1021 77 10000 7.2 160 20:19 30.08.2021
6617 Clouds 23 1021 75 10000 6.69 160 19:29 30.08.2021
6618 Clouds 23 1021 75 10000 6.69 160 19:29 30.08.2021
6619 Clouds 23 1022 78 10000 5.66 170 18:30 30.08.2021
6620 Clouds 22 1022 82 10000 3.09 160 17:44 30.08.2021
6621 Mist 21 1023 87 6000 2.57 150 16:20 30.08.2021
6622 Mist 21 1023 81 4000 6.69 140 15:23 30.08.2021
6623 Clouds 22 1022 88 10000 1.54 90 13:28 30.08.2021
6624 Clouds 21 1021 92 10000 2.57 60 12:24 30.08.2021
6625 Clouds 20 1020 94 10000 2.57 150 08:58 30.08.2021
6626 Clouds 22 1021 87 10000 3.6 190 22:27 29.08.2021
6627 Clouds 22 1020 82 10000 5.66 170 21:32 29.08.2021
6628 Mist 24 1020 75 10000 4.63 150 19:59 29.08.2021
6629 Mist 24 1020 75 10000 4.63 150 19:18 29.08.2021
6630 Clouds 25 1021 68 10000 3.6 140 17:42 29.08.2021
6631 Clouds 23 1023 76 10000 1.54 20 15:47 29.08.2021
6632 Clouds 22 1023 81 10000 1.54 60 14:18 29.08.2021
6633 Clouds 22 1022 83 9000 1.54 340 13:33 29.08.2021
6634 Clouds 21 1022 86 7000 1.54 340 12:31 29.08.2021
6635 Clouds 21 1021 86 6000 2.06 320 11:45 29.08.2021
6636 Clouds 21 1021 83 6000 2.57 300 10:52 29.08.2021
6637 Clouds 21 1021 83 6000 2.57 300 10:33 29.08.2021
6638 Clouds 21 1021 83 6000 2.06 270 09:54 29.08.2021
6639 Clouds 21 1022 83 6000